<?xml version='1.0' encoding='UTF-8'?><gpx version="1.1" creator="JPX - https://github.com/jenetics/jpx" xmlns="http://www.topografix.com/GPX/1/1"><trk><trkseg><trkpt lat="45.5199552" lon="10.3342843"><ele>165.0</ele><time>2026-04-18T11:17:54.406Z</time></trkpt><trkpt lat="45.5200268" lon="10.3342065"><ele>165.0</ele><time>2026-04-18T11:19:09.011Z</time></trkpt><trkpt lat="45.5201035" lon="10.334179"><ele>165.0</ele><time>2026-04-18T11:19:11.017Z</time></trkpt><trkpt lat="45.5202035" lon="10.3341693"><ele>165.0</ele><time>2026-04-18T11:19:13.01Z</time></trkpt><trkpt lat="45.5203207" lon="10.3341732"><ele>165.0</ele><time>2026-04-18T11:19:15.014Z</time></trkpt><trkpt lat="45.5204487" lon="10.3342008"><ele>167.4</ele><time>2026-04-18T11:19:17.011Z</time></trkpt><trkpt lat="45.520533" lon="10.3342227"><ele>169.8</ele><time>2026-04-18T11:19:18.014Z</time></trkpt><trkpt lat="45.5206218" lon="10.334254"><ele>172.2</ele><time>2026-04-18T11:19:19.013Z</time></trkpt><trkpt lat="45.5207087" lon="10.3342983"><ele>174.6</ele><time>2026-04-18T11:19:20.013Z</time></trkpt><trkpt lat="45.5207952" lon="10.3343517"><ele>177.0</ele><time>2026-04-18T11:19:21.012Z</time></trkpt><trkpt lat="45.5208773" lon="10.334414"><ele>177.0</ele><time>2026-04-18T11:19:22.01Z</time></trkpt><trkpt lat="45.5209583" lon="10.3344935"><ele>177.0</ele><time>2026-04-18T11:19:23.009Z</time></trkpt><trkpt lat="45.521046" lon="10.3345712"><ele>177.0</ele><time>2026-04-18T11:19:24.01Z</time></trkpt><trkpt lat="45.5211348" lon="10.3346468"><ele>177.0</ele><time>2026-04-18T11:19:25.01Z</time></trkpt><trkpt lat="45.5212262" lon="10.334714"><ele>177.0</ele><time>2026-04-18T11:19:26.011Z</time></trkpt><trkpt lat="45.5213227" lon="10.3347757"><ele>177.8</ele><time>2026-04-18T11:19:27.01Z</time></trkpt><trkpt lat="45.5214207" lon="10.3348267"><ele>178.6</ele><time>2026-04-18T11:19:28.009Z</time></trkpt><trkpt lat="45.5215173" lon="10.3348765"><ele>179.4</ele><time>2026-04-18T11:19:29.009Z</time></trkpt><trkpt lat="45.5216157" lon="10.3349257"><ele>180.20000000000002</ele><time>2026-04-18T11:19:30.008Z</time></trkpt><trkpt lat="45.5217107" lon="10.3349807"><ele>181.0</ele><time>2026-04-18T11:19:31.007Z</time></trkpt><trkpt lat="45.521805" lon="10.3350392"><ele>181.0</ele><time>2026-04-18T11:19:32.007Z</time></trkpt><trkpt lat="45.5218983" lon="10.3351018"><ele>181.0</ele><time>2026-04-18T11:19:33.007Z</time></trkpt><trkpt lat="45.521997" lon="10.3351545"><ele>181.0</ele><time>2026-04-18T11:19:34.008Z</time></trkpt><trkpt lat="45.5220983" lon="10.335189"><ele>181.0</ele><time>2026-04-18T11:19:35.009Z</time></trkpt><trkpt lat="45.522201" lon="10.3351933"><ele>181.0</ele><time>2026-04-18T11:19:36.009Z</time></trkpt><trkpt lat="45.5223018" lon="10.3351933"><ele>184.0</ele><time>2026-04-18T11:19:37.009Z</time></trkpt><trkpt lat="45.5224027" lon="10.3351947"><ele>187.0</ele><time>2026-04-18T11:19:38.009Z</time></trkpt><trkpt lat="45.5225022" lon="10.335206"><ele>190.0</ele><time>2026-04-18T11:19:39.017Z</time></trkpt><trkpt lat="45.5226015" lon="10.3352293"><ele>193.0</ele><time>2026-04-18T11:19:40.011Z</time></trkpt><trkpt lat="45.5226937" lon="10.3352743"><ele>196.0</ele><time>2026-04-18T11:19:41.013Z</time></trkpt><trkpt lat="45.5227918" lon="10.335326"><ele>196.0</ele><time>2026-04-18T11:19:42.012Z</time></trkpt><trkpt lat="45.5228972" lon="10.3353645"><ele>196.0</ele><time>2026-04-18T11:19:43.01Z</time></trkpt><trkpt lat="45.5229955" lon="10.3353745"><ele>196.0</ele><time>2026-04-18T11:19:44.009Z</time></trkpt><trkpt lat="45.5230927" lon="10.3353995"><ele>196.0</ele><time>2026-04-18T11:19:45.01Z</time></trkpt><trkpt lat="45.5231977" lon="10.3354395"><ele>196.0</ele><time>2026-04-18T11:19:46.011Z</time></trkpt><trkpt lat="45.5232843" lon="10.335481"><ele>199.49999999999997</ele><time>2026-04-18T11:19:47.01Z</time></trkpt><trkpt lat="45.5233638" lon="10.335513"><ele>203.0</ele><time>2026-04-18T11:19:48.01Z</time></trkpt><trkpt lat="45.5234485" lon="10.3355133"><ele>206.5</ele><time>2026-04-18T11:19:49.01Z</time></trkpt><trkpt lat="45.5235317" lon="10.335501"><ele>210.0</ele><time>2026-04-18T11:19:50.01Z</time></trkpt><trkpt lat="45.5236207" lon="10.3354842"><ele>213.49999999999997</ele><time>2026-04-18T11:19:51.011Z</time></trkpt><trkpt lat="45.5237147" lon="10.3354673"><ele>217.0</ele><time>2026-04-18T11:19:52.008Z</time></trkpt><trkpt lat="45.5237953" lon="10.3354507"><ele>220.2</ele><time>2026-04-18T11:19:53.008Z</time></trkpt><trkpt lat="45.5238845" lon="10.3354332"><ele>223.39999999999998</ele><time>2026-04-18T11:19:54.01Z</time></trkpt><trkpt lat="45.5239798" lon="10.3354123"><ele>226.60000000000002</ele><time>2026-04-18T11:19:55.008Z</time></trkpt><trkpt lat="45.5240708" lon="10.3353923"><ele>229.8</ele><time>2026-04-18T11:19:56.007Z</time></trkpt><trkpt lat="45.5241605" lon="10.3353777"><ele>233.0</ele><time>2026-04-18T11:19:57.008Z</time></trkpt><trkpt lat="45.524249" lon="10.3353723"><ele>233.0</ele><time>2026-04-18T11:19:58.009Z</time></trkpt><trkpt lat="45.5243467" lon="10.3353713"><ele>233.0</ele><time>2026-04-18T11:19:59.011Z</time></trkpt><trkpt lat="45.5244435" lon="10.335388"><ele>233.0</ele><time>2026-04-18T11:20:00.014Z</time></trkpt><trkpt lat="45.5245382" lon="10.3354193"><ele>233.0</ele><time>2026-04-18T11:20:01.012Z</time></trkpt><trkpt lat="45.5246427" lon="10.335455"><ele>233.0</ele><time>2026-04-18T11:20:02.01Z</time></trkpt><trkpt lat="45.5247463" lon="10.3354763"><ele>233.75</ele><time>2026-04-18T11:20:03.009Z</time></trkpt><trkpt lat="45.5248608" lon="10.335503"><ele>234.5</ele><time>2026-04-18T11:20:04.008Z</time></trkpt><trkpt lat="45.5249728" lon="10.3355278"><ele>235.25</ele><time>2026-04-18T11:20:05.009Z</time></trkpt><trkpt lat="45.5250823" lon="10.3355492"><ele>236.0</ele><time>2026-04-18T11:20:06.012Z</time></trkpt><trkpt lat="45.5251987" lon="10.33556"><ele>236.0</ele><time>2026-04-18T11:20:07.008Z</time></trkpt><trkpt lat="45.5253193" lon="10.3355622"><ele>236.0</ele><time>2026-04-18T11:20:08.01Z</time></trkpt><trkpt lat="45.5254477" lon="10.3355668"><ele>236.0</ele><time>2026-04-18T11:20:09.01Z</time></trkpt><trkpt lat="45.5255738" lon="10.3355727"><ele>236.0</ele><time>2026-04-18T11:20:10.01Z</time></trkpt><trkpt lat="45.5256948" lon="10.3355848"><ele>239.0</ele><time>2026-04-18T11:20:11.007Z</time></trkpt><trkpt lat="45.5258138" lon="10.3355913"><ele>242.0</ele><time>2026-04-18T11:20:12.009Z</time></trkpt><trkpt lat="45.5259288" lon="10.335596"><ele>245.0</ele><time>2026-04-18T11:20:13.009Z</time></trkpt><trkpt lat="45.526048" lon="10.3355985"><ele>248.0</ele><time>2026-04-18T11:20:14.01Z</time></trkpt><trkpt lat="45.5261722" lon="10.335614"><ele>249.75</ele><time>2026-04-18T11:20:15.01Z</time></trkpt><trkpt lat="45.5262942" lon="10.3356438"><ele>251.5</ele><time>2026-04-18T11:20:16.01Z</time></trkpt><trkpt lat="45.526417" lon="10.3356798"><ele>253.25</ele><time>2026-04-18T11:20:17.011Z</time></trkpt><trkpt lat="45.5265403" lon="10.3357057"><ele>255.0</ele><time>2026-04-18T11:20:18.01Z</time></trkpt><trkpt lat="45.5266652" lon="10.3357367"><ele>255.0</ele><time>2026-04-18T11:20:19.009Z</time></trkpt><trkpt lat="45.5267875" lon="10.3357802"><ele>255.0</ele><time>2026-04-18T11:20:20.008Z</time></trkpt><trkpt lat="45.5269112" lon="10.335847"><ele>255.0</ele><time>2026-04-18T11:20:21.009Z</time></trkpt><trkpt lat="45.527032" lon="10.3359208"><ele>255.0</ele><time>2026-04-18T11:20:22.009Z</time></trkpt><trkpt lat="45.5271512" lon="10.3359955"><ele>257.5</ele><time>2026-04-18T11:20:23.01Z</time></trkpt><trkpt lat="45.5272675" lon="10.336071"><ele>260.0</ele><time>2026-04-18T11:20:24.011Z</time></trkpt><trkpt lat="45.5273923" lon="10.3361332"><ele>262.5</ele><time>2026-04-18T11:20:25.01Z</time></trkpt><trkpt lat="45.5275253" lon="10.3361815"><ele>265.0</ele><time>2026-04-18T11:20:26.013Z</time></trkpt><trkpt lat="45.527659" lon="10.3362148"><ele>265.0</ele><time>2026-04-18T11:20:27.014Z</time></trkpt><trkpt lat="45.5277873" lon="10.336252"><ele>265.0</ele><time>2026-04-18T11:20:28.014Z</time></trkpt><trkpt lat="45.5279122" lon="10.3362857"><ele>265.0</ele><time>2026-04-18T11:20:29.014Z</time></trkpt><trkpt lat="45.5280378" lon="10.3363483"><ele>265.0</ele><time>2026-04-18T11:20:30.013Z</time></trkpt><trkpt lat="45.5281592" lon="10.3364158"><ele>266.75</ele><time>2026-04-18T11:20:31.011Z</time></trkpt><trkpt lat="45.528282" lon="10.3364863"><ele>268.5</ele><time>2026-04-18T11:20:32.01Z</time></trkpt><trkpt lat="45.5284058" lon="10.3365543"><ele>270.25</ele><time>2026-04-18T11:20:33.012Z</time></trkpt><trkpt lat="45.5285287" lon="10.3366108"><ele>272.0</ele><time>2026-04-18T11:20:34.011Z</time></trkpt><trkpt lat="45.5286545" lon="10.3366553"><ele>274.5</ele><time>2026-04-18T11:20:35.011Z</time></trkpt><trkpt lat="45.5287703" lon="10.3366872"><ele>277.0</ele><time>2026-04-18T11:20:36.011Z</time></trkpt><trkpt lat="45.5288883" lon="10.336689"><ele>279.5</ele><time>2026-04-18T11:20:37.011Z</time></trkpt><trkpt lat="45.5290045" lon="10.3366833"><ele>282.0</ele><time>2026-04-18T11:20:38.011Z</time></trkpt><trkpt lat="45.5291227" lon="10.3366842"><ele>282.0</ele><time>2026-04-18T11:20:39.01Z</time></trkpt><trkpt lat="45.5292445" lon="10.3367013"><ele>282.0</ele><time>2026-04-18T11:20:40.012Z</time></trkpt><trkpt lat="45.5293797" lon="10.3367237"><ele>282.0</ele><time>2026-04-18T11:20:41.011Z</time></trkpt><trkpt lat="45.5295233" lon="10.336766"><ele>282.0</ele><time>2026-04-18T11:20:42.011Z</time></trkpt><trkpt lat="45.529663" lon="10.3367922"><ele>284.25</ele><time>2026-04-18T11:20:43.01Z</time></trkpt><trkpt lat="45.5298015" lon="10.336813"><ele>286.5</ele><time>2026-04-18T11:20:44.009Z</time></trkpt><trkpt lat="45.5299342" lon="10.336833"><ele>288.75</ele><time>2026-04-18T11:20:45.01Z</time></trkpt><trkpt lat="45.5300582" lon="10.336862"><ele>291.0</ele><time>2026-04-18T11:20:46.01Z</time></trkpt><trkpt lat="45.5301717" lon="10.3368813"><ele>291.0</ele><time>2026-04-18T11:20:47.008Z</time></trkpt><trkpt lat="45.5302777" lon="10.33688"><ele>291.0</ele><time>2026-04-18T11:20:48.013Z</time></trkpt><trkpt lat="45.5303875" lon="10.3368607"><ele>291.0</ele><time>2026-04-18T11:20:49.011Z</time></trkpt><trkpt lat="45.530487" lon="10.3368223"><ele>291.0</ele><time>2026-04-18T11:20:50.01Z</time></trkpt><trkpt lat="45.5305887" lon="10.3367727"><ele>291.0</ele><time>2026-04-18T11:20:51.011Z</time></trkpt><trkpt lat="45.530703" lon="10.3367332"><ele>292.25</ele><time>2026-04-18T11:20:52.012Z</time></trkpt><trkpt lat="45.5308218" lon="10.336685"><ele>293.5</ele><time>2026-04-18T11:20:53.01Z</time></trkpt><trkpt lat="45.5309385" lon="10.3366545"><ele>294.75</ele><time>2026-04-18T11:20:54.011Z</time></trkpt><trkpt lat="45.5310565" lon="10.3366382"><ele>296.0</ele><time>2026-04-18T11:20:55.011Z</time></trkpt><trkpt lat="45.5311808" lon="10.3366192"><ele>297.0</ele><time>2026-04-18T11:20:56.009Z</time></trkpt><trkpt lat="45.5312992" lon="10.3366293"><ele>298.0</ele><time>2026-04-18T11:20:57.011Z</time></trkpt><trkpt lat="45.5314288" lon="10.3366433"><ele>299.0</ele><time>2026-04-18T11:20:58.014Z</time></trkpt><trkpt lat="45.5315605" lon="10.3366445"><ele>300.0</ele><time>2026-04-18T11:20:59.012Z</time></trkpt><trkpt lat="45.5316883" lon="10.3366383"><ele>300.0</ele><time>2026-04-18T11:21:00.012Z</time></trkpt><trkpt lat="45.5318093" lon="10.336633"><ele>300.0</ele><time>2026-04-18T11:21:01.013Z</time></trkpt><trkpt lat="45.5319317" lon="10.3366412"><ele>300.0</ele><time>2026-04-18T11:21:02.012Z</time></trkpt><trkpt lat="45.5320495" lon="10.3366557"><ele>300.0</ele><time>2026-04-18T11:21:03.012Z</time></trkpt><trkpt lat="45.5321653" lon="10.336655"><ele>300.2</ele><time>2026-04-18T11:21:04.014Z</time></trkpt><trkpt lat="45.5322778" lon="10.336646"><ele>300.4</ele><time>2026-04-18T11:21:05.016Z</time></trkpt><trkpt lat="45.5323875" lon="10.3366397"><ele>300.6</ele><time>2026-04-18T11:21:06.011Z</time></trkpt><trkpt lat="45.5324863" lon="10.3366237"><ele>300.8</ele><time>2026-04-18T11:21:07.015Z</time></trkpt><trkpt lat="45.5325902" lon="10.336585"><ele>301.0</ele><time>2026-04-18T11:21:08.014Z</time></trkpt><trkpt lat="45.5326812" lon="10.3365345"><ele>301.0</ele><time>2026-04-18T11:21:09.013Z</time></trkpt><trkpt lat="45.5327688" lon="10.3364783"><ele>301.0</ele><time>2026-04-18T11:21:10.012Z</time></trkpt><trkpt lat="45.5328438" lon="10.336434"><ele>301.0</ele><time>2026-04-18T11:21:11.01Z</time></trkpt><trkpt lat="45.5329073" lon="10.3363885"><ele>301.0</ele><time>2026-04-18T11:21:12.011Z</time></trkpt><trkpt lat="45.5329853" lon="10.3363097"><ele>301.0</ele><time>2026-04-18T11:21:14.012Z</time></trkpt><trkpt lat="45.5330447" lon="10.3361917"><ele>301.0</ele><time>2026-04-18T11:21:17.014Z</time></trkpt><trkpt lat="45.533106" lon="10.3360495"><ele>302.6</ele><time>2026-04-18T11:21:19.014Z</time></trkpt><trkpt lat="45.5331502" lon="10.3359655"><ele>304.20000000000005</ele><time>2026-04-18T11:21:20.012Z</time></trkpt><trkpt lat="45.5332065" lon="10.3358487"><ele>305.79999999999995</ele><time>2026-04-18T11:21:21.012Z</time></trkpt><trkpt lat="45.533283" lon="10.3357122"><ele>307.4</ele><time>2026-04-18T11:21:22.012Z</time></trkpt><trkpt lat="45.5333578" lon="10.335602"><ele>309.0</ele><time>2026-04-18T11:21:23.012Z</time></trkpt><trkpt lat="45.5334262" lon="10.3355252"><ele>310.3333333333333</ele><time>2026-04-18T11:21:24.013Z</time></trkpt><trkpt lat="45.5335045" lon="10.3354478"><ele>311.6666666666667</ele><time>2026-04-18T11:21:25.013Z</time></trkpt><trkpt lat="45.5335852" lon="10.3353788"><ele>313.0</ele><time>2026-04-18T11:21:26.015Z</time></trkpt><trkpt lat="45.5336372" lon="10.335311"><ele>314.33333333333337</ele><time>2026-04-18T11:21:27.012Z</time></trkpt><trkpt lat="45.5336747" lon="10.3352345"><ele>315.6666666666667</ele><time>2026-04-18T11:21:28.011Z</time></trkpt><trkpt lat="45.5337005" lon="10.3351405"><ele>317.0</ele><time>2026-04-18T11:21:29.01Z</time></trkpt><trkpt lat="45.5337528" lon="10.3350233"><ele>317.0</ele><time>2026-04-18T11:21:30.012Z</time></trkpt><trkpt lat="45.5338297" lon="10.3348965"><ele>317.0</ele><time>2026-04-18T11:21:31.014Z</time></trkpt><trkpt lat="45.5338927" lon="10.3347448"><ele>317.0</ele><time>2026-04-18T11:21:32.012Z</time></trkpt><trkpt lat="45.5339583" lon="10.3345943"><ele>317.0</ele><time>2026-04-18T11:21:33.012Z</time></trkpt><trkpt lat="45.5340345" lon="10.3344323"><ele>319.4</ele><time>2026-04-18T11:21:34.012Z</time></trkpt><trkpt lat="45.534114" lon="10.3343138"><ele>321.79999999999995</ele><time>2026-04-18T11:21:35.01Z</time></trkpt><trkpt lat="45.534202" lon="10.334222"><ele>324.2</ele><time>2026-04-18T11:21:36.01Z</time></trkpt><trkpt lat="45.5343012" lon="10.3341325"><ele>326.59999999999997</ele><time>2026-04-18T11:21:37.011Z</time></trkpt><trkpt lat="45.5343815" lon="10.3340567"><ele>329.0</ele><time>2026-04-18T11:21:38.011Z</time></trkpt><trkpt lat="45.5344413" lon="10.33396"><ele>328.83333333333337</ele><time>2026-04-18T11:21:39.014Z</time></trkpt><trkpt lat="45.5344882" lon="10.3338575"><ele>328.6666666666667</ele><time>2026-04-18T11:21:40.013Z</time></trkpt><trkpt lat="45.5345407" lon="10.3337855"><ele>328.5</ele><time>2026-04-18T11:21:41.014Z</time></trkpt><trkpt lat="45.5346075" lon="10.3337402"><ele>328.3333333333333</ele><time>2026-04-18T11:21:43.015Z</time></trkpt><trkpt lat="45.5346692" lon="10.3337872"><ele>328.16666666666663</ele><time>2026-04-18T11:21:45.013Z</time></trkpt><trkpt lat="45.5347312" lon="10.3338713"><ele>328.0</ele><time>2026-04-18T11:21:47.015Z</time></trkpt><trkpt lat="45.5348008" lon="10.333939"><ele>327.3333333333333</ele><time>2026-04-18T11:21:49.012Z</time></trkpt><trkpt lat="45.534846" lon="10.3340408"><ele>326.66666666666663</ele><time>2026-04-18T11:21:52.012Z</time></trkpt><trkpt lat="45.5348945" lon="10.3341097"><ele>326.0</ele><time>2026-04-18T11:21:55.011Z</time></trkpt><trkpt lat="45.534919" lon="10.334227"><ele>325.3333333333333</ele><time>2026-04-18T11:21:58.01Z</time></trkpt><trkpt lat="45.53492" lon="10.334332"><ele>324.6666666666667</ele><time>2026-04-18T11:22:01.022Z</time></trkpt><trkpt lat="45.5348742" lon="10.3344005"><ele>324.0</ele><time>2026-04-18T11:22:03.013Z</time></trkpt><trkpt lat="45.5347957" lon="10.3344452"><ele>324.0</ele><time>2026-04-18T11:22:06.012Z</time></trkpt><trkpt lat="45.5347972" lon="10.3345635"><ele>324.0</ele><time>2026-04-18T11:22:10.012Z</time></trkpt><trkpt lat="45.5348638" lon="10.3346592"><ele>324.0</ele><time>2026-04-18T11:22:12.013Z</time></trkpt><trkpt lat="45.5349468" lon="10.3347363"><ele>324.0</ele><time>2026-04-18T11:22:14.012Z</time></trkpt><trkpt lat="45.535007" lon="10.3347757"><ele>324.0</ele><time>2026-04-18T11:22:16.012Z</time></trkpt><trkpt lat="45.5350705" lon="10.3347748"><ele>324.0</ele><time>2026-04-18T11:22:18.013Z</time></trkpt><trkpt lat="45.5351185" lon="10.3348655"><ele>321.4</ele><time>2026-04-18T11:22:20.011Z</time></trkpt><trkpt lat="45.535229" lon="10.3349933"><ele>318.79999999999995</ele><time>2026-04-18T11:22:22.01Z</time></trkpt><trkpt lat="45.5352948" lon="10.3350523"><ele>316.20000000000005</ele><time>2026-04-18T11:22:23.012Z</time></trkpt><trkpt lat="45.5353565" lon="10.3350962"><ele>313.6</ele><time>2026-04-18T11:22:24.01Z</time></trkpt><trkpt lat="45.5354725" lon="10.335102"><ele>311.0</ele><time>2026-04-18T11:22:26.011Z</time></trkpt><trkpt lat="45.535543" lon="10.3350908"><ele>310.0</ele><time>2026-04-18T11:22:27.011Z</time></trkpt><trkpt lat="45.535634" lon="10.3351475"><ele>309.0</ele><time>2026-04-18T11:22:29.013Z</time></trkpt><trkpt lat="45.5357332" lon="10.3352268"><ele>308.0</ele><time>2026-04-18T11:22:31.013Z</time></trkpt><trkpt lat="45.5357963" lon="10.3352887"><ele>307.0</ele><time>2026-04-18T11:22:34.016Z</time></trkpt><trkpt lat="45.5358475" lon="10.3353753"><ele>306.0</ele><time>2026-04-18T11:22:38.015Z</time></trkpt><trkpt lat="45.5359102" lon="10.3354645"><ele>306.0</ele><time>2026-04-18T11:22:40.012Z</time></trkpt><trkpt lat="45.5359802" lon="10.3354617"><ele>306.0</ele><time>2026-04-18T11:22:43.014Z</time></trkpt><trkpt lat="45.5360222" lon="10.335529"><ele>306.0</ele><time>2026-04-18T11:22:56.014Z</time></trkpt><trkpt lat="45.536077" lon="10.3355817"><ele>306.0</ele><time>2026-04-18T11:23:22.015Z</time></trkpt><trkpt lat="45.536165" lon="10.3355552"><ele>306.0</ele><time>2026-04-18T11:23:24.02Z</time></trkpt><trkpt lat="45.536278" lon="10.3355607"><ele>306.0</ele><time>2026-04-18T11:23:26.014Z</time></trkpt><trkpt lat="45.5363872" lon="10.3356828"><ele>306.7142857142857</ele><time>2026-04-18T11:23:28.016Z</time></trkpt><trkpt lat="45.53644" lon="10.3357598"><ele>307.42857142857144</ele><time>2026-04-18T11:23:29.014Z</time></trkpt><trkpt lat="45.5364918" lon="10.335846"><ele>308.1428571428571</ele><time>2026-04-18T11:23:30.016Z</time></trkpt><trkpt lat="45.5365467" lon="10.3359262"><ele>308.8571428571429</ele><time>2026-04-18T11:23:31.015Z</time></trkpt><trkpt lat="45.536594" lon="10.335994"><ele>309.5714285714286</ele><time>2026-04-18T11:23:32.014Z</time></trkpt><trkpt lat="45.5366488" lon="10.3360533"><ele>310.2857142857143</ele><time>2026-04-18T11:23:33.013Z</time></trkpt><trkpt lat="45.5367032" lon="10.3361047"><ele>311.0</ele><time>2026-04-18T11:23:34.017Z</time></trkpt><trkpt lat="45.5367862" lon="10.336167"><ele>311.0</ele><time>2026-04-18T11:23:36.012Z</time></trkpt><trkpt lat="45.5368372" lon="10.336228"><ele>311.0</ele><time>2026-04-18T11:23:38.013Z</time></trkpt><trkpt lat="45.5368568" lon="10.3363467"><ele>311.0</ele><time>2026-04-18T11:23:41.014Z</time></trkpt><trkpt lat="45.5367987" lon="10.3364937"><ele>311.0</ele><time>2026-04-18T11:23:43.014Z</time></trkpt><trkpt lat="45.53676" lon="10.3366657"><ele>311.0</ele><time>2026-04-18T11:23:45.017Z</time></trkpt><trkpt lat="45.5367652" lon="10.3367965"><ele>313.20000000000005</ele><time>2026-04-18T11:23:46.017Z</time></trkpt><trkpt lat="45.5367683" lon="10.3369602"><ele>315.40000000000003</ele><time>2026-04-18T11:23:47.017Z</time></trkpt><trkpt lat="45.536773" lon="10.337107"><ele>317.6</ele><time>2026-04-18T11:23:48.016Z</time></trkpt><trkpt lat="45.5367918" lon="10.3372288"><ele>319.8</ele><time>2026-04-18T11:23:49.015Z</time></trkpt><trkpt lat="45.5368088" lon="10.3373568"><ele>322.0</ele><time>2026-04-18T11:23:50.014Z</time></trkpt><trkpt lat="45.5368165" lon="10.3375127"><ele>324.20000000000005</ele><time>2026-04-18T11:23:51.014Z</time></trkpt><trkpt lat="45.5368165" lon="10.3376605"><ele>326.4</ele><time>2026-04-18T11:23:52.014Z</time></trkpt><trkpt lat="45.5368253" lon="10.3377683"><ele>328.6</ele><time>2026-04-18T11:23:53.015Z</time></trkpt><trkpt lat="45.536852" lon="10.3378518"><ele>330.79999999999995</ele><time>2026-04-18T11:23:54.016Z</time></trkpt><trkpt lat="45.5369702" lon="10.3379292"><ele>333.0</ele><time>2026-04-18T11:23:56.015Z</time></trkpt><trkpt lat="45.5370518" lon="10.3379657"><ele>333.59999999999997</ele><time>2026-04-18T11:23:57.014Z</time></trkpt><trkpt lat="45.537129" lon="10.3380288"><ele>334.2</ele><time>2026-04-18T11:23:58.014Z</time></trkpt><trkpt lat="45.537219" lon="10.3381192"><ele>334.8</ele><time>2026-04-18T11:23:59.014Z</time></trkpt><trkpt lat="45.5373205" lon="10.338217"><ele>335.4</ele><time>2026-04-18T11:24:00.013Z</time></trkpt><trkpt lat="45.5374065" lon="10.3382953"><ele>336.0</ele><time>2026-04-18T11:24:01.018Z</time></trkpt><trkpt lat="45.5374795" lon="10.338354"><ele>340.0</ele><time>2026-04-18T11:24:02.014Z</time></trkpt><trkpt lat="45.5375545" lon="10.3383905"><ele>344.0</ele><time>2026-04-18T11:24:03.014Z</time></trkpt><trkpt lat="45.5376338" lon="10.3384255"><ele>348.0</ele><time>2026-04-18T11:24:04.015Z</time></trkpt><trkpt lat="45.5377147" lon="10.3385258"><ele>352.0</ele><time>2026-04-18T11:24:06.016Z</time></trkpt><trkpt lat="45.5377005" lon="10.338658"><ele>356.0</ele><time>2026-04-18T11:24:08.013Z</time></trkpt><trkpt lat="45.5376043" lon="10.3387337"><ele>356.0</ele><time>2026-04-18T11:24:10.014Z</time></trkpt><trkpt lat="45.5375315" lon="10.3387402"><ele>356.0</ele><time>2026-04-18T11:24:11.016Z</time></trkpt><trkpt lat="45.537456" lon="10.3387348"><ele>356.0</ele><time>2026-04-18T11:24:12.017Z</time></trkpt><trkpt lat="45.5373935" lon="10.3387493"><ele>356.0</ele><time>2026-04-18T11:24:13.018Z</time></trkpt><trkpt lat="45.5373227" lon="10.3387948"><ele>356.0</ele><time>2026-04-18T11:24:14.018Z</time></trkpt><trkpt lat="45.5372502" lon="10.3388637"><ele>356.0</ele><time>2026-04-18T11:24:15.017Z</time></trkpt><trkpt lat="45.5371772" lon="10.3389472"><ele>360.1666666666667</ele><time>2026-04-18T11:24:16.023Z</time></trkpt><trkpt lat="45.5371202" lon="10.3390353"><ele>364.33333333333337</ele><time>2026-04-18T11:24:17.014Z</time></trkpt><trkpt lat="45.5370975" lon="10.339124"><ele>368.5</ele><time>2026-04-18T11:24:18.016Z</time></trkpt><trkpt lat="45.5371322" lon="10.3392705"><ele>372.6666666666667</ele><time>2026-04-18T11:24:20.015Z</time></trkpt><trkpt lat="45.5371865" lon="10.339326"><ele>376.8333333333333</ele><time>2026-04-18T11:24:21.016Z</time></trkpt><trkpt lat="45.5372592" lon="10.339354"><ele>381.0</ele><time>2026-04-18T11:24:22.016Z</time></trkpt><trkpt lat="45.5373528" lon="10.3393653"><ele>381.0</ele><time>2026-04-18T11:24:23.019Z</time></trkpt><trkpt lat="45.5374698" lon="10.3393817"><ele>381.0</ele><time>2026-04-18T11:24:24.014Z</time></trkpt><trkpt lat="45.5375842" lon="10.339415"><ele>381.0</ele><time>2026-04-18T11:24:25.014Z</time></trkpt><trkpt lat="45.5376912" lon="10.3394753"><ele>381.0</ele><time>2026-04-18T11:24:26.014Z</time></trkpt><trkpt lat="45.5377792" lon="10.3395503"><ele>381.0</ele><time>2026-04-18T11:24:27.013Z</time></trkpt><trkpt lat="45.5378482" lon="10.3396368"><ele>381.0</ele><time>2026-04-18T11:24:28.015Z</time></trkpt><trkpt lat="45.5379182" lon="10.3397355"><ele>381.0</ele><time>2026-04-18T11:24:29.016Z</time></trkpt><trkpt lat="45.5379867" lon="10.3398475"><ele>381.0</ele><time>2026-04-18T11:24:30.015Z</time></trkpt><trkpt lat="45.5380433" lon="10.3399687"><ele>381.0</ele><time>2026-04-18T11:24:31.016Z</time></trkpt><trkpt lat="45.5380982" lon="10.3400945"><ele>383.5</ele><time>2026-04-18T11:24:32.014Z</time></trkpt><trkpt lat="45.5381405" lon="10.3401988"><ele>386.0</ele><time>2026-04-18T11:24:33.014Z</time></trkpt><trkpt lat="45.5381552" lon="10.3403343"><ele>388.5</ele><time>2026-04-18T11:24:35.016Z</time></trkpt><trkpt lat="45.5380535" lon="10.3403998"><ele>391.0</ele><time>2026-04-18T11:24:38.016Z</time></trkpt><trkpt lat="45.5379797" lon="10.3404"><ele>393.5</ele><time>2026-04-18T11:24:39.02Z</time></trkpt><trkpt lat="45.5379028" lon="10.3403978"><ele>396.0</ele><time>2026-04-18T11:24:40.018Z</time></trkpt><trkpt lat="45.5377995" lon="10.3404843"><ele>401.0</ele><time>2026-04-18T11:24:42.015Z</time></trkpt><trkpt lat="45.5377388" lon="10.3405632"><ele>406.0</ele><time>2026-04-18T11:24:43.015Z</time></trkpt><trkpt lat="45.537665" lon="10.340645"><ele>411.0</ele><time>2026-04-18T11:24:44.018Z</time></trkpt><trkpt lat="45.5375867" lon="10.340739"><ele>416.0</ele><time>2026-04-18T11:24:45.021Z</time></trkpt><trkpt lat="45.5375262" lon="10.3408335"><ele>421.0</ele><time>2026-04-18T11:24:46.019Z</time></trkpt><trkpt lat="45.5374683" lon="10.3409457"><ele>421.0</ele><time>2026-04-18T11:24:47.014Z</time></trkpt><trkpt lat="45.5374305" lon="10.3410345"><ele>421.0</ele><time>2026-04-18T11:24:48.014Z</time></trkpt><trkpt lat="45.5374543" lon="10.3411883"><ele>421.0</ele><time>2026-04-18T11:24:50.013Z</time></trkpt><trkpt lat="45.5375757" lon="10.341283"><ele>421.0</ele><time>2026-04-18T11:24:52.012Z</time></trkpt><trkpt lat="45.5376608" lon="10.3413543"><ele>421.0</ele><time>2026-04-18T11:24:53.014Z</time></trkpt><trkpt lat="45.5377495" lon="10.3414335"><ele>424.75</ele><time>2026-04-18T11:24:54.015Z</time></trkpt><trkpt lat="45.5378358" lon="10.3415197"><ele>428.5</ele><time>2026-04-18T11:24:55.014Z</time></trkpt><trkpt lat="45.5379278" lon="10.3416103"><ele>432.25</ele><time>2026-04-18T11:24:56.014Z</time></trkpt><trkpt lat="45.5380208" lon="10.3417102"><ele>436.0</ele><time>2026-04-18T11:24:57.017Z</time></trkpt><trkpt lat="45.538123" lon="10.3418103"><ele>436.0</ele><time>2026-04-18T11:24:58.016Z</time></trkpt><trkpt lat="45.5382107" lon="10.3419205"><ele>436.0</ele><time>2026-04-18T11:24:59.014Z</time></trkpt><trkpt lat="45.5382758" lon="10.3420313"><ele>436.0</ele><time>2026-04-18T11:25:00.016Z</time></trkpt><trkpt lat="45.5383317" lon="10.3421592"><ele>436.0</ele><time>2026-04-18T11:25:01.014Z</time></trkpt><trkpt lat="45.5383848" lon="10.3423013"><ele>436.0</ele><time>2026-04-18T11:25:02.015Z</time></trkpt><trkpt lat="45.538423" lon="10.3424567"><ele>438.8</ele><time>2026-04-18T11:25:03.014Z</time></trkpt><trkpt lat="45.5384502" lon="10.3426075"><ele>441.6</ele><time>2026-04-18T11:25:04.015Z</time></trkpt><trkpt lat="45.5384688" lon="10.3427445"><ele>444.4</ele><time>2026-04-18T11:25:05.014Z</time></trkpt><trkpt lat="45.5384852" lon="10.3428557"><ele>447.2</ele><time>2026-04-18T11:25:06.015Z</time></trkpt><trkpt lat="45.5385192" lon="10.3429763"><ele>450.0</ele><time>2026-04-18T11:25:07.015Z</time></trkpt><trkpt lat="45.5385612" lon="10.3431038"><ele>452.2</ele><time>2026-04-18T11:25:08.017Z</time></trkpt><trkpt lat="45.5385938" lon="10.343226"><ele>454.4</ele><time>2026-04-18T11:25:09.019Z</time></trkpt><trkpt lat="45.5386178" lon="10.3433465"><ele>456.6</ele><time>2026-04-18T11:25:10.016Z</time></trkpt><trkpt lat="45.5386262" lon="10.3434758"><ele>458.8</ele><time>2026-04-18T11:25:11.014Z</time></trkpt><trkpt lat="45.5386143" lon="10.3436042"><ele>461.0</ele><time>2026-04-18T11:25:12.018Z</time></trkpt><trkpt lat="45.538589" lon="10.3437257"><ele>461.0</ele><time>2026-04-18T11:25:13.015Z</time></trkpt><trkpt lat="45.5385452" lon="10.3438442"><ele>461.0</ele><time>2026-04-18T11:25:14.013Z</time></trkpt><trkpt lat="45.5384878" lon="10.3439597"><ele>461.0</ele><time>2026-04-18T11:25:15.015Z</time></trkpt><trkpt lat="45.5384272" lon="10.3440737"><ele>461.0</ele><time>2026-04-18T11:25:16.015Z</time></trkpt><trkpt lat="45.5383612" lon="10.3441887"><ele>461.0</ele><time>2026-04-18T11:25:17.014Z</time></trkpt><trkpt lat="45.5383023" lon="10.3442927"><ele>460.6</ele><time>2026-04-18T11:25:18.013Z</time></trkpt><trkpt lat="45.5382458" lon="10.3443895"><ele>460.20000000000005</ele><time>2026-04-18T11:25:19.014Z</time></trkpt><trkpt lat="45.538226" lon="10.3445225"><ele>459.79999999999995</ele><time>2026-04-18T11:25:21.013Z</time></trkpt><trkpt lat="45.5382877" lon="10.3446563"><ele>459.4</ele><time>2026-04-18T11:25:23.013Z</time></trkpt><trkpt lat="45.5383573" lon="10.3447352"><ele>459.0</ele><time>2026-04-18T11:25:24.014Z</time></trkpt><trkpt lat="45.5384395" lon="10.3448442"><ele>459.0</ele><time>2026-04-18T11:25:25.013Z</time></trkpt><trkpt lat="45.5385132" lon="10.3449603"><ele>459.0</ele><time>2026-04-18T11:25:26.012Z</time></trkpt><trkpt lat="45.5385913" lon="10.3450698"><ele>459.0</ele><time>2026-04-18T11:25:27.013Z</time></trkpt><trkpt lat="45.5386667" lon="10.345199"><ele>459.0</ele><time>2026-04-18T11:25:28.019Z</time></trkpt><trkpt lat="45.5387395" lon="10.3452992"><ele>459.0</ele><time>2026-04-18T11:25:29.015Z</time></trkpt><trkpt lat="45.538808" lon="10.3453832"><ele>457.0</ele><time>2026-04-18T11:25:30.015Z</time></trkpt><trkpt lat="45.5388758" lon="10.345464"><ele>455.0</ele><time>2026-04-18T11:25:31.014Z</time></trkpt><trkpt lat="45.5389368" lon="10.345547"><ele>453.0</ele><time>2026-04-18T11:25:32.014Z</time></trkpt><trkpt lat="45.5389932" lon="10.3456328"><ele>451.0</ele><time>2026-04-18T11:25:33.018Z</time></trkpt><trkpt lat="45.5390302" lon="10.345706"><ele>449.0</ele><time>2026-04-18T11:25:34.017Z</time></trkpt><trkpt lat="45.5390702" lon="10.3457985"><ele>447.0</ele><time>2026-04-18T11:25:35.013Z</time></trkpt><trkpt lat="45.5391112" lon="10.3458822"><ele>447.0</ele><time>2026-04-18T11:25:36.016Z</time></trkpt><trkpt lat="45.5391417" lon="10.3459863"><ele>447.0</ele><time>2026-04-18T11:25:37.017Z</time></trkpt><trkpt lat="45.539168" lon="10.3460753"><ele>447.0</ele><time>2026-04-18T11:25:38.014Z</time></trkpt><trkpt lat="45.5391935" lon="10.3461988"><ele>447.0</ele><time>2026-04-18T11:25:40.011Z</time></trkpt><trkpt lat="45.5392193" lon="10.3463288"><ele>447.0</ele><time>2026-04-18T11:25:42.013Z</time></trkpt><trkpt lat="45.5392315" lon="10.3464672"><ele>447.0</ele><time>2026-04-18T11:25:44.014Z</time></trkpt><trkpt lat="45.5392763" lon="10.3465333"><ele>447.0</ele><time>2026-04-18T11:25:49.013Z</time></trkpt><trkpt lat="45.5393213" lon="10.3466023"><ele>447.0</ele><time>2026-04-18T11:26:00.014Z</time></trkpt><trkpt lat="45.5393198" lon="10.3464853"><ele>447.0</ele><time>2026-04-18T11:26:09.014Z</time></trkpt><trkpt lat="45.539236" lon="10.346468"><ele>447.0</ele><time>2026-04-18T11:26:51.016Z</time></trkpt><trkpt lat="45.5391303" lon="10.3463922"><ele>447.0</ele><time>2026-04-18T11:26:53.013Z</time></trkpt><trkpt lat="45.5390682" lon="10.346371"><ele>447.0</ele><time>2026-04-18T11:26:54.015Z</time></trkpt><trkpt lat="45.5389728" lon="10.34637"><ele>448.8</ele><time>2026-04-18T11:26:56.015Z</time></trkpt><trkpt lat="45.5388517" lon="10.3464138"><ele>450.6</ele><time>2026-04-18T11:26:58.016Z</time></trkpt><trkpt lat="45.5387455" lon="10.3465193"><ele>452.40000000000003</ele><time>2026-04-18T11:27:00.016Z</time></trkpt><trkpt lat="45.5386992" lon="10.3465815"><ele>454.20000000000005</ele><time>2026-04-18T11:27:01.019Z</time></trkpt><trkpt lat="45.5386237" lon="10.3467103"><ele>456.0</ele><time>2026-04-18T11:27:03.037Z</time></trkpt><trkpt lat="45.5385593" lon="10.3467783"><ele>462.1666666666667</ele><time>2026-04-18T11:27:05.017Z</time></trkpt><trkpt lat="45.538469" lon="10.3467975"><ele>468.33333333333337</ele><time>2026-04-18T11:27:07.018Z</time></trkpt><trkpt lat="45.5384003" lon="10.3468237"><ele>474.5</ele><time>2026-04-18T11:27:09.018Z</time></trkpt><trkpt lat="45.5383423" lon="10.3468737"><ele>480.6666666666667</ele><time>2026-04-18T11:27:11.014Z</time></trkpt><trkpt lat="45.5382755" lon="10.3469058"><ele>486.83333333333337</ele><time>2026-04-18T11:27:13.016Z</time></trkpt><trkpt lat="45.5382023" lon="10.3469535"><ele>493.0</ele><time>2026-04-18T11:27:15.014Z</time></trkpt><trkpt lat="45.5381255" lon="10.3470158"><ele>493.0</ele><time>2026-04-18T11:27:17.012Z</time></trkpt><trkpt lat="45.5380695" lon="10.3471248"><ele>492.99999999999994</ele><time>2026-04-18T11:27:19.013Z</time></trkpt><trkpt lat="45.5379705" lon="10.3472058"><ele>492.99999999999994</ele><time>2026-04-18T11:27:21.017Z</time></trkpt><trkpt lat="45.5378873" lon="10.3472878"><ele>493.0</ele><time>2026-04-18T11:27:23.016Z</time></trkpt><trkpt lat="45.5378475" lon="10.347359"><ele>493.0</ele><time>2026-04-18T11:27:24.018Z</time></trkpt><trkpt lat="45.5377848" lon="10.3474278"><ele>499.1666666666667</ele><time>2026-04-18T11:27:26.015Z</time></trkpt><trkpt lat="45.5376997" lon="10.3474317"><ele>505.33333333333337</ele><time>2026-04-18T11:27:29.019Z</time></trkpt><trkpt lat="45.5376207" lon="10.3474758"><ele>511.5</ele><time>2026-04-18T11:27:31.018Z</time></trkpt><trkpt lat="45.537557" lon="10.34753"><ele>517.6666666666666</ele><time>2026-04-18T11:27:34.016Z</time></trkpt><trkpt lat="45.537469" lon="10.3475298"><ele>523.8333333333333</ele><time>2026-04-18T11:27:37.014Z</time></trkpt><trkpt lat="45.5374075" lon="10.347564"><ele>530.0</ele><time>2026-04-18T11:27:39.019Z</time></trkpt><trkpt lat="45.5373278" lon="10.3475608"><ele>530.0</ele><time>2026-04-18T11:27:43.012Z</time></trkpt><trkpt lat="45.5372663" lon="10.3474863"><ele>530.0</ele><time>2026-04-18T11:27:45.014Z</time></trkpt><trkpt lat="45.5371845" lon="10.347465"><ele>530.0</ele><time>2026-04-18T11:27:48.016Z</time></trkpt><trkpt lat="45.537121" lon="10.347535"><ele>530.0</ele><time>2026-04-18T11:27:50.021Z</time></trkpt><trkpt lat="45.5370922" lon="10.3476217"><ele>530.0</ele><time>2026-04-18T11:27:52.016Z</time></trkpt><trkpt lat="45.5370325" lon="10.3476517"><ele>530.0</ele><time>2026-04-18T11:28:02.016Z</time></trkpt><trkpt lat="45.536952" lon="10.3476767"><ele>533.0</ele><time>2026-04-18T11:28:56.015Z</time></trkpt><trkpt lat="45.536868" lon="10.347618"><ele>536.0</ele><time>2026-04-18T11:28:58.017Z</time></trkpt><trkpt lat="45.5368005" lon="10.3475765"><ele>539.0</ele><time>2026-04-18T11:28:59.015Z</time></trkpt><trkpt lat="45.5367207" lon="10.3475378"><ele>542.0</ele><time>2026-04-18T11:29:00.017Z</time></trkpt><trkpt lat="45.5366313" lon="10.3475023"><ele>545.0</ele><time>2026-04-18T11:29:01.015Z</time></trkpt><trkpt lat="45.536542" lon="10.3474697"><ele>548.0</ele><time>2026-04-18T11:29:02.016Z</time></trkpt><trkpt lat="45.5364617" lon="10.3474398"><ele>548.0</ele><time>2026-04-18T11:29:03.015Z</time></trkpt><trkpt lat="45.5363815" lon="10.3474053"><ele>548.0</ele><time>2026-04-18T11:29:04.016Z</time></trkpt><trkpt lat="45.536308" lon="10.3473692"><ele>548.0</ele><time>2026-04-18T11:29:05.016Z</time></trkpt><trkpt lat="45.5362413" lon="10.347336"><ele>548.0</ele><time>2026-04-18T11:29:06.021Z</time></trkpt><trkpt lat="45.5361383" lon="10.3472527"><ele>548.0</ele><time>2026-04-18T11:29:08.018Z</time></trkpt><trkpt lat="45.5360292" lon="10.347156"><ele>546.1666666666666</ele><time>2026-04-18T11:29:10.016Z</time></trkpt><trkpt lat="45.5359657" lon="10.347095"><ele>544.3333333333333</ele><time>2026-04-18T11:29:11.016Z</time></trkpt><trkpt lat="45.5358955" lon="10.3470357"><ele>542.5</ele><time>2026-04-18T11:29:12.017Z</time></trkpt><trkpt lat="45.5358228" lon="10.3469812"><ele>540.6666666666666</ele><time>2026-04-18T11:29:13.017Z</time></trkpt><trkpt lat="45.5357438" lon="10.346926"><ele>538.8333333333334</ele><time>2026-04-18T11:29:14.016Z</time></trkpt><trkpt lat="45.53567" lon="10.346867"><ele>537.0</ele><time>2026-04-18T11:29:15.018Z</time></trkpt><trkpt lat="45.535597" lon="10.3468125"><ele>537.0</ele><time>2026-04-18T11:29:16.016Z</time></trkpt><trkpt lat="45.5355223" lon="10.3467742"><ele>537.0</ele><time>2026-04-18T11:29:17.017Z</time></trkpt><trkpt lat="45.5354462" lon="10.346754"><ele>537.0</ele><time>2026-04-18T11:29:18.014Z</time></trkpt><trkpt lat="45.5353638" lon="10.3467433"><ele>537.0</ele><time>2026-04-18T11:29:19.014Z</time></trkpt><trkpt lat="45.5352813" lon="10.3467352"><ele>537.0</ele><time>2026-04-18T11:29:20.015Z</time></trkpt><trkpt lat="45.5352007" lon="10.3467322"><ele>537.0</ele><time>2026-04-18T11:29:21.014Z</time></trkpt><trkpt lat="45.5351215" lon="10.3467295"><ele>536.5</ele><time>2026-04-18T11:29:22.015Z</time></trkpt><trkpt lat="45.5350458" lon="10.3467218"><ele>536.0</ele><time>2026-04-18T11:29:23.015Z</time></trkpt><trkpt lat="45.5349717" lon="10.3467065"><ele>535.5</ele><time>2026-04-18T11:29:24.017Z</time></trkpt><trkpt lat="45.534898" lon="10.3466813"><ele>535.0</ele><time>2026-04-18T11:29:25.017Z</time></trkpt><trkpt lat="45.5348258" lon="10.346659"><ele>534.5</ele><time>2026-04-18T11:29:26.024Z</time></trkpt><trkpt lat="45.5347595" lon="10.3466407"><ele>534.0</ele><time>2026-04-18T11:29:27.017Z</time></trkpt><trkpt lat="45.53467" lon="10.3466237"><ele>534.0</ele><time>2026-04-18T11:29:29.02Z</time></trkpt><trkpt lat="45.5345878" lon="10.346609"><ele>534.0</ele><time>2026-04-18T11:29:31.021Z</time></trkpt><trkpt lat="45.5345027" lon="10.3466042"><ele>534.0</ele><time>2026-04-18T11:29:34.019Z</time></trkpt><trkpt lat="45.5344308" lon="10.346611"><ele>534.0</ele><time>2026-04-18T11:29:36.023Z</time></trkpt><trkpt lat="45.5343502" lon="10.3466212"><ele>534.0</ele><time>2026-04-18T11:29:38.02Z</time></trkpt><trkpt lat="45.5342705" lon="10.346609"><ele>534.0</ele><time>2026-04-18T11:29:40.017Z</time></trkpt><trkpt lat="45.5342063" lon="10.3466408"><ele>531.8333333333334</ele><time>2026-04-18T11:29:42.016Z</time></trkpt><trkpt lat="45.5341457" lon="10.3467053"><ele>529.6666666666666</ele><time>2026-04-18T11:29:44.017Z</time></trkpt><trkpt lat="45.5340922" lon="10.3467677"><ele>527.5</ele><time>2026-04-18T11:29:46.015Z</time></trkpt><trkpt lat="45.5340113" lon="10.3467453"><ele>525.3333333333333</ele><time>2026-04-18T11:29:49.016Z</time></trkpt><trkpt lat="45.5339433" lon="10.3466895"><ele>523.1666666666666</ele><time>2026-04-18T11:29:52.018Z</time></trkpt><trkpt lat="45.5338263" lon="10.3466062"><ele>521.0</ele><time>2026-04-18T11:29:54.017Z</time></trkpt><trkpt lat="45.533765" lon="10.346519"><ele>517.5</ele><time>2026-04-18T11:29:55.017Z</time></trkpt><trkpt lat="45.5336898" lon="10.3463935"><ele>514.0</ele><time>2026-04-18T11:29:56.016Z</time></trkpt><trkpt lat="45.5336087" lon="10.3462582"><ele>510.5</ele><time>2026-04-18T11:29:57.015Z</time></trkpt><trkpt lat="45.5335278" lon="10.3461337"><ele>507.0</ele><time>2026-04-18T11:29:58.016Z</time></trkpt><trkpt lat="45.5334495" lon="10.3460182"><ele>506.40000000000003</ele><time>2026-04-18T11:29:59.016Z</time></trkpt><trkpt lat="45.5333788" lon="10.3459108"><ele>505.80000000000007</ele><time>2026-04-18T11:30:00.02Z</time></trkpt><trkpt lat="45.5333185" lon="10.3458173"><ele>505.2</ele><time>2026-04-18T11:30:01.019Z</time></trkpt><trkpt lat="45.5332702" lon="10.3457375"><ele>504.6</ele><time>2026-04-18T11:30:02.02Z</time></trkpt><trkpt lat="45.5332167" lon="10.3455935"><ele>504.0</ele><time>2026-04-18T11:30:04.021Z</time></trkpt><trkpt lat="45.5331695" lon="10.3454762"><ele>502.8333333333333</ele><time>2026-04-18T11:30:45.017Z</time></trkpt><trkpt lat="45.5331005" lon="10.3454515"><ele>501.66666666666663</ele><time>2026-04-18T11:30:48.016Z</time></trkpt><trkpt lat="45.5330465" lon="10.3454008"><ele>500.5</ele><time>2026-04-18T11:30:50.016Z</time></trkpt><trkpt lat="45.53298" lon="10.3453547"><ele>499.3333333333333</ele><time>2026-04-18T11:30:52.018Z</time></trkpt><trkpt lat="45.5328913" lon="10.3453437"><ele>498.16666666666663</ele><time>2026-04-18T11:30:54.017Z</time></trkpt><trkpt lat="45.5328078" lon="10.3453903"><ele>497.0</ele><time>2026-04-18T11:30:56.017Z</time></trkpt><trkpt lat="45.5327123" lon="10.3454518"><ele>496.8</ele><time>2026-04-18T11:30:58.017Z</time></trkpt><trkpt lat="45.5326133" lon="10.34552"><ele>496.6</ele><time>2026-04-18T11:31:00.016Z</time></trkpt><trkpt lat="45.5324963" lon="10.3455515"><ele>496.40000000000003</ele><time>2026-04-18T11:31:02.019Z</time></trkpt><trkpt lat="45.5324313" lon="10.3455618"><ele>496.20000000000005</ele><time>2026-04-18T11:31:04.018Z</time></trkpt><trkpt lat="45.5324" lon="10.3456792"><ele>496.0</ele><time>2026-04-18T11:31:08.017Z</time></trkpt><trkpt lat="45.532399" lon="10.3457847"><ele>496.00000000000006</ele><time>2026-04-18T11:31:10.019Z</time></trkpt><trkpt lat="45.5324207" lon="10.3458713"><ele>496.0</ele><time>2026-04-18T11:31:13.019Z</time></trkpt><trkpt lat="45.5324777" lon="10.3459212"><ele>496.0</ele><time>2026-04-18T11:31:17.015Z</time></trkpt><trkpt lat="45.5325217" lon="10.3459978"><ele>496.0</ele><time>2026-04-18T11:31:21.013Z</time></trkpt><trkpt lat="45.5324602" lon="10.3461008"><ele>496.00000000000006</ele><time>2026-04-18T11:31:24.015Z</time></trkpt><trkpt lat="45.532383" lon="10.3461635"><ele>496.0</ele><time>2026-04-18T11:31:27.016Z</time></trkpt><trkpt lat="45.5323177" lon="10.3462437"><ele>496.00000000000006</ele><time>2026-04-18T11:31:31.017Z</time></trkpt><trkpt lat="45.5322703" lon="10.3463532"><ele>496.0</ele><time>2026-04-18T11:31:34.014Z</time></trkpt><trkpt lat="45.5322137" lon="10.346433"><ele>496.0</ele><time>2026-04-18T11:31:36.018Z</time></trkpt><trkpt lat="45.532118" lon="10.346489"><ele>496.0</ele><time>2026-04-18T11:31:38.019Z</time></trkpt><trkpt lat="45.5320152" lon="10.3465327"><ele>496.00000000000006</ele><time>2026-04-18T11:31:40.019Z</time></trkpt><trkpt lat="45.531952" lon="10.3465537"><ele>496.0</ele><time>2026-04-18T11:31:45.016Z</time></trkpt><trkpt lat="45.5318788" lon="10.3465888"><ele>492.8</ele><time>2026-04-18T11:31:50.015Z</time></trkpt><trkpt lat="45.5318162" lon="10.3465368"><ele>489.6</ele><time>2026-04-18T11:31:53.017Z</time></trkpt><trkpt lat="45.5317357" lon="10.3464525"><ele>486.4</ele><time>2026-04-18T11:31:55.016Z</time></trkpt><trkpt lat="45.5316433" lon="10.3463497"><ele>483.2</ele><time>2026-04-18T11:31:57.019Z</time></trkpt><trkpt lat="45.5315592" lon="10.3462925"><ele>480.0</ele><time>2026-04-18T11:31:59.021Z</time></trkpt><trkpt lat="45.5314785" lon="10.3462397"><ele>480.0</ele><time>2026-04-18T11:32:01.018Z</time></trkpt><trkpt lat="45.5313953" lon="10.3462388"><ele>480.0</ele><time>2026-04-18T11:32:03.021Z</time></trkpt><trkpt lat="45.5313305" lon="10.3463263"><ele>480.0</ele><time>2026-04-18T11:32:05.019Z</time></trkpt><trkpt lat="45.5312537" lon="10.3464508"><ele>480.0</ele><time>2026-04-18T11:32:07.019Z</time></trkpt><trkpt lat="45.531156" lon="10.3465553"><ele>480.0</ele><time>2026-04-18T11:32:09.018Z</time></trkpt><trkpt lat="45.5311015" lon="10.3466012"><ele>477.0</ele><time>2026-04-18T11:32:10.014Z</time></trkpt><trkpt lat="45.5310395" lon="10.3466372"><ele>474.0</ele><time>2026-04-18T11:32:11.016Z</time></trkpt><trkpt lat="45.5309758" lon="10.3466618"><ele>471.0</ele><time>2026-04-18T11:32:12.018Z</time></trkpt><trkpt lat="45.5308563" lon="10.3466778"><ele>468.0</ele><time>2026-04-18T11:32:14.021Z</time></trkpt><trkpt lat="45.5307867" lon="10.3466815"><ele>465.0</ele><time>2026-04-18T11:32:15.018Z</time></trkpt><trkpt lat="45.5307108" lon="10.3466833"><ele>462.0</ele><time>2026-04-18T11:32:16.017Z</time></trkpt><trkpt lat="45.5306313" lon="10.3466923"><ele>462.0</ele><time>2026-04-18T11:32:17.016Z</time></trkpt><trkpt lat="45.5305498" lon="10.346698"><ele>462.0</ele><time>2026-04-18T11:32:18.019Z</time></trkpt><trkpt lat="45.5304658" lon="10.3467023"><ele>462.0</ele><time>2026-04-18T11:32:19.018Z</time></trkpt><trkpt lat="45.5303847" lon="10.3466962"><ele>462.0</ele><time>2026-04-18T11:32:20.018Z</time></trkpt><trkpt lat="45.530303" lon="10.346686"><ele>462.0</ele><time>2026-04-18T11:32:21.018Z</time></trkpt><trkpt lat="45.5302207" lon="10.346676"><ele>462.0</ele><time>2026-04-18T11:32:22.017Z</time></trkpt><trkpt lat="45.530144" lon="10.3466705"><ele>459.0</ele><time>2026-04-18T11:32:23.022Z</time></trkpt><trkpt lat="45.5300288" lon="10.3466945"><ele>456.0</ele><time>2026-04-18T11:32:25.021Z</time></trkpt><trkpt lat="45.5299712" lon="10.3467308"><ele>453.0</ele><time>2026-04-18T11:32:26.022Z</time></trkpt><trkpt lat="45.5299092" lon="10.346786"><ele>450.0</ele><time>2026-04-18T11:32:27.019Z</time></trkpt><trkpt lat="45.5298518" lon="10.3468657"><ele>447.0</ele><time>2026-04-18T11:32:28.021Z</time></trkpt><trkpt lat="45.5297918" lon="10.3469758"><ele>444.0</ele><time>2026-04-18T11:32:29.021Z</time></trkpt><trkpt lat="45.5297228" lon="10.3471"><ele>446.79999999999995</ele><time>2026-04-18T11:32:30.022Z</time></trkpt><trkpt lat="45.5296545" lon="10.34723"><ele>449.59999999999997</ele><time>2026-04-18T11:32:31.019Z</time></trkpt><trkpt lat="45.529588" lon="10.3473465"><ele>452.4</ele><time>2026-04-18T11:32:32.016Z</time></trkpt><trkpt lat="45.5295205" lon="10.3474743"><ele>455.2</ele><time>2026-04-18T11:32:33.017Z</time></trkpt><trkpt lat="45.529459" lon="10.3476053"><ele>458.0</ele><time>2026-04-18T11:32:34.017Z</time></trkpt><trkpt lat="45.529393" lon="10.3477368"><ele>454.59999999999997</ele><time>2026-04-18T11:32:35.017Z</time></trkpt><trkpt lat="45.529341" lon="10.3478533"><ele>451.19999999999993</ele><time>2026-04-18T11:32:36.013Z</time></trkpt><trkpt lat="45.5292793" lon="10.3479732"><ele>447.8</ele><time>2026-04-18T11:32:37.014Z</time></trkpt><trkpt lat="45.5292193" lon="10.3480988"><ele>444.4</ele><time>2026-04-18T11:32:38.019Z</time></trkpt><trkpt lat="45.5291627" lon="10.3482162"><ele>441.0</ele><time>2026-04-18T11:32:39.019Z</time></trkpt><trkpt lat="45.529108" lon="10.3483143"><ele>441.0</ele><time>2026-04-18T11:32:40.018Z</time></trkpt><trkpt lat="45.5290605" lon="10.3483972"><ele>441.0</ele><time>2026-04-18T11:32:41.016Z</time></trkpt><trkpt lat="45.5290132" lon="10.3484742"><ele>441.0</ele><time>2026-04-18T11:32:42.018Z</time></trkpt><trkpt lat="45.5289657" lon="10.3485458"><ele>441.0</ele><time>2026-04-18T11:32:43.018Z</time></trkpt><trkpt lat="45.5289203" lon="10.3486127"><ele>441.0</ele><time>2026-04-18T11:32:44.02Z</time></trkpt><trkpt lat="45.5288558" lon="10.348735"><ele>441.0</ele><time>2026-04-18T11:32:46.019Z</time></trkpt><trkpt lat="45.5288158" lon="10.3488867"><ele>441.8333333333333</ele><time>2026-04-18T11:32:48.017Z</time></trkpt><trkpt lat="45.5287818" lon="10.3490163"><ele>442.66666666666663</ele><time>2026-04-18T11:32:50.02Z</time></trkpt><trkpt lat="45.5287507" lon="10.3490982"><ele>443.5</ele><time>2026-04-18T11:32:52.022Z</time></trkpt><trkpt lat="45.528721" lon="10.349185"><ele>444.3333333333333</ele><time>2026-04-18T11:32:55.022Z</time></trkpt><trkpt lat="45.5286828" lon="10.3492583"><ele>445.16666666666663</ele><time>2026-04-18T11:33:00.019Z</time></trkpt><trkpt lat="45.528639" lon="10.3493478"><ele>446.0</ele><time>2026-04-18T11:33:23.017Z</time></trkpt><trkpt lat="45.5285995" lon="10.3495095"><ele>439.8</ele><time>2026-04-18T11:33:25.018Z</time></trkpt><trkpt lat="45.528565" lon="10.3496378"><ele>433.6</ele><time>2026-04-18T11:33:26.017Z</time></trkpt><trkpt lat="45.5285248" lon="10.3497832"><ele>427.4</ele><time>2026-04-18T11:33:27.022Z</time></trkpt><trkpt lat="45.5284828" lon="10.3499437"><ele>421.2</ele><time>2026-04-18T11:33:28.021Z</time></trkpt><trkpt lat="45.528441" lon="10.3501032"><ele>415.0</ele><time>2026-04-18T11:33:29.019Z</time></trkpt><trkpt lat="45.5284033" lon="10.3502557"><ele>415.0</ele><time>2026-04-18T11:33:30.02Z</time></trkpt><trkpt lat="45.5283712" lon="10.3504032"><ele>415.0</ele><time>2026-04-18T11:33:31.021Z</time></trkpt><trkpt lat="45.5283355" lon="10.3505343"><ele>415.0</ele><time>2026-04-18T11:33:32.018Z</time></trkpt><trkpt lat="45.5282895" lon="10.3506525"><ele>415.0</ele><time>2026-04-18T11:33:33.021Z</time></trkpt><trkpt lat="45.5282313" lon="10.3507672"><ele>415.0</ele><time>2026-04-18T11:33:34.018Z</time></trkpt><trkpt lat="45.5281635" lon="10.350883"><ele>415.0</ele><time>2026-04-18T11:33:35.017Z</time></trkpt><trkpt lat="45.5280922" lon="10.3509948"><ele>415.0</ele><time>2026-04-18T11:33:36.019Z</time></trkpt><trkpt lat="45.528021" lon="10.3511045"><ele>415.0</ele><time>2026-04-18T11:33:37.02Z</time></trkpt><trkpt lat="45.5279517" lon="10.3512143"><ele>415.0</ele><time>2026-04-18T11:33:38.018Z</time></trkpt><trkpt lat="45.527876" lon="10.3513382"><ele>415.0</ele><time>2026-04-18T11:33:39.029Z</time></trkpt><trkpt lat="45.5277943" lon="10.351464"><ele>410.6</ele><time>2026-04-18T11:33:40.021Z</time></trkpt><trkpt lat="45.5277113" lon="10.3515855"><ele>406.2</ele><time>2026-04-18T11:33:41.02Z</time></trkpt><trkpt lat="45.5276288" lon="10.3517"><ele>401.79999999999995</ele><time>2026-04-18T11:33:42.037Z</time></trkpt><trkpt lat="45.5275518" lon="10.3518065"><ele>397.4</ele><time>2026-04-18T11:33:43.018Z</time></trkpt><trkpt lat="45.5274813" lon="10.3519032"><ele>393.0</ele><time>2026-04-18T11:33:44.016Z</time></trkpt><trkpt lat="45.527417" lon="10.351981"><ele>393.0</ele><time>2026-04-18T11:33:45.021Z</time></trkpt><trkpt lat="45.5273572" lon="10.3520368"><ele>393.0</ele><time>2026-04-18T11:33:46.023Z</time></trkpt><trkpt lat="45.527249" lon="10.3521228"><ele>393.0</ele><time>2026-04-18T11:33:48.019Z</time></trkpt><trkpt lat="45.5271597" lon="10.3522203"><ele>393.0</ele><time>2026-04-18T11:33:50.019Z</time></trkpt><trkpt lat="45.5270872" lon="10.3523475"><ele>393.0</ele><time>2026-04-18T11:33:52.021Z</time></trkpt><trkpt lat="45.5270033" lon="10.3524792"><ele>392.3333333333333</ele><time>2026-04-18T11:33:54.021Z</time></trkpt><trkpt lat="45.526925" lon="10.352597"><ele>391.66666666666663</ele><time>2026-04-18T11:33:56.021Z</time></trkpt><trkpt lat="45.526878" lon="10.3526597"><ele>391.0</ele><time>2026-04-18T11:33:57.016Z</time></trkpt><trkpt lat="45.5268208" lon="10.3527297"><ele>390.3333333333333</ele><time>2026-04-18T11:33:58.019Z</time></trkpt><trkpt lat="45.526754" lon="10.352811"><ele>389.66666666666663</ele><time>2026-04-18T11:33:59.019Z</time></trkpt><trkpt lat="45.5266825" lon="10.3528993"><ele>389.0</ele><time>2026-04-18T11:34:00.021Z</time></trkpt><trkpt lat="45.5266097" lon="10.3529895"><ele>389.79999999999995</ele><time>2026-04-18T11:34:01.018Z</time></trkpt><trkpt lat="45.5265378" lon="10.3530828"><ele>390.59999999999997</ele><time>2026-04-18T11:34:02.016Z</time></trkpt><trkpt lat="45.5264645" lon="10.3531793"><ele>391.4</ele><time>2026-04-18T11:34:03.02Z</time></trkpt><trkpt lat="45.5263943" lon="10.3532755"><ele>392.2</ele><time>2026-04-18T11:34:04.016Z</time></trkpt><trkpt lat="45.5263343" lon="10.3533623"><ele>393.0</ele><time>2026-04-18T11:34:05.019Z</time></trkpt><trkpt lat="45.5262815" lon="10.3534325"><ele>393.6666666666667</ele><time>2026-04-18T11:34:06.018Z</time></trkpt><trkpt lat="45.5261912" lon="10.3535152"><ele>394.33333333333337</ele><time>2026-04-18T11:34:08.018Z</time></trkpt><trkpt lat="45.526116" lon="10.3535578"><ele>395.0</ele><time>2026-04-18T11:34:10.02Z</time></trkpt><trkpt lat="45.5260807" lon="10.3536442"><ele>395.6666666666667</ele><time>2026-04-18T11:34:26.021Z</time></trkpt><trkpt lat="45.5261342" lon="10.3537575"><ele>396.33333333333337</ele><time>2026-04-18T11:34:28.021Z</time></trkpt><trkpt lat="45.5261347" lon="10.3538585"><ele>397.0</ele><time>2026-04-18T11:34:30.021Z</time></trkpt><trkpt lat="45.5260695" lon="10.3539938"><ele>397.0</ele><time>2026-04-18T11:34:32.021Z</time></trkpt><trkpt lat="45.5260202" lon="10.3540525"><ele>397.0</ele><time>2026-04-18T11:34:33.02Z</time></trkpt><trkpt lat="45.525926" lon="10.3541015"><ele>397.0</ele><time>2026-04-18T11:34:35.018Z</time></trkpt><trkpt lat="45.5258002" lon="10.3540718"><ele>397.0</ele><time>2026-04-18T11:34:37.019Z</time></trkpt><trkpt lat="45.5257377" lon="10.3540563"><ele>397.0</ele><time>2026-04-18T11:34:38.019Z</time></trkpt><trkpt lat="45.5256372" lon="10.354001"><ele>397.00000000000006</ele><time>2026-04-18T11:34:40.017Z</time></trkpt><trkpt lat="45.5255805" lon="10.3539535"><ele>397.0</ele><time>2026-04-18T11:34:42.018Z</time></trkpt><trkpt lat="45.5254963" lon="10.3539425"><ele>397.0</ele><time>2026-04-18T11:34:46.018Z</time></trkpt><trkpt lat="45.5254168" lon="10.3539162"><ele>397.0</ele><time>2026-04-18T11:34:49.021Z</time></trkpt><trkpt lat="45.5253595" lon="10.3538553"><ele>397.00000000000006</ele><time>2026-04-18T11:34:52.018Z</time></trkpt><trkpt lat="45.5253097" lon="10.3537602"><ele>397.0</ele><time>2026-04-18T11:34:55.021Z</time></trkpt><trkpt lat="45.525243" lon="10.3536962"><ele>395.2857142857143</ele><time>2026-04-18T11:34:59.021Z</time></trkpt><trkpt lat="45.5251862" lon="10.353657"><ele>393.57142857142856</ele><time>2026-04-18T11:35:02.018Z</time></trkpt><trkpt lat="45.5251267" lon="10.3536962"><ele>391.8571428571429</ele><time>2026-04-18T11:35:05.02Z</time></trkpt><trkpt lat="45.525054" lon="10.3537362"><ele>390.1428571428571</ele><time>2026-04-18T11:35:08.034Z</time></trkpt><trkpt lat="45.524975" lon="10.3537123"><ele>388.42857142857144</ele><time>2026-04-18T11:35:13.021Z</time></trkpt><trkpt lat="45.524921" lon="10.3536252"><ele>386.7142857142857</ele><time>2026-04-18T11:35:16.018Z</time></trkpt><trkpt lat="45.524884" lon="10.3535332"><ele>385.0</ele><time>2026-04-18T11:35:19.022Z</time></trkpt><trkpt lat="45.5248197" lon="10.3535237"><ele>385.0</ele><time>2026-04-18T11:36:13.022Z</time></trkpt><trkpt lat="45.5248563" lon="10.3536145"><ele>385.0</ele><time>2026-04-18T11:38:33.019Z</time></trkpt><trkpt lat="45.524906" lon="10.3537088"><ele>385.0</ele><time>2026-04-18T11:38:36.023Z</time></trkpt><trkpt lat="45.5249692" lon="10.3537462"><ele>385.0</ele><time>2026-04-18T11:38:41.02Z</time></trkpt><trkpt lat="45.5250338" lon="10.3537092"><ele>385.0</ele><time>2026-04-18T11:38:48.02Z</time></trkpt><trkpt lat="45.5251032" lon="10.353656"><ele>385.0</ele><time>2026-04-18T11:38:51.024Z</time></trkpt><trkpt lat="45.5251717" lon="10.3536913"><ele>385.0</ele><time>2026-04-18T11:38:54.025Z</time></trkpt><trkpt lat="45.525223" lon="10.353746"><ele>385.00000000000006</ele><time>2026-04-18T11:39:28.019Z</time></trkpt><trkpt lat="45.5252767" lon="10.353845"><ele>385.0</ele><time>2026-04-18T11:39:31.021Z</time></trkpt><trkpt lat="45.5253248" lon="10.353915"><ele>385.0</ele><time>2026-04-18T11:39:34.019Z</time></trkpt><trkpt lat="45.5254105" lon="10.353948"><ele>385.0</ele><time>2026-04-18T11:39:37.017Z</time></trkpt><trkpt lat="45.5254915" lon="10.3539383"><ele>385.00000000000006</ele><time>2026-04-18T11:39:40.023Z</time></trkpt><trkpt lat="45.5255825" lon="10.354014"><ele>385.0</ele><time>2026-04-18T11:39:42.036Z</time></trkpt><trkpt lat="45.5256463" lon="10.3540577"><ele>387.4</ele><time>2026-04-18T11:39:43.023Z</time></trkpt><trkpt lat="45.525718" lon="10.3540842"><ele>389.8</ele><time>2026-04-18T11:39:44.023Z</time></trkpt><trkpt lat="45.5258003" lon="10.3541078"><ele>392.20000000000005</ele><time>2026-04-18T11:39:45.023Z</time></trkpt><trkpt lat="45.52587" lon="10.3541233"><ele>394.6</ele><time>2026-04-18T11:39:46.019Z</time></trkpt><trkpt lat="45.5259692" lon="10.3540847"><ele>397.0</ele><time>2026-04-18T11:39:48.02Z</time></trkpt><trkpt lat="45.5260612" lon="10.3539612"><ele>397.00000000000006</ele><time>2026-04-18T11:39:50.022Z</time></trkpt><trkpt lat="45.5260998" lon="10.3538743"><ele>397.0</ele><time>2026-04-18T11:39:51.02Z</time></trkpt><trkpt lat="45.5261317" lon="10.3537753"><ele>397.0</ele><time>2026-04-18T11:39:52.022Z</time></trkpt><trkpt lat="45.5261652" lon="10.3536815"><ele>397.0</ele><time>2026-04-18T11:39:53.024Z</time></trkpt><trkpt lat="45.5262035" lon="10.3536022"><ele>397.00000000000006</ele><time>2026-04-18T11:39:54.025Z</time></trkpt><trkpt lat="45.5262623" lon="10.35347"><ele>397.0</ele><time>2026-04-18T11:39:56.019Z</time></trkpt><trkpt lat="45.5263332" lon="10.35337"><ele>396.0</ele><time>2026-04-18T11:39:58.017Z</time></trkpt><trkpt lat="45.526428" lon="10.3532307"><ele>395.0</ele><time>2026-04-18T11:41:03.024Z</time></trkpt><trkpt lat="45.5265098" lon="10.353122"><ele>394.0</ele><time>2026-04-18T11:41:04.025Z</time></trkpt><trkpt lat="45.5266108" lon="10.3529965"><ele>393.0</ele><time>2026-04-18T11:41:05.02Z</time></trkpt><trkpt lat="45.5267102" lon="10.3528735"><ele>392.2</ele><time>2026-04-18T11:41:06.023Z</time></trkpt><trkpt lat="45.5267978" lon="10.3527623"><ele>391.4</ele><time>2026-04-18T11:41:07.023Z</time></trkpt><trkpt lat="45.5268725" lon="10.3526555"><ele>390.59999999999997</ele><time>2026-04-18T11:41:08.021Z</time></trkpt><trkpt lat="45.5269442" lon="10.3525547"><ele>389.79999999999995</ele><time>2026-04-18T11:41:09.018Z</time></trkpt><trkpt lat="45.5270072" lon="10.3524598"><ele>389.0</ele><time>2026-04-18T11:41:10.02Z</time></trkpt><trkpt lat="45.5270607" lon="10.352372"><ele>388.6</ele><time>2026-04-18T11:41:11.018Z</time></trkpt><trkpt lat="45.5271078" lon="10.3522927"><ele>388.2</ele><time>2026-04-18T11:41:12.02Z</time></trkpt><trkpt lat="45.5271477" lon="10.352152"><ele>387.8</ele><time>2026-04-18T11:41:14.02Z</time></trkpt><trkpt lat="45.5271872" lon="10.3520603"><ele>387.40000000000003</ele><time>2026-04-18T11:41:46.02Z</time></trkpt><trkpt lat="45.5272933" lon="10.3520795"><ele>387.0</ele><time>2026-04-18T11:41:49.023Z</time></trkpt><trkpt lat="45.5273848" lon="10.3520387"><ele>388.5</ele><time>2026-04-18T11:41:51.024Z</time></trkpt><trkpt lat="45.5274865" lon="10.3519065"><ele>390.0</ele><time>2026-04-18T11:41:53.019Z</time></trkpt><trkpt lat="45.5275582" lon="10.3518067"><ele>391.5</ele><time>2026-04-18T11:41:54.02Z</time></trkpt><trkpt lat="45.527641" lon="10.3516922"><ele>393.0</ele><time>2026-04-18T11:41:55.021Z</time></trkpt><trkpt lat="45.527728" lon="10.3515652"><ele>393.0</ele><time>2026-04-18T11:41:56.019Z</time></trkpt><trkpt lat="45.5278148" lon="10.3514293"><ele>393.0</ele><time>2026-04-18T11:41:57.034Z</time></trkpt><trkpt lat="45.5279007" lon="10.35129"><ele>393.0</ele><time>2026-04-18T11:41:58.018Z</time></trkpt><trkpt lat="45.527983" lon="10.3511622"><ele>393.0</ele><time>2026-04-18T11:41:59.024Z</time></trkpt><trkpt lat="45.528056" lon="10.3510492"><ele>397.4</ele><time>2026-04-18T11:42:00.019Z</time></trkpt><trkpt lat="45.5281307" lon="10.3509338"><ele>401.79999999999995</ele><time>2026-04-18T11:42:01.022Z</time></trkpt><trkpt lat="45.5282057" lon="10.350809"><ele>406.2</ele><time>2026-04-18T11:42:02.023Z</time></trkpt><trkpt lat="45.528269" lon="10.350677"><ele>410.6</ele><time>2026-04-18T11:42:03.028Z</time></trkpt><trkpt lat="45.5283145" lon="10.3505388"><ele>415.0</ele><time>2026-04-18T11:42:04.021Z</time></trkpt><trkpt lat="45.5283477" lon="10.3503857"><ele>415.0</ele><time>2026-04-18T11:42:05.023Z</time></trkpt><trkpt lat="45.5283848" lon="10.3502203"><ele>415.0</ele><time>2026-04-18T11:42:06.026Z</time></trkpt><trkpt lat="45.528431" lon="10.350038"><ele>415.0</ele><time>2026-04-18T11:42:07.026Z</time></trkpt><trkpt lat="45.5284818" lon="10.3498482"><ele>415.0</ele><time>2026-04-18T11:42:08.022Z</time></trkpt><trkpt lat="45.528536" lon="10.3496562"><ele>413.5</ele><time>2026-04-18T11:42:09.019Z</time></trkpt><trkpt lat="45.5285908" lon="10.349464"><ele>412.0</ele><time>2026-04-18T11:42:10.023Z</time></trkpt><trkpt lat="45.528643" lon="10.3492772"><ele>410.5</ele><time>2026-04-18T11:42:11.02Z</time></trkpt><trkpt lat="45.5286917" lon="10.3491008"><ele>409.0</ele><time>2026-04-18T11:42:12.019Z</time></trkpt><trkpt lat="45.5287335" lon="10.3489512"><ele>414.33333333333337</ele><time>2026-04-18T11:42:13.023Z</time></trkpt><trkpt lat="45.5287723" lon="10.3488265"><ele>419.6666666666667</ele><time>2026-04-18T11:42:14.024Z</time></trkpt><trkpt lat="45.528806" lon="10.348729"><ele>425.0</ele><time>2026-04-18T11:42:15.023Z</time></trkpt><trkpt lat="45.5288462" lon="10.3486045"><ele>430.33333333333337</ele><time>2026-04-18T11:42:17.021Z</time></trkpt><trkpt lat="45.5288968" lon="10.3485473"><ele>435.6666666666667</ele><time>2026-04-18T11:42:21.02Z</time></trkpt><trkpt lat="45.5289582" lon="10.3484968"><ele>441.0</ele><time>2026-04-18T11:42:23.016Z</time></trkpt><trkpt lat="45.5290477" lon="10.3483413"><ele>441.0</ele><time>2026-04-18T11:42:25.019Z</time></trkpt><trkpt lat="45.5291085" lon="10.3482258"><ele>441.0</ele><time>2026-04-18T11:42:26.02Z</time></trkpt><trkpt lat="45.5291748" lon="10.3480812"><ele>441.0</ele><time>2026-04-18T11:42:27.023Z</time></trkpt><trkpt lat="45.5292473" lon="10.347922"><ele>441.0</ele><time>2026-04-18T11:42:28.018Z</time></trkpt><trkpt lat="45.5293172" lon="10.3477675"><ele>441.75</ele><time>2026-04-18T11:42:29.022Z</time></trkpt><trkpt lat="45.5293958" lon="10.347604"><ele>442.5</ele><time>2026-04-18T11:42:30.024Z</time></trkpt><trkpt lat="45.5294722" lon="10.347454"><ele>443.25</ele><time>2026-04-18T11:42:31.022Z</time></trkpt><trkpt lat="45.5295492" lon="10.3473133"><ele>444.0</ele><time>2026-04-18T11:42:32.022Z</time></trkpt><trkpt lat="45.5296233" lon="10.3471785"><ele>444.0</ele><time>2026-04-18T11:42:33.02Z</time></trkpt><trkpt lat="45.5296983" lon="10.3470378"><ele>444.0</ele><time>2026-04-18T11:42:34.023Z</time></trkpt><trkpt lat="45.5297653" lon="10.3469182"><ele>444.0</ele><time>2026-04-18T11:42:35.021Z</time></trkpt><trkpt lat="45.5298322" lon="10.3468303"><ele>444.0</ele><time>2026-04-18T11:42:36.018Z</time></trkpt><trkpt lat="45.5299007" lon="10.3467725"><ele>444.0</ele><time>2026-04-18T11:42:37.021Z</time></trkpt><trkpt lat="45.5299703" lon="10.3467428"><ele>444.0</ele><time>2026-04-18T11:42:38.022Z</time></trkpt><trkpt lat="45.530041" lon="10.3467345"><ele>444.0</ele><time>2026-04-18T11:42:39.021Z</time></trkpt><trkpt lat="45.5301258" lon="10.3467438"><ele>444.0</ele><time>2026-04-18T11:42:40.024Z</time></trkpt><trkpt lat="45.5302068" lon="10.3467562"><ele>444.0</ele><time>2026-04-18T11:42:41.017Z</time></trkpt><trkpt lat="45.5302723" lon="10.3467648"><ele>444.0</ele><time>2026-04-18T11:42:42.019Z</time></trkpt><trkpt lat="45.5303533" lon="10.3467632"><ele>444.0</ele><time>2026-04-18T11:42:44.022Z</time></trkpt><trkpt lat="45.5304493" lon="10.3467535"><ele>447.6</ele><time>2026-04-18T11:43:32.017Z</time></trkpt><trkpt lat="45.5305168" lon="10.3467502"><ele>451.2</ele><time>2026-04-18T11:43:33.019Z</time></trkpt><trkpt lat="45.5306167" lon="10.3467483"><ele>454.80000000000007</ele><time>2026-04-18T11:43:34.022Z</time></trkpt><trkpt lat="45.5307362" lon="10.3467458"><ele>458.40000000000003</ele><time>2026-04-18T11:43:35.022Z</time></trkpt><trkpt lat="45.5308442" lon="10.346729"><ele>462.0</ele><time>2026-04-18T11:43:36.021Z</time></trkpt><trkpt lat="45.530933" lon="10.3466947"><ele>462.0</ele><time>2026-04-18T11:43:37.018Z</time></trkpt><trkpt lat="45.5310038" lon="10.3466442"><ele>462.0</ele><time>2026-04-18T11:43:38.021Z</time></trkpt><trkpt lat="45.5310678" lon="10.346579"><ele>462.0</ele><time>2026-04-18T11:43:39.02Z</time></trkpt><trkpt lat="45.5311223" lon="10.3465087"><ele>462.0</ele><time>2026-04-18T11:43:40.026Z</time></trkpt><trkpt lat="45.5311748" lon="10.34643"><ele>462.0</ele><time>2026-04-18T11:43:41.019Z</time></trkpt><trkpt lat="45.531217" lon="10.3463632"><ele>462.0</ele><time>2026-04-18T11:43:42.02Z</time></trkpt><trkpt lat="45.531292" lon="10.3462942"><ele>465.40000000000003</ele><time>2026-04-18T11:43:44.05Z</time></trkpt><trkpt lat="45.5313825" lon="10.3463025"><ele>468.80000000000007</ele><time>2026-04-18T11:43:47.023Z</time></trkpt><trkpt lat="45.5314492" lon="10.3463918"><ele>472.2</ele><time>2026-04-18T11:43:49.024Z</time></trkpt><trkpt lat="45.5315302" lon="10.3465347"><ele>475.6</ele><time>2026-04-18T11:43:51.018Z</time></trkpt><trkpt lat="45.5315797" lon="10.3466102"><ele>479.0</ele><time>2026-04-18T11:43:52.019Z</time></trkpt><trkpt lat="45.5316592" lon="10.3467192"><ele>479.16666666666663</ele><time>2026-04-18T11:43:54.02Z</time></trkpt><trkpt lat="45.5317478" lon="10.3467402"><ele>479.3333333333333</ele><time>2026-04-18T11:43:57.019Z</time></trkpt><trkpt lat="45.5318177" lon="10.34673"><ele>479.5</ele><time>2026-04-18T11:44:11.02Z</time></trkpt><trkpt lat="45.5318843" lon="10.3467043"><ele>479.66666666666663</ele><time>2026-04-18T11:44:13.018Z</time></trkpt><trkpt lat="45.5319952" lon="10.3466527"><ele>479.8333333333333</ele><time>2026-04-18T11:44:15.021Z</time></trkpt><trkpt lat="45.5320448" lon="10.3465893"><ele>480.0</ele><time>2026-04-18T11:44:16.022Z</time></trkpt><trkpt lat="45.53208" lon="10.3464788"><ele>482.0</ele><time>2026-04-18T11:44:18.021Z</time></trkpt><trkpt lat="45.5321528" lon="10.3464092"><ele>484.0</ele><time>2026-04-18T11:44:21.021Z</time></trkpt><trkpt lat="45.5322283" lon="10.3463488"><ele>486.0</ele><time>2026-04-18T11:44:23.017Z</time></trkpt><trkpt lat="45.53228" lon="10.3462723"><ele>488.0</ele><time>2026-04-18T11:44:25.016Z</time></trkpt><trkpt lat="45.5323528" lon="10.3462477"><ele>490.0</ele><time>2026-04-18T11:44:53.021Z</time></trkpt><trkpt lat="45.5324553" lon="10.3462863"><ele>492.0</ele><time>2026-04-18T11:45:01.018Z</time></trkpt><trkpt lat="45.5325398" lon="10.3463235"><ele>492.8</ele><time>2026-04-18T11:45:03.021Z</time></trkpt><trkpt lat="45.5326413" lon="10.3463205"><ele>493.6</ele><time>2026-04-18T11:45:06.022Z</time></trkpt><trkpt lat="45.53271" lon="10.3462552"><ele>494.40000000000003</ele><time>2026-04-18T11:45:09.021Z</time></trkpt><trkpt lat="45.5328513" lon="10.3462237"><ele>495.20000000000005</ele><time>2026-04-18T11:45:44.019Z</time></trkpt><trkpt lat="45.5328248" lon="10.3463065"><ele>496.0</ele><time>2026-04-18T11:47:14.019Z</time></trkpt><trkpt lat="45.5327525" lon="10.346308"><ele>496.00000000000006</ele><time>2026-04-18T11:48:16.032Z</time></trkpt><trkpt lat="45.532677" lon="10.3463087"><ele>496.0</ele><time>2026-04-18T11:48:19.019Z</time></trkpt><trkpt lat="45.5325907" lon="10.346287"><ele>496.0</ele><time>2026-04-18T11:48:22.022Z</time></trkpt><trkpt lat="45.5325203" lon="10.3462703"><ele>496.0</ele><time>2026-04-18T11:48:24.022Z</time></trkpt><trkpt lat="45.532463" lon="10.3462207"><ele>496.00000000000006</ele><time>2026-04-18T11:48:29.018Z</time></trkpt><trkpt lat="45.5324602" lon="10.3461078"><ele>496.0</ele><time>2026-04-18T11:48:33.021Z</time></trkpt><trkpt lat="45.5323922" lon="10.3460597"><ele>496.00000000000006</ele><time>2026-04-18T11:48:36.02Z</time></trkpt><trkpt lat="45.5323243" lon="10.346004"><ele>496.0</ele><time>2026-04-18T11:48:39.02Z</time></trkpt><trkpt lat="45.5322873" lon="10.3458875"><ele>496.0</ele><time>2026-04-18T11:48:42.022Z</time></trkpt><trkpt lat="45.532274" lon="10.3457872"><ele>496.0</ele><time>2026-04-18T11:48:44.019Z</time></trkpt><trkpt lat="45.5322763" lon="10.3456663"><ele>496.00000000000006</ele><time>2026-04-18T11:48:46.019Z</time></trkpt><trkpt lat="45.5323427" lon="10.3456063"><ele>496.0</ele><time>2026-04-18T11:48:49.018Z</time></trkpt><trkpt lat="45.5324352" lon="10.3455637"><ele>495.4</ele><time>2026-04-18T11:48:51.018Z</time></trkpt><trkpt lat="45.532533" lon="10.3454817"><ele>494.8</ele><time>2026-04-18T11:48:53.022Z</time></trkpt><trkpt lat="45.532627" lon="10.3454123"><ele>494.19999999999993</ele><time>2026-04-18T11:48:55.019Z</time></trkpt><trkpt lat="45.532707" lon="10.3453623"><ele>493.59999999999997</ele><time>2026-04-18T11:48:57.015Z</time></trkpt><trkpt lat="45.5327885" lon="10.3453618"><ele>493.0</ele><time>2026-04-18T11:48:59.02Z</time></trkpt><trkpt lat="45.5328873" lon="10.3454275"><ele>493.6666666666667</ele><time>2026-04-18T11:49:01.022Z</time></trkpt><trkpt lat="45.5329577" lon="10.345483"><ele>494.33333333333337</ele><time>2026-04-18T11:49:03.019Z</time></trkpt><trkpt lat="45.533034" lon="10.3454913"><ele>495.0</ele><time>2026-04-18T11:49:05.019Z</time></trkpt><trkpt lat="45.5330913" lon="10.3454448"><ele>495.66666666666663</ele><time>2026-04-18T11:49:10.03Z</time></trkpt><trkpt lat="45.5331743" lon="10.3454243"><ele>496.3333333333333</ele><time>2026-04-18T11:50:04.026Z</time></trkpt><trkpt lat="45.533197" lon="10.3453153"><ele>497.0</ele><time>2026-04-18T11:50:07.02Z</time></trkpt><trkpt lat="45.5332223" lon="10.3451492"><ele>496.99999999999994</ele><time>2026-04-18T11:50:09.014Z</time></trkpt><trkpt lat="45.533231" lon="10.3449972"><ele>497.0</ele><time>2026-04-18T11:50:11.022Z</time></trkpt><trkpt lat="45.5332018" lon="10.344901"><ele>497.0</ele><time>2026-04-18T11:50:13.022Z</time></trkpt><trkpt lat="45.5331345" lon="10.3448085"><ele>497.0</ele><time>2026-04-18T11:50:15.018Z</time></trkpt><trkpt lat="45.5330815" lon="10.3447225"><ele>496.99999999999994</ele><time>2026-04-18T11:50:17.018Z</time></trkpt><trkpt lat="45.5330702" lon="10.3446085"><ele>497.0</ele><time>2026-04-18T11:50:20.021Z</time></trkpt><trkpt lat="45.5330277" lon="10.3444878"><ele>494.99999999999994</ele><time>2026-04-18T11:50:23.019Z</time></trkpt><trkpt lat="45.5329727" lon="10.3443882"><ele>493.0</ele><time>2026-04-18T11:50:25.022Z</time></trkpt><trkpt lat="45.5329595" lon="10.3442548"><ele>491.0</ele><time>2026-04-18T11:50:28.018Z</time></trkpt><trkpt lat="45.5329575" lon="10.3441645"><ele>489.0</ele><time>2026-04-18T11:50:30.022Z</time></trkpt><trkpt lat="45.5329178" lon="10.3440465"><ele>486.99999999999994</ele><time>2026-04-18T11:50:33.018Z</time></trkpt><trkpt lat="45.5328872" lon="10.3439617"><ele>485.0</ele><time>2026-04-18T11:50:35.015Z</time></trkpt><trkpt lat="45.5328278" lon="10.3438578"><ele>481.8333333333333</ele><time>2026-04-18T11:50:39.018Z</time></trkpt><trkpt lat="45.5327775" lon="10.3437615"><ele>478.66666666666663</ele><time>2026-04-18T11:50:42.02Z</time></trkpt><trkpt lat="45.5327647" lon="10.3436728"><ele>475.5</ele><time>2026-04-18T11:50:44.029Z</time></trkpt><trkpt lat="45.5327493" lon="10.3435575"><ele>472.33333333333337</ele><time>2026-04-18T11:50:47.017Z</time></trkpt><trkpt lat="45.5327145" lon="10.3434307"><ele>469.1666666666667</ele><time>2026-04-18T11:50:50.021Z</time></trkpt><trkpt lat="45.5326813" lon="10.3433208"><ele>466.0</ele><time>2026-04-18T11:50:52.019Z</time></trkpt><trkpt lat="45.5326707" lon="10.3431948"><ele>466.0</ele><time>2026-04-18T11:50:55.019Z</time></trkpt><trkpt lat="45.5326973" lon="10.3431062"><ele>466.0</ele><time>2026-04-18T11:50:58.02Z</time></trkpt><trkpt lat="45.5327223" lon="10.3429982"><ele>466.0</ele><time>2026-04-18T11:51:02.016Z</time></trkpt><trkpt lat="45.5327448" lon="10.3429042"><ele>466.0</ele><time>2026-04-18T11:51:05.02Z</time></trkpt><trkpt lat="45.532795" lon="10.3428415"><ele>466.0</ele><time>2026-04-18T11:51:09.018Z</time></trkpt><trkpt lat="45.5328515" lon="10.3427873"><ele>466.0</ele><time>2026-04-18T11:51:13.018Z</time></trkpt><trkpt lat="45.5329202" lon="10.3427917"><ele>466.0</ele><time>2026-04-18T11:51:16.016Z</time></trkpt><trkpt lat="45.5329848" lon="10.3427747"><ele>462.5714285714286</ele><time>2026-04-18T11:51:19.017Z</time></trkpt><trkpt lat="45.5330425" lon="10.3427195"><ele>459.1428571428571</ele><time>2026-04-18T11:51:22.018Z</time></trkpt><trkpt lat="45.533046" lon="10.3426297"><ele>455.7142857142857</ele><time>2026-04-18T11:51:26.015Z</time></trkpt><trkpt lat="45.5330693" lon="10.3425453"><ele>452.28571428571433</ele><time>2026-04-18T11:51:35.018Z</time></trkpt><trkpt lat="45.5330977" lon="10.3424245"><ele>448.8571428571429</ele><time>2026-04-18T11:52:34.022Z</time></trkpt><trkpt lat="45.5331215" lon="10.3423313"><ele>445.42857142857144</ele><time>2026-04-18T11:52:52.022Z</time></trkpt><trkpt lat="45.533121" lon="10.34224"><ele>442.0</ele><time>2026-04-18T11:52:56.017Z</time></trkpt><trkpt lat="45.5330947" lon="10.342152"><ele>438.5714285714286</ele><time>2026-04-18T11:53:30.023Z</time></trkpt><trkpt lat="45.5330728" lon="10.3420568"><ele>435.14285714285717</ele><time>2026-04-18T11:53:36.022Z</time></trkpt><trkpt lat="45.5330902" lon="10.3419442"><ele>431.7142857142857</ele><time>2026-04-18T11:53:41.019Z</time></trkpt><trkpt lat="45.5330968" lon="10.3418412"><ele>428.28571428571433</ele><time>2026-04-18T11:53:45.022Z</time></trkpt><trkpt lat="45.5330822" lon="10.3417533"><ele>424.85714285714283</ele><time>2026-04-18T11:53:53.019Z</time></trkpt><trkpt lat="45.5330628" lon="10.341661"><ele>421.42857142857144</ele><time>2026-04-18T11:54:19.02Z</time></trkpt><trkpt lat="45.5330912" lon="10.3415417"><ele>418.0</ele><time>2026-04-18T11:55:39.02Z</time></trkpt><trkpt lat="45.5331325" lon="10.341461"><ele>418.0</ele><time>2026-04-18T11:56:20.038Z</time></trkpt><trkpt lat="45.533189" lon="10.3414152"><ele>418.0</ele><time>2026-04-18T11:56:25.019Z</time></trkpt><trkpt lat="45.5332138" lon="10.34131"><ele>418.0</ele><time>2026-04-18T11:56:29.018Z</time></trkpt><trkpt lat="45.5332323" lon="10.3412158"><ele>418.0</ele><time>2026-04-18T11:56:34.022Z</time></trkpt><trkpt lat="45.5332472" lon="10.3410993"><ele>418.0</ele><time>2026-04-18T11:56:37.02Z</time></trkpt><trkpt lat="45.5333032" lon="10.3410243"><ele>418.0</ele><time>2026-04-18T11:56:41.018Z</time></trkpt><trkpt lat="45.5333735" lon="10.3410145"><ele>418.0</ele><time>2026-04-18T11:56:47.019Z</time></trkpt><trkpt lat="45.5334362" lon="10.340981"><ele>414.7142857142857</ele><time>2026-04-18T11:56:51.018Z</time></trkpt><trkpt lat="45.5334695" lon="10.3408993"><ele>411.42857142857144</ele><time>2026-04-18T11:56:57.022Z</time></trkpt><trkpt lat="45.5335217" lon="10.3408462"><ele>408.1428571428571</ele><time>2026-04-18T11:57:05.018Z</time></trkpt><trkpt lat="45.5335213" lon="10.3407505"><ele>404.8571428571429</ele><time>2026-04-18T11:57:11.019Z</time></trkpt><trkpt lat="45.5335675" lon="10.3406648"><ele>401.5714285714286</ele><time>2026-04-18T11:57:18.022Z</time></trkpt><trkpt lat="45.533595" lon="10.3405838"><ele>398.2857142857143</ele><time>2026-04-18T11:57:27.024Z</time></trkpt><trkpt lat="45.5336423" lon="10.3405125"><ele>395.0</ele><time>2026-04-18T11:57:36.022Z</time></trkpt><trkpt lat="45.5336335" lon="10.3404122"><ele>390.49999999999994</ele><time>2026-04-18T11:57:42.02Z</time></trkpt><trkpt lat="45.5336158" lon="10.3403092"><ele>386.0</ele><time>2026-04-18T11:57:49.021Z</time></trkpt><trkpt lat="45.5335805" lon="10.3401975"><ele>381.5</ele><time>2026-04-18T11:58:43.017Z</time></trkpt><trkpt lat="45.5335398" lon="10.3401222"><ele>377.0</ele><time>2026-04-18T11:58:53.019Z</time></trkpt><trkpt lat="45.5335307" lon="10.3400303"><ele>372.5</ele><time>2026-04-18T11:59:12.02Z</time></trkpt><trkpt lat="45.5335243" lon="10.3399073"><ele>368.0</ele><time>2026-04-18T11:59:25.019Z</time></trkpt><trkpt lat="45.5335342" lon="10.3398062"><ele>363.8571428571429</ele><time>2026-04-18T11:59:28.019Z</time></trkpt><trkpt lat="45.5335267" lon="10.3397078"><ele>359.71428571428567</ele><time>2026-04-18T12:00:06.023Z</time></trkpt><trkpt lat="45.5335067" lon="10.3396152"><ele>355.57142857142856</ele><time>2026-04-18T12:01:47.018Z</time></trkpt><trkpt lat="45.5335112" lon="10.3395227"><ele>351.42857142857144</ele><time>2026-04-18T12:02:16.018Z</time></trkpt><trkpt lat="45.5334717" lon="10.3394363"><ele>347.28571428571433</ele><time>2026-04-18T12:02:50.015Z</time></trkpt><trkpt lat="45.5334263" lon="10.3393718"><ele>343.1428571428571</ele><time>2026-04-18T12:03:01.022Z</time></trkpt><trkpt lat="45.533369" lon="10.3393045"><ele>339.0</ele><time>2026-04-18T12:04:35.019Z</time></trkpt><trkpt lat="45.5333583" lon="10.3392132"><ele>339.0</ele><time>2026-04-18T12:04:48.024Z</time></trkpt><trkpt lat="45.5334002" lon="10.3391205"><ele>339.0</ele><time>2026-04-18T12:07:56.018Z</time></trkpt><trkpt lat="45.5333975" lon="10.3390237"><ele>339.0</ele><time>2026-04-18T12:11:34.02Z</time></trkpt><trkpt lat="45.5333887" lon="10.338925"><ele>339.0</ele><time>2026-04-18T12:11:50.017Z</time></trkpt><trkpt lat="45.5333323" lon="10.3388388"><ele>339.0</ele><time>2026-04-18T12:11:55.018Z</time></trkpt><trkpt lat="45.5332942" lon="10.3387585"><ele>339.0</ele><time>2026-04-18T12:12:04.018Z</time></trkpt><trkpt lat="45.5332787" lon="10.3386515"><ele>339.0</ele><time>2026-04-18T12:12:16.018Z</time></trkpt><trkpt lat="45.5332553" lon="10.338561"><ele>335.7142857142857</ele><time>2026-04-18T12:12:19.019Z</time></trkpt><trkpt lat="45.5332065" lon="10.3384927"><ele>332.42857142857144</ele><time>2026-04-18T12:12:22.018Z</time></trkpt><trkpt lat="45.5331743" lon="10.3383837"><ele>329.14285714285717</ele><time>2026-04-18T12:12:33.018Z</time></trkpt><trkpt lat="45.5331533" lon="10.3382908"><ele>325.8571428571429</ele><time>2026-04-18T12:12:35.016Z</time></trkpt><trkpt lat="45.5331385" lon="10.3381987"><ele>322.57142857142856</ele><time>2026-04-18T12:12:39.015Z</time></trkpt><trkpt lat="45.5331047" lon="10.3381113"><ele>319.28571428571433</ele><time>2026-04-18T12:12:42.018Z</time></trkpt><trkpt lat="45.533045" lon="10.3380313"><ele>316.0</ele><time>2026-04-18T12:12:46.018Z</time></trkpt><trkpt lat="45.5329892" lon="10.3379335"><ele>313.5</ele><time>2026-04-18T12:12:49.017Z</time></trkpt><trkpt lat="45.5329788" lon="10.3378243"><ele>311.0</ele><time>2026-04-18T12:12:51.016Z</time></trkpt><trkpt lat="45.5329482" lon="10.337728"><ele>308.5</ele><time>2026-04-18T12:12:53.015Z</time></trkpt><trkpt lat="45.53289" lon="10.337654"><ele>306.0</ele><time>2026-04-18T12:12:55.016Z</time></trkpt><trkpt lat="45.5328057" lon="10.337618"><ele>303.5</ele><time>2026-04-18T12:12:57.028Z</time></trkpt><trkpt lat="45.5327048" lon="10.3375708"><ele>301.0</ele><time>2026-04-18T12:12:59.016Z</time></trkpt><trkpt lat="45.5326145" lon="10.337494"><ele>301.0</ele><time>2026-04-18T12:13:01.015Z</time></trkpt><trkpt lat="45.5325675" lon="10.337397"><ele>301.0</ele><time>2026-04-18T12:13:04.018Z</time></trkpt><trkpt lat="45.5325268" lon="10.3373238"><ele>301.0</ele><time>2026-04-18T12:13:14.019Z</time></trkpt><trkpt lat="45.5324732" lon="10.3372662"><ele>301.0</ele><time>2026-04-18T12:13:29.018Z</time></trkpt><trkpt lat="45.5324133" lon="10.3371957"><ele>301.0</ele><time>2026-04-18T12:15:42.018Z</time></trkpt><trkpt lat="45.5323617" lon="10.3372557"><ele>301.0</ele><time>2026-04-18T12:15:51.017Z</time></trkpt><trkpt lat="45.532327" lon="10.3371775"><ele>301.0</ele><time>2026-04-18T12:15:54.018Z</time></trkpt><trkpt lat="45.5322868" lon="10.3370672"><ele>301.0</ele><time>2026-04-18T12:15:57.019Z</time></trkpt><trkpt lat="45.5323007" lon="10.3369768"><ele>301.0</ele><time>2026-04-18T12:16:00.018Z</time></trkpt><trkpt lat="45.5323032" lon="10.336887"><ele>301.0</ele><time>2026-04-18T12:16:02.017Z</time></trkpt><trkpt lat="45.5323448" lon="10.3367947"><ele>301.0</ele><time>2026-04-18T12:16:05.017Z</time></trkpt><trkpt lat="45.5324232" lon="10.336772"><ele>301.0</ele><time>2026-04-18T12:16:07.019Z</time></trkpt><trkpt lat="45.5324972" lon="10.3367535"><ele>301.0</ele><time>2026-04-18T12:16:08.017Z</time></trkpt><trkpt lat="45.5325843" lon="10.3367263"><ele>301.0</ele><time>2026-04-18T12:16:09.019Z</time></trkpt><trkpt lat="45.5326727" lon="10.3366835"><ele>301.0</ele><time>2026-04-18T12:16:10.018Z</time></trkpt><trkpt lat="45.5327588" lon="10.3366213"><ele>301.0</ele><time>2026-04-18T12:16:11.017Z</time></trkpt><trkpt lat="45.5328437" lon="10.3365555"><ele>301.0</ele><time>2026-04-18T12:16:12.017Z</time></trkpt><trkpt lat="45.5329268" lon="10.336507"><ele>301.0</ele><time>2026-04-18T12:16:13.018Z</time></trkpt><trkpt lat="45.5329985" lon="10.3364682"><ele>301.0</ele><time>2026-04-18T12:16:14.019Z</time></trkpt><trkpt lat="45.5330622" lon="10.3364408"><ele>301.0</ele><time>2026-04-18T12:16:15.018Z</time></trkpt><trkpt lat="45.5331872" lon="10.3364155"><ele>300.40000000000003</ele><time>2026-04-18T12:16:17.017Z</time></trkpt><trkpt lat="45.533262" lon="10.3364215"><ele>299.8</ele><time>2026-04-18T12:16:18.017Z</time></trkpt><trkpt lat="45.5333407" lon="10.3364263"><ele>299.20000000000005</ele><time>2026-04-18T12:16:19.019Z</time></trkpt><trkpt lat="45.5334337" lon="10.3364313"><ele>298.6</ele><time>2026-04-18T12:16:20.019Z</time></trkpt><trkpt lat="45.5335357" lon="10.3364252"><ele>298.0</ele><time>2026-04-18T12:16:21.018Z</time></trkpt><trkpt lat="45.5336533" lon="10.3364072"><ele>299.5</ele><time>2026-04-18T12:16:22.018Z</time></trkpt><trkpt lat="45.5337693" lon="10.336379"><ele>301.0</ele><time>2026-04-18T12:16:23.017Z</time></trkpt><trkpt lat="45.5338887" lon="10.3363547"><ele>302.5</ele><time>2026-04-18T12:16:24.017Z</time></trkpt><trkpt lat="45.5340035" lon="10.33633"><ele>304.0</ele><time>2026-04-18T12:16:25.018Z</time></trkpt><trkpt lat="45.5341115" lon="10.3363083"><ele>304.0</ele><time>2026-04-18T12:16:26.016Z</time></trkpt><trkpt lat="45.534213" lon="10.3362845"><ele>304.0</ele><time>2026-04-18T12:16:27.019Z</time></trkpt><trkpt lat="45.5343153" lon="10.3362743"><ele>304.0</ele><time>2026-04-18T12:16:28.018Z</time></trkpt><trkpt lat="45.5344215" lon="10.3362652"><ele>304.0</ele><time>2026-04-18T12:16:29.018Z</time></trkpt><trkpt lat="45.5345248" lon="10.3362583"><ele>304.0</ele><time>2026-04-18T12:16:30.019Z</time></trkpt><trkpt lat="45.5346245" lon="10.3362462"><ele>304.59999999999997</ele><time>2026-04-18T12:16:31.022Z</time></trkpt><trkpt lat="45.5347215" lon="10.336225"><ele>305.2</ele><time>2026-04-18T12:16:32.019Z</time></trkpt><trkpt lat="45.53482" lon="10.3361847"><ele>305.79999999999995</ele><time>2026-04-18T12:16:33.02Z</time></trkpt><trkpt lat="45.534929" lon="10.3361553"><ele>306.4</ele><time>2026-04-18T12:16:34.018Z</time></trkpt><trkpt lat="45.5350405" lon="10.3361268"><ele>307.0</ele><time>2026-04-18T12:16:35.019Z</time></trkpt><trkpt lat="45.5351668" lon="10.3360947"><ele>307.0</ele><time>2026-04-18T12:16:36.016Z</time></trkpt><trkpt lat="45.5353105" lon="10.33606"><ele>307.0</ele><time>2026-04-18T12:16:37.017Z</time></trkpt><trkpt lat="45.5354348" lon="10.336038"><ele>307.0</ele><time>2026-04-18T12:16:38.017Z</time></trkpt><trkpt lat="45.5355425" lon="10.3360237"><ele>307.0</ele><time>2026-04-18T12:16:39.018Z</time></trkpt><trkpt lat="45.5356388" lon="10.3360142"><ele>307.66666666666663</ele><time>2026-04-18T12:16:40.019Z</time></trkpt><trkpt lat="45.5357228" lon="10.3359955"><ele>308.3333333333333</ele><time>2026-04-18T12:16:41.015Z</time></trkpt><trkpt lat="45.5358045" lon="10.3359447"><ele>309.0</ele><time>2026-04-18T12:16:42.016Z</time></trkpt><trkpt lat="45.5358765" lon="10.3358615"><ele>309.6666666666667</ele><time>2026-04-18T12:16:43.018Z</time></trkpt><trkpt lat="45.535932" lon="10.3357673"><ele>310.33333333333337</ele><time>2026-04-18T12:16:44.017Z</time></trkpt><trkpt lat="45.5359755" lon="10.3356738"><ele>311.0</ele><time>2026-04-18T12:16:45.02Z</time></trkpt><trkpt lat="45.5360083" lon="10.3355797"><ele>310.1666666666667</ele><time>2026-04-18T12:16:46.019Z</time></trkpt><trkpt lat="45.5360475" lon="10.3354782"><ele>309.33333333333337</ele><time>2026-04-18T12:16:47.017Z</time></trkpt><trkpt lat="45.5360972" lon="10.3353673"><ele>308.5</ele><time>2026-04-18T12:16:48.021Z</time></trkpt><trkpt lat="45.5361507" lon="10.3352623"><ele>307.6666666666667</ele><time>2026-04-18T12:16:49.019Z</time></trkpt><trkpt lat="45.5361937" lon="10.3351685"><ele>306.8333333333333</ele><time>2026-04-18T12:16:50.018Z</time></trkpt><trkpt lat="45.5362323" lon="10.3350878"><ele>306.0</ele><time>2026-04-18T12:16:51.02Z</time></trkpt><trkpt lat="45.536319" lon="10.335001"><ele>304.40000000000003</ele><time>2026-04-18T12:16:53.019Z</time></trkpt><trkpt lat="45.5364623" lon="10.3350178"><ele>302.8</ele><time>2026-04-18T12:16:55.018Z</time></trkpt><trkpt lat="45.5365543" lon="10.335036"><ele>301.20000000000005</ele><time>2026-04-18T12:16:56.018Z</time></trkpt><trkpt lat="45.5366348" lon="10.3350625"><ele>299.6</ele><time>2026-04-18T12:16:57.021Z</time></trkpt><trkpt lat="45.5367263" lon="10.3351163"><ele>298.0</ele><time>2026-04-18T12:16:58.021Z</time></trkpt><trkpt lat="45.5368213" lon="10.3351947"><ele>298.0</ele><time>2026-04-18T12:16:59.017Z</time></trkpt><trkpt lat="45.5369188" lon="10.3352937"><ele>298.0</ele><time>2026-04-18T12:17:00.017Z</time></trkpt><trkpt lat="45.5369973" lon="10.3353923"><ele>298.0</ele><time>2026-04-18T12:17:01.018Z</time></trkpt><trkpt lat="45.5370863" lon="10.3354697"><ele>298.0</ele><time>2026-04-18T12:17:02.019Z</time></trkpt><trkpt lat="45.5371702" lon="10.3355213"><ele>298.0</ele><time>2026-04-18T12:17:03.017Z</time></trkpt><trkpt lat="45.5372753" lon="10.3355645"><ele>297.75</ele><time>2026-04-18T12:17:04.015Z</time></trkpt><trkpt lat="45.5373933" lon="10.335612"><ele>297.5</ele><time>2026-04-18T12:17:05.015Z</time></trkpt><trkpt lat="45.5375028" lon="10.3356652"><ele>297.25</ele><time>2026-04-18T12:17:06.015Z</time></trkpt><trkpt lat="45.537607" lon="10.3357187"><ele>297.0</ele><time>2026-04-18T12:17:07.017Z</time></trkpt><trkpt lat="45.537713" lon="10.3357693"><ele>297.0</ele><time>2026-04-18T12:17:08.016Z</time></trkpt><trkpt lat="45.5378137" lon="10.3358297"><ele>297.0</ele><time>2026-04-18T12:17:09.019Z</time></trkpt><trkpt lat="45.5379032" lon="10.335889"><ele>297.0</ele><time>2026-04-18T12:17:10.02Z</time></trkpt><trkpt lat="45.537989" lon="10.3359382"><ele>297.0</ele><time>2026-04-18T12:17:11.017Z</time></trkpt><trkpt lat="45.5380803" lon="10.33598"><ele>297.0</ele><time>2026-04-18T12:17:12.02Z</time></trkpt><trkpt lat="45.5381682" lon="10.3360232"><ele>292.0</ele><time>2026-04-18T12:17:13.019Z</time></trkpt><trkpt lat="45.5382593" lon="10.3360732"><ele>287.0</ele><time>2026-04-18T12:17:14.017Z</time></trkpt><trkpt lat="45.5383552" lon="10.3361278"><ele>282.0</ele><time>2026-04-18T12:17:15.02Z</time></trkpt><trkpt lat="45.538452" lon="10.3361635"><ele>277.0</ele><time>2026-04-18T12:17:16.017Z</time></trkpt><trkpt lat="45.5385443" lon="10.3361992"><ele>272.0</ele><time>2026-04-18T12:17:17.017Z</time></trkpt><trkpt lat="45.5386338" lon="10.3362592"><ele>272.5</ele><time>2026-04-18T12:17:18.018Z</time></trkpt><trkpt lat="45.5387478" lon="10.33634"><ele>273.0</ele><time>2026-04-18T12:17:19.019Z</time></trkpt><trkpt lat="45.5388652" lon="10.3364208"><ele>273.5</ele><time>2026-04-18T12:17:20.017Z</time></trkpt><trkpt lat="45.538974" lon="10.336488"><ele>274.0</ele><time>2026-04-18T12:17:21.02Z</time></trkpt><trkpt lat="45.5390717" lon="10.3365645"><ele>274.0</ele><time>2026-04-18T12:17:22.018Z</time></trkpt><trkpt lat="45.5391795" lon="10.3366613"><ele>274.0</ele><time>2026-04-18T12:17:23.018Z</time></trkpt><trkpt lat="45.5393105" lon="10.336771"><ele>274.0</ele><time>2026-04-18T12:17:24.019Z</time></trkpt><trkpt lat="45.5394373" lon="10.336879"><ele>274.0</ele><time>2026-04-18T12:17:25.017Z</time></trkpt><trkpt lat="45.5395457" lon="10.3369847"><ele>274.8</ele><time>2026-04-18T12:17:26.018Z</time></trkpt><trkpt lat="45.5396358" lon="10.3370782"><ele>275.59999999999997</ele><time>2026-04-18T12:17:27.02Z</time></trkpt><trkpt lat="45.5397088" lon="10.3371447"><ele>276.4</ele><time>2026-04-18T12:17:28.019Z</time></trkpt><trkpt lat="45.5397855" lon="10.3371968"><ele>277.2</ele><time>2026-04-18T12:17:29.018Z</time></trkpt><trkpt lat="45.5398795" lon="10.3372373"><ele>278.0</ele><time>2026-04-18T12:17:30.016Z</time></trkpt><trkpt lat="45.5399812" lon="10.337264"><ele>278.0</ele><time>2026-04-18T12:17:31.016Z</time></trkpt><trkpt lat="45.5400843" lon="10.3372873"><ele>278.0</ele><time>2026-04-18T12:17:32.018Z</time></trkpt><trkpt lat="45.5401797" lon="10.337313"><ele>278.0</ele><time>2026-04-18T12:17:33.018Z</time></trkpt><trkpt lat="45.5402798" lon="10.3373277"><ele>278.0</ele><time>2026-04-18T12:17:34.036Z</time></trkpt><trkpt lat="45.5403682" lon="10.3373498"><ele>278.0</ele><time>2026-04-18T12:17:35.018Z</time></trkpt><trkpt lat="45.5404625" lon="10.3373765"><ele>274.0</ele><time>2026-04-18T12:17:36.018Z</time></trkpt><trkpt lat="45.5405533" lon="10.3374053"><ele>270.0</ele><time>2026-04-18T12:17:37.017Z</time></trkpt><trkpt lat="45.5406337" lon="10.3374448"><ele>266.0</ele><time>2026-04-18T12:17:38.017Z</time></trkpt><trkpt lat="45.5407225" lon="10.3375145"><ele>262.0</ele><time>2026-04-18T12:17:39.018Z</time></trkpt><trkpt lat="45.5408303" lon="10.3376135"><ele>258.0</ele><time>2026-04-18T12:17:40.017Z</time></trkpt><trkpt lat="45.5409432" lon="10.337719"><ele>258.0</ele><time>2026-04-18T12:17:41.018Z</time></trkpt><trkpt lat="45.5410438" lon="10.337813"><ele>258.0</ele><time>2026-04-18T12:17:42.017Z</time></trkpt><trkpt lat="45.5411385" lon="10.3378937"><ele>258.0</ele><time>2026-04-18T12:17:43.03Z</time></trkpt><trkpt lat="45.5412273" lon="10.3379637"><ele>258.0</ele><time>2026-04-18T12:17:44.016Z</time></trkpt><trkpt lat="45.5413323" lon="10.3380137"><ele>258.0</ele><time>2026-04-18T12:17:45.017Z</time></trkpt><trkpt lat="45.5414537" lon="10.3380657"><ele>258.75</ele><time>2026-04-18T12:17:46.018Z</time></trkpt><trkpt lat="45.5415638" lon="10.3381207"><ele>259.5</ele><time>2026-04-18T12:17:47.017Z</time></trkpt><trkpt lat="45.5416725" lon="10.3381753"><ele>260.25</ele><time>2026-04-18T12:17:48.03Z</time></trkpt><trkpt lat="45.5417763" lon="10.3382373"><ele>261.0</ele><time>2026-04-18T12:17:49.016Z</time></trkpt><trkpt lat="45.5418697" lon="10.33831"><ele>261.0</ele><time>2026-04-18T12:17:50.015Z</time></trkpt><trkpt lat="45.5419658" lon="10.3383987"><ele>261.0</ele><time>2026-04-18T12:17:51.016Z</time></trkpt><trkpt lat="45.5420567" lon="10.338492"><ele>261.0</ele><time>2026-04-18T12:17:52.017Z</time></trkpt><trkpt lat="45.5421348" lon="10.3385795"><ele>261.0</ele><time>2026-04-18T12:17:53.016Z</time></trkpt><trkpt lat="45.5422095" lon="10.3386778"><ele>261.0</ele><time>2026-04-18T12:17:54.015Z</time></trkpt><trkpt lat="45.542273" lon="10.3387985"><ele>259.8</ele><time>2026-04-18T12:17:55.014Z</time></trkpt><trkpt lat="45.5423355" lon="10.3388943"><ele>258.6</ele><time>2026-04-18T12:17:56.014Z</time></trkpt><trkpt lat="45.5423998" lon="10.3389665"><ele>257.4</ele><time>2026-04-18T12:17:57.029Z</time></trkpt><trkpt lat="45.5424842" lon="10.3390118"><ele>256.2</ele><time>2026-04-18T12:17:58.017Z</time></trkpt><trkpt lat="45.5425855" lon="10.3390703"><ele>255.0</ele><time>2026-04-18T12:17:59.017Z</time></trkpt><trkpt lat="45.5426857" lon="10.3391102"><ele>255.0</ele><time>2026-04-18T12:18:00.018Z</time></trkpt><trkpt lat="45.5427695" lon="10.3391623"><ele>255.0</ele><time>2026-04-18T12:18:01.018Z</time></trkpt><trkpt lat="45.54285" lon="10.3392072"><ele>255.0</ele><time>2026-04-18T12:18:02.018Z</time></trkpt><trkpt lat="45.5429173" lon="10.3392457"><ele>255.0</ele><time>2026-04-18T12:18:03.018Z</time></trkpt><trkpt lat="45.5429803" lon="10.3392875"><ele>255.0</ele><time>2026-04-18T12:18:04.016Z</time></trkpt><trkpt lat="45.5430387" lon="10.3393522"><ele>255.0</ele><time>2026-04-18T12:18:05.017Z</time></trkpt><trkpt lat="45.5431042" lon="10.3394545"><ele>252.5</ele><time>2026-04-18T12:18:06.017Z</time></trkpt><trkpt lat="45.543178" lon="10.339589"><ele>250.0</ele><time>2026-04-18T12:18:07.016Z</time></trkpt><trkpt lat="45.5432915" lon="10.3397993"><ele>247.5</ele><time>2026-04-18T12:18:09.016Z</time></trkpt><trkpt lat="45.5433943" lon="10.3398678"><ele>245.0</ele><time>2026-04-18T12:18:11.016Z</time></trkpt><trkpt lat="45.543461" lon="10.339858"><ele>245.00000000000003</ele><time>2026-04-18T12:18:12.017Z</time></trkpt><trkpt lat="45.5435248" lon="10.3398238"><ele>245.0</ele><time>2026-04-18T12:18:13.017Z</time></trkpt><trkpt lat="45.5435748" lon="10.3397657"><ele>245.0</ele><time>2026-04-18T12:18:14.016Z</time></trkpt><trkpt lat="45.5436167" lon="10.3396973"><ele>245.0</ele><time>2026-04-18T12:18:15.017Z</time></trkpt><trkpt lat="45.543655" lon="10.3395675"><ele>245.00000000000003</ele><time>2026-04-18T12:18:16.015Z</time></trkpt><trkpt lat="45.5436973" lon="10.3394267"><ele>245.0</ele><time>2026-04-18T12:18:17.015Z</time></trkpt><trkpt lat="45.5437473" lon="10.3393025"><ele>243.2</ele><time>2026-04-18T12:18:18.016Z</time></trkpt><trkpt lat="45.5438035" lon="10.3392022"><ele>241.4</ele><time>2026-04-18T12:18:19.016Z</time></trkpt><trkpt lat="45.5438495" lon="10.3391023"><ele>239.60000000000002</ele><time>2026-04-18T12:18:20.015Z</time></trkpt><trkpt lat="45.543882" lon="10.3389865"><ele>237.8</ele><time>2026-04-18T12:18:21.015Z</time></trkpt><trkpt lat="45.543909" lon="10.338857"><ele>236.0</ele><time>2026-04-18T12:18:22.015Z</time></trkpt><trkpt lat="45.5439343" lon="10.3387255"><ele>233.83333333333334</ele><time>2026-04-18T12:18:23.018Z</time></trkpt><trkpt lat="45.5439545" lon="10.3386088"><ele>231.66666666666669</ele><time>2026-04-18T12:18:24.019Z</time></trkpt><trkpt lat="45.5439748" lon="10.3385013"><ele>229.5</ele><time>2026-04-18T12:18:25.018Z</time></trkpt><trkpt lat="45.5440162" lon="10.3383975"><ele>227.33333333333331</ele><time>2026-04-18T12:18:26.018Z</time></trkpt><trkpt lat="45.5440825" lon="10.3383093"><ele>225.16666666666666</ele><time>2026-04-18T12:18:27.019Z</time></trkpt><trkpt lat="45.5441438" lon="10.338236"><ele>223.0</ele><time>2026-04-18T12:18:28.019Z</time></trkpt><trkpt lat="45.5441912" lon="10.3381717"><ele>223.0</ele><time>2026-04-18T12:18:29.018Z</time></trkpt><trkpt lat="45.5442645" lon="10.3380672"><ele>223.0</ele><time>2026-04-18T12:18:31.019Z</time></trkpt><trkpt lat="45.5443167" lon="10.3379923"><ele>223.0</ele><time>2026-04-18T12:18:33.019Z</time></trkpt><trkpt lat="45.5444373" lon="10.3379637"><ele>223.0</ele><time>2026-04-18T12:18:35.02Z</time></trkpt><trkpt lat="45.5445155" lon="10.3379752"><ele>223.0</ele><time>2026-04-18T12:18:36.031Z</time></trkpt><trkpt lat="45.544593" lon="10.3379887"><ele>223.99999999999997</ele><time>2026-04-18T12:18:37.02Z</time></trkpt><trkpt lat="45.5446695" lon="10.3379882"><ele>225.0</ele><time>2026-04-18T12:18:38.021Z</time></trkpt><trkpt lat="45.5447452" lon="10.3379547"><ele>226.0</ele><time>2026-04-18T12:18:39.02Z</time></trkpt><trkpt lat="45.5448075" lon="10.3379022"><ele>227.0</ele><time>2026-04-18T12:18:40.02Z</time></trkpt><trkpt lat="45.5448847" lon="10.3378233"><ele>227.99999999999997</ele><time>2026-04-18T12:18:42.03Z</time></trkpt><trkpt lat="45.5449478" lon="10.3377968"><ele>229.0</ele><time>2026-04-18T12:18:44.017Z</time></trkpt><trkpt lat="45.5450405" lon="10.337827"><ele>228.99999999999997</ele><time>2026-04-18T12:18:47.019Z</time></trkpt><trkpt lat="45.5451052" lon="10.3378967"><ele>229.0</ele><time>2026-04-18T12:18:49.019Z</time></trkpt><trkpt lat="45.5451642" lon="10.3379692"><ele>229.0</ele><time>2026-04-18T12:18:50.02Z</time></trkpt><trkpt lat="45.5452435" lon="10.3380202"><ele>229.0</ele><time>2026-04-18T12:18:51.019Z</time></trkpt><trkpt lat="45.5453295" lon="10.3380302"><ele>228.99999999999997</ele><time>2026-04-18T12:18:52.018Z</time></trkpt><trkpt lat="45.5454108" lon="10.338042"><ele>229.0</ele><time>2026-04-18T12:18:53.021Z</time></trkpt><trkpt lat="45.5454792" lon="10.3380785"><ele>232.99999999999997</ele><time>2026-04-18T12:18:54.019Z</time></trkpt><trkpt lat="45.545538" lon="10.3382157"><ele>237.0</ele><time>2026-04-18T12:18:56.019Z</time></trkpt><trkpt lat="45.5455223" lon="10.3383078"><ele>241.0</ele><time>2026-04-18T12:18:57.02Z</time></trkpt><trkpt lat="45.5454925" lon="10.3384113"><ele>245.0</ele><time>2026-04-18T12:18:58.021Z</time></trkpt><trkpt lat="45.5454692" lon="10.3385255"><ele>248.99999999999997</ele><time>2026-04-18T12:18:59.02Z</time></trkpt><trkpt lat="45.5454642" lon="10.3386503"><ele>253.0</ele><time>2026-04-18T12:19:00.02Z</time></trkpt><trkpt lat="45.5454842" lon="10.338775"><ele>254.83333333333331</ele><time>2026-04-18T12:19:01.021Z</time></trkpt><trkpt lat="45.5455238" lon="10.3388855"><ele>256.66666666666663</ele><time>2026-04-18T12:19:02.019Z</time></trkpt><trkpt lat="45.5455855" lon="10.3389473"><ele>258.5</ele><time>2026-04-18T12:19:03.018Z</time></trkpt><trkpt lat="45.5456628" lon="10.3389625"><ele>260.3333333333333</ele><time>2026-04-18T12:19:04.023Z</time></trkpt><trkpt lat="45.545746" lon="10.3389413"><ele>262.1666666666667</ele><time>2026-04-18T12:19:05.019Z</time></trkpt><trkpt lat="45.5458293" lon="10.3389302"><ele>264.0</ele><time>2026-04-18T12:19:06.03Z</time></trkpt><trkpt lat="45.5459157" lon="10.338948"><ele>264.0</ele><time>2026-04-18T12:19:07.018Z</time></trkpt><trkpt lat="45.5460143" lon="10.3389982"><ele>264.0</ele><time>2026-04-18T12:19:08.016Z</time></trkpt><trkpt lat="45.546119" lon="10.339065"><ele>264.0</ele><time>2026-04-18T12:19:09.017Z</time></trkpt><trkpt lat="45.5462065" lon="10.3391277"><ele>264.0</ele><time>2026-04-18T12:19:10.016Z</time></trkpt><trkpt lat="45.5462798" lon="10.3391762"><ele>264.0</ele><time>2026-04-18T12:19:11.019Z</time></trkpt><trkpt lat="45.5463495" lon="10.3391902"><ele>265.59999999999997</ele><time>2026-04-18T12:19:12.02Z</time></trkpt><trkpt lat="45.5464235" lon="10.3391533"><ele>267.2</ele><time>2026-04-18T12:19:13.02Z</time></trkpt><trkpt lat="45.5465073" lon="10.3390867"><ele>268.79999999999995</ele><time>2026-04-18T12:19:14.019Z</time></trkpt><trkpt lat="45.5466025" lon="10.3390073"><ele>270.4</ele><time>2026-04-18T12:19:15.02Z</time></trkpt><trkpt lat="45.546699" lon="10.3389255"><ele>272.0</ele><time>2026-04-18T12:19:16.019Z</time></trkpt><trkpt lat="45.5467955" lon="10.3388422"><ele>272.0</ele><time>2026-04-18T12:19:17.02Z</time></trkpt><trkpt lat="45.54689" lon="10.3387553"><ele>272.0</ele><time>2026-04-18T12:19:18.023Z</time></trkpt><trkpt lat="45.5469842" lon="10.3386668"><ele>272.0</ele><time>2026-04-18T12:19:19.02Z</time></trkpt><trkpt lat="45.5470788" lon="10.3385807"><ele>272.0</ele><time>2026-04-18T12:19:20.02Z</time></trkpt><trkpt lat="45.5471715" lon="10.3385017"><ele>272.0</ele><time>2026-04-18T12:19:21.02Z</time></trkpt><trkpt lat="45.5472592" lon="10.3384385"><ele>274.5</ele><time>2026-04-18T12:19:22.019Z</time></trkpt><trkpt lat="45.5473443" lon="10.3384035"><ele>277.0</ele><time>2026-04-18T12:19:23.019Z</time></trkpt><trkpt lat="45.54743" lon="10.3383982"><ele>279.5</ele><time>2026-04-18T12:19:24.02Z</time></trkpt><trkpt lat="45.5475188" lon="10.3383998"><ele>282.0</ele><time>2026-04-18T12:19:25.022Z</time></trkpt><trkpt lat="45.5475983" lon="10.3384048"><ele>284.5</ele><time>2026-04-18T12:19:26.018Z</time></trkpt><trkpt lat="45.5476665" lon="10.33843"><ele>287.0</ele><time>2026-04-18T12:19:27.02Z</time></trkpt><trkpt lat="45.5477263" lon="10.3384962"><ele>287.0</ele><time>2026-04-18T12:19:28.019Z</time></trkpt><trkpt lat="45.5477863" lon="10.3385932"><ele>287.0</ele><time>2026-04-18T12:19:29.02Z</time></trkpt><trkpt lat="45.5478387" lon="10.3386953"><ele>287.0</ele><time>2026-04-18T12:19:30.019Z</time></trkpt><trkpt lat="45.5478918" lon="10.338777"><ele>287.0</ele><time>2026-04-18T12:19:31.019Z</time></trkpt><trkpt lat="45.5479575" lon="10.3388217"><ele>287.0</ele><time>2026-04-18T12:19:32.018Z</time></trkpt><trkpt lat="45.5480322" lon="10.3388247"><ele>287.0</ele><time>2026-04-18T12:19:33.017Z</time></trkpt><trkpt lat="45.5481213" lon="10.3387978"><ele>287.75</ele><time>2026-04-18T12:19:34.017Z</time></trkpt><trkpt lat="45.5482278" lon="10.338765"><ele>288.5</ele><time>2026-04-18T12:19:35.018Z</time></trkpt><trkpt lat="45.5483455" lon="10.338734"><ele>289.25</ele><time>2026-04-18T12:19:36.022Z</time></trkpt><trkpt lat="45.5484702" lon="10.3387045"><ele>290.0</ele><time>2026-04-18T12:19:37.021Z</time></trkpt><trkpt lat="45.5485908" lon="10.3386853"><ele>290.0</ele><time>2026-04-18T12:19:38.022Z</time></trkpt><trkpt lat="45.5487058" lon="10.3386828"><ele>290.0</ele><time>2026-04-18T12:19:39.02Z</time></trkpt><trkpt lat="45.5488098" lon="10.3386925"><ele>290.0</ele><time>2026-04-18T12:19:40.022Z</time></trkpt><trkpt lat="45.5489043" lon="10.3387235"><ele>290.0</ele><time>2026-04-18T12:19:41.023Z</time></trkpt><trkpt lat="45.5489938" lon="10.338782"><ele>290.0</ele><time>2026-04-18T12:19:42.022Z</time></trkpt><trkpt lat="45.5490732" lon="10.3388667"><ele>295.6</ele><time>2026-04-18T12:19:43.02Z</time></trkpt><trkpt lat="45.5491425" lon="10.3389747"><ele>301.2</ele><time>2026-04-18T12:19:44.02Z</time></trkpt><trkpt lat="45.5492055" lon="10.3390787"><ele>306.8</ele><time>2026-04-18T12:19:45.02Z</time></trkpt><trkpt lat="45.5492752" lon="10.3391603"><ele>312.4</ele><time>2026-04-18T12:19:46.018Z</time></trkpt><trkpt lat="45.549351" lon="10.3392255"><ele>318.0</ele><time>2026-04-18T12:19:47.019Z</time></trkpt><trkpt lat="45.5494242" lon="10.3392617"><ele>318.0</ele><time>2026-04-18T12:19:48.018Z</time></trkpt><trkpt lat="45.5494897" lon="10.3392788"><ele>318.0</ele><time>2026-04-18T12:19:49.019Z</time></trkpt><trkpt lat="45.5495958" lon="10.3392312"><ele>318.0</ele><time>2026-04-18T12:19:51.02Z</time></trkpt><trkpt lat="45.5496545" lon="10.3391413"><ele>318.0</ele><time>2026-04-18T12:19:52.02Z</time></trkpt><trkpt lat="45.5497238" lon="10.3390323"><ele>318.0</ele><time>2026-04-18T12:19:53.019Z</time></trkpt><trkpt lat="45.5498088" lon="10.3389317"><ele>317.0</ele><time>2026-04-18T12:19:54.019Z</time></trkpt><trkpt lat="45.5498897" lon="10.3388423"><ele>316.0</ele><time>2026-04-18T12:19:55.018Z</time></trkpt><trkpt lat="45.5499628" lon="10.3387885"><ele>315.0</ele><time>2026-04-18T12:19:56.017Z</time></trkpt><trkpt lat="45.5500755" lon="10.3387557"><ele>314.0</ele><time>2026-04-18T12:19:58.016Z</time></trkpt><trkpt lat="45.5501557" lon="10.3387595"><ele>313.0</ele><time>2026-04-18T12:20:00.017Z</time></trkpt><trkpt lat="45.5502157" lon="10.3387887"><ele>312.0</ele><time>2026-04-18T12:20:02.021Z</time></trkpt><trkpt lat="45.5503017" lon="10.3388418"><ele>314.0</ele><time>2026-04-18T12:20:04.018Z</time></trkpt><trkpt lat="45.5504053" lon="10.3388818"><ele>316.0</ele><time>2026-04-18T12:20:06.017Z</time></trkpt><trkpt lat="45.5503517" lon="10.3389865"><ele>318.0</ele><time>2026-04-18T12:20:11.017Z</time></trkpt><trkpt lat="45.550285" lon="10.3390928"><ele>320.0</ele><time>2026-04-18T12:20:13.02Z</time></trkpt><trkpt lat="45.5502763" lon="10.3391898"><ele>322.0</ele><time>2026-04-18T12:20:14.018Z</time></trkpt><trkpt lat="45.5502585" lon="10.3393043"><ele>324.0</ele><time>2026-04-18T12:20:15.017Z</time></trkpt><trkpt lat="45.5502392" lon="10.3394057"><ele>326.0</ele><time>2026-04-18T12:20:16.018Z</time></trkpt><trkpt lat="45.5502338" lon="10.3395695"><ele>328.0</ele><time>2026-04-18T12:20:18.02Z</time></trkpt><trkpt lat="45.5502927" lon="10.3397202"><ele>330.0</ele><time>2026-04-18T12:20:20.017Z</time></trkpt><trkpt lat="45.5503467" lon="10.339804"><ele>332.0</ele><time>2026-04-18T12:20:21.018Z</time></trkpt><trkpt lat="45.550391" lon="10.3398872"><ele>334.0</ele><time>2026-04-18T12:20:22.017Z</time></trkpt><trkpt lat="45.5504235" lon="10.3399763"><ele>336.16666666666663</ele><time>2026-04-18T12:20:23.016Z</time></trkpt><trkpt lat="45.5504523" lon="10.3400575"><ele>338.3333333333333</ele><time>2026-04-18T12:20:24.016Z</time></trkpt><trkpt lat="45.5504537" lon="10.340163"><ele>340.5</ele><time>2026-04-18T12:20:26.018Z</time></trkpt><trkpt lat="45.5503702" lon="10.3402343"><ele>342.6666666666667</ele><time>2026-04-18T12:20:28.019Z</time></trkpt><trkpt lat="45.5503123" lon="10.3402903"><ele>344.83333333333337</ele><time>2026-04-18T12:20:29.019Z</time></trkpt><trkpt lat="45.5502392" lon="10.3403615"><ele>347.0</ele><time>2026-04-18T12:20:30.019Z</time></trkpt><trkpt lat="45.5501585" lon="10.3404255"><ele>347.0</ele><time>2026-04-18T12:20:31.018Z</time></trkpt><trkpt lat="45.5500812" lon="10.3404842"><ele>347.0</ele><time>2026-04-18T12:20:32.02Z</time></trkpt><trkpt lat="45.5500097" lon="10.3405425"><ele>347.0</ele><time>2026-04-18T12:20:33.02Z</time></trkpt><trkpt lat="45.5499397" lon="10.3406003"><ele>347.0</ele><time>2026-04-18T12:20:34.019Z</time></trkpt><trkpt lat="45.549866" lon="10.340671"><ele>347.0</ele><time>2026-04-18T12:20:35.027Z</time></trkpt><trkpt lat="45.5497847" lon="10.3407392"><ele>347.0</ele><time>2026-04-18T12:20:36.021Z</time></trkpt><trkpt lat="45.5497008" lon="10.3407967"><ele>348.20000000000005</ele><time>2026-04-18T12:20:37.021Z</time></trkpt><trkpt lat="45.5496285" lon="10.3408442"><ele>349.4</ele><time>2026-04-18T12:20:38.019Z</time></trkpt><trkpt lat="45.5495652" lon="10.3408953"><ele>350.6</ele><time>2026-04-18T12:20:39.021Z</time></trkpt><trkpt lat="45.5494602" lon="10.340963"><ele>351.79999999999995</ele><time>2026-04-18T12:20:41.02Z</time></trkpt><trkpt lat="45.5493475" lon="10.3410043"><ele>353.0</ele><time>2026-04-18T12:20:43.021Z</time></trkpt><trkpt lat="45.549265" lon="10.341009"><ele>350.4</ele><time>2026-04-18T12:20:45.017Z</time></trkpt><trkpt lat="45.549185" lon="10.3410497"><ele>347.79999999999995</ele><time>2026-04-18T12:20:47.017Z</time></trkpt><trkpt lat="45.5490923" lon="10.3411115"><ele>345.2</ele><time>2026-04-18T12:20:49.019Z</time></trkpt><trkpt lat="45.5489998" lon="10.3411578"><ele>342.6</ele><time>2026-04-18T12:20:51.021Z</time></trkpt><trkpt lat="45.5489642" lon="10.3412872"><ele>340.0</ele><time>2026-04-18T12:20:54.021Z</time></trkpt><trkpt lat="45.5489725" lon="10.3414272"><ele>339.3333333333333</ele><time>2026-04-18T12:20:56.019Z</time></trkpt><trkpt lat="45.5490268" lon="10.341546"><ele>338.66666666666663</ele><time>2026-04-18T12:20:58.02Z</time></trkpt><trkpt lat="45.5491078" lon="10.3416227"><ele>338.0</ele><time>2026-04-18T12:21:00.02Z</time></trkpt><trkpt lat="45.5491832" lon="10.3417327"><ele>337.3333333333333</ele><time>2026-04-18T12:21:02.02Z</time></trkpt><trkpt lat="45.5492353" lon="10.3417848"><ele>336.6666666666667</ele><time>2026-04-18T12:21:03.02Z</time></trkpt><trkpt lat="45.5492837" lon="10.34185"><ele>336.0</ele><time>2026-04-18T12:21:04.019Z</time></trkpt><trkpt lat="45.5493532" lon="10.3419728"><ele>336.0</ele><time>2026-04-18T12:21:06.02Z</time></trkpt><trkpt lat="45.549422" lon="10.3421085"><ele>336.0</ele><time>2026-04-18T12:21:08.018Z</time></trkpt><trkpt lat="45.5495062" lon="10.342204"><ele>336.0</ele><time>2026-04-18T12:21:10.016Z</time></trkpt><trkpt lat="45.5495953" lon="10.3422073"><ele>336.0</ele><time>2026-04-18T12:21:12.02Z</time></trkpt><trkpt lat="45.5496748" lon="10.3421345"><ele>336.0</ele><time>2026-04-18T12:21:14.017Z</time></trkpt><trkpt lat="45.5497765" lon="10.3420895"><ele>337.0</ele><time>2026-04-18T12:21:16.018Z</time></trkpt><trkpt lat="45.5498925" lon="10.3420543"><ele>338.0</ele><time>2026-04-18T12:21:18.019Z</time></trkpt><trkpt lat="45.5499658" lon="10.341977"><ele>339.0</ele><time>2026-04-18T12:21:20.018Z</time></trkpt><trkpt lat="45.5500113" lon="10.3418688"><ele>340.0</ele><time>2026-04-18T12:21:22.019Z</time></trkpt><trkpt lat="45.5500863" lon="10.3417752"><ele>341.0</ele><time>2026-04-18T12:21:24.02Z</time></trkpt><trkpt lat="45.5501462" lon="10.3417332"><ele>341.0</ele><time>2026-04-18T12:21:25.016Z</time></trkpt><trkpt lat="45.5502182" lon="10.3416548"><ele>341.0</ele><time>2026-04-18T12:21:26.015Z</time></trkpt><trkpt lat="45.5502907" lon="10.3416107"><ele>341.0</ele><time>2026-04-18T12:21:27.017Z</time></trkpt><trkpt lat="45.5503497" lon="10.3415673"><ele>341.0</ele><time>2026-04-18T12:21:28.017Z</time></trkpt><trkpt lat="45.5504377" lon="10.3414137"><ele>341.0</ele><time>2026-04-18T12:21:30.028Z</time></trkpt><trkpt lat="45.5504865" lon="10.3413182"><ele>341.6</ele><time>2026-04-18T12:21:31.018Z</time></trkpt><trkpt lat="45.5505508" lon="10.3412427"><ele>342.20000000000005</ele><time>2026-04-18T12:21:32.017Z</time></trkpt><trkpt lat="45.5506188" lon="10.3411755"><ele>342.79999999999995</ele><time>2026-04-18T12:21:33.018Z</time></trkpt><trkpt lat="45.5506782" lon="10.3411207"><ele>343.4</ele><time>2026-04-18T12:21:34.017Z</time></trkpt><trkpt lat="45.5507965" lon="10.3410803"><ele>344.0</ele><time>2026-04-18T12:21:36.015Z</time></trkpt><trkpt lat="45.5509007" lon="10.3410492"><ele>344.0</ele><time>2026-04-18T12:21:38.016Z</time></trkpt><trkpt lat="45.5510003" lon="10.341041"><ele>344.0</ele><time>2026-04-18T12:21:40.018Z</time></trkpt><trkpt lat="45.5511213" lon="10.3409927"><ele>344.0</ele><time>2026-04-18T12:21:42.017Z</time></trkpt><trkpt lat="45.5511828" lon="10.3409577"><ele>344.0</ele><time>2026-04-18T12:21:43.019Z</time></trkpt><trkpt lat="45.5512548" lon="10.3409315"><ele>344.0</ele><time>2026-04-18T12:21:44.018Z</time></trkpt><trkpt lat="45.5513162" lon="10.340895"><ele>344.0</ele><time>2026-04-18T12:21:45.019Z</time></trkpt><trkpt lat="45.5513855" lon="10.3408315"><ele>341.6666666666667</ele><time>2026-04-18T12:21:46.019Z</time></trkpt><trkpt lat="45.5514522" lon="10.3407628"><ele>339.33333333333337</ele><time>2026-04-18T12:21:47.017Z</time></trkpt><trkpt lat="45.551509" lon="10.3407142"><ele>337.0</ele><time>2026-04-18T12:21:48.018Z</time></trkpt><trkpt lat="45.5515733" lon="10.3406627"><ele>334.6666666666667</ele><time>2026-04-18T12:21:49.018Z</time></trkpt><trkpt lat="45.5516832" lon="10.340573"><ele>332.3333333333333</ele><time>2026-04-18T12:21:51.033Z</time></trkpt><trkpt lat="45.5517482" lon="10.3405368"><ele>330.0</ele><time>2026-04-18T12:21:52.017Z</time></trkpt><trkpt lat="45.5518123" lon="10.3404875"><ele>332.7142857142857</ele><time>2026-04-18T12:21:53.02Z</time></trkpt><trkpt lat="45.5518842" lon="10.3404333"><ele>335.42857142857144</ele><time>2026-04-18T12:21:54.018Z</time></trkpt><trkpt lat="45.5519562" lon="10.3403758"><ele>338.1428571428571</ele><time>2026-04-18T12:21:55.017Z</time></trkpt><trkpt lat="45.552016" lon="10.3403383"><ele>340.8571428571429</ele><time>2026-04-18T12:21:56.019Z</time></trkpt><trkpt lat="45.5520813" lon="10.34031"><ele>343.57142857142856</ele><time>2026-04-18T12:21:57.018Z</time></trkpt><trkpt lat="45.5521533" lon="10.3402812"><ele>346.2857142857143</ele><time>2026-04-18T12:21:58.018Z</time></trkpt><trkpt lat="45.5522147" lon="10.34026"><ele>349.0</ele><time>2026-04-18T12:21:59.016Z</time></trkpt><trkpt lat="45.5522805" lon="10.3402358"><ele>349.0</ele><time>2026-04-18T12:22:00.016Z</time></trkpt><trkpt lat="45.5523438" lon="10.3401968"><ele>349.0</ele><time>2026-04-18T12:22:01.017Z</time></trkpt><trkpt lat="45.5524075" lon="10.3401472"><ele>349.0</ele><time>2026-04-18T12:22:02.017Z</time></trkpt><trkpt lat="45.5524702" lon="10.3401"><ele>349.0</ele><time>2026-04-18T12:22:03.02Z</time></trkpt><trkpt lat="45.552528" lon="10.3400433"><ele>349.0</ele><time>2026-04-18T12:22:04.02Z</time></trkpt><trkpt lat="45.5526105" lon="10.3399328"><ele>349.0</ele><time>2026-04-18T12:22:06.019Z</time></trkpt><trkpt lat="45.552721" lon="10.3398893"><ele>349.0</ele><time>2026-04-18T12:22:08.019Z</time></trkpt><trkpt lat="45.5527917" lon="10.339851"><ele>349.0</ele><time>2026-04-18T12:22:09.02Z</time></trkpt><trkpt lat="45.5528588" lon="10.3398217"><ele>349.0</ele><time>2026-04-18T12:22:10.02Z</time></trkpt><trkpt lat="45.5529287" lon="10.3398023"><ele>349.0</ele><time>2026-04-18T12:22:11.019Z</time></trkpt><trkpt lat="45.5530335" lon="10.3397345"><ele>349.0</ele><time>2026-04-18T12:22:13.018Z</time></trkpt><trkpt lat="45.5530437" lon="10.3396268"><ele>349.0</ele><time>2026-04-18T12:22:15.018Z</time></trkpt><trkpt lat="45.5530313" lon="10.3394893"><ele>351.16666666666663</ele><time>2026-04-18T12:22:17.02Z</time></trkpt><trkpt lat="45.5530842" lon="10.3393983"><ele>353.3333333333333</ele><time>2026-04-18T12:22:19.021Z</time></trkpt><trkpt lat="45.5531455" lon="10.3393712"><ele>355.5</ele><time>2026-04-18T12:22:26.018Z</time></trkpt><trkpt lat="45.5532288" lon="10.339333"><ele>357.6666666666667</ele><time>2026-04-18T12:23:46.021Z</time></trkpt><trkpt lat="45.5533367" lon="10.339285"><ele>359.83333333333337</ele><time>2026-04-18T12:23:48.021Z</time></trkpt><trkpt lat="45.5534077" lon="10.339253"><ele>362.0</ele><time>2026-04-18T12:23:49.022Z</time></trkpt><trkpt lat="45.5534853" lon="10.3392205"><ele>362.0</ele><time>2026-04-18T12:23:50.02Z</time></trkpt><trkpt lat="45.5535625" lon="10.339206"><ele>362.0</ele><time>2026-04-18T12:23:51.024Z</time></trkpt><trkpt lat="45.553632" lon="10.339204"><ele>362.0</ele><time>2026-04-18T12:23:52.023Z</time></trkpt><trkpt lat="45.5536973" lon="10.3392167"><ele>362.0</ele><time>2026-04-18T12:23:53.022Z</time></trkpt><trkpt lat="45.5537622" lon="10.3392333"><ele>362.0</ele><time>2026-04-18T12:23:54.022Z</time></trkpt><trkpt lat="45.5538233" lon="10.339257"><ele>362.0</ele><time>2026-04-18T12:23:55.023Z</time></trkpt><trkpt lat="45.553891" lon="10.3392982"><ele>362.0</ele><time>2026-04-18T12:23:56.023Z</time></trkpt><trkpt lat="45.5539565" lon="10.339358"><ele>366.40000000000003</ele><time>2026-04-18T12:23:57.021Z</time></trkpt><trkpt lat="45.5540167" lon="10.3394232"><ele>370.8</ele><time>2026-04-18T12:23:58.021Z</time></trkpt><trkpt lat="45.5540697" lon="10.339476"><ele>375.2</ele><time>2026-04-18T12:23:59.02Z</time></trkpt><trkpt lat="45.554163" lon="10.3395325"><ele>379.6</ele><time>2026-04-18T12:24:01.019Z</time></trkpt><trkpt lat="45.5542248" lon="10.3394527"><ele>384.0</ele><time>2026-04-18T12:24:04.018Z</time></trkpt><trkpt lat="45.5542773" lon="10.3392725"><ele>384.0</ele><time>2026-04-18T12:24:06.02Z</time></trkpt><trkpt lat="45.554324" lon="10.3391648"><ele>384.0</ele><time>2026-04-18T12:24:07.021Z</time></trkpt><trkpt lat="45.5543898" lon="10.3390472"><ele>384.0</ele><time>2026-04-18T12:24:08.02Z</time></trkpt><trkpt lat="45.5544767" lon="10.3389162"><ele>384.0</ele><time>2026-04-18T12:24:09.021Z</time></trkpt><trkpt lat="45.554579" lon="10.338771"><ele>390.75</ele><time>2026-04-18T12:24:10.02Z</time></trkpt><trkpt lat="45.554685" lon="10.3386233"><ele>397.5</ele><time>2026-04-18T12:24:11.02Z</time></trkpt><trkpt lat="45.5547817" lon="10.33848"><ele>404.25</ele><time>2026-04-18T12:24:12.019Z</time></trkpt><trkpt lat="45.554865" lon="10.3383257"><ele>411.0</ele><time>2026-04-18T12:24:13.02Z</time></trkpt><trkpt lat="45.5549442" lon="10.3381707"><ele>409.0</ele><time>2026-04-18T12:24:14.019Z</time></trkpt><trkpt lat="45.5550245" lon="10.3380237"><ele>407.0</ele><time>2026-04-18T12:24:15.021Z</time></trkpt><trkpt lat="45.5551023" lon="10.3378832"><ele>405.0</ele><time>2026-04-18T12:24:16.02Z</time></trkpt><trkpt lat="45.5551878" lon="10.3377582"><ele>403.0</ele><time>2026-04-18T12:24:17.02Z</time></trkpt><trkpt lat="45.5552722" lon="10.337646"><ele>403.0</ele><time>2026-04-18T12:24:18.018Z</time></trkpt><trkpt lat="45.5553608" lon="10.3375642"><ele>403.0</ele><time>2026-04-18T12:24:19.02Z</time></trkpt><trkpt lat="45.555445" lon="10.3375113"><ele>403.0</ele><time>2026-04-18T12:24:20.019Z</time></trkpt><trkpt lat="45.5555227" lon="10.3374835"><ele>403.0</ele><time>2026-04-18T12:24:21.019Z</time></trkpt><trkpt lat="45.5555907" lon="10.3374763"><ele>403.0</ele><time>2026-04-18T12:24:22.021Z</time></trkpt><trkpt lat="45.5557058" lon="10.3375288"><ele>406.4</ele><time>2026-04-18T12:24:24.021Z</time></trkpt><trkpt lat="45.5557707" lon="10.337625"><ele>409.79999999999995</ele><time>2026-04-18T12:24:26.018Z</time></trkpt><trkpt lat="45.5557638" lon="10.3377252"><ele>413.2</ele><time>2026-04-18T12:24:29.02Z</time></trkpt><trkpt lat="45.555697" lon="10.3378658"><ele>416.6</ele><time>2026-04-18T12:24:32.022Z</time></trkpt><trkpt lat="45.5556457" lon="10.3379765"><ele>420.0</ele><time>2026-04-18T12:24:33.022Z</time></trkpt><trkpt lat="45.5555883" lon="10.3381112"><ele>420.0</ele><time>2026-04-18T12:24:34.02Z</time></trkpt><trkpt lat="45.5555375" lon="10.3382518"><ele>420.0</ele><time>2026-04-18T12:24:35.02Z</time></trkpt><trkpt lat="45.5554823" lon="10.3383772"><ele>420.0</ele><time>2026-04-18T12:24:36.021Z</time></trkpt><trkpt lat="45.5554335" lon="10.3384892"><ele>420.0</ele><time>2026-04-18T12:24:37.034Z</time></trkpt><trkpt lat="45.5553885" lon="10.338592"><ele>420.0</ele><time>2026-04-18T12:24:38.02Z</time></trkpt><trkpt lat="45.5553557" lon="10.3386775"><ele>418.5</ele><time>2026-04-18T12:24:39.021Z</time></trkpt><trkpt lat="45.5553133" lon="10.3387568"><ele>417.0</ele><time>2026-04-18T12:24:41.02Z</time></trkpt><trkpt lat="45.5552825" lon="10.3388657"><ele>415.5</ele><time>2026-04-18T12:24:47.021Z</time></trkpt><trkpt lat="45.5552643" lon="10.3390157"><ele>414.0</ele><time>2026-04-18T12:24:49.02Z</time></trkpt><trkpt lat="45.5552843" lon="10.339185"><ele>412.5</ele><time>2026-04-18T12:24:51.018Z</time></trkpt><trkpt lat="45.5553118" lon="10.3392698"><ele>411.0</ele><time>2026-04-18T12:24:52.02Z</time></trkpt><trkpt lat="45.5553593" lon="10.3393672"><ele>411.4</ele><time>2026-04-18T12:24:53.018Z</time></trkpt><trkpt lat="45.5554158" lon="10.339493"><ele>411.8</ele><time>2026-04-18T12:24:54.021Z</time></trkpt><trkpt lat="45.5554747" lon="10.339623"><ele>412.2</ele><time>2026-04-18T12:24:55.021Z</time></trkpt><trkpt lat="45.5555275" lon="10.3397392"><ele>412.59999999999997</ele><time>2026-04-18T12:24:56.02Z</time></trkpt><trkpt lat="45.5555712" lon="10.3398362"><ele>413.0</ele><time>2026-04-18T12:24:57.027Z</time></trkpt><trkpt lat="45.5556545" lon="10.3399333"><ele>413.0</ele><time>2026-04-18T12:24:59.022Z</time></trkpt><trkpt lat="45.5557405" lon="10.3399108"><ele>413.0</ele><time>2026-04-18T12:25:01.02Z</time></trkpt><trkpt lat="45.5558048" lon="10.3398155"><ele>413.0</ele><time>2026-04-18T12:25:03.021Z</time></trkpt><trkpt lat="45.5558342" lon="10.3396832"><ele>413.0</ele><time>2026-04-18T12:25:05.018Z</time></trkpt><trkpt lat="45.5558813" lon="10.3395242"><ele>413.0</ele><time>2026-04-18T12:25:07.019Z</time></trkpt><trkpt lat="45.5559198" lon="10.3393885"><ele>413.66666666666663</ele><time>2026-04-18T12:25:09.019Z</time></trkpt><trkpt lat="45.5559512" lon="10.3393002"><ele>414.3333333333333</ele><time>2026-04-18T12:25:11.019Z</time></trkpt><trkpt lat="45.5560032" lon="10.3392475"><ele>415.0</ele><time>2026-04-18T12:25:14.019Z</time></trkpt><trkpt lat="45.5560823" lon="10.3392575"><ele>415.66666666666663</ele><time>2026-04-18T12:25:17.017Z</time></trkpt><trkpt lat="45.5561208" lon="10.3393693"><ele>416.3333333333333</ele><time>2026-04-18T12:25:19.019Z</time></trkpt><trkpt lat="45.5561467" lon="10.3395125"><ele>417.0</ele><time>2026-04-18T12:25:21.019Z</time></trkpt><trkpt lat="45.5561575" lon="10.3396143"><ele>416.20000000000005</ele><time>2026-04-18T12:25:22.021Z</time></trkpt><trkpt lat="45.556172" lon="10.3397565"><ele>415.4</ele><time>2026-04-18T12:25:23.018Z</time></trkpt><trkpt lat="45.5561908" lon="10.339913"><ele>414.6</ele><time>2026-04-18T12:25:24.018Z</time></trkpt><trkpt lat="45.5562087" lon="10.3400622"><ele>413.79999999999995</ele><time>2026-04-18T12:25:25.019Z</time></trkpt><trkpt lat="45.5562247" lon="10.3401972"><ele>413.0</ele><time>2026-04-18T12:25:26.018Z</time></trkpt><trkpt lat="45.5562467" lon="10.3403173"><ele>413.0</ele><time>2026-04-18T12:25:27.019Z</time></trkpt><trkpt lat="45.5562837" lon="10.3404265"><ele>413.0</ele><time>2026-04-18T12:25:28.018Z</time></trkpt><trkpt lat="45.5563412" lon="10.3405485"><ele>413.0</ele><time>2026-04-18T12:25:29.018Z</time></trkpt><trkpt lat="45.5564043" lon="10.3406855"><ele>413.0</ele><time>2026-04-18T12:25:30.018Z</time></trkpt><trkpt lat="45.5564537" lon="10.3408262"><ele>413.0</ele><time>2026-04-18T12:25:31.019Z</time></trkpt><trkpt lat="45.5564983" lon="10.3409707"><ele>412.4</ele><time>2026-04-18T12:25:32.019Z</time></trkpt><trkpt lat="45.5565405" lon="10.3411172"><ele>411.79999999999995</ele><time>2026-04-18T12:25:33.018Z</time></trkpt><trkpt lat="45.556578" lon="10.3412553"><ele>411.2</ele><time>2026-04-18T12:25:34.02Z</time></trkpt><trkpt lat="45.5566085" lon="10.3413793"><ele>410.6</ele><time>2026-04-18T12:25:35.019Z</time></trkpt><trkpt lat="45.5566273" lon="10.3415005"><ele>410.0</ele><time>2026-04-18T12:25:36.023Z</time></trkpt><trkpt lat="45.5566328" lon="10.341637"><ele>409.99999999999994</ele><time>2026-04-18T12:25:37.02Z</time></trkpt><trkpt lat="45.5566313" lon="10.3417867"><ele>410.0</ele><time>2026-04-18T12:25:38.02Z</time></trkpt><trkpt lat="45.5566298" lon="10.3419252"><ele>410.0</ele><time>2026-04-18T12:25:39.019Z</time></trkpt><trkpt lat="45.5566223" lon="10.3420405"><ele>410.0</ele><time>2026-04-18T12:25:40.018Z</time></trkpt><trkpt lat="45.5566077" lon="10.3421342"><ele>409.99999999999994</ele><time>2026-04-18T12:25:41.017Z</time></trkpt><trkpt lat="45.5565803" lon="10.3422175"><ele>410.0</ele><time>2026-04-18T12:25:42.017Z</time></trkpt><trkpt lat="45.5565407" lon="10.3423118"><ele>409.49999999999994</ele><time>2026-04-18T12:25:43.019Z</time></trkpt><trkpt lat="45.5565038" lon="10.342415"><ele>409.0</ele><time>2026-04-18T12:25:44.019Z</time></trkpt><trkpt lat="45.5564885" lon="10.3425273"><ele>408.5</ele><time>2026-04-18T12:25:45.021Z</time></trkpt><trkpt lat="45.5564848" lon="10.3426427"><ele>408.0</ele><time>2026-04-18T12:25:46.019Z</time></trkpt><trkpt lat="45.5564975" lon="10.342748"><ele>407.49999999999994</ele><time>2026-04-18T12:25:47.019Z</time></trkpt><trkpt lat="45.5565167" lon="10.3428403"><ele>407.0</ele><time>2026-04-18T12:25:48.022Z</time></trkpt><trkpt lat="45.5565268" lon="10.3429418"><ele>406.99999999999994</ele><time>2026-04-18T12:25:49.022Z</time></trkpt><trkpt lat="45.5565298" lon="10.3430467"><ele>407.0</ele><time>2026-04-18T12:25:50.018Z</time></trkpt><trkpt lat="45.5565285" lon="10.3431445"><ele>407.0</ele><time>2026-04-18T12:25:51.02Z</time></trkpt><trkpt lat="45.5565247" lon="10.3432392"><ele>407.0</ele><time>2026-04-18T12:25:52.022Z</time></trkpt><trkpt lat="45.5565123" lon="10.3434097"><ele>406.99999999999994</ele><time>2026-04-18T12:25:54.021Z</time></trkpt><trkpt lat="45.5565228" lon="10.3435673"><ele>407.0</ele><time>2026-04-18T12:25:56.019Z</time></trkpt><trkpt lat="45.5565597" lon="10.3437227"><ele>402.0</ele><time>2026-04-18T12:25:58.02Z</time></trkpt><trkpt lat="45.55662" lon="10.3439013"><ele>397.0</ele><time>2026-04-18T12:26:00.02Z</time></trkpt><trkpt lat="45.5566615" lon="10.3440087"><ele>392.0</ele><time>2026-04-18T12:26:01.02Z</time></trkpt><trkpt lat="45.5567015" lon="10.3441035"><ele>387.0</ele><time>2026-04-18T12:26:02.021Z</time></trkpt><trkpt lat="45.5567807" lon="10.3442535"><ele>382.0</ele><time>2026-04-18T12:26:04.019Z</time></trkpt><trkpt lat="45.55683" lon="10.3443568"><ele>382.0</ele><time>2026-04-18T12:26:05.018Z</time></trkpt><trkpt lat="45.5568825" lon="10.3444732"><ele>382.0</ele><time>2026-04-18T12:26:06.018Z</time></trkpt><trkpt lat="45.5569358" lon="10.344585"><ele>382.0</ele><time>2026-04-18T12:26:07.019Z</time></trkpt><trkpt lat="45.5569842" lon="10.3447003"><ele>382.0</ele><time>2026-04-18T12:26:08.021Z</time></trkpt><trkpt lat="45.5570352" lon="10.3448197"><ele>382.0</ele><time>2026-04-18T12:26:09.019Z</time></trkpt><trkpt lat="45.5570898" lon="10.3449535"><ele>380.40000000000003</ele><time>2026-04-18T12:26:10.019Z</time></trkpt><trkpt lat="45.5571417" lon="10.3450928"><ele>378.8</ele><time>2026-04-18T12:26:11.021Z</time></trkpt><trkpt lat="45.5571885" lon="10.3452238"><ele>377.2</ele><time>2026-04-18T12:26:12.021Z</time></trkpt><trkpt lat="45.5572278" lon="10.3453547"><ele>375.6</ele><time>2026-04-18T12:26:13.02Z</time></trkpt><trkpt lat="45.5572643" lon="10.3454885"><ele>374.0</ele><time>2026-04-18T12:26:14.021Z</time></trkpt><trkpt lat="45.5572987" lon="10.3456277"><ele>374.0</ele><time>2026-04-18T12:26:15.019Z</time></trkpt><trkpt lat="45.5573305" lon="10.3457778"><ele>374.0</ele><time>2026-04-18T12:26:16.02Z</time></trkpt><trkpt lat="45.557357" lon="10.3459213"><ele>374.0</ele><time>2026-04-18T12:26:17.019Z</time></trkpt><trkpt lat="45.5573798" lon="10.3460448"><ele>374.0</ele><time>2026-04-18T12:26:18.02Z</time></trkpt><trkpt lat="45.5573967" lon="10.3461545"><ele>374.0</ele><time>2026-04-18T12:26:19.02Z</time></trkpt><trkpt lat="45.5574172" lon="10.3462592"><ele>371.83333333333337</ele><time>2026-04-18T12:26:20.018Z</time></trkpt><trkpt lat="45.5574433" lon="10.3463812"><ele>369.6666666666667</ele><time>2026-04-18T12:26:21.019Z</time></trkpt><trkpt lat="45.5574685" lon="10.3465135"><ele>367.5</ele><time>2026-04-18T12:26:22.02Z</time></trkpt><trkpt lat="45.5574867" lon="10.3466308"><ele>365.3333333333333</ele><time>2026-04-18T12:26:23.02Z</time></trkpt><trkpt lat="45.5574987" lon="10.3467202"><ele>363.16666666666663</ele><time>2026-04-18T12:26:24.02Z</time></trkpt><trkpt lat="45.5575332" lon="10.346875"><ele>361.0</ele><time>2026-04-18T12:26:26.02Z</time></trkpt><trkpt lat="45.5575508" lon="10.3469692"><ele>361.0</ele><time>2026-04-18T12:26:27.02Z</time></trkpt><trkpt lat="45.5575805" lon="10.347123"><ele>361.0</ele><time>2026-04-18T12:26:29.018Z</time></trkpt><trkpt lat="45.55761" lon="10.3472525"><ele>361.0</ele><time>2026-04-18T12:26:31.017Z</time></trkpt><trkpt lat="45.5576397" lon="10.3473897"><ele>361.0</ele><time>2026-04-18T12:26:33.019Z</time></trkpt><trkpt lat="45.5576645" lon="10.3475433"><ele>361.0</ele><time>2026-04-18T12:26:35.02Z</time></trkpt><trkpt lat="45.5576885" lon="10.3476592"><ele>357.8</ele><time>2026-04-18T12:26:36.02Z</time></trkpt><trkpt lat="45.5577168" lon="10.347804"><ele>354.6</ele><time>2026-04-18T12:26:37.019Z</time></trkpt><trkpt lat="45.5577478" lon="10.34795"><ele>351.4</ele><time>2026-04-18T12:26:38.02Z</time></trkpt><trkpt lat="45.5577827" lon="10.34809"><ele>348.2</ele><time>2026-04-18T12:26:39.021Z</time></trkpt><trkpt lat="45.5578142" lon="10.3482185"><ele>345.0</ele><time>2026-04-18T12:26:40.019Z</time></trkpt><trkpt lat="45.55784" lon="10.348333"><ele>346.5</ele><time>2026-04-18T12:26:41.021Z</time></trkpt><trkpt lat="45.5578602" lon="10.3484297"><ele>348.0</ele><time>2026-04-18T12:26:42.02Z</time></trkpt><trkpt lat="45.5578892" lon="10.3485703"><ele>349.5</ele><time>2026-04-18T12:26:44.02Z</time></trkpt><trkpt lat="45.5579007" lon="10.3486772"><ele>351.0</ele><time>2026-04-18T12:26:47.02Z</time></trkpt><trkpt lat="45.557904" lon="10.3487685"><ele>352.5</ele><time>2026-04-18T12:26:56.019Z</time></trkpt><trkpt lat="45.557934" lon="10.3488715"><ele>354.0</ele><time>2026-04-18T12:26:59.02Z</time></trkpt><trkpt lat="45.5579725" lon="10.3489498"><ele>354.0</ele><time>2026-04-18T12:27:02.023Z</time></trkpt><trkpt lat="45.5580423" lon="10.3490437"><ele>354.0</ele><time>2026-04-18T12:27:08.02Z</time></trkpt><trkpt lat="45.5581318" lon="10.3491588"><ele>354.0</ele><time>2026-04-18T12:27:10.019Z</time></trkpt><trkpt lat="45.5581852" lon="10.3492402"><ele>354.0</ele><time>2026-04-18T12:27:11.02Z</time></trkpt><trkpt lat="45.5582428" lon="10.3493337"><ele>354.0</ele><time>2026-04-18T12:27:12.019Z</time></trkpt><trkpt lat="45.5583015" lon="10.349419"><ele>354.0</ele><time>2026-04-18T12:27:13.02Z</time></trkpt><trkpt lat="45.5583578" lon="10.3494847"><ele>354.0</ele><time>2026-04-18T12:27:14.02Z</time></trkpt><trkpt lat="45.5584652" lon="10.3495295"><ele>354.0</ele><time>2026-04-18T12:27:16.019Z</time></trkpt><trkpt lat="45.5585397" lon="10.3495223"><ele>354.0</ele><time>2026-04-18T12:27:18.018Z</time></trkpt><trkpt lat="45.5586077" lon="10.3495237"><ele>354.0</ele><time>2026-04-18T12:27:53.021Z</time></trkpt><trkpt lat="45.558719" lon="10.3494973"><ele>354.0</ele><time>2026-04-18T12:27:55.02Z</time></trkpt><trkpt lat="45.5587925" lon="10.3495058"><ele>354.6666666666667</ele><time>2026-04-18T12:27:56.02Z</time></trkpt><trkpt lat="45.5588717" lon="10.3495335"><ele>355.3333333333333</ele><time>2026-04-18T12:27:57.02Z</time></trkpt><trkpt lat="45.5589495" lon="10.3495785"><ele>356.0</ele><time>2026-04-18T12:27:58.019Z</time></trkpt><trkpt lat="45.5590115" lon="10.3496433"><ele>356.66666666666663</ele><time>2026-04-18T12:27:59.02Z</time></trkpt><trkpt lat="45.5590503" lon="10.349723"><ele>357.3333333333333</ele><time>2026-04-18T12:28:00.018Z</time></trkpt><trkpt lat="45.5590852" lon="10.3498177"><ele>358.0</ele><time>2026-04-18T12:28:01.019Z</time></trkpt><trkpt lat="45.559123" lon="10.3499183"><ele>356.3333333333333</ele><time>2026-04-18T12:28:02.018Z</time></trkpt><trkpt lat="45.5591743" lon="10.3500092"><ele>354.66666666666663</ele><time>2026-04-18T12:28:03.018Z</time></trkpt><trkpt lat="45.5592313" lon="10.350088"><ele>353.0</ele><time>2026-04-18T12:28:04.018Z</time></trkpt><trkpt lat="45.5592712" lon="10.3501713"><ele>351.3333333333333</ele><time>2026-04-18T12:28:05.02Z</time></trkpt><trkpt lat="45.559288" lon="10.3502582"><ele>349.6666666666667</ele><time>2026-04-18T12:28:06.017Z</time></trkpt><trkpt lat="45.5592777" lon="10.3503553"><ele>348.0</ele><time>2026-04-18T12:28:07.016Z</time></trkpt><trkpt lat="45.5592443" lon="10.3504702"><ele>344.59999999999997</ele><time>2026-04-18T12:28:08.015Z</time></trkpt><trkpt lat="45.5592008" lon="10.3506003"><ele>341.2</ele><time>2026-04-18T12:28:09.016Z</time></trkpt><trkpt lat="45.5591532" lon="10.3507333"><ele>337.8</ele><time>2026-04-18T12:28:10.018Z</time></trkpt><trkpt lat="45.5591092" lon="10.3508648"><ele>334.4</ele><time>2026-04-18T12:28:11.019Z</time></trkpt><trkpt lat="45.5590698" lon="10.3509838"><ele>331.0</ele><time>2026-04-18T12:28:12.019Z</time></trkpt><trkpt lat="45.5590303" lon="10.3510938"><ele>331.0</ele><time>2026-04-18T12:28:13.019Z</time></trkpt><trkpt lat="45.5589923" lon="10.3511928"><ele>331.0</ele><time>2026-04-18T12:28:14.017Z</time></trkpt><trkpt lat="45.5589373" lon="10.351296"><ele>331.0</ele><time>2026-04-18T12:28:15.018Z</time></trkpt><trkpt lat="45.5588688" lon="10.3513962"><ele>331.0</ele><time>2026-04-18T12:28:16.018Z</time></trkpt><trkpt lat="45.558787" lon="10.3514947"><ele>331.0</ele><time>2026-04-18T12:28:17.018Z</time></trkpt><trkpt lat="45.558687" lon="10.3516002"><ele>326.5</ele><time>2026-04-18T12:28:18.018Z</time></trkpt><trkpt lat="45.5585812" lon="10.3517047"><ele>322.0</ele><time>2026-04-18T12:28:19.017Z</time></trkpt><trkpt lat="45.558482" lon="10.351803"><ele>317.5</ele><time>2026-04-18T12:28:20.017Z</time></trkpt><trkpt lat="45.5583867" lon="10.3519"><ele>313.0</ele><time>2026-04-18T12:28:21.018Z</time></trkpt><trkpt lat="45.5582948" lon="10.3519837"><ele>313.0</ele><time>2026-04-18T12:28:22.017Z</time></trkpt><trkpt lat="45.5581973" lon="10.352052"><ele>313.0</ele><time>2026-04-18T12:28:23.017Z</time></trkpt><trkpt lat="45.558077" lon="10.3521057"><ele>313.0</ele><time>2026-04-18T12:28:24.018Z</time></trkpt><trkpt lat="45.55795" lon="10.3521578"><ele>313.0</ele><time>2026-04-18T12:28:25.016Z</time></trkpt><trkpt lat="45.5578265" lon="10.3522112"><ele>307.5</ele><time>2026-04-18T12:28:26.016Z</time></trkpt><trkpt lat="45.5577053" lon="10.3522848"><ele>302.0</ele><time>2026-04-18T12:28:27.018Z</time></trkpt><trkpt lat="45.5575828" lon="10.3523832"><ele>296.5</ele><time>2026-04-18T12:28:28.018Z</time></trkpt><trkpt lat="45.557459" lon="10.3524928"><ele>291.0</ele><time>2026-04-18T12:28:29.02Z</time></trkpt><trkpt lat="45.5573298" lon="10.3526008"><ele>291.0</ele><time>2026-04-18T12:28:30.019Z</time></trkpt><trkpt lat="45.557196" lon="10.3526997"><ele>291.0</ele><time>2026-04-18T12:28:31.018Z</time></trkpt><trkpt lat="45.5570617" lon="10.3527807"><ele>291.0</ele><time>2026-04-18T12:28:32.016Z</time></trkpt><trkpt lat="45.5569415" lon="10.3528428"><ele>291.0</ele><time>2026-04-18T12:28:33.016Z</time></trkpt><trkpt lat="45.5568492" lon="10.3528965"><ele>288.40000000000003</ele><time>2026-04-18T12:28:34.017Z</time></trkpt><trkpt lat="45.5567742" lon="10.3529685"><ele>285.8</ele><time>2026-04-18T12:28:35.018Z</time></trkpt><trkpt lat="45.5567115" lon="10.3530702"><ele>283.20000000000005</ele><time>2026-04-18T12:28:36.019Z</time></trkpt><trkpt lat="45.5566658" lon="10.3531845"><ele>280.6</ele><time>2026-04-18T12:28:37.02Z</time></trkpt><trkpt lat="45.5566357" lon="10.3532957"><ele>278.0</ele><time>2026-04-18T12:28:38.017Z</time></trkpt><trkpt lat="45.5566185" lon="10.3534232"><ele>276.25</ele><time>2026-04-18T12:28:39.02Z</time></trkpt><trkpt lat="45.55661" lon="10.3535647"><ele>274.5</ele><time>2026-04-18T12:28:40.017Z</time></trkpt><trkpt lat="45.556606" lon="10.353717"><ele>272.75</ele><time>2026-04-18T12:28:41.017Z</time></trkpt><trkpt lat="45.5565958" lon="10.353887"><ele>271.0</ele><time>2026-04-18T12:28:42.019Z</time></trkpt><trkpt lat="45.5565882" lon="10.3540673"><ele>270.5</ele><time>2026-04-18T12:28:43.016Z</time></trkpt><trkpt lat="45.5565863" lon="10.3542452"><ele>270.0</ele><time>2026-04-18T12:28:44.018Z</time></trkpt><trkpt lat="45.556591" lon="10.354422"><ele>269.5</ele><time>2026-04-18T12:28:45.019Z</time></trkpt><trkpt lat="45.556594" lon="10.3545917"><ele>269.0</ele><time>2026-04-18T12:28:46.016Z</time></trkpt><trkpt lat="45.5565892" lon="10.3547532"><ele>269.0</ele><time>2026-04-18T12:28:47.021Z</time></trkpt><trkpt lat="45.5565708" lon="10.3549003"><ele>269.0</ele><time>2026-04-18T12:28:48.02Z</time></trkpt><trkpt lat="45.5565362" lon="10.3550462"><ele>269.0</ele><time>2026-04-18T12:28:49.017Z</time></trkpt><trkpt lat="45.5564935" lon="10.3551973"><ele>269.0</ele><time>2026-04-18T12:28:50.018Z</time></trkpt><trkpt lat="45.5564512" lon="10.3553587"><ele>269.0</ele><time>2026-04-18T12:28:51.018Z</time></trkpt><trkpt lat="45.5564183" lon="10.3555283"><ele>271.0</ele><time>2026-04-18T12:28:52.023Z</time></trkpt><trkpt lat="45.5563997" lon="10.3556988"><ele>273.0</ele><time>2026-04-18T12:28:53.018Z</time></trkpt><trkpt lat="45.5563947" lon="10.3558707"><ele>275.0</ele><time>2026-04-18T12:28:54.018Z</time></trkpt><trkpt lat="45.5564005" lon="10.356048"><ele>277.0</ele><time>2026-04-18T12:28:55.016Z</time></trkpt><trkpt lat="45.5564123" lon="10.3562475"><ele>277.0</ele><time>2026-04-18T12:28:56.017Z</time></trkpt><trkpt lat="45.5564237" lon="10.3564807"><ele>277.0</ele><time>2026-04-18T12:28:57.016Z</time></trkpt><trkpt lat="45.5564295" lon="10.3567372"><ele>277.0</ele><time>2026-04-18T12:28:58.015Z</time></trkpt><trkpt lat="45.5564285" lon="10.3569977"><ele>277.0</ele><time>2026-04-18T12:28:59.016Z</time></trkpt><trkpt lat="45.5564283" lon="10.3571895"><ele>277.0</ele><time>2026-04-18T12:29:00.018Z</time></trkpt><trkpt lat="45.5564258" lon="10.3573132"><ele>277.0</ele><time>2026-04-18T12:29:01.019Z</time></trkpt><trkpt lat="45.5564585" lon="10.3574383"><ele>277.0</ele><time>2026-04-18T12:29:03.018Z</time></trkpt><trkpt lat="45.5565377" lon="10.3575278"><ele>277.0</ele><time>2026-04-18T12:29:05.017Z</time></trkpt><trkpt lat="45.556627" lon="10.3576168"><ele>277.8333333333333</ele><time>2026-04-18T12:29:07.017Z</time></trkpt><trkpt lat="45.5567165" lon="10.357702"><ele>278.66666666666663</ele><time>2026-04-18T12:29:09.017Z</time></trkpt><trkpt lat="45.5567713" lon="10.3577563"><ele>279.5</ele><time>2026-04-18T12:29:10.017Z</time></trkpt><trkpt lat="45.5568287" lon="10.3578142"><ele>280.3333333333333</ele><time>2026-04-18T12:29:11.016Z</time></trkpt><trkpt lat="45.5568778" lon="10.3578873"><ele>281.1666666666667</ele><time>2026-04-18T12:29:12.017Z</time></trkpt><trkpt lat="45.5569322" lon="10.3579855"><ele>282.0</ele><time>2026-04-18T12:29:13.028Z</time></trkpt><trkpt lat="45.5570013" lon="10.3580795"><ele>283.6666666666667</ele><time>2026-04-18T12:29:14.016Z</time></trkpt><trkpt lat="45.5570607" lon="10.3581522"><ele>285.3333333333333</ele><time>2026-04-18T12:29:15.018Z</time></trkpt><trkpt lat="45.5571022" lon="10.3582423"><ele>287.0</ele><time>2026-04-18T12:29:17.016Z</time></trkpt><trkpt lat="45.5570207" lon="10.3582433"><ele>288.66666666666663</ele><time>2026-04-18T12:29:20.014Z</time></trkpt><trkpt lat="45.5569532" lon="10.358195"><ele>290.3333333333333</ele><time>2026-04-18T12:29:22.016Z</time></trkpt><trkpt lat="45.5568497" lon="10.3581817"><ele>292.0</ele><time>2026-04-18T12:29:31.017Z</time></trkpt><trkpt lat="45.5567795" lon="10.3581945"><ele>292.0</ele><time>2026-04-18T12:29:33.017Z</time></trkpt><trkpt lat="45.556689" lon="10.3582758"><ele>292.0</ele><time>2026-04-18T12:29:39.019Z</time></trkpt><trkpt lat="45.5565942" lon="10.3583962"><ele>292.0</ele><time>2026-04-18T12:29:41.003Z</time></trkpt><trkpt lat="45.556547" lon="10.3584623"><ele>292.0</ele><time>2026-04-18T12:29:42.02Z</time></trkpt><trkpt lat="45.5565013" lon="10.3585302"><ele>292.0</ele><time>2026-04-18T12:29:43.018Z</time></trkpt><trkpt lat="45.556454" lon="10.3585957"><ele>292.0</ele><time>2026-04-18T12:29:44.017Z</time></trkpt><trkpt lat="45.5563842" lon="10.3587103"><ele>292.0</ele><time>2026-04-18T12:29:46.017Z</time></trkpt><trkpt lat="45.5563463" lon="10.3587947"><ele>292.0</ele><time>2026-04-18T12:29:48.017Z</time></trkpt><trkpt lat="45.5563433" lon="10.3588862"><ele>292.0</ele><time>2026-04-18T12:29:50.018Z</time></trkpt><trkpt lat="45.5564017" lon="10.3590527"><ele>292.0</ele><time>2026-04-18T12:29:52.018Z</time></trkpt><trkpt lat="45.5564573" lon="10.359175"><ele>292.0</ele><time>2026-04-18T12:29:53.018Z</time></trkpt><trkpt lat="45.5565357" lon="10.3593103"><ele>294.8</ele><time>2026-04-18T12:29:54.017Z</time></trkpt><trkpt lat="45.5566097" lon="10.3594208"><ele>297.6</ele><time>2026-04-18T12:29:55.017Z</time></trkpt><trkpt lat="45.5566777" lon="10.3595017"><ele>300.40000000000003</ele><time>2026-04-18T12:29:56.017Z</time></trkpt><trkpt lat="45.5567537" lon="10.3595625"><ele>303.2</ele><time>2026-04-18T12:29:57.018Z</time></trkpt><trkpt lat="45.5568435" lon="10.359611"><ele>306.0</ele><time>2026-04-18T12:29:58.017Z</time></trkpt><trkpt lat="45.5569538" lon="10.359657"><ele>310.5</ele><time>2026-04-18T12:29:59.018Z</time></trkpt><trkpt lat="45.5570807" lon="10.359704"><ele>315.0</ele><time>2026-04-18T12:30:00.018Z</time></trkpt><trkpt lat="45.5572205" lon="10.3597492"><ele>319.5</ele><time>2026-04-18T12:30:01.018Z</time></trkpt><trkpt lat="45.5573627" lon="10.359791"><ele>324.0</ele><time>2026-04-18T12:30:02.019Z</time></trkpt><trkpt lat="45.5575003" lon="10.3598275"><ele>324.0</ele><time>2026-04-18T12:30:03.017Z</time></trkpt><trkpt lat="45.5576268" lon="10.3598618"><ele>324.0</ele><time>2026-04-18T12:30:04.018Z</time></trkpt><trkpt lat="45.5577502" lon="10.3599063"><ele>324.0</ele><time>2026-04-18T12:30:05.018Z</time></trkpt><trkpt lat="45.5578675" lon="10.3599525"><ele>324.0</ele><time>2026-04-18T12:30:06.018Z</time></trkpt><trkpt lat="45.5579758" lon="10.35999"><ele>326.4</ele><time>2026-04-18T12:30:07.018Z</time></trkpt><trkpt lat="45.5580753" lon="10.3600057"><ele>328.79999999999995</ele><time>2026-04-18T12:30:08.02Z</time></trkpt><trkpt lat="45.558175" lon="10.3599797"><ele>331.20000000000005</ele><time>2026-04-18T12:30:09.016Z</time></trkpt><trkpt lat="45.5582757" lon="10.3599135"><ele>333.6</ele><time>2026-04-18T12:30:10.018Z</time></trkpt><trkpt lat="45.558373" lon="10.359822"><ele>336.0</ele><time>2026-04-18T12:30:11.017Z</time></trkpt><trkpt lat="45.5584645" lon="10.3597058"><ele>335.0</ele><time>2026-04-18T12:30:12.017Z</time></trkpt><trkpt lat="45.5585492" lon="10.3595615"><ele>334.0</ele><time>2026-04-18T12:30:13.019Z</time></trkpt><trkpt lat="45.5586157" lon="10.3593813"><ele>333.0</ele><time>2026-04-18T12:30:14.02Z</time></trkpt><trkpt lat="45.5586562" lon="10.359167"><ele>332.0</ele><time>2026-04-18T12:30:15.02Z</time></trkpt><trkpt lat="45.5586798" lon="10.3589212"><ele>332.6666666666667</ele><time>2026-04-18T12:30:16.02Z</time></trkpt><trkpt lat="45.5586977" lon="10.3586563"><ele>333.3333333333333</ele><time>2026-04-18T12:30:17.02Z</time></trkpt><trkpt lat="45.5587127" lon="10.358364"><ele>334.0</ele><time>2026-04-18T12:30:18.02Z</time></trkpt><trkpt lat="45.5587263" lon="10.3580417"><ele>353.0</ele><time>2026-04-18T12:30:19.02Z</time></trkpt><trkpt lat="45.5587307" lon="10.3577248"><ele>372.0</ele><time>2026-04-18T12:30:20.026Z</time></trkpt><trkpt lat="45.5587215" lon="10.3574515"><ele>391.0</ele><time>2026-04-18T12:30:21.022Z</time></trkpt><trkpt lat="45.5587108" lon="10.3572218"><ele>392.5</ele><time>2026-04-18T12:30:22.02Z</time></trkpt><trkpt lat="45.5587015" lon="10.357018"><ele>394.0</ele><time>2026-04-18T12:30:23.02Z</time></trkpt><trkpt lat="45.5586942" lon="10.3568233"><ele>395.5</ele><time>2026-04-18T12:30:24.022Z</time></trkpt><trkpt lat="45.5586892" lon="10.3566322"><ele>397.0</ele><time>2026-04-18T12:30:25.025Z</time></trkpt><trkpt lat="45.5586952" lon="10.3564353"><ele>396.5</ele><time>2026-04-18T12:30:26.02Z</time></trkpt><trkpt lat="45.5587132" lon="10.3562262"><ele>396.0</ele><time>2026-04-18T12:30:27.021Z</time></trkpt><trkpt lat="45.5587398" lon="10.3560133"><ele>395.5</ele><time>2026-04-18T12:30:28.022Z</time></trkpt><trkpt lat="45.5587753" lon="10.3558045"><ele>395.0</ele><time>2026-04-18T12:30:29.021Z</time></trkpt><trkpt lat="45.5588308" lon="10.355613"><ele>392.5</ele><time>2026-04-18T12:30:30.021Z</time></trkpt><trkpt lat="45.558909" lon="10.35544"><ele>390.0</ele><time>2026-04-18T12:30:31.021Z</time></trkpt><trkpt lat="45.5590007" lon="10.355304"><ele>387.5</ele><time>2026-04-18T12:30:32.02Z</time></trkpt><trkpt lat="45.5591098" lon="10.3551935"><ele>385.0</ele><time>2026-04-18T12:30:33.02Z</time></trkpt><trkpt lat="45.5592368" lon="10.3551012"><ele>385.0</ele><time>2026-04-18T12:30:34.019Z</time></trkpt><trkpt lat="45.559374" lon="10.3550295"><ele>385.0</ele><time>2026-04-18T12:30:35.017Z</time></trkpt><trkpt lat="45.5595003" lon="10.3549543"><ele>385.0</ele><time>2026-04-18T12:30:36.018Z</time></trkpt><trkpt lat="45.5596035" lon="10.3548488"><ele>385.0</ele><time>2026-04-18T12:30:37.019Z</time></trkpt><trkpt lat="45.5596877" lon="10.3547057"><ele>392.0</ele><time>2026-04-18T12:30:38.023Z</time></trkpt><trkpt lat="45.5597502" lon="10.3545235"><ele>399.0</ele><time>2026-04-18T12:30:39.019Z</time></trkpt><trkpt lat="45.5598082" lon="10.3543352"><ele>406.0</ele><time>2026-04-18T12:30:40.021Z</time></trkpt><trkpt lat="45.5598778" lon="10.3541582"><ele>413.0</ele><time>2026-04-18T12:30:41.018Z</time></trkpt><trkpt lat="45.5599615" lon="10.3539785"><ele>409.0</ele><time>2026-04-18T12:30:42.02Z</time></trkpt><trkpt lat="45.5600558" lon="10.3537757"><ele>405.0</ele><time>2026-04-18T12:30:43.019Z</time></trkpt><trkpt lat="45.5601587" lon="10.3535585"><ele>401.0</ele><time>2026-04-18T12:30:44.017Z</time></trkpt><trkpt lat="45.5602682" lon="10.3533397"><ele>412.3333333333333</ele><time>2026-04-18T12:30:45.018Z</time></trkpt><trkpt lat="45.5603738" lon="10.3531172"><ele>423.66666666666663</ele><time>2026-04-18T12:30:46.019Z</time></trkpt><trkpt lat="45.5604713" lon="10.3528972"><ele>435.0</ele><time>2026-04-18T12:30:47.02Z</time></trkpt><trkpt lat="45.5605653" lon="10.352681"><ele>435.0</ele><time>2026-04-18T12:30:48.022Z</time></trkpt><trkpt lat="45.5606567" lon="10.3524665"><ele>435.0</ele><time>2026-04-18T12:30:49.019Z</time></trkpt><trkpt lat="45.5607472" lon="10.3522545"><ele>435.0</ele><time>2026-04-18T12:30:50.019Z</time></trkpt><trkpt lat="45.5608372" lon="10.3520407"><ele>430.0</ele><time>2026-04-18T12:30:51.02Z</time></trkpt><trkpt lat="45.560929" lon="10.3518273"><ele>425.0</ele><time>2026-04-18T12:30:52.019Z</time></trkpt><trkpt lat="45.561018" lon="10.3516223"><ele>420.0</ele><time>2026-04-18T12:30:53.017Z</time></trkpt><trkpt lat="45.5611058" lon="10.3514218"><ele>415.0</ele><time>2026-04-18T12:30:54.018Z</time></trkpt><trkpt lat="45.5611938" lon="10.3512263"><ele>410.0</ele><time>2026-04-18T12:30:55.018Z</time></trkpt><trkpt lat="45.5612828" lon="10.351033"><ele>405.0</ele><time>2026-04-18T12:30:56.018Z</time></trkpt><trkpt lat="45.5613733" lon="10.350839"><ele>417.0</ele><time>2026-04-18T12:30:57.018Z</time></trkpt><trkpt lat="45.56147" lon="10.3506438"><ele>429.0</ele><time>2026-04-18T12:30:58.017Z</time></trkpt><trkpt lat="45.5615758" lon="10.3504443"><ele>441.0</ele><time>2026-04-18T12:30:59.016Z</time></trkpt><trkpt lat="45.561689" lon="10.3502323"><ele>441.0</ele><time>2026-04-18T12:31:00.017Z</time></trkpt><trkpt lat="45.5618037" lon="10.350014"><ele>441.0</ele><time>2026-04-18T12:31:01.016Z</time></trkpt><trkpt lat="45.5619063" lon="10.3498147"><ele>441.0</ele><time>2026-04-18T12:31:02.018Z</time></trkpt><trkpt lat="45.562009" lon="10.3496198"><ele>451.0</ele><time>2026-04-18T12:31:03.018Z</time></trkpt><trkpt lat="45.5621148" lon="10.3494292"><ele>461.0</ele><time>2026-04-18T12:31:04.018Z</time></trkpt><trkpt lat="45.5622337" lon="10.349228"><ele>471.0</ele><time>2026-04-18T12:31:05.018Z</time></trkpt><trkpt lat="45.5623657" lon="10.3490192"><ele>463.66666666666663</ele><time>2026-04-18T12:31:06.024Z</time></trkpt><trkpt lat="45.5624962" lon="10.3488158"><ele>456.3333333333333</ele><time>2026-04-18T12:31:07.018Z</time></trkpt><trkpt lat="45.562625" lon="10.3486173"><ele>449.0</ele><time>2026-04-18T12:31:08.018Z</time></trkpt><trkpt lat="45.5627617" lon="10.3484128"><ele>457.0</ele><time>2026-04-18T12:31:09.019Z</time></trkpt><trkpt lat="45.5628937" lon="10.3482205"><ele>465.0</ele><time>2026-04-18T12:31:10.018Z</time></trkpt><trkpt lat="45.5630173" lon="10.3480378"><ele>473.0</ele><time>2026-04-18T12:31:11.018Z</time></trkpt><trkpt lat="45.5631372" lon="10.347859"><ele>473.0</ele><time>2026-04-18T12:31:12.019Z</time></trkpt><trkpt lat="45.5632587" lon="10.3476817"><ele>473.0</ele><time>2026-04-18T12:31:13.019Z</time></trkpt><trkpt lat="45.5633788" lon="10.3475053"><ele>473.0</ele><time>2026-04-18T12:31:14.019Z</time></trkpt><trkpt lat="45.5635008" lon="10.3473272"><ele>469.3333333333333</ele><time>2026-04-18T12:31:15.018Z</time></trkpt><trkpt lat="45.5636212" lon="10.3471493"><ele>465.66666666666663</ele><time>2026-04-18T12:31:16.017Z</time></trkpt><trkpt lat="45.5637407" lon="10.3469712"><ele>462.0</ele><time>2026-04-18T12:31:17.018Z</time></trkpt><trkpt lat="45.5638555" lon="10.3467982"><ele>468.66666666666663</ele><time>2026-04-18T12:31:18.017Z</time></trkpt><trkpt lat="45.5639645" lon="10.3466308"><ele>475.3333333333333</ele><time>2026-04-18T12:31:19.018Z</time></trkpt><trkpt lat="45.5640703" lon="10.3464785"><ele>482.0</ele><time>2026-04-18T12:31:20.032Z</time></trkpt><trkpt lat="45.5641747" lon="10.3463375"><ele>482.0</ele><time>2026-04-18T12:31:21.017Z</time></trkpt><trkpt lat="45.564277" lon="10.3462005"><ele>482.0</ele><time>2026-04-18T12:31:22.017Z</time></trkpt><trkpt lat="45.5643775" lon="10.3460618"><ele>482.0</ele><time>2026-04-18T12:31:23.017Z</time></trkpt><trkpt lat="45.5644762" lon="10.3459248"><ele>482.0</ele><time>2026-04-18T12:31:24.017Z</time></trkpt><trkpt lat="45.5645712" lon="10.3457807"><ele>490.5</ele><time>2026-04-18T12:31:25.017Z</time></trkpt><trkpt lat="45.5646538" lon="10.3456238"><ele>499.0</ele><time>2026-04-18T12:31:26.018Z</time></trkpt><trkpt lat="45.5647232" lon="10.3454552"><ele>507.5</ele><time>2026-04-18T12:31:27.019Z</time></trkpt><trkpt lat="45.5647808" lon="10.3452768"><ele>516.0</ele><time>2026-04-18T12:31:28.018Z</time></trkpt><trkpt lat="45.5648363" lon="10.345076"><ele>516.0</ele><time>2026-04-18T12:31:29.02Z</time></trkpt><trkpt lat="45.5648928" lon="10.3448592"><ele>516.0</ele><time>2026-04-18T12:31:30.02Z</time></trkpt><trkpt lat="45.564942" lon="10.3446645"><ele>516.0</ele><time>2026-04-18T12:31:31.019Z</time></trkpt><trkpt lat="45.5649813" lon="10.344487"><ele>516.0</ele><time>2026-04-18T12:31:32.019Z</time></trkpt><trkpt lat="45.5650013" lon="10.3443038"><ele>515.5</ele><time>2026-04-18T12:31:33.019Z</time></trkpt><trkpt lat="45.5650075" lon="10.3441148"><ele>515.0</ele><time>2026-04-18T12:31:34.018Z</time></trkpt><trkpt lat="45.5650157" lon="10.3439195"><ele>514.5</ele><time>2026-04-18T12:31:35.018Z</time></trkpt><trkpt lat="45.5650327" lon="10.3437315"><ele>514.0</ele><time>2026-04-18T12:31:36.018Z</time></trkpt><trkpt lat="45.5650577" lon="10.3435583"><ele>515.25</ele><time>2026-04-18T12:31:37.018Z</time></trkpt><trkpt lat="45.5650887" lon="10.3433852"><ele>516.5</ele><time>2026-04-18T12:31:38.018Z</time></trkpt><trkpt lat="45.5651232" lon="10.343218"><ele>517.75</ele><time>2026-04-18T12:31:39.019Z</time></trkpt><trkpt lat="45.5651645" lon="10.3430577"><ele>519.0</ele><time>2026-04-18T12:31:40.017Z</time></trkpt><trkpt lat="45.565218" lon="10.342903"><ele>522.25</ele><time>2026-04-18T12:31:41.018Z</time></trkpt><trkpt lat="45.5652847" lon="10.3427515"><ele>525.5</ele><time>2026-04-18T12:31:42.016Z</time></trkpt><trkpt lat="45.5653567" lon="10.3426247"><ele>528.75</ele><time>2026-04-18T12:31:43.016Z</time></trkpt><trkpt lat="45.5654402" lon="10.3425135"><ele>532.0</ele><time>2026-04-18T12:31:44.015Z</time></trkpt><trkpt lat="45.5655217" lon="10.3423912"><ele>533.6</ele><time>2026-04-18T12:31:45.016Z</time></trkpt><trkpt lat="45.5656007" lon="10.3422465"><ele>535.2</ele><time>2026-04-18T12:31:46.016Z</time></trkpt><trkpt lat="45.565674" lon="10.3421087"><ele>536.8</ele><time>2026-04-18T12:31:47.012Z</time></trkpt><trkpt lat="45.5657345" lon="10.342"><ele>538.4</ele><time>2026-04-18T12:31:48.013Z</time></trkpt><trkpt lat="45.5658013" lon="10.3419223"><ele>540.0</ele><time>2026-04-18T12:31:49.015Z</time></trkpt><trkpt lat="45.565873" lon="10.34185"><ele>540.8</ele><time>2026-04-18T12:31:50.013Z</time></trkpt><trkpt lat="45.5659408" lon="10.3417583"><ele>541.6</ele><time>2026-04-18T12:31:51.016Z</time></trkpt><trkpt lat="45.5660195" lon="10.3416795"><ele>542.4</ele><time>2026-04-18T12:31:52.015Z</time></trkpt><trkpt lat="45.5661088" lon="10.3415872"><ele>543.2</ele><time>2026-04-18T12:31:53.016Z</time></trkpt><trkpt lat="45.5662033" lon="10.3414965"><ele>544.0</ele><time>2026-04-18T12:31:54.015Z</time></trkpt><trkpt lat="45.566309" lon="10.3414088"><ele>546.0</ele><time>2026-04-18T12:31:55.014Z</time></trkpt><trkpt lat="45.5664173" lon="10.3413177"><ele>548.0</ele><time>2026-04-18T12:31:56.024Z</time></trkpt><trkpt lat="45.5665182" lon="10.3412165"><ele>550.0</ele><time>2026-04-18T12:31:57.014Z</time></trkpt><trkpt lat="45.5666107" lon="10.3411175"><ele>552.0</ele><time>2026-04-18T12:31:58.015Z</time></trkpt><trkpt lat="45.5666847" lon="10.3410062"><ele>552.0</ele><time>2026-04-18T12:31:59.013Z</time></trkpt><trkpt lat="45.5667482" lon="10.3408777"><ele>552.0</ele><time>2026-04-18T12:32:00.015Z</time></trkpt><trkpt lat="45.566812" lon="10.3407638"><ele>552.0</ele><time>2026-04-18T12:32:01.015Z</time></trkpt><trkpt lat="45.5668842" lon="10.3406697"><ele>552.0</ele><time>2026-04-18T12:32:02.015Z</time></trkpt><trkpt lat="45.5669752" lon="10.3405687"><ele>552.0</ele><time>2026-04-18T12:32:03.014Z</time></trkpt><trkpt lat="45.567076" lon="10.3404293"><ele>552.8000000000001</ele><time>2026-04-18T12:32:04.015Z</time></trkpt><trkpt lat="45.5671683" lon="10.3403048"><ele>553.6</ele><time>2026-04-18T12:32:05.014Z</time></trkpt><trkpt lat="45.5672458" lon="10.340201"><ele>554.4000000000001</ele><time>2026-04-18T12:32:06.015Z</time></trkpt><trkpt lat="45.5673152" lon="10.3401247"><ele>555.2</ele><time>2026-04-18T12:32:07.016Z</time></trkpt><trkpt lat="45.5673785" lon="10.3400807"><ele>556.0</ele><time>2026-04-18T12:32:08.016Z</time></trkpt><trkpt lat="45.5674392" lon="10.3400538"><ele>556.0</ele><time>2026-04-18T12:32:09.016Z</time></trkpt><trkpt lat="45.5675232" lon="10.340032"><ele>556.0</ele><time>2026-04-18T12:32:10.016Z</time></trkpt><trkpt lat="45.5676137" lon="10.3400442"><ele>556.0</ele><time>2026-04-18T12:32:11.014Z</time></trkpt><trkpt lat="45.567696" lon="10.34008"><ele>556.0</ele><time>2026-04-18T12:32:12.013Z</time></trkpt><trkpt lat="45.5677635" lon="10.340101"><ele>556.0</ele><time>2026-04-18T12:32:13.014Z</time></trkpt><trkpt lat="45.5678797" lon="10.3400978"><ele>556.0</ele><time>2026-04-18T12:32:15.014Z</time></trkpt><trkpt lat="45.5679222" lon="10.3399888"><ele>556.0</ele><time>2026-04-18T12:32:17.016Z</time></trkpt><trkpt lat="45.567868" lon="10.3398872"><ele>556.0</ele><time>2026-04-18T12:32:19.016Z</time></trkpt><trkpt lat="45.5678068" lon="10.339861"><ele>556.0</ele><time>2026-04-18T12:32:20.016Z</time></trkpt><trkpt lat="45.5677243" lon="10.3398088"><ele>556.0</ele><time>2026-04-18T12:32:21.018Z</time></trkpt><trkpt lat="45.5676327" lon="10.3397403"><ele>556.0</ele><time>2026-04-18T12:32:22.016Z</time></trkpt><trkpt lat="45.5675153" lon="10.3396475"><ele>557.75</ele><time>2026-04-18T12:32:23.015Z</time></trkpt><trkpt lat="45.5673817" lon="10.3395497"><ele>559.5</ele><time>2026-04-18T12:32:24.016Z</time></trkpt><trkpt lat="45.5672667" lon="10.3394512"><ele>561.25</ele><time>2026-04-18T12:32:25.015Z</time></trkpt><trkpt lat="45.567164" lon="10.3393462"><ele>563.0</ele><time>2026-04-18T12:32:26.016Z</time></trkpt><trkpt lat="45.5670705" lon="10.3392547"><ele>563.4</ele><time>2026-04-18T12:32:27.016Z</time></trkpt><trkpt lat="45.5669977" lon="10.3391577"><ele>563.8</ele><time>2026-04-18T12:32:28.016Z</time></trkpt><trkpt lat="45.5669485" lon="10.3390568"><ele>564.2</ele><time>2026-04-18T12:32:29.016Z</time></trkpt><trkpt lat="45.5669197" lon="10.3389457"><ele>564.6</ele><time>2026-04-18T12:32:30.017Z</time></trkpt><trkpt lat="45.5669015" lon="10.3388022"><ele>565.0</ele><time>2026-04-18T12:32:31.017Z</time></trkpt><trkpt lat="45.5668653" lon="10.3386443"><ele>565.6666666666667</ele><time>2026-04-18T12:32:32.016Z</time></trkpt><trkpt lat="45.5668233" lon="10.3385208"><ele>566.3333333333334</ele><time>2026-04-18T12:32:33.029Z</time></trkpt><trkpt lat="45.5667817" lon="10.3384065"><ele>567.0</ele><time>2026-04-18T12:32:34.016Z</time></trkpt><trkpt lat="45.5667473" lon="10.338295"><ele>567.6666666666666</ele><time>2026-04-18T12:32:35.017Z</time></trkpt><trkpt lat="45.5667417" lon="10.3382025"><ele>568.3333333333333</ele><time>2026-04-18T12:32:36.016Z</time></trkpt><trkpt lat="45.5667492" lon="10.338113"><ele>569.0</ele><time>2026-04-18T12:32:37.017Z</time></trkpt><trkpt lat="45.5667608" lon="10.3379997"><ele>569.6666666666666</ele><time>2026-04-18T12:32:38.014Z</time></trkpt><trkpt lat="45.5667847" lon="10.3378802"><ele>570.3333333333333</ele><time>2026-04-18T12:32:39.014Z</time></trkpt><trkpt lat="45.566776" lon="10.3377537"><ele>571.0</ele><time>2026-04-18T12:32:40.016Z</time></trkpt><trkpt lat="45.5667585" lon="10.3376318"><ele>571.6666666666666</ele><time>2026-04-18T12:32:41.017Z</time></trkpt><trkpt lat="45.5667512" lon="10.3374915"><ele>572.3333333333334</ele><time>2026-04-18T12:32:42.016Z</time></trkpt><trkpt lat="45.5667625" lon="10.33737"><ele>573.0</ele><time>2026-04-18T12:32:43.018Z</time></trkpt><trkpt lat="45.566787" lon="10.3372308"><ele>573.0</ele><time>2026-04-18T12:32:44.016Z</time></trkpt><trkpt lat="45.566818" lon="10.3370898"><ele>573.0</ele><time>2026-04-18T12:32:45.016Z</time></trkpt><trkpt lat="45.5668257" lon="10.3369717"><ele>573.0</ele><time>2026-04-18T12:32:46.016Z</time></trkpt><trkpt lat="45.5667963" lon="10.3368608"><ele>573.0</ele><time>2026-04-18T12:32:47.015Z</time></trkpt><trkpt lat="45.5667598" lon="10.3367452"><ele>573.0</ele><time>2026-04-18T12:32:48.018Z</time></trkpt><trkpt lat="45.5667422" lon="10.3366058"><ele>573.0</ele><time>2026-04-18T12:32:49.016Z</time></trkpt><trkpt lat="45.5667378" lon="10.336459"><ele>573.0</ele><time>2026-04-18T12:32:50.017Z</time></trkpt><trkpt lat="45.5667542" lon="10.3363095"><ele>573.0</ele><time>2026-04-18T12:32:51.017Z</time></trkpt><trkpt lat="45.5667982" lon="10.3361657"><ele>573.0</ele><time>2026-04-18T12:32:52.017Z</time></trkpt><trkpt lat="45.5668423" lon="10.3360277"><ele>573.0</ele><time>2026-04-18T12:32:53.016Z</time></trkpt><trkpt lat="45.56688" lon="10.3359057"><ele>573.0</ele><time>2026-04-18T12:32:54.018Z</time></trkpt><trkpt lat="45.566921" lon="10.3357895"><ele>573.0</ele><time>2026-04-18T12:32:55.016Z</time></trkpt><trkpt lat="45.5669677" lon="10.3356838"><ele>573.0</ele><time>2026-04-18T12:32:56.015Z</time></trkpt><trkpt lat="45.5670098" lon="10.3355988"><ele>573.0</ele><time>2026-04-18T12:32:57.016Z</time></trkpt><trkpt lat="45.5670433" lon="10.3355138"><ele>573.0</ele><time>2026-04-18T12:32:58.017Z</time></trkpt><trkpt lat="45.5670513" lon="10.3354122"><ele>573.0</ele><time>2026-04-18T12:32:59.019Z</time></trkpt><trkpt lat="45.5670333" lon="10.3353237"><ele>573.5</ele><time>2026-04-18T12:33:00.017Z</time></trkpt><trkpt lat="45.5669928" lon="10.3352283"><ele>574.0</ele><time>2026-04-18T12:33:01.016Z</time></trkpt><trkpt lat="45.566939" lon="10.3351198"><ele>574.5</ele><time>2026-04-18T12:33:02.017Z</time></trkpt><trkpt lat="45.5669103" lon="10.3350215"><ele>575.0</ele><time>2026-04-18T12:33:03.018Z</time></trkpt><trkpt lat="45.5669062" lon="10.334931"><ele>575.5</ele><time>2026-04-18T12:33:04.015Z</time></trkpt><trkpt lat="45.5669102" lon="10.3348257"><ele>576.0</ele><time>2026-04-18T12:33:05.031Z</time></trkpt><trkpt lat="45.5669198" lon="10.3347055"><ele>577.8</ele><time>2026-04-18T12:33:06.017Z</time></trkpt><trkpt lat="45.566932" lon="10.3345558"><ele>579.6</ele><time>2026-04-18T12:33:07.017Z</time></trkpt><trkpt lat="45.566941" lon="10.3344437"><ele>581.4</ele><time>2026-04-18T12:33:08.017Z</time></trkpt><trkpt lat="45.5669403" lon="10.3342802"><ele>583.2</ele><time>2026-04-18T12:33:10.017Z</time></trkpt><trkpt lat="45.5668828" lon="10.3341712"><ele>585.0</ele><time>2026-04-18T12:33:12.027Z</time></trkpt><trkpt lat="45.5667665" lon="10.3341148"><ele>585.0</ele><time>2026-04-18T12:33:14.016Z</time></trkpt><trkpt lat="45.5666647" lon="10.3341398"><ele>585.0</ele><time>2026-04-18T12:33:16.018Z</time></trkpt><trkpt lat="45.5665755" lon="10.3342112"><ele>585.0</ele><time>2026-04-18T12:33:18.017Z</time></trkpt><trkpt lat="45.5665073" lon="10.3342298"><ele>585.0</ele><time>2026-04-18T12:33:19.016Z</time></trkpt><trkpt lat="45.5664163" lon="10.3342222"><ele>585.0</ele><time>2026-04-18T12:33:20.017Z</time></trkpt><trkpt lat="45.5663313" lon="10.334223"><ele>585.0</ele><time>2026-04-18T12:33:21.018Z</time></trkpt><trkpt lat="45.5662073" lon="10.3342435"><ele>585.0</ele><time>2026-04-18T12:33:23.019Z</time></trkpt><trkpt lat="45.5661318" lon="10.3342443"><ele>585.0</ele><time>2026-04-18T12:33:24.016Z</time></trkpt><trkpt lat="45.5660515" lon="10.3342468"><ele>585.0</ele><time>2026-04-18T12:33:25.015Z</time></trkpt><trkpt lat="45.5659647" lon="10.334245"><ele>585.0</ele><time>2026-04-18T12:33:26.016Z</time></trkpt><trkpt lat="45.5658892" lon="10.334245"><ele>585.0</ele><time>2026-04-18T12:33:27.016Z</time></trkpt><trkpt lat="45.5657802" lon="10.3343102"><ele>587.8</ele><time>2026-04-18T12:33:29.018Z</time></trkpt><trkpt lat="45.5656823" lon="10.3343357"><ele>590.6</ele><time>2026-04-18T12:33:31.018Z</time></trkpt><trkpt lat="45.5655993" lon="10.3343205"><ele>593.4</ele><time>2026-04-18T12:33:32.016Z</time></trkpt><trkpt lat="45.5655212" lon="10.3343288"><ele>596.2</ele><time>2026-04-18T12:33:33.018Z</time></trkpt><trkpt lat="45.5654298" lon="10.334348"><ele>599.0</ele><time>2026-04-18T12:33:34.018Z</time></trkpt><trkpt lat="45.5653247" lon="10.3343692"><ele>599.1666666666666</ele><time>2026-04-18T12:33:35.017Z</time></trkpt><trkpt lat="45.5652308" lon="10.3343757"><ele>599.3333333333333</ele><time>2026-04-18T12:33:36.017Z</time></trkpt><trkpt lat="45.5651537" lon="10.334375"><ele>599.5</ele><time>2026-04-18T12:33:37.017Z</time></trkpt><trkpt lat="45.5650893" lon="10.334365"><ele>599.6666666666666</ele><time>2026-04-18T12:33:38.017Z</time></trkpt><trkpt lat="45.5650162" lon="10.3342935"><ele>599.8333333333334</ele><time>2026-04-18T12:33:40.017Z</time></trkpt><trkpt lat="45.5649388" lon="10.3342463"><ele>600.0</ele><time>2026-04-18T12:33:42.016Z</time></trkpt><trkpt lat="45.5648642" lon="10.3342633"><ele>600.0</ele><time>2026-04-18T12:33:44.017Z</time></trkpt><trkpt lat="45.5647528" lon="10.334253"><ele>600.0</ele><time>2026-04-18T12:33:46.018Z</time></trkpt><trkpt lat="45.564682" lon="10.3342422"><ele>600.0</ele><time>2026-04-18T12:33:47.017Z</time></trkpt><trkpt lat="45.5646125" lon="10.3342428"><ele>600.0</ele><time>2026-04-18T12:33:48.017Z</time></trkpt><trkpt lat="45.5644938" lon="10.3342325"><ele>600.0</ele><time>2026-04-18T12:33:50.016Z</time></trkpt><trkpt lat="45.5644233" lon="10.334256"><ele>600.0</ele><time>2026-04-18T12:33:52.016Z</time></trkpt><trkpt lat="45.5643993" lon="10.3343902"><ele>599.6</ele><time>2026-04-18T12:33:55.032Z</time></trkpt><trkpt lat="45.5643917" lon="10.3345072"><ele>599.2</ele><time>2026-04-18T12:33:57.017Z</time></trkpt><trkpt lat="45.564373" lon="10.3346127"><ele>598.8</ele><time>2026-04-18T12:34:00.019Z</time></trkpt><trkpt lat="45.5642598" lon="10.3346173"><ele>598.4</ele><time>2026-04-18T12:34:03.018Z</time></trkpt><trkpt lat="45.5641508" lon="10.3346525"><ele>598.0</ele><time>2026-04-18T12:34:05.019Z</time></trkpt><trkpt lat="45.5640847" lon="10.3346925"><ele>597.2857142857142</ele><time>2026-04-18T12:34:07.018Z</time></trkpt><trkpt lat="45.5640303" lon="10.3347443"><ele>596.5714285714286</ele><time>2026-04-18T12:34:10.018Z</time></trkpt><trkpt lat="45.5639593" lon="10.3347642"><ele>595.8571428571429</ele><time>2026-04-18T12:34:13.017Z</time></trkpt><trkpt lat="45.5638828" lon="10.3347493"><ele>595.1428571428571</ele><time>2026-04-18T12:34:15.018Z</time></trkpt><trkpt lat="45.5638147" lon="10.3347297"><ele>594.4285714285714</ele><time>2026-04-18T12:34:18.019Z</time></trkpt><trkpt lat="45.5637333" lon="10.3347537"><ele>593.7142857142857</ele><time>2026-04-18T12:34:21.019Z</time></trkpt><trkpt lat="45.5636527" lon="10.3347473"><ele>593.0</ele><time>2026-04-18T12:34:25.018Z</time></trkpt><trkpt lat="45.5635822" lon="10.3347462"><ele>597.0</ele><time>2026-04-18T12:34:29.019Z</time></trkpt><trkpt lat="45.5635223" lon="10.3346568"><ele>601.0</ele><time>2026-04-18T12:34:33.019Z</time></trkpt><trkpt lat="45.563451" lon="10.3346247"><ele>605.0</ele><time>2026-04-18T12:34:35.019Z</time></trkpt><trkpt lat="45.5633957" lon="10.3345685"><ele>609.0</ele><time>2026-04-18T12:34:37.018Z</time></trkpt><trkpt lat="45.5633138" lon="10.3345462"><ele>613.0</ele><time>2026-04-18T12:34:39.016Z</time></trkpt><trkpt lat="45.563223" lon="10.3345245"><ele>617.0</ele><time>2026-04-18T12:34:42.018Z</time></trkpt><trkpt lat="45.5631455" lon="10.3344607"><ele>617.0</ele><time>2026-04-18T12:34:44.017Z</time></trkpt><trkpt lat="45.5630615" lon="10.3344878"><ele>617.0</ele><time>2026-04-18T12:34:46.017Z</time></trkpt><trkpt lat="45.5629865" lon="10.334511"><ele>617.0</ele><time>2026-04-18T12:34:48.017Z</time></trkpt><trkpt lat="45.5629112" lon="10.3345342"><ele>617.0</ele><time>2026-04-18T12:34:50.017Z</time></trkpt><trkpt lat="45.5628297" lon="10.334552"><ele>617.0</ele><time>2026-04-18T12:34:52.02Z</time></trkpt><trkpt lat="45.5627572" lon="10.334508"><ele>617.0</ele><time>2026-04-18T12:34:54.019Z</time></trkpt><trkpt lat="45.5626543" lon="10.3344675"><ele>619.3333333333333</ele><time>2026-04-18T12:34:56.017Z</time></trkpt><trkpt lat="45.5625542" lon="10.334439"><ele>621.6666666666666</ele><time>2026-04-18T12:34:58.018Z</time></trkpt><trkpt lat="45.5624865" lon="10.3344607"><ele>624.0</ele><time>2026-04-18T12:35:00.018Z</time></trkpt><trkpt lat="45.5623898" lon="10.3344613"><ele>626.3333333333334</ele><time>2026-04-18T12:35:02.018Z</time></trkpt><trkpt lat="45.5622777" lon="10.3344787"><ele>628.6666666666667</ele><time>2026-04-18T12:35:04.015Z</time></trkpt><trkpt lat="45.5622112" lon="10.3344577"><ele>631.0</ele><time>2026-04-18T12:35:06.016Z</time></trkpt><trkpt lat="45.5621703" lon="10.3343715"><ele>631.0</ele><time>2026-04-18T12:35:10.018Z</time></trkpt><trkpt lat="45.5620947" lon="10.3343705"><ele>631.0</ele><time>2026-04-18T12:35:13.017Z</time></trkpt><trkpt lat="45.5620112" lon="10.3344053"><ele>631.0</ele><time>2026-04-18T12:35:15.018Z</time></trkpt><trkpt lat="45.5619092" lon="10.3343697"><ele>631.0</ele><time>2026-04-18T12:35:18.017Z</time></trkpt><trkpt lat="45.5618328" lon="10.3343478"><ele>631.0</ele><time>2026-04-18T12:35:20.017Z</time></trkpt><trkpt lat="45.5617652" lon="10.3343303"><ele>631.0</ele><time>2026-04-18T12:35:22.017Z</time></trkpt><trkpt lat="45.5617077" lon="10.3342735"><ele>631.8571428571429</ele><time>2026-04-18T12:35:24.017Z</time></trkpt><trkpt lat="45.5616697" lon="10.3341917"><ele>632.7142857142857</ele><time>2026-04-18T12:35:26.017Z</time></trkpt><trkpt lat="45.5616543" lon="10.3340998"><ele>633.5714285714286</ele><time>2026-04-18T12:35:29.015Z</time></trkpt><trkpt lat="45.5616255" lon="10.333997"><ele>634.4285714285714</ele><time>2026-04-18T12:35:32.017Z</time></trkpt><trkpt lat="45.5615807" lon="10.3339077"><ele>635.2857142857142</ele><time>2026-04-18T12:35:36.017Z</time></trkpt><trkpt lat="45.5615033" lon="10.3338852"><ele>636.1428571428571</ele><time>2026-04-18T12:35:39.017Z</time></trkpt><trkpt lat="45.5614375" lon="10.3338923"><ele>637.0</ele><time>2026-04-18T12:35:41.017Z</time></trkpt><trkpt lat="45.5613535" lon="10.333923"><ele>637.5714285714286</ele><time>2026-04-18T12:35:43.018Z</time></trkpt><trkpt lat="45.561274" lon="10.3338753"><ele>638.1428571428571</ele><time>2026-04-18T12:35:46.017Z</time></trkpt><trkpt lat="45.561213" lon="10.3338315"><ele>638.7142857142858</ele><time>2026-04-18T12:35:50.018Z</time></trkpt><trkpt lat="45.5611547" lon="10.3337702"><ele>639.2857142857142</ele><time>2026-04-18T12:35:53.016Z</time></trkpt><trkpt lat="45.5610928" lon="10.3337438"><ele>639.8571428571429</ele><time>2026-04-18T12:35:59.019Z</time></trkpt><trkpt lat="45.5610337" lon="10.333704"><ele>640.4285714285714</ele><time>2026-04-18T12:36:11.02Z</time></trkpt><trkpt lat="45.5609703" lon="10.3336633"><ele>641.0</ele><time>2026-04-18T12:37:39.02Z</time></trkpt><trkpt lat="45.5609148" lon="10.333615"><ele>643.8333333333333</ele><time>2026-04-18T12:37:44.02Z</time></trkpt><trkpt lat="45.560849" lon="10.3335898"><ele>646.6666666666666</ele><time>2026-04-18T12:37:46.023Z</time></trkpt><trkpt lat="45.560785" lon="10.3335042"><ele>649.5</ele><time>2026-04-18T12:37:48.02Z</time></trkpt><trkpt lat="45.5607732" lon="10.3333667"><ele>652.3333333333334</ele><time>2026-04-18T12:37:50.021Z</time></trkpt><trkpt lat="45.560775" lon="10.3332598"><ele>655.1666666666667</ele><time>2026-04-18T12:37:52.019Z</time></trkpt><trkpt lat="45.5607778" lon="10.3331483"><ele>658.0</ele><time>2026-04-18T12:37:55.018Z</time></trkpt><trkpt lat="45.5607673" lon="10.3330473"><ele>659.8333333333334</ele><time>2026-04-18T12:37:57.018Z</time></trkpt><trkpt lat="45.5607537" lon="10.3328967"><ele>661.6666666666667</ele><time>2026-04-18T12:37:59.02Z</time></trkpt><trkpt lat="45.5607583" lon="10.3327877"><ele>663.5</ele><time>2026-04-18T12:38:01.019Z</time></trkpt><trkpt lat="45.5607865" lon="10.3326903"><ele>665.3333333333334</ele><time>2026-04-18T12:38:03.018Z</time></trkpt><trkpt lat="45.5608277" lon="10.3326097"><ele>667.1666666666666</ele><time>2026-04-18T12:38:05.018Z</time></trkpt><trkpt lat="45.5608827" lon="10.3325372"><ele>669.0</ele><time>2026-04-18T12:38:08.018Z</time></trkpt><trkpt lat="45.5609335" lon="10.3324528"><ele>669.0</ele><time>2026-04-18T12:38:11.019Z</time></trkpt><trkpt lat="45.5609848" lon="10.3323652"><ele>669.0</ele><time>2026-04-18T12:38:13.019Z</time></trkpt><trkpt lat="45.5610082" lon="10.3322488"><ele>669.0</ele><time>2026-04-18T12:38:15.019Z</time></trkpt><trkpt lat="45.56102" lon="10.3321265"><ele>669.0</ele><time>2026-04-18T12:38:18.02Z</time></trkpt><trkpt lat="45.5610512" lon="10.3320198"><ele>669.0</ele><time>2026-04-18T12:38:21.017Z</time></trkpt><trkpt lat="45.5610538" lon="10.3319095"><ele>669.0</ele><time>2026-04-18T12:38:23.018Z</time></trkpt><trkpt lat="45.5610915" lon="10.331794"><ele>668.8333333333334</ele><time>2026-04-18T12:38:25.018Z</time></trkpt><trkpt lat="45.5611422" lon="10.3316962"><ele>668.6666666666666</ele><time>2026-04-18T12:38:27.019Z</time></trkpt><trkpt lat="45.561205" lon="10.3316187"><ele>668.5</ele><time>2026-04-18T12:38:29.018Z</time></trkpt><trkpt lat="45.5612827" lon="10.3315618"><ele>668.3333333333333</ele><time>2026-04-18T12:38:31.019Z</time></trkpt><trkpt lat="45.5613733" lon="10.3314935"><ele>668.1666666666666</ele><time>2026-04-18T12:38:33.02Z</time></trkpt><trkpt lat="45.5614263" lon="10.3313965"><ele>668.0</ele><time>2026-04-18T12:38:35.017Z</time></trkpt><trkpt lat="45.5614685" lon="10.3313092"><ele>669.8</ele><time>2026-04-18T12:38:37.019Z</time></trkpt><trkpt lat="45.5615403" lon="10.3312655"><ele>671.5999999999999</ele><time>2026-04-18T12:38:39.018Z</time></trkpt><trkpt lat="45.561633" lon="10.3312092"><ele>673.4000000000001</ele><time>2026-04-18T12:38:41.019Z</time></trkpt><trkpt lat="45.5617325" lon="10.331116"><ele>675.2</ele><time>2026-04-18T12:38:43.018Z</time></trkpt><trkpt lat="45.5618433" lon="10.3310457"><ele>677.0</ele><time>2026-04-18T12:38:45.019Z</time></trkpt><trkpt lat="45.5619478" lon="10.330982"><ele>675.0</ele><time>2026-04-18T12:38:47.018Z</time></trkpt><trkpt lat="45.5620585" lon="10.3309112"><ele>673.0</ele><time>2026-04-18T12:38:49.021Z</time></trkpt><trkpt lat="45.5621903" lon="10.3308262"><ele>671.0</ele><time>2026-04-18T12:38:51.02Z</time></trkpt><trkpt lat="45.562267" lon="10.3307715"><ele>669.0</ele><time>2026-04-18T12:38:52.022Z</time></trkpt><trkpt lat="45.562351" lon="10.3307042"><ele>667.0</ele><time>2026-04-18T12:38:53.018Z</time></trkpt><trkpt lat="45.5624447" lon="10.3306358"><ele>667.0</ele><time>2026-04-18T12:38:54.017Z</time></trkpt><trkpt lat="45.5625193" lon="10.3305862"><ele>667.0</ele><time>2026-04-18T12:38:55.019Z</time></trkpt><trkpt lat="45.5626042" lon="10.3305523"><ele>667.0</ele><time>2026-04-18T12:38:56.02Z</time></trkpt><trkpt lat="45.5626862" lon="10.3305363"><ele>667.0</ele><time>2026-04-18T12:38:57.02Z</time></trkpt><trkpt lat="45.5627788" lon="10.3305328"><ele>667.0</ele><time>2026-04-18T12:38:58.019Z</time></trkpt><trkpt lat="45.5628832" lon="10.3305387"><ele>666.0</ele><time>2026-04-18T12:38:59.02Z</time></trkpt><trkpt lat="45.562984" lon="10.3305537"><ele>665.0</ele><time>2026-04-18T12:39:00.023Z</time></trkpt><trkpt lat="45.5630828" lon="10.3305902"><ele>664.0</ele><time>2026-04-18T12:39:01.021Z</time></trkpt><trkpt lat="45.5631812" lon="10.3306277"><ele>663.0</ele><time>2026-04-18T12:39:02.02Z</time></trkpt><trkpt lat="45.5632795" lon="10.3306592"><ele>662.0</ele><time>2026-04-18T12:39:03.021Z</time></trkpt><trkpt lat="45.5633615" lon="10.3306717"><ele>662.0</ele><time>2026-04-18T12:39:04.018Z</time></trkpt><trkpt lat="45.5634363" lon="10.3306668"><ele>662.0</ele><time>2026-04-18T12:39:05.018Z</time></trkpt><trkpt lat="45.563509" lon="10.3306648"><ele>662.0</ele><time>2026-04-18T12:39:06.021Z</time></trkpt><trkpt lat="45.5635897" lon="10.3306772"><ele>662.0</ele><time>2026-04-18T12:39:07.022Z</time></trkpt><trkpt lat="45.5636832" lon="10.3307092"><ele>662.0</ele><time>2026-04-18T12:39:08.018Z</time></trkpt><trkpt lat="45.5637858" lon="10.3307503"><ele>662.0</ele><time>2026-04-18T12:39:09.028Z</time></trkpt><trkpt lat="45.563899" lon="10.3307895"><ele>662.1666666666666</ele><time>2026-04-18T12:39:10.02Z</time></trkpt><trkpt lat="45.5639993" lon="10.330816"><ele>662.3333333333333</ele><time>2026-04-18T12:39:11.017Z</time></trkpt><trkpt lat="45.5640952" lon="10.3308312"><ele>662.5</ele><time>2026-04-18T12:39:12.021Z</time></trkpt><trkpt lat="45.5641758" lon="10.3308165"><ele>662.6666666666666</ele><time>2026-04-18T12:39:13.019Z</time></trkpt><trkpt lat="45.564252" lon="10.330791"><ele>662.8333333333334</ele><time>2026-04-18T12:39:14.02Z</time></trkpt><trkpt lat="45.564331" lon="10.3307615"><ele>663.0</ele><time>2026-04-18T12:39:15.02Z</time></trkpt><trkpt lat="45.5644002" lon="10.3307407"><ele>663.0</ele><time>2026-04-18T12:39:16.019Z</time></trkpt><trkpt lat="45.5644732" lon="10.3307435"><ele>663.0</ele><time>2026-04-18T12:39:17.019Z</time></trkpt><trkpt lat="45.5645542" lon="10.3307535"><ele>663.0</ele><time>2026-04-18T12:39:18.02Z</time></trkpt><trkpt lat="45.5646563" lon="10.330774"><ele>663.0</ele><time>2026-04-18T12:39:19.02Z</time></trkpt><trkpt lat="45.5647553" lon="10.3307927"><ele>663.0</ele><time>2026-04-18T12:39:20.019Z</time></trkpt><trkpt lat="45.5648545" lon="10.3308003"><ele>662.2</ele><time>2026-04-18T12:39:21.02Z</time></trkpt><trkpt lat="45.5649532" lon="10.3308188"><ele>661.4</ele><time>2026-04-18T12:39:22.019Z</time></trkpt><trkpt lat="45.5650463" lon="10.3308598"><ele>660.6</ele><time>2026-04-18T12:39:23.018Z</time></trkpt><trkpt lat="45.5651457" lon="10.3309182"><ele>659.8000000000001</ele><time>2026-04-18T12:39:24.02Z</time></trkpt><trkpt lat="45.5652265" lon="10.33098"><ele>659.0</ele><time>2026-04-18T12:39:25.021Z</time></trkpt><trkpt lat="45.5652985" lon="10.3310098"><ele>658.2</ele><time>2026-04-18T12:39:26.019Z</time></trkpt><trkpt lat="45.5654415" lon="10.3310407"><ele>657.4000000000001</ele><time>2026-04-18T12:39:28.021Z</time></trkpt><trkpt lat="45.5655063" lon="10.3310515"><ele>656.6</ele><time>2026-04-18T12:39:29.019Z</time></trkpt><trkpt lat="45.5655833" lon="10.3310757"><ele>655.8</ele><time>2026-04-18T12:39:30.033Z</time></trkpt><trkpt lat="45.5657065" lon="10.3310553"><ele>655.0</ele><time>2026-04-18T12:39:32.017Z</time></trkpt><trkpt lat="45.5657783" lon="10.331039"><ele>655.0</ele><time>2026-04-18T12:39:33.017Z</time></trkpt><trkpt lat="45.5658518" lon="10.3310132"><ele>655.0</ele><time>2026-04-18T12:39:34.017Z</time></trkpt><trkpt lat="45.5659227" lon="10.3309812"><ele>655.0</ele><time>2026-04-18T12:39:35.016Z</time></trkpt><trkpt lat="45.565994" lon="10.3309583"><ele>655.0</ele><time>2026-04-18T12:39:36.018Z</time></trkpt><trkpt lat="45.5661075" lon="10.3309402"><ele>655.0</ele><time>2026-04-18T12:39:38.019Z</time></trkpt><trkpt lat="45.566223" lon="10.330925"><ele>651.2</ele><time>2026-04-18T12:39:40.019Z</time></trkpt><trkpt lat="45.5662842" lon="10.3308283"><ele>647.4</ele><time>2026-04-18T12:39:42.018Z</time></trkpt><trkpt lat="45.5663378" lon="10.3306805"><ele>643.6</ele><time>2026-04-18T12:39:44.018Z</time></trkpt><trkpt lat="45.5664232" lon="10.3305638"><ele>639.8</ele><time>2026-04-18T12:39:46.018Z</time></trkpt><trkpt lat="45.5665405" lon="10.3305308"><ele>636.0</ele><time>2026-04-18T12:39:48.02Z</time></trkpt><trkpt lat="45.5666112" lon="10.330524"><ele>634.8333333333334</ele><time>2026-04-18T12:39:49.018Z</time></trkpt><trkpt lat="45.566677" lon="10.3305097"><ele>633.6666666666666</ele><time>2026-04-18T12:39:50.018Z</time></trkpt><trkpt lat="45.566743" lon="10.3304827"><ele>632.5</ele><time>2026-04-18T12:39:51.018Z</time></trkpt><trkpt lat="45.5668052" lon="10.3304222"><ele>631.3333333333333</ele><time>2026-04-18T12:39:53.022Z</time></trkpt><trkpt lat="45.5668143" lon="10.3303135"><ele>630.1666666666666</ele><time>2026-04-18T12:39:56.017Z</time></trkpt><trkpt lat="45.5667357" lon="10.3302328"><ele>629.0</ele><time>2026-04-18T12:39:58.017Z</time></trkpt><trkpt lat="45.5666432" lon="10.3301693"><ele>629.0</ele><time>2026-04-18T12:39:59.014Z</time></trkpt><trkpt lat="45.5665257" lon="10.3300815"><ele>629.0</ele><time>2026-04-18T12:40:00.013Z</time></trkpt><trkpt lat="45.566421" lon="10.3300147"><ele>629.0</ele><time>2026-04-18T12:40:01.017Z</time></trkpt><trkpt lat="45.566312" lon="10.32997"><ele>629.0</ele><time>2026-04-18T12:40:02.015Z</time></trkpt><trkpt lat="45.5661955" lon="10.3299483"><ele>632.0</ele><time>2026-04-18T12:40:03.016Z</time></trkpt><trkpt lat="45.5660533" lon="10.329939"><ele>635.0</ele><time>2026-04-18T12:40:04.018Z</time></trkpt><trkpt lat="45.5659255" lon="10.3299368"><ele>638.0</ele><time>2026-04-18T12:40:05.018Z</time></trkpt><trkpt lat="45.565837" lon="10.3299073"><ele>641.0</ele><time>2026-04-18T12:40:06.016Z</time></trkpt><trkpt lat="45.5657703" lon="10.3298607"><ele>644.0</ele><time>2026-04-18T12:40:07.015Z</time></trkpt><trkpt lat="45.5656548" lon="10.329789"><ele>644.0</ele><time>2026-04-18T12:40:08.015Z</time></trkpt><trkpt lat="45.5655612" lon="10.3297522"><ele>644.0</ele><time>2026-04-18T12:40:09.016Z</time></trkpt><trkpt lat="45.5654658" lon="10.329695"><ele>644.0</ele><time>2026-04-18T12:40:10.019Z</time></trkpt><trkpt lat="45.565394" lon="10.3296597"><ele>644.0</ele><time>2026-04-18T12:40:11.016Z</time></trkpt><trkpt lat="45.5653157" lon="10.3296465"><ele>644.0</ele><time>2026-04-18T12:40:12.017Z</time></trkpt><trkpt lat="45.565223" lon="10.3296452"><ele>644.0</ele><time>2026-04-18T12:40:13.016Z</time></trkpt><trkpt lat="45.5651157" lon="10.3296728"><ele>641.75</ele><time>2026-04-18T12:40:14.015Z</time></trkpt><trkpt lat="45.564979" lon="10.3297173"><ele>639.5</ele><time>2026-04-18T12:40:15.015Z</time></trkpt><trkpt lat="45.5648242" lon="10.329767"><ele>637.25</ele><time>2026-04-18T12:40:16.016Z</time></trkpt><trkpt lat="45.5647082" lon="10.3298032"><ele>635.0</ele><time>2026-04-18T12:40:17.028Z</time></trkpt><trkpt lat="45.5645985" lon="10.3298275"><ele>640.0</ele><time>2026-04-18T12:40:18.017Z</time></trkpt><trkpt lat="45.564464" lon="10.329826"><ele>645.0</ele><time>2026-04-18T12:40:19.018Z</time></trkpt><trkpt lat="45.5643373" lon="10.3298435"><ele>650.0</ele><time>2026-04-18T12:40:20.014Z</time></trkpt><trkpt lat="45.5641838" lon="10.3298265"><ele>655.0</ele><time>2026-04-18T12:40:21.015Z</time></trkpt><trkpt lat="45.5640233" lon="10.3298068"><ele>655.0</ele><time>2026-04-18T12:40:22.012Z</time></trkpt><trkpt lat="45.5638892" lon="10.329778"><ele>655.0</ele><time>2026-04-18T12:40:23.015Z</time></trkpt><trkpt lat="45.563787" lon="10.3297415"><ele>655.0</ele><time>2026-04-18T12:40:24.013Z</time></trkpt><trkpt lat="45.5636465" lon="10.3296712"><ele>655.0</ele><time>2026-04-18T12:40:25.014Z</time></trkpt><trkpt lat="45.5634998" lon="10.3295728"><ele>650.6666666666667</ele><time>2026-04-18T12:40:26.017Z</time></trkpt><trkpt lat="45.563345" lon="10.3294868"><ele>646.3333333333334</ele><time>2026-04-18T12:40:27.015Z</time></trkpt><trkpt lat="45.5631655" lon="10.329397"><ele>642.0</ele><time>2026-04-18T12:40:28.015Z</time></trkpt><trkpt lat="45.563" lon="10.3293072"><ele>644.5</ele><time>2026-04-18T12:40:29.015Z</time></trkpt><trkpt lat="45.5628622" lon="10.3292373"><ele>647.0</ele><time>2026-04-18T12:40:30.016Z</time></trkpt><trkpt lat="45.5627168" lon="10.3291602"><ele>649.5</ele><time>2026-04-18T12:40:31.016Z</time></trkpt><trkpt lat="45.5625928" lon="10.3290942"><ele>652.0</ele><time>2026-04-18T12:40:32.017Z</time></trkpt><trkpt lat="45.5624825" lon="10.3290408"><ele>652.0</ele><time>2026-04-18T12:40:33.016Z</time></trkpt><trkpt lat="45.5623818" lon="10.3289978"><ele>652.0</ele><time>2026-04-18T12:40:34.017Z</time></trkpt><trkpt lat="45.562253" lon="10.3289625"><ele>652.0</ele><time>2026-04-18T12:40:35.016Z</time></trkpt><trkpt lat="45.5620905" lon="10.328916"><ele>652.0</ele><time>2026-04-18T12:40:36.015Z</time></trkpt><trkpt lat="45.561948" lon="10.32887"><ele>647.4</ele><time>2026-04-18T12:40:37.016Z</time></trkpt><trkpt lat="45.5618437" lon="10.3288458"><ele>642.8000000000001</ele><time>2026-04-18T12:40:38.016Z</time></trkpt><trkpt lat="45.5617413" lon="10.3287922"><ele>638.2</ele><time>2026-04-18T12:40:39.015Z</time></trkpt><trkpt lat="45.5616335" lon="10.3287278"><ele>633.6</ele><time>2026-04-18T12:40:40.016Z</time></trkpt><trkpt lat="45.5615297" lon="10.328675"><ele>629.0</ele><time>2026-04-18T12:40:41.015Z</time></trkpt><trkpt lat="45.5614172" lon="10.3286312"><ele>629.0</ele><time>2026-04-18T12:40:42.017Z</time></trkpt><trkpt lat="45.5612757" lon="10.3285875"><ele>629.0</ele><time>2026-04-18T12:40:43.015Z</time></trkpt><trkpt lat="45.5611283" lon="10.3285415"><ele>629.0</ele><time>2026-04-18T12:40:44.015Z</time></trkpt><trkpt lat="45.561004" lon="10.3285148"><ele>629.0</ele><time>2026-04-18T12:40:45.016Z</time></trkpt><trkpt lat="45.5609043" lon="10.3284943"><ele>630.0</ele><time>2026-04-18T12:40:46.017Z</time></trkpt><trkpt lat="45.5608085" lon="10.3284948"><ele>631.0</ele><time>2026-04-18T12:40:47.013Z</time></trkpt><trkpt lat="45.5606833" lon="10.3284692"><ele>632.0</ele><time>2026-04-18T12:40:48.014Z</time></trkpt><trkpt lat="45.5605697" lon="10.3284632"><ele>633.0</ele><time>2026-04-18T12:40:49.015Z</time></trkpt><trkpt lat="45.5604882" lon="10.328456"><ele>634.0</ele><time>2026-04-18T12:40:50.017Z</time></trkpt><trkpt lat="45.5604235" lon="10.3284132"><ele>634.2</ele><time>2026-04-18T12:40:51.018Z</time></trkpt><trkpt lat="45.5603413" lon="10.3283242"><ele>634.4</ele><time>2026-04-18T12:40:52.015Z</time></trkpt><trkpt lat="45.560251" lon="10.328209"><ele>634.6</ele><time>2026-04-18T12:40:53.015Z</time></trkpt><trkpt lat="45.5601777" lon="10.3281245"><ele>634.8</ele><time>2026-04-18T12:40:54.019Z</time></trkpt><trkpt lat="45.5600947" lon="10.3280527"><ele>635.0</ele><time>2026-04-18T12:40:55.017Z</time></trkpt><trkpt lat="45.5599997" lon="10.3280197"><ele>635.0</ele><time>2026-04-18T12:40:56.016Z</time></trkpt><trkpt lat="45.5598855" lon="10.3279882"><ele>635.0</ele><time>2026-04-18T12:40:57.016Z</time></trkpt><trkpt lat="45.55978" lon="10.3279873"><ele>635.0</ele><time>2026-04-18T12:40:58.015Z</time></trkpt><trkpt lat="45.5596923" lon="10.3280242"><ele>635.0</ele><time>2026-04-18T12:40:59.014Z</time></trkpt><trkpt lat="45.5595887" lon="10.3280942"><ele>635.0</ele><time>2026-04-18T12:41:00.016Z</time></trkpt><trkpt lat="45.5594912" lon="10.3281643"><ele>635.0</ele><time>2026-04-18T12:41:01.027Z</time></trkpt><trkpt lat="45.5594118" lon="10.328195"><ele>635.0</ele><time>2026-04-18T12:41:02.016Z</time></trkpt><trkpt lat="45.5593413" lon="10.3281617"><ele>635.0</ele><time>2026-04-18T12:41:03.017Z</time></trkpt><trkpt lat="45.559199" lon="10.3280705"><ele>635.0</ele><time>2026-04-18T12:41:05.015Z</time></trkpt><trkpt lat="45.559086" lon="10.3279992"><ele>635.0</ele><time>2026-04-18T12:41:06.016Z</time></trkpt><trkpt lat="45.5589493" lon="10.327955"><ele>630.0</ele><time>2026-04-18T12:41:07.018Z</time></trkpt><trkpt lat="45.5587883" lon="10.327896"><ele>625.0</ele><time>2026-04-18T12:41:08.017Z</time></trkpt><trkpt lat="45.5586418" lon="10.3278642"><ele>620.0</ele><time>2026-04-18T12:41:09.016Z</time></trkpt><trkpt lat="45.558537" lon="10.3278193"><ele>615.0</ele><time>2026-04-18T12:41:10.025Z</time></trkpt><trkpt lat="45.5584232" lon="10.3277563"><ele>615.0</ele><time>2026-04-18T12:41:11.014Z</time></trkpt><trkpt lat="45.5583033" lon="10.3276778"><ele>615.0</ele><time>2026-04-18T12:41:12.014Z</time></trkpt><trkpt lat="45.5581632" lon="10.3275958"><ele>615.0</ele><time>2026-04-18T12:41:13.014Z</time></trkpt><trkpt lat="45.55802" lon="10.3275195"><ele>615.0</ele><time>2026-04-18T12:41:14.014Z</time></trkpt><trkpt lat="45.5578892" lon="10.3275098"><ele>615.0</ele><time>2026-04-18T12:41:15.016Z</time></trkpt><trkpt lat="45.5577465" lon="10.3274748"><ele>615.0</ele><time>2026-04-18T12:41:16.015Z</time></trkpt><trkpt lat="45.557638" lon="10.327433"><ele>615.0</ele><time>2026-04-18T12:41:17.017Z</time></trkpt><trkpt lat="45.5575388" lon="10.3273512"><ele>615.0</ele><time>2026-04-18T12:41:18.017Z</time></trkpt><trkpt lat="45.5574453" lon="10.3272628"><ele>611.75</ele><time>2026-04-18T12:41:19.018Z</time></trkpt><trkpt lat="45.5573372" lon="10.32717"><ele>608.5</ele><time>2026-04-18T12:41:20.017Z</time></trkpt><trkpt lat="45.5572215" lon="10.3270663"><ele>605.25</ele><time>2026-04-18T12:41:21.016Z</time></trkpt><trkpt lat="45.5571167" lon="10.3269848"><ele>602.0</ele><time>2026-04-18T12:41:22.019Z</time></trkpt><trkpt lat="45.557014" lon="10.3269258"><ele>599.2</ele><time>2026-04-18T12:41:23.02Z</time></trkpt><trkpt lat="45.5569227" lon="10.3268622"><ele>596.4000000000001</ele><time>2026-04-18T12:41:24.019Z</time></trkpt><trkpt lat="45.5568447" lon="10.3267938"><ele>593.5999999999999</ele><time>2026-04-18T12:41:25.019Z</time></trkpt><trkpt lat="45.5567772" lon="10.3267097"><ele>590.8</ele><time>2026-04-18T12:41:26.019Z</time></trkpt><trkpt lat="45.5566963" lon="10.3265828"><ele>588.0</ele><time>2026-04-18T12:41:27.019Z</time></trkpt><trkpt lat="45.5566025" lon="10.3264253"><ele>588.6</ele><time>2026-04-18T12:41:28.018Z</time></trkpt><trkpt lat="45.5565175" lon="10.326281"><ele>589.1999999999999</ele><time>2026-04-18T12:41:29.018Z</time></trkpt><trkpt lat="45.5564603" lon="10.326163"><ele>589.8</ele><time>2026-04-18T12:41:30.031Z</time></trkpt><trkpt lat="45.5564203" lon="10.3260752"><ele>590.4</ele><time>2026-04-18T12:41:31.017Z</time></trkpt><trkpt lat="45.5563575" lon="10.326011"><ele>591.0</ele><time>2026-04-18T12:41:32.02Z</time></trkpt><trkpt lat="45.5562765" lon="10.3259587"><ele>588.2</ele><time>2026-04-18T12:41:33.019Z</time></trkpt><trkpt lat="45.5561733" lon="10.3259013"><ele>585.4000000000001</ele><time>2026-04-18T12:41:34.021Z</time></trkpt><trkpt lat="45.5560888" lon="10.3258427"><ele>582.6</ele><time>2026-04-18T12:41:35.018Z</time></trkpt><trkpt lat="45.5560068" lon="10.3257728"><ele>579.8000000000001</ele><time>2026-04-18T12:41:36.018Z</time></trkpt><trkpt lat="45.5559302" lon="10.3256967"><ele>577.0</ele><time>2026-04-18T12:41:37.017Z</time></trkpt><trkpt lat="45.5558505" lon="10.3255922"><ele>576.4</ele><time>2026-04-18T12:41:38.017Z</time></trkpt><trkpt lat="45.5557602" lon="10.3254832"><ele>575.8000000000001</ele><time>2026-04-18T12:41:39.019Z</time></trkpt><trkpt lat="45.5556878" lon="10.3253757"><ele>575.2</ele><time>2026-04-18T12:41:40.018Z</time></trkpt><trkpt lat="45.5556172" lon="10.3252685"><ele>574.6</ele><time>2026-04-18T12:41:41.018Z</time></trkpt><trkpt lat="45.5555385" lon="10.3251362"><ele>574.0</ele><time>2026-04-18T12:41:42.032Z</time></trkpt><trkpt lat="45.555472" lon="10.3250068"><ele>574.0</ele><time>2026-04-18T12:41:43.018Z</time></trkpt><trkpt lat="45.5553958" lon="10.3248733"><ele>574.0</ele><time>2026-04-18T12:41:44.018Z</time></trkpt><trkpt lat="45.5553185" lon="10.3247463"><ele>574.0</ele><time>2026-04-18T12:41:45.018Z</time></trkpt><trkpt lat="45.5552552" lon="10.3246157"><ele>574.0</ele><time>2026-04-18T12:41:46.019Z</time></trkpt><trkpt lat="45.5551927" lon="10.3244693"><ele>570.0</ele><time>2026-04-18T12:41:47.019Z</time></trkpt><trkpt lat="45.555126" lon="10.32431"><ele>566.0</ele><time>2026-04-18T12:41:48.022Z</time></trkpt><trkpt lat="45.5550573" lon="10.3241505"><ele>562.0</ele><time>2026-04-18T12:41:49.02Z</time></trkpt><trkpt lat="45.5549958" lon="10.3239967"><ele>558.0</ele><time>2026-04-18T12:41:50.02Z</time></trkpt><trkpt lat="45.554943" lon="10.323863"><ele>555.6666666666666</ele><time>2026-04-18T12:41:51.019Z</time></trkpt><trkpt lat="45.5549095" lon="10.3237457"><ele>553.3333333333334</ele><time>2026-04-18T12:41:52.018Z</time></trkpt><trkpt lat="45.5548787" lon="10.3236415"><ele>551.0</ele><time>2026-04-18T12:41:53.019Z</time></trkpt><trkpt lat="45.5548517" lon="10.3235455"><ele>548.6666666666667</ele><time>2026-04-18T12:41:54.019Z</time></trkpt><trkpt lat="45.5548053" lon="10.3234402"><ele>546.3333333333334</ele><time>2026-04-18T12:41:55.02Z</time></trkpt><trkpt lat="45.5547412" lon="10.3233183"><ele>544.0</ele><time>2026-04-18T12:41:56.02Z</time></trkpt><trkpt lat="45.5546742" lon="10.3232187"><ele>544.0</ele><time>2026-04-18T12:41:57.018Z</time></trkpt><trkpt lat="45.554609" lon="10.3231252"><ele>544.0</ele><time>2026-04-18T12:41:58.019Z</time></trkpt><trkpt lat="45.5545467" lon="10.3230495"><ele>544.0</ele><time>2026-04-18T12:41:59.018Z</time></trkpt><trkpt lat="45.5544853" lon="10.322923"><ele>544.0</ele><time>2026-04-18T12:42:01.017Z</time></trkpt><trkpt lat="45.5544713" lon="10.3227487"><ele>544.0</ele><time>2026-04-18T12:42:03.018Z</time></trkpt><trkpt lat="45.5544395" lon="10.3226682"><ele>541.6666666666667</ele><time>2026-04-18T12:42:04.019Z</time></trkpt><trkpt lat="45.5543893" lon="10.3226065"><ele>539.3333333333334</ele><time>2026-04-18T12:42:05.021Z</time></trkpt><trkpt lat="45.5543357" lon="10.322473"><ele>537.0</ele><time>2026-04-18T12:42:07.018Z</time></trkpt><trkpt lat="45.554379" lon="10.3223665"><ele>534.6666666666666</ele><time>2026-04-18T12:42:09.021Z</time></trkpt><trkpt lat="45.5544477" lon="10.322344"><ele>532.3333333333333</ele><time>2026-04-18T12:42:11.018Z</time></trkpt><trkpt lat="45.5544325" lon="10.3222432"><ele>530.0</ele><time>2026-04-18T12:42:16.019Z</time></trkpt><trkpt lat="45.554375" lon="10.3222052"><ele>527.9999999999999</ele><time>2026-04-18T12:42:27.018Z</time></trkpt><trkpt lat="45.5543473" lon="10.3221243"><ele>526.0</ele><time>2026-04-18T12:45:29.023Z</time></trkpt><trkpt lat="45.5542722" lon="10.322116"><ele>524.0</ele><time>2026-04-18T12:55:59.021Z</time></trkpt><trkpt lat="45.554223" lon="10.3220403"><ele>522.0</ele><time>2026-04-18T12:56:02.022Z</time></trkpt><trkpt lat="45.5542373" lon="10.321933"><ele>520.0</ele><time>2026-04-18T12:56:05.02Z</time></trkpt><trkpt lat="45.554279" lon="10.3218578"><ele>517.9999999999999</ele><time>2026-04-18T12:56:08.02Z</time></trkpt><trkpt lat="45.554302" lon="10.3217715"><ele>516.0</ele><time>2026-04-18T12:56:10.021Z</time></trkpt><trkpt lat="45.5543182" lon="10.3216763"><ele>516.0</ele><time>2026-04-18T12:56:12.021Z</time></trkpt><trkpt lat="45.5543287" lon="10.3215617"><ele>516.0</ele><time>2026-04-18T12:56:15.019Z</time></trkpt><trkpt lat="45.5543988" lon="10.3215038"><ele>516.0</ele><time>2026-04-18T12:56:18.017Z</time></trkpt><trkpt lat="45.554485" lon="10.321527"><ele>516.0</ele><time>2026-04-18T12:56:21.02Z</time></trkpt><trkpt lat="45.5545632" lon="10.321623"><ele>516.0</ele><time>2026-04-18T12:56:24.02Z</time></trkpt><trkpt lat="45.554593" lon="10.321708"><ele>516.0</ele><time>2026-04-18T12:56:26.019Z</time></trkpt><trkpt lat="45.5546433" lon="10.3218113"><ele>515.3333333333334</ele><time>2026-04-18T12:56:29.018Z</time></trkpt><trkpt lat="45.5546912" lon="10.321897"><ele>514.6666666666666</ele><time>2026-04-18T12:56:31.018Z</time></trkpt><trkpt lat="45.5547535" lon="10.321971"><ele>514.0</ele><time>2026-04-18T12:56:33.018Z</time></trkpt><trkpt lat="45.5548228" lon="10.3219905"><ele>513.3333333333333</ele><time>2026-04-18T12:56:37.018Z</time></trkpt><trkpt lat="45.5548835" lon="10.3220202"><ele>512.6666666666666</ele><time>2026-04-18T12:56:42.017Z</time></trkpt><trkpt lat="45.5549927" lon="10.3220573"><ele>512.0</ele><time>2026-04-18T12:56:51.019Z</time></trkpt><trkpt lat="45.555065" lon="10.3220818"><ele>512.0</ele><time>2026-04-18T12:56:56.018Z</time></trkpt><trkpt lat="45.5551528" lon="10.3219992"><ele>512.0</ele><time>2026-04-18T12:56:59.018Z</time></trkpt><trkpt lat="45.5552238" lon="10.3218878"><ele>512.0</ele><time>2026-04-18T12:57:01.019Z</time></trkpt><trkpt lat="45.555282" lon="10.321777"><ele>512.0</ele><time>2026-04-18T12:57:03.018Z</time></trkpt><trkpt lat="45.555358" lon="10.3216923"><ele>512.0</ele><time>2026-04-18T12:57:06.016Z</time></trkpt><trkpt lat="45.5554022" lon="10.3216178"><ele>512.5</ele><time>2026-04-18T12:57:08.016Z</time></trkpt><trkpt lat="45.5554595" lon="10.3215558"><ele>513.0</ele><time>2026-04-18T12:57:10.018Z</time></trkpt><trkpt lat="45.5555053" lon="10.3214477"><ele>513.5</ele><time>2026-04-18T12:57:13.019Z</time></trkpt><trkpt lat="45.555556" lon="10.3213813"><ele>514.0</ele><time>2026-04-18T12:57:15.018Z</time></trkpt><trkpt lat="45.5556267" lon="10.3212992"><ele>514.5</ele><time>2026-04-18T12:57:17.017Z</time></trkpt><trkpt lat="45.5556847" lon="10.321201"><ele>515.0</ele><time>2026-04-18T12:57:19.018Z</time></trkpt><trkpt lat="45.5557498" lon="10.3211543"><ele>515.0</ele><time>2026-04-18T12:57:21.016Z</time></trkpt><trkpt lat="45.555811" lon="10.3210773"><ele>515.0</ele><time>2026-04-18T12:57:23.017Z</time></trkpt><trkpt lat="45.5558772" lon="10.3210317"><ele>515.0</ele><time>2026-04-18T12:57:25.017Z</time></trkpt><trkpt lat="45.555988" lon="10.320984"><ele>515.0</ele><time>2026-04-18T12:57:27.018Z</time></trkpt><trkpt lat="45.5560673" lon="10.3209455"><ele>515.0</ele><time>2026-04-18T12:57:28.02Z</time></trkpt><trkpt lat="45.556134" lon="10.3209008"><ele>515.0</ele><time>2026-04-18T12:57:29.018Z</time></trkpt><trkpt lat="45.5561953" lon="10.3208625"><ele>517.0</ele><time>2026-04-18T12:57:30.018Z</time></trkpt><trkpt lat="45.556291" lon="10.3207892"><ele>519.0</ele><time>2026-04-18T12:57:32.019Z</time></trkpt><trkpt lat="45.556364" lon="10.3207385"><ele>521.0</ele><time>2026-04-18T12:57:35.021Z</time></trkpt><trkpt lat="45.556456" lon="10.3207027"><ele>523.0</ele><time>2026-04-18T12:57:38.019Z</time></trkpt><trkpt lat="45.5565233" lon="10.3206747"><ele>525.0</ele><time>2026-04-18T12:57:41.018Z</time></trkpt><trkpt lat="45.5566132" lon="10.320705"><ele>527.0</ele><time>2026-04-18T12:57:44.018Z</time></trkpt><trkpt lat="45.5566815" lon="10.3207193"><ele>527.0</ele><time>2026-04-18T12:57:45.019Z</time></trkpt><trkpt lat="45.5567582" lon="10.3207335"><ele>527.0</ele><time>2026-04-18T12:57:46.034Z</time></trkpt><trkpt lat="45.5568355" lon="10.3207602"><ele>527.0</ele><time>2026-04-18T12:57:47.019Z</time></trkpt><trkpt lat="45.556903" lon="10.3208118"><ele>527.0</ele><time>2026-04-18T12:57:48.019Z</time></trkpt><trkpt lat="45.5569685" lon="10.3208707"><ele>527.0</ele><time>2026-04-18T12:57:49.019Z</time></trkpt><trkpt lat="45.5570338" lon="10.3209398"><ele>527.0</ele><time>2026-04-18T12:57:50.036Z</time></trkpt><trkpt lat="45.557101" lon="10.3210072"><ele>527.6666666666666</ele><time>2026-04-18T12:57:51.019Z</time></trkpt><trkpt lat="45.5571853" lon="10.3210865"><ele>528.3333333333333</ele><time>2026-04-18T12:57:53.019Z</time></trkpt><trkpt lat="45.5572603" lon="10.3211858"><ele>529.0</ele><time>2026-04-18T12:57:55.018Z</time></trkpt><trkpt lat="45.5572822" lon="10.3212755"><ele>529.6666666666666</ele><time>2026-04-18T12:57:57.017Z</time></trkpt><trkpt lat="45.5572747" lon="10.3213813"><ele>530.3333333333334</ele><time>2026-04-18T12:57:59.017Z</time></trkpt><trkpt lat="45.5572452" lon="10.3215003"><ele>531.0</ele><time>2026-04-18T12:58:03.018Z</time></trkpt><trkpt lat="45.5572557" lon="10.3216045"><ele>531.0</ele><time>2026-04-18T12:58:06.017Z</time></trkpt><trkpt lat="45.5572728" lon="10.3217035"><ele>531.0</ele><time>2026-04-18T12:58:09.018Z</time></trkpt><trkpt lat="45.5572685" lon="10.3218203"><ele>531.0</ele><time>2026-04-18T12:58:12.018Z</time></trkpt><trkpt lat="45.557254" lon="10.3219455"><ele>531.0</ele><time>2026-04-18T12:58:14.016Z</time></trkpt><trkpt lat="45.557225" lon="10.322049"><ele>531.0</ele><time>2026-04-18T12:58:16.017Z</time></trkpt><trkpt lat="45.5572232" lon="10.3221697"><ele>531.0</ele><time>2026-04-18T12:58:18.017Z</time></trkpt><trkpt lat="45.5572107" lon="10.3223087"><ele>532.3333333333334</ele><time>2026-04-18T12:58:20.014Z</time></trkpt><trkpt lat="45.5572298" lon="10.32244"><ele>533.6666666666666</ele><time>2026-04-18T12:58:22.016Z</time></trkpt><trkpt lat="45.5572887" lon="10.3225392"><ele>535.0</ele><time>2026-04-18T12:58:24.017Z</time></trkpt><trkpt lat="45.5573382" lon="10.322595"><ele>536.3333333333333</ele><time>2026-04-18T12:58:25.017Z</time></trkpt><trkpt lat="45.557402" lon="10.322663"><ele>537.6666666666666</ele><time>2026-04-18T12:58:26.017Z</time></trkpt><trkpt lat="45.5574622" lon="10.3227328"><ele>539.0</ele><time>2026-04-18T12:58:27.018Z</time></trkpt><trkpt lat="45.5575047" lon="10.3228027"><ele>539.0</ele><time>2026-04-18T12:58:28.019Z</time></trkpt><trkpt lat="45.5575472" lon="10.3228793"><ele>539.0</ele><time>2026-04-18T12:58:29.017Z</time></trkpt><trkpt lat="45.5575977" lon="10.3230257"><ele>539.0</ele><time>2026-04-18T12:58:31.017Z</time></trkpt><trkpt lat="45.5576363" lon="10.3231295"><ele>539.0</ele><time>2026-04-18T12:58:33.017Z</time></trkpt><trkpt lat="45.5576868" lon="10.3232202"><ele>539.0</ele><time>2026-04-18T12:58:36.018Z</time></trkpt><trkpt lat="45.5576943" lon="10.323334"><ele>539.0</ele><time>2026-04-18T12:58:38.016Z</time></trkpt><trkpt lat="45.5577342" lon="10.3234332"><ele>541.8</ele><time>2026-04-18T12:58:40.018Z</time></trkpt><trkpt lat="45.5577725" lon="10.3235592"><ele>544.5999999999999</ele><time>2026-04-18T12:58:42.017Z</time></trkpt><trkpt lat="45.5577932" lon="10.3236908"><ele>547.4</ele><time>2026-04-18T12:58:44.014Z</time></trkpt><trkpt lat="45.5577983" lon="10.3238083"><ele>550.1999999999999</ele><time>2026-04-18T12:58:46.016Z</time></trkpt><trkpt lat="45.5578078" lon="10.3239455"><ele>553.0</ele><time>2026-04-18T12:58:48.019Z</time></trkpt><trkpt lat="45.5577972" lon="10.3240777"><ele>552.5714285714286</ele><time>2026-04-18T12:58:50.015Z</time></trkpt><trkpt lat="45.5577958" lon="10.3241873"><ele>552.1428571428571</ele><time>2026-04-18T12:58:52.016Z</time></trkpt><trkpt lat="45.5578388" lon="10.3242647"><ele>551.7142857142858</ele><time>2026-04-18T12:58:55.015Z</time></trkpt><trkpt lat="45.5579252" lon="10.3242933"><ele>551.2857142857142</ele><time>2026-04-18T12:58:59.017Z</time></trkpt><trkpt lat="45.5579915" lon="10.3242988"><ele>550.8571428571429</ele><time>2026-04-18T12:59:01.018Z</time></trkpt><trkpt lat="45.55807" lon="10.3242773"><ele>550.4285714285714</ele><time>2026-04-18T12:59:04.017Z</time></trkpt><trkpt lat="45.558133" lon="10.32431"><ele>550.0</ele><time>2026-04-18T12:59:06.018Z</time></trkpt><trkpt lat="45.558198" lon="10.3243472"><ele>550.0</ele><time>2026-04-18T12:59:08.016Z</time></trkpt><trkpt lat="45.5582743" lon="10.3244115"><ele>550.0</ele><time>2026-04-18T12:59:10.014Z</time></trkpt><trkpt lat="45.5583323" lon="10.3244867"><ele>550.0</ele><time>2026-04-18T12:59:12.016Z</time></trkpt><trkpt lat="45.5583882" lon="10.3245993"><ele>550.0</ele><time>2026-04-18T12:59:15.016Z</time></trkpt><trkpt lat="45.558441" lon="10.3246885"><ele>550.0</ele><time>2026-04-18T12:59:18.018Z</time></trkpt><trkpt lat="45.558499" lon="10.3247895"><ele>550.0</ele><time>2026-04-18T12:59:21.016Z</time></trkpt><trkpt lat="45.5585312" lon="10.3249128"><ele>550.7142857142858</ele><time>2026-04-18T12:59:24.018Z</time></trkpt><trkpt lat="45.5585785" lon="10.3249922"><ele>551.4285714285714</ele><time>2026-04-18T12:59:26.016Z</time></trkpt><trkpt lat="45.558602" lon="10.3250773"><ele>552.1428571428571</ele><time>2026-04-18T12:59:29.018Z</time></trkpt><trkpt lat="45.5586632" lon="10.325144"><ele>552.8571428571429</ele><time>2026-04-18T12:59:33.014Z</time></trkpt><trkpt lat="45.5587098" lon="10.325077"><ele>553.5714285714286</ele><time>2026-04-18T12:59:37.017Z</time></trkpt><trkpt lat="45.5587565" lon="10.3250085"><ele>554.2857142857143</ele><time>2026-04-18T12:59:40.017Z</time></trkpt><trkpt lat="45.5588173" lon="10.3249683"><ele>555.0</ele><time>2026-04-18T12:59:43.016Z</time></trkpt><trkpt lat="45.5588912" lon="10.3249195"><ele>555.0</ele><time>2026-04-18T12:59:45.017Z</time></trkpt><trkpt lat="45.5589728" lon="10.324842"><ele>555.0</ele><time>2026-04-18T12:59:47.019Z</time></trkpt><trkpt lat="45.5590798" lon="10.3247583"><ele>555.0</ele><time>2026-04-18T12:59:49.019Z</time></trkpt><trkpt lat="45.5591532" lon="10.324673"><ele>555.0</ele><time>2026-04-18T12:59:51.019Z</time></trkpt><trkpt lat="45.5592427" lon="10.324614"><ele>555.0</ele><time>2026-04-18T12:59:53.019Z</time></trkpt><trkpt lat="45.559318" lon="10.3246222"><ele>552.6666666666666</ele><time>2026-04-18T12:59:55.019Z</time></trkpt><trkpt lat="45.559408" lon="10.3246697"><ele>550.3333333333334</ele><time>2026-04-18T12:59:57.02Z</time></trkpt><trkpt lat="45.5594788" lon="10.3247135"><ele>548.0</ele><time>2026-04-18T12:59:59.015Z</time></trkpt><trkpt lat="45.559545" lon="10.3246672"><ele>545.6666666666667</ele><time>2026-04-18T13:00:01.017Z</time></trkpt><trkpt lat="45.5596348" lon="10.3246152"><ele>543.3333333333334</ele><time>2026-04-18T13:00:03.018Z</time></trkpt><trkpt lat="45.5597252" lon="10.3245657"><ele>541.0</ele><time>2026-04-18T13:00:05.019Z</time></trkpt><trkpt lat="45.559821" lon="10.3245443"><ele>541.0</ele><time>2026-04-18T13:00:07.018Z</time></trkpt><trkpt lat="45.5599337" lon="10.3245257"><ele>541.0</ele><time>2026-04-18T13:00:09.018Z</time></trkpt><trkpt lat="45.5600343" lon="10.3245183"><ele>541.0</ele><time>2026-04-18T13:00:11.018Z</time></trkpt><trkpt lat="45.560118" lon="10.324566"><ele>541.0</ele><time>2026-04-18T13:00:14.018Z</time></trkpt><trkpt lat="45.5601858" lon="10.3245555"><ele>541.0</ele><time>2026-04-18T13:00:16.018Z</time></trkpt><trkpt lat="45.5602442" lon="10.3245963"><ele>541.0</ele><time>2026-04-18T13:00:19.018Z</time></trkpt><trkpt lat="45.5603157" lon="10.3246288"><ele>541.6666666666667</ele><time>2026-04-18T13:00:22.015Z</time></trkpt><trkpt lat="45.560401" lon="10.3246467"><ele>542.3333333333334</ele><time>2026-04-18T13:00:25.015Z</time></trkpt><trkpt lat="45.560484" lon="10.3246747"><ele>543.0</ele><time>2026-04-18T13:00:27.018Z</time></trkpt><trkpt lat="45.5605775" lon="10.3246915"><ele>543.6666666666666</ele><time>2026-04-18T13:00:29.018Z</time></trkpt><trkpt lat="45.560645" lon="10.3247395"><ele>544.3333333333333</ele><time>2026-04-18T13:00:31.018Z</time></trkpt><trkpt lat="45.5607152" lon="10.3247937"><ele>545.0</ele><time>2026-04-18T13:00:33.019Z</time></trkpt><trkpt lat="45.5607872" lon="10.3248572"><ele>545.0</ele><time>2026-04-18T13:00:36.017Z</time></trkpt><trkpt lat="45.5608215" lon="10.3249328"><ele>545.0</ele><time>2026-04-18T13:00:39.018Z</time></trkpt><trkpt lat="45.5608542" lon="10.3250163"><ele>545.0</ele><time>2026-04-18T13:00:42.017Z</time></trkpt><trkpt lat="45.5608755" lon="10.3251145"><ele>545.0</ele><time>2026-04-18T13:00:46.016Z</time></trkpt><trkpt lat="45.5608932" lon="10.3252217"><ele>545.0</ele><time>2026-04-18T13:00:50.017Z</time></trkpt><trkpt lat="45.5609382" lon="10.3253027"><ele>545.0</ele><time>2026-04-18T13:00:53.016Z</time></trkpt><trkpt lat="45.5610223" lon="10.3253092"><ele>545.0</ele><time>2026-04-18T13:00:56.018Z</time></trkpt><trkpt lat="45.5610827" lon="10.3252585"><ele>545.0</ele><time>2026-04-18T13:01:01.018Z</time></trkpt><trkpt lat="45.561158" lon="10.3252333"><ele>545.0</ele><time>2026-04-18T13:01:05.019Z</time></trkpt><trkpt lat="45.56125" lon="10.3251737"><ele>545.0</ele><time>2026-04-18T13:01:08.02Z</time></trkpt><trkpt lat="45.5613143" lon="10.3251825"><ele>545.0</ele><time>2026-04-18T13:01:10.023Z</time></trkpt><trkpt lat="45.5613738" lon="10.3252398"><ele>545.0</ele><time>2026-04-18T13:01:12.017Z</time></trkpt><trkpt lat="45.5614142" lon="10.3253288"><ele>545.0</ele><time>2026-04-18T13:01:14.018Z</time></trkpt><trkpt lat="45.561463" lon="10.3254155"><ele>542.3333333333333</ele><time>2026-04-18T13:01:16.018Z</time></trkpt><trkpt lat="45.5615417" lon="10.3253945"><ele>539.6666666666666</ele><time>2026-04-18T13:01:19.018Z</time></trkpt><trkpt lat="45.5616173" lon="10.325383"><ele>537.0</ele><time>2026-04-18T13:01:23.02Z</time></trkpt><trkpt lat="45.5617137" lon="10.3253492"><ele>534.3333333333334</ele><time>2026-04-18T13:01:26.017Z</time></trkpt><trkpt lat="45.5618097" lon="10.3253927"><ele>531.6666666666667</ele><time>2026-04-18T13:01:28.02Z</time></trkpt><trkpt lat="45.5618845" lon="10.3254288"><ele>529.0</ele><time>2026-04-18T13:01:30.02Z</time></trkpt><trkpt lat="45.5619547" lon="10.3255207"><ele>528.0</ele><time>2026-04-18T13:01:33.02Z</time></trkpt><trkpt lat="45.5620513" lon="10.3255322"><ele>527.0</ele><time>2026-04-18T13:01:36.016Z</time></trkpt><trkpt lat="45.5621447" lon="10.3255097"><ele>526.0</ele><time>2026-04-18T13:01:38.017Z</time></trkpt><trkpt lat="45.5622352" lon="10.3254848"><ele>525.0</ele><time>2026-04-18T13:01:40.02Z</time></trkpt><trkpt lat="45.562317" lon="10.3255038"><ele>524.0</ele><time>2026-04-18T13:01:42.019Z</time></trkpt><trkpt lat="45.5624105" lon="10.3255015"><ele>524.0</ele><time>2026-04-18T13:01:44.021Z</time></trkpt><trkpt lat="45.562492" lon="10.32551"><ele>524.0</ele><time>2026-04-18T13:01:46.019Z</time></trkpt><trkpt lat="45.5625908" lon="10.3254917"><ele>524.0</ele><time>2026-04-18T13:01:48.019Z</time></trkpt><trkpt lat="45.5626617" lon="10.3254953"><ele>524.0</ele><time>2026-04-18T13:01:50.019Z</time></trkpt><trkpt lat="45.5627855" lon="10.3255072"><ele>524.0</ele><time>2026-04-18T13:01:58.02Z</time></trkpt><trkpt lat="45.5628488" lon="10.3255158"><ele>524.0</ele><time>2026-04-18T13:02:01.019Z</time></trkpt><trkpt lat="45.5629178" lon="10.325539"><ele>522.4285714285714</ele><time>2026-04-18T13:02:06.019Z</time></trkpt><trkpt lat="45.5629855" lon="10.3255445"><ele>520.8571428571429</ele><time>2026-04-18T13:02:12.019Z</time></trkpt><trkpt lat="45.5630473" lon="10.325563"><ele>519.2857142857143</ele><time>2026-04-18T13:02:21.02Z</time></trkpt><trkpt lat="45.5631272" lon="10.325572"><ele>517.7142857142858</ele><time>2026-04-18T13:02:26.016Z</time></trkpt><trkpt lat="45.5632098" lon="10.3255847"><ele>516.1428571428571</ele><time>2026-04-18T13:02:29.019Z</time></trkpt><trkpt lat="45.5632758" lon="10.3256062"><ele>514.5714285714287</ele><time>2026-04-18T13:02:33.021Z</time></trkpt><trkpt lat="45.5633405" lon="10.3256075"><ele>513.0</ele><time>2026-04-18T13:02:54.019Z</time></trkpt><trkpt lat="45.563413" lon="10.3256285"><ele>514.4285714285714</ele><time>2026-04-18T13:05:01.019Z</time></trkpt><trkpt lat="45.563477" lon="10.3256505"><ele>515.8571428571429</ele><time>2026-04-18T13:05:04.019Z</time></trkpt><trkpt lat="45.5635417" lon="10.3256935"><ele>517.2857142857142</ele><time>2026-04-18T13:05:06.022Z</time></trkpt><trkpt lat="45.5636098" lon="10.3257285"><ele>518.7142857142858</ele><time>2026-04-18T13:05:09.019Z</time></trkpt><trkpt lat="45.5636757" lon="10.3257407"><ele>520.1428571428571</ele><time>2026-04-18T13:05:11.018Z</time></trkpt><trkpt lat="45.5637482" lon="10.3257727"><ele>521.5714285714286</ele><time>2026-04-18T13:05:13.019Z</time></trkpt><trkpt lat="45.5638108" lon="10.3257943"><ele>523.0</ele><time>2026-04-18T13:05:16.016Z</time></trkpt><trkpt lat="45.5638762" lon="10.325808"><ele>523.0</ele><time>2026-04-18T13:05:19.016Z</time></trkpt><trkpt lat="45.563955" lon="10.3258173"><ele>523.0</ele><time>2026-04-18T13:05:23.017Z</time></trkpt><trkpt lat="45.5640205" lon="10.3258063"><ele>523.0</ele><time>2026-04-18T13:05:27.018Z</time></trkpt><trkpt lat="45.5640867" lon="10.325814"><ele>523.0</ele><time>2026-04-18T13:05:29.018Z</time></trkpt><trkpt lat="45.5641742" lon="10.3258188"><ele>523.0</ele><time>2026-04-18T13:05:32.017Z</time></trkpt><trkpt lat="45.5642628" lon="10.3257962"><ele>523.0</ele><time>2026-04-18T13:05:35.016Z</time></trkpt><trkpt lat="45.5643377" lon="10.3257957"><ele>523.0</ele><time>2026-04-18T13:05:37.018Z</time></trkpt><trkpt lat="45.5644327" lon="10.3258197"><ele>523.0</ele><time>2026-04-18T13:05:40.016Z</time></trkpt><trkpt lat="45.5645133" lon="10.3258067"><ele>523.0</ele><time>2026-04-18T13:05:42.017Z</time></trkpt><trkpt lat="45.564578" lon="10.3257723"><ele>523.0</ele><time>2026-04-18T13:05:44.018Z</time></trkpt><trkpt lat="45.5646463" lon="10.3257643"><ele>523.0</ele><time>2026-04-18T13:05:49.019Z</time></trkpt><trkpt lat="45.564727" lon="10.3257453"><ele>523.0</ele><time>2026-04-18T13:05:55.019Z</time></trkpt><trkpt lat="45.5648143" lon="10.3256865"><ele>522.6666666666667</ele><time>2026-04-18T13:05:58.019Z</time></trkpt><trkpt lat="45.5648713" lon="10.3256317"><ele>522.3333333333334</ele><time>2026-04-18T13:06:00.018Z</time></trkpt><trkpt lat="45.564954" lon="10.3256002"><ele>522.0</ele><time>2026-04-18T13:06:05.016Z</time></trkpt><trkpt lat="45.565021" lon="10.3255845"><ele>521.6666666666666</ele><time>2026-04-18T13:06:08.018Z</time></trkpt><trkpt lat="45.5651032" lon="10.3255417"><ele>521.3333333333333</ele><time>2026-04-18T13:06:11.018Z</time></trkpt><trkpt lat="45.5651688" lon="10.3255422"><ele>521.0</ele><time>2026-04-18T13:06:14.019Z</time></trkpt><trkpt lat="45.565252" lon="10.3255072"><ele>517.8333333333333</ele><time>2026-04-18T13:06:18.018Z</time></trkpt><trkpt lat="45.5653433" lon="10.3254493"><ele>514.6666666666666</ele><time>2026-04-18T13:06:20.017Z</time></trkpt><trkpt lat="45.565437" lon="10.3254257"><ele>511.5</ele><time>2026-04-18T13:06:22.018Z</time></trkpt><trkpt lat="45.5655127" lon="10.325406"><ele>508.33333333333337</ele><time>2026-04-18T13:06:25.019Z</time></trkpt><trkpt lat="45.5655927" lon="10.3253967"><ele>505.1666666666667</ele><time>2026-04-18T13:06:32.016Z</time></trkpt><trkpt lat="45.5656367" lon="10.32533"><ele>502.0</ele><time>2026-04-18T13:06:36.018Z</time></trkpt><trkpt lat="45.5657055" lon="10.3252732"><ele>502.00000000000006</ele><time>2026-04-18T13:06:44.019Z</time></trkpt><trkpt lat="45.5657837" lon="10.3252067"><ele>502.0</ele><time>2026-04-18T13:06:48.021Z</time></trkpt><trkpt lat="45.5658623" lon="10.325176"><ele>502.0</ele><time>2026-04-18T13:06:50.018Z</time></trkpt><trkpt lat="45.5659122" lon="10.325099"><ele>502.0</ele><time>2026-04-18T13:06:52.019Z</time></trkpt><trkpt lat="45.5659443" lon="10.3249873"><ele>502.00000000000006</ele><time>2026-04-18T13:06:54.017Z</time></trkpt><trkpt lat="45.5659753" lon="10.3248487"><ele>502.0</ele><time>2026-04-18T13:06:56.015Z</time></trkpt><trkpt lat="45.5660257" lon="10.324717"><ele>500.83333333333337</ele><time>2026-04-18T13:06:58.02Z</time></trkpt><trkpt lat="45.5660655" lon="10.3246408"><ele>499.6666666666667</ele><time>2026-04-18T13:07:00.019Z</time></trkpt><trkpt lat="45.5661415" lon="10.3245537"><ele>498.5</ele><time>2026-04-18T13:07:03.022Z</time></trkpt><trkpt lat="45.5661987" lon="10.3244733"><ele>497.33333333333337</ele><time>2026-04-18T13:07:05.019Z</time></trkpt><trkpt lat="45.5662502" lon="10.3243945"><ele>496.1666666666667</ele><time>2026-04-18T13:07:07.017Z</time></trkpt><trkpt lat="45.5662942" lon="10.3243128"><ele>495.0</ele><time>2026-04-18T13:07:09.02Z</time></trkpt><trkpt lat="45.566334" lon="10.3242328"><ele>494.99999999999994</ele><time>2026-04-18T13:07:11.019Z</time></trkpt><trkpt lat="45.5663842" lon="10.3241377"><ele>495.0</ele><time>2026-04-18T13:07:13.018Z</time></trkpt><trkpt lat="45.5664458" lon="10.3240532"><ele>494.99999999999994</ele><time>2026-04-18T13:07:15.02Z</time></trkpt><trkpt lat="45.5664998" lon="10.3239857"><ele>494.99999999999994</ele><time>2026-04-18T13:07:17.018Z</time></trkpt><trkpt lat="45.5665482" lon="10.3239132"><ele>495.0</ele><time>2026-04-18T13:07:19.017Z</time></trkpt><trkpt lat="45.5666057" lon="10.3238605"><ele>494.99999999999994</ele><time>2026-04-18T13:07:21.017Z</time></trkpt><trkpt lat="45.5666588" lon="10.3238072"><ele>494.99999999999994</ele><time>2026-04-18T13:07:23.021Z</time></trkpt><trkpt lat="45.5667307" lon="10.323747"><ele>491.0</ele><time>2026-04-18T13:07:26.018Z</time></trkpt><trkpt lat="45.5667897" lon="10.3237138"><ele>487.0</ele><time>2026-04-18T13:07:31.019Z</time></trkpt><trkpt lat="45.5668428" lon="10.3236497"><ele>483.0</ele><time>2026-04-18T13:07:34.019Z</time></trkpt><trkpt lat="45.5669082" lon="10.3236422"><ele>479.0</ele><time>2026-04-18T13:07:36.022Z</time></trkpt><trkpt lat="45.5670055" lon="10.3236173"><ele>475.0</ele><time>2026-04-18T13:07:38.02Z</time></trkpt><trkpt lat="45.567116" lon="10.3236072"><ele>471.0</ele><time>2026-04-18T13:07:40.019Z</time></trkpt><trkpt lat="45.5671945" lon="10.3236248"><ele>471.0</ele><time>2026-04-18T13:07:42.02Z</time></trkpt><trkpt lat="45.5672717" lon="10.3236715"><ele>471.0</ele><time>2026-04-18T13:07:45.018Z</time></trkpt><trkpt lat="45.5673503" lon="10.3236773"><ele>471.0</ele><time>2026-04-18T13:07:48.019Z</time></trkpt><trkpt lat="45.5674108" lon="10.3237075"><ele>471.0</ele><time>2026-04-18T13:07:50.019Z</time></trkpt><trkpt lat="45.5674835" lon="10.3237485"><ele>471.0</ele><time>2026-04-18T13:07:52.02Z</time></trkpt><trkpt lat="45.5675848" lon="10.3237787"><ele>471.0</ele><time>2026-04-18T13:07:55.021Z</time></trkpt><trkpt lat="45.5676388" lon="10.3238605"><ele>473.8333333333333</ele><time>2026-04-18T13:07:57.018Z</time></trkpt><trkpt lat="45.5677005" lon="10.3239785"><ele>476.66666666666663</ele><time>2026-04-18T13:07:59.02Z</time></trkpt><trkpt lat="45.5677298" lon="10.3241048"><ele>479.5</ele><time>2026-04-18T13:08:01.022Z</time></trkpt><trkpt lat="45.5677188" lon="10.324201"><ele>482.3333333333333</ele><time>2026-04-18T13:08:03.019Z</time></trkpt><trkpt lat="45.5677172" lon="10.3243005"><ele>485.16666666666663</ele><time>2026-04-18T13:08:06.018Z</time></trkpt><trkpt lat="45.5677497" lon="10.3244472"><ele>488.0</ele><time>2026-04-18T13:08:13.02Z</time></trkpt><trkpt lat="45.5677345" lon="10.3245757"><ele>487.99999999999994</ele><time>2026-04-18T13:08:15.02Z</time></trkpt><trkpt lat="45.5677315" lon="10.3246798"><ele>488.0</ele><time>2026-04-18T13:08:17.018Z</time></trkpt><trkpt lat="45.5677153" lon="10.324772"><ele>488.0</ele><time>2026-04-18T13:08:21.018Z</time></trkpt><trkpt lat="45.5677665" lon="10.3248403"><ele>488.0</ele><time>2026-04-18T13:08:26.018Z</time></trkpt><trkpt lat="45.5678548" lon="10.3248787"><ele>487.99999999999994</ele><time>2026-04-18T13:08:34.016Z</time></trkpt><trkpt lat="45.5679475" lon="10.3249022"><ele>488.0</ele><time>2026-04-18T13:08:36.017Z</time></trkpt><trkpt lat="45.568063" lon="10.3249513"><ele>486.8333333333333</ele><time>2026-04-18T13:08:38.019Z</time></trkpt><trkpt lat="45.5681302" lon="10.3249812"><ele>485.66666666666663</ele><time>2026-04-18T13:08:39.02Z</time></trkpt><trkpt lat="45.5681978" lon="10.3250312"><ele>484.5</ele><time>2026-04-18T13:08:40.018Z</time></trkpt><trkpt lat="45.5683243" lon="10.3250885"><ele>483.33333333333337</ele><time>2026-04-18T13:08:42.019Z</time></trkpt><trkpt lat="45.568419" lon="10.325127"><ele>482.1666666666667</ele><time>2026-04-18T13:08:44.018Z</time></trkpt><trkpt lat="45.5684848" lon="10.3250947"><ele>481.0</ele><time>2026-04-18T13:08:46.017Z</time></trkpt><trkpt lat="45.5685538" lon="10.3250438"><ele>481.00000000000006</ele><time>2026-04-18T13:08:49.019Z</time></trkpt><trkpt lat="45.5686585" lon="10.3250377"><ele>481.0</ele><time>2026-04-18T13:09:12.019Z</time></trkpt><trkpt lat="45.5686983" lon="10.3249652"><ele>481.0</ele><time>2026-04-18T13:11:13.022Z</time></trkpt><trkpt lat="45.5687622" lon="10.3249757"><ele>481.0</ele><time>2026-04-18T13:11:47.018Z</time></trkpt><trkpt lat="45.5687715" lon="10.324877"><ele>481.00000000000006</ele><time>2026-04-18T13:12:08.02Z</time></trkpt><trkpt lat="45.5688083" lon="10.3247858"><ele>481.0</ele><time>2026-04-18T13:12:10.018Z</time></trkpt><trkpt lat="45.5688628" lon="10.3246913"><ele>477.6666666666667</ele><time>2026-04-18T13:12:12.018Z</time></trkpt><trkpt lat="45.568928" lon="10.324587"><ele>474.33333333333337</ele><time>2026-04-18T13:12:14.017Z</time></trkpt><trkpt lat="45.5689697" lon="10.3245048"><ele>471.0</ele><time>2026-04-18T13:12:16.02Z</time></trkpt><trkpt lat="45.5690252" lon="10.3244553"><ele>467.66666666666663</ele><time>2026-04-18T13:12:18.02Z</time></trkpt><trkpt lat="45.5690993" lon="10.3244307"><ele>464.3333333333333</ele><time>2026-04-18T13:12:20.019Z</time></trkpt><trkpt lat="45.5691918" lon="10.3244242"><ele>461.0</ele><time>2026-04-18T13:12:22.018Z</time></trkpt><trkpt lat="45.5692598" lon="10.324444"><ele>460.99999999999994</ele><time>2026-04-18T13:12:24.021Z</time></trkpt><trkpt lat="45.5693167" lon="10.324496"><ele>461.0</ele><time>2026-04-18T13:12:26.021Z</time></trkpt><trkpt lat="45.5693798" lon="10.3245658"><ele>461.0</ele><time>2026-04-18T13:12:28.019Z</time></trkpt><trkpt lat="45.5694662" lon="10.324631"><ele>461.0</ele><time>2026-04-18T13:12:31.02Z</time></trkpt><trkpt lat="45.5695317" lon="10.3246435"><ele>460.99999999999994</ele><time>2026-04-18T13:12:34.019Z</time></trkpt><trkpt lat="45.5696055" lon="10.3247075"><ele>461.0</ele><time>2026-04-18T13:12:38.019Z</time></trkpt><trkpt lat="45.5696638" lon="10.3247597"><ele>461.66666666666663</ele><time>2026-04-18T13:12:40.018Z</time></trkpt><trkpt lat="45.5697123" lon="10.3248568"><ele>462.3333333333333</ele><time>2026-04-18T13:12:43.019Z</time></trkpt><trkpt lat="45.569763" lon="10.324951"><ele>463.0</ele><time>2026-04-18T13:12:46.018Z</time></trkpt><trkpt lat="45.5697937" lon="10.3250485"><ele>463.66666666666663</ele><time>2026-04-18T13:12:49.018Z</time></trkpt><trkpt lat="45.5698362" lon="10.3251285"><ele>464.3333333333333</ele><time>2026-04-18T13:12:53.018Z</time></trkpt><trkpt lat="45.5698988" lon="10.3251888"><ele>465.0</ele><time>2026-04-18T13:13:02.016Z</time></trkpt><trkpt lat="45.5699625" lon="10.325226"><ele>465.0</ele><time>2026-04-18T13:13:06.017Z</time></trkpt><trkpt lat="45.5700198" lon="10.3251285"><ele>465.0</ele><time>2026-04-18T13:13:10.017Z</time></trkpt><trkpt lat="45.5701107" lon="10.3250753"><ele>465.0</ele><time>2026-04-18T13:13:12.018Z</time></trkpt><trkpt lat="45.5702077" lon="10.3250187"><ele>465.0</ele><time>2026-04-18T13:13:14.021Z</time></trkpt><trkpt lat="45.5702898" lon="10.3249745"><ele>465.0</ele><time>2026-04-18T13:13:16.019Z</time></trkpt><trkpt lat="45.5703702" lon="10.324984"><ele>461.6666666666667</ele><time>2026-04-18T13:13:19.019Z</time></trkpt><trkpt lat="45.5704413" lon="10.325009"><ele>458.33333333333337</ele><time>2026-04-18T13:13:21.019Z</time></trkpt><trkpt lat="45.5705347" lon="10.325049"><ele>455.0</ele><time>2026-04-18T13:13:23.018Z</time></trkpt><trkpt lat="45.5706038" lon="10.3250842"><ele>451.6666666666667</ele><time>2026-04-18T13:13:25.019Z</time></trkpt><trkpt lat="45.5706708" lon="10.3251182"><ele>448.33333333333337</ele><time>2026-04-18T13:13:27.015Z</time></trkpt><trkpt lat="45.5707535" lon="10.325119"><ele>445.0</ele><time>2026-04-18T13:13:37.017Z</time></trkpt><trkpt lat="45.5708165" lon="10.3251082"><ele>445.0</ele><time>2026-04-18T13:13:41.018Z</time></trkpt><trkpt lat="45.5708705" lon="10.325034"><ele>445.0</ele><time>2026-04-18T13:13:47.019Z</time></trkpt><trkpt lat="45.5709235" lon="10.3249355"><ele>445.0</ele><time>2026-04-18T13:13:50.016Z</time></trkpt><trkpt lat="45.5709172" lon="10.3248048"><ele>445.0</ele><time>2026-04-18T13:13:52.016Z</time></trkpt><trkpt lat="45.57086" lon="10.3246673"><ele>445.0</ele><time>2026-04-18T13:13:54.017Z</time></trkpt><trkpt lat="45.5708628" lon="10.3245392"><ele>442.6666666666667</ele><time>2026-04-18T13:13:56.018Z</time></trkpt><trkpt lat="45.5708787" lon="10.3244483"><ele>440.33333333333337</ele><time>2026-04-18T13:13:57.02Z</time></trkpt><trkpt lat="45.570885" lon="10.32434"><ele>438.0</ele><time>2026-04-18T13:13:58.019Z</time></trkpt><trkpt lat="45.5708883" lon="10.3242253"><ele>435.66666666666663</ele><time>2026-04-18T13:13:59.021Z</time></trkpt><trkpt lat="45.5708873" lon="10.3241313"><ele>433.3333333333333</ele><time>2026-04-18T13:14:00.019Z</time></trkpt><trkpt lat="45.570909" lon="10.3239988"><ele>431.0</ele><time>2026-04-18T13:14:02.019Z</time></trkpt><trkpt lat="45.5709618" lon="10.3239118"><ele>431.3333333333333</ele><time>2026-04-18T13:14:04.02Z</time></trkpt><trkpt lat="45.571024" lon="10.3238587"><ele>431.66666666666663</ele><time>2026-04-18T13:14:06.021Z</time></trkpt><trkpt lat="45.5710868" lon="10.3238077"><ele>432.0</ele><time>2026-04-18T13:14:08.02Z</time></trkpt><trkpt lat="45.5711158" lon="10.3237252"><ele>432.33333333333337</ele><time>2026-04-18T13:14:10.022Z</time></trkpt><trkpt lat="45.5710975" lon="10.323601"><ele>432.6666666666667</ele><time>2026-04-18T13:14:12.021Z</time></trkpt><trkpt lat="45.5710703" lon="10.323453"><ele>433.0</ele><time>2026-04-18T13:14:14.02Z</time></trkpt><trkpt lat="45.5710385" lon="10.3232987"><ele>433.0</ele><time>2026-04-18T13:14:16.018Z</time></trkpt><trkpt lat="45.5709907" lon="10.3231363"><ele>432.99999999999994</ele><time>2026-04-18T13:14:18.017Z</time></trkpt><trkpt lat="45.5709618" lon="10.3230553"><ele>432.99999999999994</ele><time>2026-04-18T13:14:19.019Z</time></trkpt><trkpt lat="45.5709038" lon="10.322907"><ele>433.0</ele><time>2026-04-18T13:14:21.021Z</time></trkpt><trkpt lat="45.5708393" lon="10.322784"><ele>433.0</ele><time>2026-04-18T13:14:23.02Z</time></trkpt><trkpt lat="45.570762" lon="10.322647"><ele>434.50000000000006</ele><time>2026-04-18T13:14:25.024Z</time></trkpt><trkpt lat="45.5707258" lon="10.3225613"><ele>436.0</ele><time>2026-04-18T13:14:26.021Z</time></trkpt><trkpt lat="45.5706855" lon="10.322461"><ele>437.5</ele><time>2026-04-18T13:14:27.024Z</time></trkpt><trkpt lat="45.570651" lon="10.3223548"><ele>439.0</ele><time>2026-04-18T13:14:28.018Z</time></trkpt><trkpt lat="45.5706288" lon="10.3222537"><ele>440.50000000000006</ele><time>2026-04-18T13:14:29.019Z</time></trkpt><trkpt lat="45.5706192" lon="10.3221623"><ele>442.0</ele><time>2026-04-18T13:14:30.02Z</time></trkpt><trkpt lat="45.570633" lon="10.3219927"><ele>443.33333333333337</ele><time>2026-04-18T13:14:32.019Z</time></trkpt><trkpt lat="45.5706355" lon="10.3218992"><ele>444.6666666666667</ele><time>2026-04-18T13:14:33.021Z</time></trkpt><trkpt lat="45.5706238" lon="10.3217985"><ele>446.0</ele><time>2026-04-18T13:14:34.019Z</time></trkpt><trkpt lat="45.5706075" lon="10.3216875"><ele>447.33333333333337</ele><time>2026-04-18T13:14:35.021Z</time></trkpt><trkpt lat="45.5705872" lon="10.3215532"><ele>448.6666666666667</ele><time>2026-04-18T13:14:36.022Z</time></trkpt><trkpt lat="45.5705568" lon="10.3213728"><ele>450.0</ele><time>2026-04-18T13:14:37.021Z</time></trkpt><trkpt lat="45.5705235" lon="10.3211698"><ele>453.75</ele><time>2026-04-18T13:14:38.021Z</time></trkpt><trkpt lat="45.5704912" lon="10.3209958"><ele>457.5</ele><time>2026-04-18T13:14:39.021Z</time></trkpt><trkpt lat="45.5704677" lon="10.3208393"><ele>461.25</ele><time>2026-04-18T13:14:40.019Z</time></trkpt><trkpt lat="45.5704423" lon="10.3206897"><ele>465.0</ele><time>2026-04-18T13:14:41.018Z</time></trkpt><trkpt lat="45.5704153" lon="10.3205332"><ele>465.0</ele><time>2026-04-18T13:14:42.019Z</time></trkpt><trkpt lat="45.5703897" lon="10.3203732"><ele>465.0</ele><time>2026-04-18T13:14:43.022Z</time></trkpt><trkpt lat="45.5703645" lon="10.3202193"><ele>465.0</ele><time>2026-04-18T13:14:44.02Z</time></trkpt><trkpt lat="45.5703428" lon="10.3200973"><ele>465.0</ele><time>2026-04-18T13:14:45.022Z</time></trkpt><trkpt lat="45.5703325" lon="10.3200045"><ele>465.0</ele><time>2026-04-18T13:14:46.023Z</time></trkpt><trkpt lat="45.5703455" lon="10.3198633"><ele>465.0</ele><time>2026-04-18T13:14:48.023Z</time></trkpt><trkpt lat="45.5704035" lon="10.319805"><ele>465.0</ele><time>2026-04-18T13:14:51.021Z</time></trkpt><trkpt lat="45.5704785" lon="10.319849"><ele>465.0</ele><time>2026-04-18T13:15:28.02Z</time></trkpt><trkpt lat="45.5705285" lon="10.319914"><ele>465.0</ele><time>2026-04-18T13:15:33.022Z</time></trkpt><trkpt lat="45.5705912" lon="10.3200018"><ele>465.0</ele><time>2026-04-18T13:15:37.022Z</time></trkpt><trkpt lat="45.5706443" lon="10.3200622"><ele>465.0</ele><time>2026-04-18T13:15:39.021Z</time></trkpt><trkpt lat="45.5707" lon="10.3201247"><ele>465.0</ele><time>2026-04-18T13:15:41.022Z</time></trkpt><trkpt lat="45.5707608" lon="10.3202168"><ele>465.0</ele><time>2026-04-18T13:15:43.02Z</time></trkpt><trkpt lat="45.5708272" lon="10.3203258"><ele>465.0</ele><time>2026-04-18T13:15:45.02Z</time></trkpt><trkpt lat="45.5708822" lon="10.320401"><ele>465.0</ele><time>2026-04-18T13:15:47.02Z</time></trkpt><trkpt lat="45.5709263" lon="10.3205208"><ele>465.0</ele><time>2026-04-18T13:15:49.019Z</time></trkpt><trkpt lat="45.5709762" lon="10.3206422"><ele>465.0</ele><time>2026-04-18T13:15:51.021Z</time></trkpt><trkpt lat="45.5710465" lon="10.3207505"><ele>465.1666666666667</ele><time>2026-04-18T13:15:53.017Z</time></trkpt><trkpt lat="45.5711047" lon="10.3208608"><ele>465.33333333333337</ele><time>2026-04-18T13:15:55.017Z</time></trkpt><trkpt lat="45.571143" lon="10.320941"><ele>465.5</ele><time>2026-04-18T13:15:57.019Z</time></trkpt><trkpt lat="45.5711855" lon="10.3210168"><ele>465.6666666666667</ele><time>2026-04-18T13:15:59.021Z</time></trkpt><trkpt lat="45.5712565" lon="10.3211655"><ele>465.83333333333337</ele><time>2026-04-18T13:16:01.02Z</time></trkpt><trkpt lat="45.5713038" lon="10.321252"><ele>466.0</ele><time>2026-04-18T13:16:02.019Z</time></trkpt><trkpt lat="45.5713443" lon="10.3213263"><ele>470.4</ele><time>2026-04-18T13:16:03.02Z</time></trkpt><trkpt lat="45.5714313" lon="10.3214383"><ele>474.8</ele><time>2026-04-18T13:16:05.018Z</time></trkpt><trkpt lat="45.571505" lon="10.3215243"><ele>479.19999999999993</ele><time>2026-04-18T13:16:07.018Z</time></trkpt><trkpt lat="45.57158" lon="10.3216457"><ele>483.59999999999997</ele><time>2026-04-18T13:16:09.021Z</time></trkpt><trkpt lat="45.5716528" lon="10.3217502"><ele>488.0</ele><time>2026-04-18T13:16:11.019Z</time></trkpt><trkpt lat="45.5717515" lon="10.3218602"><ele>487.99999999999994</ele><time>2026-04-18T13:16:13.016Z</time></trkpt><trkpt lat="45.5718117" lon="10.3219187"><ele>488.0</ele><time>2026-04-18T13:16:14.017Z</time></trkpt><trkpt lat="45.5718708" lon="10.3219578"><ele>488.0</ele><time>2026-04-18T13:16:15.016Z</time></trkpt><trkpt lat="45.5719848" lon="10.3219902"><ele>488.0</ele><time>2026-04-18T13:16:17.016Z</time></trkpt><trkpt lat="45.572051" lon="10.3220282"><ele>487.99999999999994</ele><time>2026-04-18T13:16:18.017Z</time></trkpt><trkpt lat="45.572123" lon="10.3220617"><ele>488.0</ele><time>2026-04-18T13:16:19.016Z</time></trkpt><trkpt lat="45.5721893" lon="10.3220785"><ele>490.99999999999994</ele><time>2026-04-18T13:16:20.016Z</time></trkpt><trkpt lat="45.572249" lon="10.3221132"><ele>494.0</ele><time>2026-04-18T13:16:21.017Z</time></trkpt><trkpt lat="45.5723032" lon="10.322168"><ele>496.99999999999994</ele><time>2026-04-18T13:16:22.018Z</time></trkpt><trkpt lat="45.5723968" lon="10.322254"><ele>499.99999999999994</ele><time>2026-04-18T13:16:24.018Z</time></trkpt><trkpt lat="45.5724375" lon="10.3223307"><ele>503.0</ele><time>2026-04-18T13:16:30.018Z</time></trkpt><trkpt lat="45.5724398" lon="10.3224245"><ele>505.99999999999994</ele><time>2026-04-18T13:16:39.017Z</time></trkpt><trkpt lat="45.5724382" lon="10.3225153"><ele>508.99999999999994</ele><time>2026-04-18T13:16:49.019Z</time></trkpt><trkpt lat="45.5724472" lon="10.3226102"><ele>508.99999999999994</ele><time>2026-04-18T13:17:07.018Z</time></trkpt><trkpt lat="45.5725167" lon="10.3226642"><ele>509.0</ele><time>2026-04-18T13:17:11.019Z</time></trkpt><trkpt lat="45.5725878" lon="10.3227283"><ele>509.0</ele><time>2026-04-18T13:17:15.018Z</time></trkpt><trkpt lat="45.5726703" lon="10.3227975"><ele>509.0</ele><time>2026-04-18T13:17:18.02Z</time></trkpt><trkpt lat="45.572728" lon="10.3228597"><ele>508.99999999999994</ele><time>2026-04-18T13:17:20.019Z</time></trkpt><trkpt lat="45.5727833" lon="10.3229203"><ele>509.0</ele><time>2026-04-18T13:17:22.017Z</time></trkpt><trkpt lat="45.5728635" lon="10.3230073"><ele>510.8333333333333</ele><time>2026-04-18T13:17:24.018Z</time></trkpt><trkpt lat="45.5729265" lon="10.3230612"><ele>512.6666666666666</ele><time>2026-04-18T13:17:26.017Z</time></trkpt><trkpt lat="45.572982" lon="10.3231168"><ele>514.5</ele><time>2026-04-18T13:17:28.017Z</time></trkpt><trkpt lat="45.5730237" lon="10.323215"><ele>516.3333333333334</ele><time>2026-04-18T13:17:34.018Z</time></trkpt><trkpt lat="45.5731058" lon="10.3233378"><ele>518.1666666666667</ele><time>2026-04-18T13:17:36.02Z</time></trkpt><trkpt lat="45.5731858" lon="10.3234413"><ele>520.0</ele><time>2026-04-18T13:17:37.021Z</time></trkpt><trkpt lat="45.5732913" lon="10.3235723"><ele>520.0</ele><time>2026-04-18T13:17:38.021Z</time></trkpt><trkpt lat="45.5734112" lon="10.3237105"><ele>520.0</ele><time>2026-04-18T13:17:39.019Z</time></trkpt><trkpt lat="45.5735097" lon="10.3238352"><ele>520.0</ele><time>2026-04-18T13:17:40.018Z</time></trkpt><trkpt lat="45.5735903" lon="10.323932"><ele>520.0</ele><time>2026-04-18T13:17:41.016Z</time></trkpt><trkpt lat="45.5736532" lon="10.3240095"><ele>522.3333333333334</ele><time>2026-04-18T13:17:42.017Z</time></trkpt><trkpt lat="45.5737105" lon="10.3240827"><ele>524.6666666666667</ele><time>2026-04-18T13:17:44.016Z</time></trkpt><trkpt lat="45.5737542" lon="10.3242155"><ele>527.0</ele><time>2026-04-18T13:17:52.018Z</time></trkpt><trkpt lat="45.573756" lon="10.3243727"><ele>529.3333333333334</ele><time>2026-04-18T13:17:54.021Z</time></trkpt><trkpt lat="45.5737293" lon="10.324458"><ele>531.6666666666666</ele><time>2026-04-18T13:17:55.018Z</time></trkpt><trkpt lat="45.573698" lon="10.3245427"><ele>534.0</ele><time>2026-04-18T13:17:56.016Z</time></trkpt><trkpt lat="45.5736553" lon="10.3246848"><ele>528.1666666666666</ele><time>2026-04-18T13:17:58.016Z</time></trkpt><trkpt lat="45.573646" lon="10.3247738"><ele>522.3333333333334</ele><time>2026-04-18T13:18:03.018Z</time></trkpt><trkpt lat="45.5736377" lon="10.3248878"><ele>516.5</ele><time>2026-04-18T13:18:05.017Z</time></trkpt><trkpt lat="45.573629" lon="10.3249912"><ele>510.6666666666667</ele><time>2026-04-18T13:18:06.018Z</time></trkpt><trkpt lat="45.573613" lon="10.3251155"><ele>504.83333333333337</ele><time>2026-04-18T13:18:07.018Z</time></trkpt><trkpt lat="45.5735982" lon="10.3252338"><ele>499.0</ele><time>2026-04-18T13:18:08.017Z</time></trkpt><trkpt lat="45.5735877" lon="10.3253448"><ele>499.00000000000006</ele><time>2026-04-18T13:18:09.02Z</time></trkpt><trkpt lat="45.5735785" lon="10.3254547"><ele>499.0</ele><time>2026-04-18T13:18:10.018Z</time></trkpt><trkpt lat="45.5735768" lon="10.3255542"><ele>499.0</ele><time>2026-04-18T13:18:11.018Z</time></trkpt><trkpt lat="45.5735692" lon="10.3256445"><ele>499.0</ele><time>2026-04-18T13:18:12.017Z</time></trkpt><trkpt lat="45.5735508" lon="10.3257948"><ele>499.00000000000006</ele><time>2026-04-18T13:18:14.018Z</time></trkpt><trkpt lat="45.5735265" lon="10.3258883"><ele>499.0</ele><time>2026-04-18T13:18:15.017Z</time></trkpt><trkpt lat="45.573485" lon="10.3259985"><ele>499.6666666666667</ele><time>2026-04-18T13:18:16.018Z</time></trkpt><trkpt lat="45.5734513" lon="10.3261012"><ele>500.33333333333337</ele><time>2026-04-18T13:18:17.017Z</time></trkpt><trkpt lat="45.57342" lon="10.3262002"><ele>501.0</ele><time>2026-04-18T13:18:18.019Z</time></trkpt><trkpt lat="45.5733823" lon="10.3263162"><ele>501.66666666666663</ele><time>2026-04-18T13:18:19.018Z</time></trkpt><trkpt lat="45.5733518" lon="10.3264163"><ele>502.3333333333333</ele><time>2026-04-18T13:18:20.015Z</time></trkpt><trkpt lat="45.5733223" lon="10.326531"><ele>503.0</ele><time>2026-04-18T13:18:21.015Z</time></trkpt><trkpt lat="45.5732913" lon="10.3266427"><ele>504.59999999999997</ele><time>2026-04-18T13:18:22.016Z</time></trkpt><trkpt lat="45.5732523" lon="10.3267623"><ele>506.19999999999993</ele><time>2026-04-18T13:18:23.014Z</time></trkpt><trkpt lat="45.5732207" lon="10.3268725"><ele>507.8</ele><time>2026-04-18T13:18:24.019Z</time></trkpt><trkpt lat="45.5731858" lon="10.3269897"><ele>509.4</ele><time>2026-04-18T13:18:25.017Z</time></trkpt><trkpt lat="45.5731562" lon="10.3271118"><ele>511.0</ele><time>2026-04-18T13:18:26.015Z</time></trkpt><trkpt lat="45.573128" lon="10.3272422"><ele>512.3333333333334</ele><time>2026-04-18T13:18:27.02Z</time></trkpt><trkpt lat="45.5731068" lon="10.3273825"><ele>513.6666666666667</ele><time>2026-04-18T13:18:28.017Z</time></trkpt><trkpt lat="45.5731007" lon="10.3275133"><ele>515.0</ele><time>2026-04-18T13:18:29.018Z</time></trkpt><trkpt lat="45.5730955" lon="10.3276455"><ele>516.3333333333334</ele><time>2026-04-18T13:18:30.019Z</time></trkpt><trkpt lat="45.5730968" lon="10.3277673"><ele>517.6666666666666</ele><time>2026-04-18T13:18:31.02Z</time></trkpt><trkpt lat="45.573099" lon="10.327879"><ele>519.0</ele><time>2026-04-18T13:18:32.017Z</time></trkpt><trkpt lat="45.5731005" lon="10.3279868"><ele>519.6666666666666</ele><time>2026-04-18T13:18:33.017Z</time></trkpt><trkpt lat="45.5731033" lon="10.3280895"><ele>520.3333333333334</ele><time>2026-04-18T13:18:34.017Z</time></trkpt><trkpt lat="45.573107" lon="10.3281845"><ele>521.0</ele><time>2026-04-18T13:18:35.018Z</time></trkpt><trkpt lat="45.5731053" lon="10.32829"><ele>521.6666666666667</ele><time>2026-04-18T13:18:36.018Z</time></trkpt><trkpt lat="45.5731077" lon="10.3283987"><ele>522.3333333333334</ele><time>2026-04-18T13:18:37.017Z</time></trkpt><trkpt lat="45.5731105" lon="10.3284927"><ele>523.0</ele><time>2026-04-18T13:18:38.017Z</time></trkpt><trkpt lat="45.573099" lon="10.3286568"><ele>523.0</ele><time>2026-04-18T13:18:40.02Z</time></trkpt><trkpt lat="45.5730353" lon="10.3287718"><ele>523.0</ele><time>2026-04-18T13:18:42.018Z</time></trkpt><trkpt lat="45.5729772" lon="10.328925"><ele>523.0</ele><time>2026-04-18T13:18:44.017Z</time></trkpt><trkpt lat="45.5729768" lon="10.3290708"><ele>523.0</ele><time>2026-04-18T13:18:46.014Z</time></trkpt><trkpt lat="45.5730012" lon="10.3291652"><ele>523.0</ele><time>2026-04-18T13:18:47.015Z</time></trkpt><trkpt lat="45.5730185" lon="10.3292552"><ele>522.75</ele><time>2026-04-18T13:18:48.017Z</time></trkpt><trkpt lat="45.5730043" lon="10.3293505"><ele>522.5</ele><time>2026-04-18T13:18:49.018Z</time></trkpt><trkpt lat="45.5729772" lon="10.329446"><ele>522.25</ele><time>2026-04-18T13:18:50.02Z</time></trkpt><trkpt lat="45.5729092" lon="10.3297508"><ele>522.0</ele><time>2026-04-18T13:18:51.018Z</time></trkpt><trkpt lat="45.572874" lon="10.32988"><ele>521.5</ele><time>2026-04-18T13:18:52.018Z</time></trkpt><trkpt lat="45.5728595" lon="10.3300073"><ele>521.0</ele><time>2026-04-18T13:18:53.017Z</time></trkpt><trkpt lat="45.5728422" lon="10.3301323"><ele>520.5</ele><time>2026-04-18T13:18:54.018Z</time></trkpt><trkpt lat="45.5728418" lon="10.3302382"><ele>520.0</ele><time>2026-04-18T13:18:55.031Z</time></trkpt><trkpt lat="45.5728135" lon="10.3303322"><ele>519.5</ele><time>2026-04-18T13:18:56.018Z</time></trkpt><trkpt lat="45.5727948" lon="10.3304537"><ele>519.0</ele><time>2026-04-18T13:18:57.019Z</time></trkpt><trkpt lat="45.5727913" lon="10.3305668"><ele>521.5</ele><time>2026-04-18T13:18:58.02Z</time></trkpt><trkpt lat="45.5727838" lon="10.3306625"><ele>524.0</ele><time>2026-04-18T13:18:59.017Z</time></trkpt><trkpt lat="45.5727697" lon="10.3308053"><ele>526.5</ele><time>2026-04-18T13:19:01.017Z</time></trkpt><trkpt lat="45.5727518" lon="10.3309013"><ele>529.0</ele><time>2026-04-18T13:19:03.016Z</time></trkpt><trkpt lat="45.5727202" lon="10.3309798"><ele>531.5</ele><time>2026-04-18T13:19:05.016Z</time></trkpt><trkpt lat="45.5726425" lon="10.3310162"><ele>534.0</ele><time>2026-04-18T13:19:08.015Z</time></trkpt><trkpt lat="45.5725557" lon="10.330966"><ele>534.0</ele><time>2026-04-18T13:19:10.016Z</time></trkpt><trkpt lat="45.5724603" lon="10.330878"><ele>534.0</ele><time>2026-04-18T13:19:12.014Z</time></trkpt><trkpt lat="45.5724045" lon="10.3307668"><ele>534.0</ele><time>2026-04-18T13:19:14.015Z</time></trkpt><trkpt lat="45.5723458" lon="10.3307008"><ele>534.0</ele><time>2026-04-18T13:19:16.015Z</time></trkpt><trkpt lat="45.5722608" lon="10.3306275"><ele>534.0</ele><time>2026-04-18T13:19:18.016Z</time></trkpt><trkpt lat="45.5721997" lon="10.3305722"><ele>531.0</ele><time>2026-04-18T13:19:19.017Z</time></trkpt><trkpt lat="45.5721075" lon="10.3304917"><ele>528.0</ele><time>2026-04-18T13:19:21.017Z</time></trkpt><trkpt lat="45.5720132" lon="10.3304283"><ele>525.0</ele><time>2026-04-18T13:19:23.016Z</time></trkpt><trkpt lat="45.5719288" lon="10.3303727"><ele>522.0</ele><time>2026-04-18T13:19:25.017Z</time></trkpt><trkpt lat="45.5718695" lon="10.3302738"><ele>519.0</ele><time>2026-04-18T13:19:27.017Z</time></trkpt><trkpt lat="45.5718077" lon="10.3301893"><ele>524.8333333333334</ele><time>2026-04-18T13:19:29.017Z</time></trkpt><trkpt lat="45.5717407" lon="10.3301053"><ele>530.6666666666666</ele><time>2026-04-18T13:19:31.017Z</time></trkpt><trkpt lat="45.5716825" lon="10.3300662"><ele>536.5</ele><time>2026-04-18T13:19:33.016Z</time></trkpt><trkpt lat="45.5716" lon="10.3300202"><ele>542.3333333333333</ele><time>2026-04-18T13:19:36.014Z</time></trkpt><trkpt lat="45.5715348" lon="10.3300247"><ele>548.1666666666666</ele><time>2026-04-18T13:19:40.018Z</time></trkpt><trkpt lat="45.5714672" lon="10.3300317"><ele>554.0</ele><time>2026-04-18T13:19:45.018Z</time></trkpt><trkpt lat="45.5713595" lon="10.3300615"><ele>554.0</ele><time>2026-04-18T13:19:50.019Z</time></trkpt><trkpt lat="45.571287" lon="10.3300495"><ele>554.0</ele><time>2026-04-18T13:19:51.019Z</time></trkpt><trkpt lat="45.571202" lon="10.3300107"><ele>554.0</ele><time>2026-04-18T13:19:53.019Z</time></trkpt><trkpt lat="45.5711325" lon="10.3299735"><ele>554.0</ele><time>2026-04-18T13:19:55.019Z</time></trkpt><trkpt lat="45.5710453" lon="10.3299213"><ele>554.0</ele><time>2026-04-18T13:19:57.017Z</time></trkpt><trkpt lat="45.5709537" lon="10.3299077"><ele>554.0</ele><time>2026-04-18T13:19:59.017Z</time></trkpt><trkpt lat="45.570867" lon="10.3298947"><ele>556.8333333333333</ele><time>2026-04-18T13:20:01.017Z</time></trkpt><trkpt lat="45.570815" lon="10.3299455"><ele>559.6666666666666</ele><time>2026-04-18T13:20:03.019Z</time></trkpt><trkpt lat="45.57077" lon="10.3300483"><ele>562.5</ele><time>2026-04-18T13:20:05.017Z</time></trkpt><trkpt lat="45.5707467" lon="10.3301438"><ele>565.3333333333334</ele><time>2026-04-18T13:20:07.017Z</time></trkpt><trkpt lat="45.5707485" lon="10.330248"><ele>568.1666666666667</ele><time>2026-04-18T13:20:10.02Z</time></trkpt><trkpt lat="45.570714" lon="10.3303623"><ele>571.0</ele><time>2026-04-18T13:20:13.022Z</time></trkpt><trkpt lat="45.5707268" lon="10.3304997"><ele>574.3333333333334</ele><time>2026-04-18T13:20:16.019Z</time></trkpt><trkpt lat="45.5707652" lon="10.3305805"><ele>577.6666666666667</ele><time>2026-04-18T13:20:18.019Z</time></trkpt><trkpt lat="45.5707495" lon="10.3306933"><ele>581.0</ele><time>2026-04-18T13:20:20.018Z</time></trkpt><trkpt lat="45.570703" lon="10.33079"><ele>584.3333333333334</ele><time>2026-04-18T13:20:22.017Z</time></trkpt><trkpt lat="45.5707413" lon="10.3308748"><ele>587.6666666666666</ele><time>2026-04-18T13:20:24.018Z</time></trkpt><trkpt lat="45.5708185" lon="10.3309858"><ele>591.0</ele><time>2026-04-18T13:20:26.018Z</time></trkpt><trkpt lat="45.5708785" lon="10.3311488"><ele>591.0</ele><time>2026-04-18T13:20:28.022Z</time></trkpt><trkpt lat="45.5709352" lon="10.3312572"><ele>591.0</ele><time>2026-04-18T13:20:30.021Z</time></trkpt><trkpt lat="45.5709428" lon="10.3313748"><ele>591.0</ele><time>2026-04-18T13:20:33.019Z</time></trkpt><trkpt lat="45.5709065" lon="10.3314985"><ele>591.0</ele><time>2026-04-18T13:20:35.019Z</time></trkpt><trkpt lat="45.570841" lon="10.331642"><ele>591.0</ele><time>2026-04-18T13:20:37.019Z</time></trkpt><trkpt lat="45.5707945" lon="10.3317435"><ele>592.0</ele><time>2026-04-18T13:20:38.018Z</time></trkpt><trkpt lat="45.5707525" lon="10.331844"><ele>593.0</ele><time>2026-04-18T13:20:39.019Z</time></trkpt><trkpt lat="45.570724" lon="10.3319343"><ele>594.0</ele><time>2026-04-18T13:20:40.019Z</time></trkpt><trkpt lat="45.5707012" lon="10.3320372"><ele>595.0</ele><time>2026-04-18T13:20:41.018Z</time></trkpt><trkpt lat="45.5706898" lon="10.3321475"><ele>596.0</ele><time>2026-04-18T13:20:42.019Z</time></trkpt><trkpt lat="45.570671" lon="10.3323002"><ele>597.0</ele><time>2026-04-18T13:20:43.018Z</time></trkpt><trkpt lat="45.5706487" lon="10.3324457"><ele>597.0</ele><time>2026-04-18T13:20:44.017Z</time></trkpt><trkpt lat="45.5706247" lon="10.332569"><ele>597.0</ele><time>2026-04-18T13:20:45.018Z</time></trkpt><trkpt lat="45.5706003" lon="10.3326933"><ele>597.0</ele><time>2026-04-18T13:20:46.019Z</time></trkpt><trkpt lat="45.5705792" lon="10.3328128"><ele>597.0</ele><time>2026-04-18T13:20:47.016Z</time></trkpt><trkpt lat="45.5705702" lon="10.3329233"><ele>597.0</ele><time>2026-04-18T13:20:48.016Z</time></trkpt><trkpt lat="45.5705622" lon="10.3330133"><ele>597.0</ele><time>2026-04-18T13:20:49.016Z</time></trkpt><trkpt lat="45.5705587" lon="10.333114"><ele>596.3333333333334</ele><time>2026-04-18T13:20:50.016Z</time></trkpt><trkpt lat="45.570551" lon="10.3332232"><ele>595.6666666666666</ele><time>2026-04-18T13:20:51.018Z</time></trkpt><trkpt lat="45.5705363" lon="10.333363"><ele>595.0</ele><time>2026-04-18T13:20:53.016Z</time></trkpt><trkpt lat="45.5704947" lon="10.3334348"><ele>594.3333333333333</ele><time>2026-04-18T13:20:57.019Z</time></trkpt><trkpt lat="45.570444" lon="10.3335018"><ele>593.6666666666666</ele><time>2026-04-18T13:21:00.018Z</time></trkpt><trkpt lat="45.5704437" lon="10.3336402"><ele>593.0</ele><time>2026-04-18T13:21:03.019Z</time></trkpt><trkpt lat="45.5704242" lon="10.3337418"><ele>592.9999999999999</ele><time>2026-04-18T13:21:05.018Z</time></trkpt><trkpt lat="45.5703943" lon="10.33383"><ele>593.0</ele><time>2026-04-18T13:21:11.017Z</time></trkpt><trkpt lat="45.5703592" lon="10.3339107"><ele>593.0</ele><time>2026-04-18T13:21:21.02Z</time></trkpt><trkpt lat="45.5703148" lon="10.3340223"><ele>593.0</ele><time>2026-04-18T13:21:39.019Z</time></trkpt><trkpt lat="45.5702663" lon="10.3340953"><ele>593.0</ele><time>2026-04-18T13:21:41.019Z</time></trkpt><trkpt lat="45.5701928" lon="10.3341598"><ele>592.9999999999999</ele><time>2026-04-18T13:21:43.018Z</time></trkpt><trkpt lat="45.570128" lon="10.3341535"><ele>593.0</ele><time>2026-04-18T13:21:45.018Z</time></trkpt><trkpt lat="45.570035" lon="10.3341198"><ele>595.0</ele><time>2026-04-18T13:21:47.017Z</time></trkpt><trkpt lat="45.5699537" lon="10.3340828"><ele>597.0</ele><time>2026-04-18T13:21:49.017Z</time></trkpt><trkpt lat="45.5698725" lon="10.3340748"><ele>599.0</ele><time>2026-04-18T13:21:51.019Z</time></trkpt><trkpt lat="45.5698113" lon="10.3340115"><ele>601.0</ele><time>2026-04-18T13:21:53.018Z</time></trkpt><trkpt lat="45.5697725" lon="10.333902"><ele>603.0</ele><time>2026-04-18T13:21:55.018Z</time></trkpt><trkpt lat="45.5697485" lon="10.3337853"><ele>605.0</ele><time>2026-04-18T13:21:57.018Z</time></trkpt><trkpt lat="45.5697258" lon="10.3336847"><ele>606.8</ele><time>2026-04-18T13:21:59.018Z</time></trkpt><trkpt lat="45.5696395" lon="10.3335913"><ele>608.6</ele><time>2026-04-18T13:22:02.017Z</time></trkpt><trkpt lat="45.5695845" lon="10.3335403"><ele>610.4</ele><time>2026-04-18T13:22:03.018Z</time></trkpt><trkpt lat="45.569491" lon="10.3334177"><ele>612.2</ele><time>2026-04-18T13:22:05.018Z</time></trkpt><trkpt lat="45.5694675" lon="10.3333282"><ele>614.0</ele><time>2026-04-18T13:22:06.018Z</time></trkpt><trkpt lat="45.5694158" lon="10.3332253"><ele>617.6</ele><time>2026-04-18T13:22:08.019Z</time></trkpt><trkpt lat="45.569368" lon="10.3330487"><ele>621.2</ele><time>2026-04-18T13:22:10.018Z</time></trkpt><trkpt lat="45.5693305" lon="10.3329168"><ele>624.8000000000001</ele><time>2026-04-18T13:22:12.018Z</time></trkpt><trkpt lat="45.5693158" lon="10.3327977"><ele>628.4</ele><time>2026-04-18T13:22:14.019Z</time></trkpt><trkpt lat="45.5692903" lon="10.3327017"><ele>632.0</ele><time>2026-04-18T13:22:16.019Z</time></trkpt><trkpt lat="45.5692148" lon="10.3325653"><ele>632.0</ele><time>2026-04-18T13:22:18.018Z</time></trkpt><trkpt lat="45.5691673" lon="10.3324698"><ele>632.0</ele><time>2026-04-18T13:22:19.021Z</time></trkpt><trkpt lat="45.5691167" lon="10.3323712"><ele>632.0</ele><time>2026-04-18T13:22:20.018Z</time></trkpt><trkpt lat="45.5690563" lon="10.3322688"><ele>632.0</ele><time>2026-04-18T13:22:21.019Z</time></trkpt><trkpt lat="45.5689907" lon="10.3321895"><ele>632.0</ele><time>2026-04-18T13:22:22.02Z</time></trkpt><trkpt lat="45.5689327" lon="10.3321358"><ele>632.0</ele><time>2026-04-18T13:22:23.017Z</time></trkpt><trkpt lat="45.5688447" lon="10.3320068"><ele>631.1666666666666</ele><time>2026-04-18T13:22:25.016Z</time></trkpt><trkpt lat="45.5687915" lon="10.331935"><ele>630.3333333333333</ele><time>2026-04-18T13:22:26.015Z</time></trkpt><trkpt lat="45.5687265" lon="10.3318775"><ele>629.5</ele><time>2026-04-18T13:22:27.014Z</time></trkpt><trkpt lat="45.5686587" lon="10.3318132"><ele>628.6666666666666</ele><time>2026-04-18T13:22:28.018Z</time></trkpt><trkpt lat="45.5685955" lon="10.331732"><ele>627.8333333333334</ele><time>2026-04-18T13:22:29.017Z</time></trkpt><trkpt lat="45.5685338" lon="10.331647"><ele>627.0</ele><time>2026-04-18T13:22:30.018Z</time></trkpt><trkpt lat="45.5684717" lon="10.3315685"><ele>627.0</ele><time>2026-04-18T13:22:31.018Z</time></trkpt><trkpt lat="45.5684162" lon="10.3315187"><ele>627.0</ele><time>2026-04-18T13:22:32.017Z</time></trkpt><trkpt lat="45.5683652" lon="10.3314627"><ele>627.0</ele><time>2026-04-18T13:22:33.017Z</time></trkpt><trkpt lat="45.5683127" lon="10.331383"><ele>627.0</ele><time>2026-04-18T13:22:34.017Z</time></trkpt><trkpt lat="45.5682437" lon="10.3312693"><ele>627.0</ele><time>2026-04-18T13:22:35.017Z</time></trkpt><trkpt lat="45.5681785" lon="10.3311812"><ele>627.0</ele><time>2026-04-18T13:22:36.017Z</time></trkpt><trkpt lat="45.5681243" lon="10.3311082"><ele>626.5</ele><time>2026-04-18T13:22:37.018Z</time></trkpt><trkpt lat="45.568073" lon="10.3310498"><ele>626.0</ele><time>2026-04-18T13:22:38.018Z</time></trkpt><trkpt lat="45.5680003" lon="10.330979"><ele>625.5</ele><time>2026-04-18T13:22:39.018Z</time></trkpt><trkpt lat="45.5679393" lon="10.3309258"><ele>625.0</ele><time>2026-04-18T13:22:40.017Z</time></trkpt><trkpt lat="45.5678737" lon="10.3308693"><ele>624.5</ele><time>2026-04-18T13:22:41.016Z</time></trkpt><trkpt lat="45.5678008" lon="10.3308232"><ele>624.0</ele><time>2026-04-18T13:22:42.018Z</time></trkpt><trkpt lat="45.5677218" lon="10.330782"><ele>624.0</ele><time>2026-04-18T13:22:43.018Z</time></trkpt><trkpt lat="45.567646" lon="10.3307655"><ele>624.0</ele><time>2026-04-18T13:22:44.016Z</time></trkpt><trkpt lat="45.5675575" lon="10.3307492"><ele>624.0</ele><time>2026-04-18T13:22:45.017Z</time></trkpt><trkpt lat="45.5674847" lon="10.3307607"><ele>624.0</ele><time>2026-04-18T13:22:46.015Z</time></trkpt><trkpt lat="45.567402" lon="10.330779"><ele>624.0</ele><time>2026-04-18T13:22:47.017Z</time></trkpt><trkpt lat="45.5673275" lon="10.3308245"><ele>624.0</ele><time>2026-04-18T13:22:48.017Z</time></trkpt><trkpt lat="45.5672422" lon="10.3308595"><ele>624.0</ele><time>2026-04-18T13:22:49.016Z</time></trkpt><trkpt lat="45.5671668" lon="10.3308873"><ele>624.0</ele><time>2026-04-18T13:22:50.015Z</time></trkpt><trkpt lat="45.5671062" lon="10.3309242"><ele>624.0</ele><time>2026-04-18T13:22:51.014Z</time></trkpt><trkpt lat="45.5670298" lon="10.3310592"><ele>624.0</ele><time>2026-04-18T13:22:53.015Z</time></trkpt><trkpt lat="45.5670062" lon="10.3311623"><ele>624.0</ele><time>2026-04-18T13:22:54.016Z</time></trkpt><trkpt lat="45.5669143" lon="10.3312433"><ele>624.0</ele><time>2026-04-18T13:22:56.016Z</time></trkpt><trkpt lat="45.5668463" lon="10.3312127"><ele>626.0</ele><time>2026-04-18T13:22:57.016Z</time></trkpt><trkpt lat="45.5667697" lon="10.3311965"><ele>628.0</ele><time>2026-04-18T13:22:58.018Z</time></trkpt><trkpt lat="45.566692" lon="10.3311867"><ele>630.0</ele><time>2026-04-18T13:22:59.018Z</time></trkpt><trkpt lat="45.566617" lon="10.3311967"><ele>632.0</ele><time>2026-04-18T13:23:00.017Z</time></trkpt><trkpt lat="45.5665477" lon="10.3312023"><ele>634.0</ele><time>2026-04-18T13:23:01.017Z</time></trkpt><trkpt lat="45.5664625" lon="10.3312092"><ele>636.0</ele><time>2026-04-18T13:23:02.017Z</time></trkpt><trkpt lat="45.566379" lon="10.3312323"><ele>636.0</ele><time>2026-04-18T13:23:03.017Z</time></trkpt><trkpt lat="45.5662872" lon="10.3312428"><ele>636.0</ele><time>2026-04-18T13:23:04.017Z</time></trkpt><trkpt lat="45.5661792" lon="10.3312168"><ele>636.0</ele><time>2026-04-18T13:23:05.018Z</time></trkpt><trkpt lat="45.5660807" lon="10.331214"><ele>636.0</ele><time>2026-04-18T13:23:06.017Z</time></trkpt><trkpt lat="45.5659847" lon="10.3311882"><ele>636.0</ele><time>2026-04-18T13:23:07.017Z</time></trkpt><trkpt lat="45.565884" lon="10.3311395"><ele>640.75</ele><time>2026-04-18T13:23:08.017Z</time></trkpt><trkpt lat="45.56579" lon="10.3310738"><ele>645.5</ele><time>2026-04-18T13:23:09.018Z</time></trkpt><trkpt lat="45.565684" lon="10.3309887"><ele>650.25</ele><time>2026-04-18T13:23:10.016Z</time></trkpt><trkpt lat="45.565574" lon="10.3309295"><ele>655.0</ele><time>2026-04-18T13:23:11.019Z</time></trkpt><trkpt lat="45.5654568" lon="10.3308897"><ele>655.8</ele><time>2026-04-18T13:23:12.017Z</time></trkpt><trkpt lat="45.565349" lon="10.3308702"><ele>656.6</ele><time>2026-04-18T13:23:13.018Z</time></trkpt><trkpt lat="45.5652245" lon="10.330837"><ele>657.4000000000001</ele><time>2026-04-18T13:23:14.014Z</time></trkpt><trkpt lat="45.5651302" lon="10.3308137"><ele>658.2</ele><time>2026-04-18T13:23:15.015Z</time></trkpt><trkpt lat="45.5650328" lon="10.33081"><ele>659.0</ele><time>2026-04-18T13:23:16.015Z</time></trkpt><trkpt lat="45.5649458" lon="10.330819"><ele>659.0</ele><time>2026-04-18T13:23:17.015Z</time></trkpt><trkpt lat="45.5648545" lon="10.330839"><ele>659.0</ele><time>2026-04-18T13:23:18.016Z</time></trkpt><trkpt lat="45.5647607" lon="10.3308573"><ele>659.0</ele><time>2026-04-18T13:23:19.017Z</time></trkpt><trkpt lat="45.564659" lon="10.3308553"><ele>659.0</ele><time>2026-04-18T13:23:20.016Z</time></trkpt><trkpt lat="45.564543" lon="10.3308333"><ele>659.0</ele><time>2026-04-18T13:23:21.018Z</time></trkpt><trkpt lat="45.564414" lon="10.3307805"><ele>660.0</ele><time>2026-04-18T13:23:22.017Z</time></trkpt><trkpt lat="45.5642767" lon="10.3307213"><ele>661.0</ele><time>2026-04-18T13:23:23.015Z</time></trkpt><trkpt lat="45.5641518" lon="10.3306648"><ele>662.0</ele><time>2026-04-18T13:23:24.019Z</time></trkpt><trkpt lat="45.564049" lon="10.3306347"><ele>663.0</ele><time>2026-04-18T13:23:25.017Z</time></trkpt><trkpt lat="45.5639527" lon="10.3306285"><ele>663.0</ele><time>2026-04-18T13:23:26.018Z</time></trkpt><trkpt lat="45.5638422" lon="10.3306133"><ele>663.0</ele><time>2026-04-18T13:23:27.017Z</time></trkpt><trkpt lat="45.5637072" lon="10.3305795"><ele>663.0</ele><time>2026-04-18T13:23:28.018Z</time></trkpt><trkpt lat="45.5635762" lon="10.3305243"><ele>663.0</ele><time>2026-04-18T13:23:29.02Z</time></trkpt><trkpt lat="45.5634537" lon="10.3304765"><ele>662.25</ele><time>2026-04-18T13:23:30.024Z</time></trkpt><trkpt lat="45.5633237" lon="10.3304323"><ele>661.5</ele><time>2026-04-18T13:23:31.021Z</time></trkpt><trkpt lat="45.5632055" lon="10.330403"><ele>660.75</ele><time>2026-04-18T13:23:32.019Z</time></trkpt><trkpt lat="45.5630952" lon="10.3303878"><ele>660.0</ele><time>2026-04-18T13:23:33.019Z</time></trkpt><trkpt lat="45.5630067" lon="10.330393"><ele>660.0</ele><time>2026-04-18T13:23:34.018Z</time></trkpt><trkpt lat="45.5629363" lon="10.3304145"><ele>660.0</ele><time>2026-04-18T13:23:35.019Z</time></trkpt><trkpt lat="45.5628527" lon="10.330455"><ele>660.0</ele><time>2026-04-18T13:23:36.018Z</time></trkpt><trkpt lat="45.5627652" lon="10.3305072"><ele>660.0</ele><time>2026-04-18T13:23:37.019Z</time></trkpt><trkpt lat="45.5626842" lon="10.3305685"><ele>660.0</ele><time>2026-04-18T13:23:38.015Z</time></trkpt><trkpt lat="45.5626198" lon="10.3306163"><ele>660.0</ele><time>2026-04-18T13:23:39.015Z</time></trkpt><trkpt lat="45.5625192" lon="10.3306725"><ele>661.75</ele><time>2026-04-18T13:23:41.019Z</time></trkpt><trkpt lat="45.5624037" lon="10.3307228"><ele>663.5</ele><time>2026-04-18T13:23:43.019Z</time></trkpt><trkpt lat="45.5622728" lon="10.3307702"><ele>665.25</ele><time>2026-04-18T13:23:45.019Z</time></trkpt><trkpt lat="45.5621882" lon="10.3307972"><ele>667.0</ele><time>2026-04-18T13:23:46.019Z</time></trkpt><trkpt lat="45.5620742" lon="10.330878"><ele>668.6666666666667</ele><time>2026-04-18T13:23:48.019Z</time></trkpt><trkpt lat="45.5619798" lon="10.3309167"><ele>670.3333333333334</ele><time>2026-04-18T13:23:50.017Z</time></trkpt><trkpt lat="45.5618865" lon="10.3309447"><ele>672.0</ele><time>2026-04-18T13:23:52.018Z</time></trkpt><trkpt lat="45.561801" lon="10.3310243"><ele>673.6666666666666</ele><time>2026-04-18T13:23:54.016Z</time></trkpt><trkpt lat="45.5617455" lon="10.3311102"><ele>675.3333333333333</ele><time>2026-04-18T13:23:57.017Z</time></trkpt><trkpt lat="45.5616813" lon="10.3311483"><ele>677.0</ele><time>2026-04-18T13:23:59.016Z</time></trkpt><trkpt lat="45.561588" lon="10.3311858"><ele>677.0</ele><time>2026-04-18T13:24:01.015Z</time></trkpt><trkpt lat="45.5614992" lon="10.3312558"><ele>677.0</ele><time>2026-04-18T13:24:03.015Z</time></trkpt><trkpt lat="45.5614175" lon="10.3313532"><ele>677.0</ele><time>2026-04-18T13:24:05.015Z</time></trkpt><trkpt lat="45.561368" lon="10.3314375"><ele>677.0</ele><time>2026-04-18T13:24:07.016Z</time></trkpt><trkpt lat="45.5613397" lon="10.331524"><ele>677.0</ele><time>2026-04-18T13:24:09.018Z</time></trkpt><trkpt lat="45.5613055" lon="10.3316283"><ele>677.0</ele><time>2026-04-18T13:24:12.017Z</time></trkpt><trkpt lat="45.561288" lon="10.3317348"><ele>677.6666666666666</ele><time>2026-04-18T13:24:15.017Z</time></trkpt><trkpt lat="45.5612395" lon="10.3318408"><ele>678.3333333333333</ele><time>2026-04-18T13:24:18.015Z</time></trkpt><trkpt lat="45.5611677" lon="10.3319198"><ele>679.0</ele><time>2026-04-18T13:24:21.017Z</time></trkpt><trkpt lat="45.5611095" lon="10.3319925"><ele>679.6666666666666</ele><time>2026-04-18T13:24:23.014Z</time></trkpt><trkpt lat="45.5610612" lon="10.3320655"><ele>680.3333333333334</ele><time>2026-04-18T13:24:26.016Z</time></trkpt><trkpt lat="45.5610185" lon="10.3321343"><ele>681.0</ele><time>2026-04-18T13:24:28.014Z</time></trkpt><trkpt lat="45.5609653" lon="10.3322052"><ele>679.0</ele><time>2026-04-18T13:24:30.013Z</time></trkpt><trkpt lat="45.5609242" lon="10.3323207"><ele>677.0</ele><time>2026-04-18T13:24:32.015Z</time></trkpt><trkpt lat="45.5608978" lon="10.3324083"><ele>675.0</ele><time>2026-04-18T13:24:33.016Z</time></trkpt><trkpt lat="45.5608922" lon="10.3325383"><ele>673.0</ele><time>2026-04-18T13:24:35.018Z</time></trkpt><trkpt lat="45.5608917" lon="10.3326525"><ele>671.0</ele><time>2026-04-18T13:24:37.017Z</time></trkpt><trkpt lat="45.560885" lon="10.3327822"><ele>669.0</ele><time>2026-04-18T13:24:40.018Z</time></trkpt><trkpt lat="45.5608917" lon="10.3328968"><ele>669.0</ele><time>2026-04-18T13:24:42.015Z</time></trkpt><trkpt lat="45.5608802" lon="10.333042"><ele>669.0</ele><time>2026-04-18T13:24:44.015Z</time></trkpt><trkpt lat="45.5609185" lon="10.3331407"><ele>669.0</ele><time>2026-04-18T13:24:46.017Z</time></trkpt><trkpt lat="45.5609723" lon="10.33322"><ele>669.0</ele><time>2026-04-18T13:24:50.018Z</time></trkpt><trkpt lat="45.5609515" lon="10.3333168"><ele>669.0</ele><time>2026-04-18T13:24:53.017Z</time></trkpt><trkpt lat="45.5609798" lon="10.333408"><ele>669.0</ele><time>2026-04-18T13:24:56.018Z</time></trkpt><trkpt lat="45.5609923" lon="10.333497"><ele>667.4285714285714</ele><time>2026-04-18T13:24:58.017Z</time></trkpt><trkpt lat="45.5610177" lon="10.3335878"><ele>665.8571428571429</ele><time>2026-04-18T13:25:01.016Z</time></trkpt><trkpt lat="45.5610467" lon="10.3336715"><ele>664.2857142857142</ele><time>2026-04-18T13:25:04.017Z</time></trkpt><trkpt lat="45.5611168" lon="10.3336682"><ele>662.7142857142858</ele><time>2026-04-18T13:25:08.018Z</time></trkpt><trkpt lat="45.5612008" lon="10.3336707"><ele>661.1428571428571</ele><time>2026-04-18T13:25:11.018Z</time></trkpt><trkpt lat="45.5612753" lon="10.3337165"><ele>659.5714285714286</ele><time>2026-04-18T13:25:14.017Z</time></trkpt><trkpt lat="45.5612987" lon="10.3338202"><ele>658.0</ele><time>2026-04-18T13:25:18.017Z</time></trkpt><trkpt lat="45.5613163" lon="10.3339307"><ele>654.5</ele><time>2026-04-18T13:25:21.017Z</time></trkpt><trkpt lat="45.5613682" lon="10.3340572"><ele>651.0</ele><time>2026-04-18T13:25:24.019Z</time></trkpt><trkpt lat="45.561442" lon="10.3341203"><ele>647.5</ele><time>2026-04-18T13:25:27.017Z</time></trkpt><trkpt lat="45.5615015" lon="10.3341522"><ele>644.0</ele><time>2026-04-18T13:25:29.018Z</time></trkpt><trkpt lat="45.5615645" lon="10.334185"><ele>640.5</ele><time>2026-04-18T13:25:31.017Z</time></trkpt><trkpt lat="45.5616337" lon="10.3341945"><ele>637.0</ele><time>2026-04-18T13:25:34.017Z</time></trkpt><trkpt lat="45.5617348" lon="10.3341808"><ele>637.0</ele><time>2026-04-18T13:25:37.017Z</time></trkpt><trkpt lat="45.5617915" lon="10.3342733"><ele>637.0</ele><time>2026-04-18T13:25:41.016Z</time></trkpt><trkpt lat="45.5618447" lon="10.3343275"><ele>637.0</ele><time>2026-04-18T13:25:43.015Z</time></trkpt><trkpt lat="45.5619255" lon="10.334326"><ele>637.0</ele><time>2026-04-18T13:25:45.018Z</time></trkpt><trkpt lat="45.5620225" lon="10.3343343"><ele>637.0</ele><time>2026-04-18T13:25:47.018Z</time></trkpt><trkpt lat="45.5620943" lon="10.3343233"><ele>637.0</ele><time>2026-04-18T13:25:49.018Z</time></trkpt><trkpt lat="45.5621655" lon="10.3343487"><ele>635.8000000000001</ele><time>2026-04-18T13:25:51.018Z</time></trkpt><trkpt lat="45.5622687" lon="10.3344093"><ele>634.6</ele><time>2026-04-18T13:25:53.018Z</time></trkpt><trkpt lat="45.5623572" lon="10.3344587"><ele>633.4000000000001</ele><time>2026-04-18T13:25:55.016Z</time></trkpt><trkpt lat="45.5624345" lon="10.3344382"><ele>632.2</ele><time>2026-04-18T13:25:57.018Z</time></trkpt><trkpt lat="45.5625227" lon="10.3344135"><ele>631.0</ele><time>2026-04-18T13:26:00.018Z</time></trkpt><trkpt lat="45.5626198" lon="10.3343908"><ele>631.0</ele><time>2026-04-18T13:26:03.019Z</time></trkpt><trkpt lat="45.5627037" lon="10.3343857"><ele>631.0</ele><time>2026-04-18T13:26:05.017Z</time></trkpt><trkpt lat="45.562774" lon="10.3344555"><ele>631.0</ele><time>2026-04-18T13:26:08.016Z</time></trkpt><trkpt lat="45.562832" lon="10.334493"><ele>631.0</ele><time>2026-04-18T13:26:10.017Z</time></trkpt><trkpt lat="45.562896" lon="10.3344845"><ele>631.0</ele><time>2026-04-18T13:26:12.018Z</time></trkpt><trkpt lat="45.5629732" lon="10.3345007"><ele>631.0</ele><time>2026-04-18T13:26:15.018Z</time></trkpt><trkpt lat="45.5630253" lon="10.3345552"><ele>631.0</ele><time>2026-04-18T13:26:18.019Z</time></trkpt><trkpt lat="45.5631203" lon="10.3345967"><ele>629.0</ele><time>2026-04-18T13:26:21.018Z</time></trkpt><trkpt lat="45.563182" lon="10.3346737"><ele>627.0</ele><time>2026-04-18T13:26:24.018Z</time></trkpt><trkpt lat="45.5632472" lon="10.3347235"><ele>625.0</ele><time>2026-04-18T13:26:27.018Z</time></trkpt><trkpt lat="45.5633213" lon="10.3347488"><ele>623.0</ele><time>2026-04-18T13:26:31.016Z</time></trkpt><trkpt lat="45.5633902" lon="10.3347467"><ele>621.0</ele><time>2026-04-18T13:26:34.019Z</time></trkpt><trkpt lat="45.5634658" lon="10.3347345"><ele>619.0</ele><time>2026-04-18T13:26:38.019Z</time></trkpt><trkpt lat="45.5635352" lon="10.3347635"><ele>617.0</ele><time>2026-04-18T13:26:41.019Z</time></trkpt><trkpt lat="45.5635968" lon="10.334796"><ele>615.6666666666666</ele><time>2026-04-18T13:26:43.019Z</time></trkpt><trkpt lat="45.5636667" lon="10.3347873"><ele>614.3333333333333</ele><time>2026-04-18T13:26:45.018Z</time></trkpt><trkpt lat="45.5637378" lon="10.3347688"><ele>613.0</ele><time>2026-04-18T13:26:49.019Z</time></trkpt><trkpt lat="45.5637987" lon="10.3347425"><ele>611.6666666666666</ele><time>2026-04-18T13:26:51.019Z</time></trkpt><trkpt lat="45.5639062" lon="10.3347023"><ele>610.3333333333334</ele><time>2026-04-18T13:26:53.018Z</time></trkpt><trkpt lat="45.5639957" lon="10.3347063"><ele>609.0</ele><time>2026-04-18T13:26:55.016Z</time></trkpt><trkpt lat="45.5640373" lon="10.3346252"><ele>606.8</ele><time>2026-04-18T13:26:59.019Z</time></trkpt><trkpt lat="45.5640275" lon="10.3344755"><ele>604.5999999999999</ele><time>2026-04-18T13:27:01.017Z</time></trkpt><trkpt lat="45.564049" lon="10.334372"><ele>602.4</ele><time>2026-04-18T13:27:03.017Z</time></trkpt><trkpt lat="45.5641298" lon="10.3343453"><ele>600.1999999999999</ele><time>2026-04-18T13:27:05.017Z</time></trkpt><trkpt lat="45.564253" lon="10.3343598"><ele>598.0</ele><time>2026-04-18T13:27:07.017Z</time></trkpt><trkpt lat="45.5643445" lon="10.3343528"><ele>598.0</ele><time>2026-04-18T13:27:09.018Z</time></trkpt><trkpt lat="45.5644383" lon="10.3343265"><ele>598.0</ele><time>2026-04-18T13:27:11.02Z</time></trkpt><trkpt lat="45.564526" lon="10.33438"><ele>598.0</ele><time>2026-04-18T13:27:13.016Z</time></trkpt><trkpt lat="45.564604" lon="10.334446"><ele>598.0</ele><time>2026-04-18T13:27:15.018Z</time></trkpt><trkpt lat="45.5646672" lon="10.334451"><ele>598.0</ele><time>2026-04-18T13:27:16.017Z</time></trkpt><trkpt lat="45.5647593" lon="10.3344372"><ele>598.0</ele><time>2026-04-18T13:27:17.017Z</time></trkpt><trkpt lat="45.5648453" lon="10.3344197"><ele>598.3333333333334</ele><time>2026-04-18T13:27:18.017Z</time></trkpt><trkpt lat="45.5649152" lon="10.3343967"><ele>598.6666666666667</ele><time>2026-04-18T13:27:19.015Z</time></trkpt><trkpt lat="45.5649875" lon="10.3343873"><ele>599.0</ele><time>2026-04-18T13:27:20.015Z</time></trkpt><trkpt lat="45.5650898" lon="10.3343828"><ele>599.3333333333334</ele><time>2026-04-18T13:27:22.015Z</time></trkpt><trkpt lat="45.5651503" lon="10.334352"><ele>599.6666666666666</ele><time>2026-04-18T13:27:23.017Z</time></trkpt><trkpt lat="45.5652633" lon="10.3342788"><ele>600.0</ele><time>2026-04-18T13:27:25.016Z</time></trkpt><trkpt lat="45.5653285" lon="10.3342573"><ele>599.8333333333334</ele><time>2026-04-18T13:27:26.018Z</time></trkpt><trkpt lat="45.5653977" lon="10.3342557"><ele>599.6666666666666</ele><time>2026-04-18T13:27:27.017Z</time></trkpt><trkpt lat="45.5654673" lon="10.3342658"><ele>599.5</ele><time>2026-04-18T13:27:28.016Z</time></trkpt><trkpt lat="45.5655705" lon="10.334236"><ele>599.3333333333333</ele><time>2026-04-18T13:27:30.017Z</time></trkpt><trkpt lat="45.5656388" lon="10.3342045"><ele>599.1666666666666</ele><time>2026-04-18T13:27:31.017Z</time></trkpt><trkpt lat="45.5657127" lon="10.3341835"><ele>599.0</ele><time>2026-04-18T13:27:32.015Z</time></trkpt><trkpt lat="45.565802" lon="10.334164"><ele>599.0</ele><time>2026-04-18T13:27:33.017Z</time></trkpt><trkpt lat="45.5658875" lon="10.3341417"><ele>599.0</ele><time>2026-04-18T13:27:34.018Z</time></trkpt><trkpt lat="45.5659685" lon="10.3341035"><ele>599.0</ele><time>2026-04-18T13:27:35.018Z</time></trkpt><trkpt lat="45.5660408" lon="10.334043"><ele>599.0</ele><time>2026-04-18T13:27:36.018Z</time></trkpt><trkpt lat="45.5661112" lon="10.3339755"><ele>599.0</ele><time>2026-04-18T13:27:37.017Z</time></trkpt><trkpt lat="45.5662188" lon="10.333926"><ele>595.5</ele><time>2026-04-18T13:27:39.018Z</time></trkpt><trkpt lat="45.5663407" lon="10.3339783"><ele>592.0</ele><time>2026-04-18T13:27:41.016Z</time></trkpt><trkpt lat="45.5664307" lon="10.334082"><ele>588.5</ele><time>2026-04-18T13:27:43.015Z</time></trkpt><trkpt lat="45.5664808" lon="10.3341485"><ele>585.0</ele><time>2026-04-18T13:27:44.014Z</time></trkpt><trkpt lat="45.566539" lon="10.3343353"><ele>585.0</ele><time>2026-04-18T13:27:46.013Z</time></trkpt><trkpt lat="45.5665487" lon="10.3344798"><ele>585.0</ele><time>2026-04-18T13:27:47.016Z</time></trkpt><trkpt lat="45.5665798" lon="10.3345892"><ele>585.0</ele><time>2026-04-18T13:27:48.014Z</time></trkpt><trkpt lat="45.5665568" lon="10.3346968"><ele>585.0</ele><time>2026-04-18T13:27:49.019Z</time></trkpt><trkpt lat="45.566553" lon="10.3347882"><ele>585.0</ele><time>2026-04-18T13:27:50.017Z</time></trkpt><trkpt lat="45.5666587" lon="10.3349125"><ele>583.2</ele><time>2026-04-18T13:27:52.019Z</time></trkpt><trkpt lat="45.5667513" lon="10.3350072"><ele>581.4</ele><time>2026-04-18T13:27:53.018Z</time></trkpt><trkpt lat="45.5668067" lon="10.3350973"><ele>579.6</ele><time>2026-04-18T13:27:54.016Z</time></trkpt><trkpt lat="45.5668353" lon="10.3352477"><ele>577.8</ele><time>2026-04-18T13:27:56.018Z</time></trkpt><trkpt lat="45.5668062" lon="10.3353483"><ele>576.0</ele><time>2026-04-18T13:27:57.018Z</time></trkpt><trkpt lat="45.5667638" lon="10.3354675"><ele>575.4</ele><time>2026-04-18T13:27:58.02Z</time></trkpt><trkpt lat="45.5667215" lon="10.3355925"><ele>574.8</ele><time>2026-04-18T13:27:59.019Z</time></trkpt><trkpt lat="45.5666855" lon="10.335721"><ele>574.1999999999999</ele><time>2026-04-18T13:28:00.019Z</time></trkpt><trkpt lat="45.5666562" lon="10.3358437"><ele>573.6</ele><time>2026-04-18T13:28:01.019Z</time></trkpt><trkpt lat="45.566642" lon="10.3359632"><ele>573.0</ele><time>2026-04-18T13:28:02.019Z</time></trkpt><trkpt lat="45.5666253" lon="10.3360858"><ele>573.0</ele><time>2026-04-18T13:28:03.022Z</time></trkpt><trkpt lat="45.5666297" lon="10.3362055"><ele>573.0</ele><time>2026-04-18T13:28:04.017Z</time></trkpt><trkpt lat="45.5666507" lon="10.3363172"><ele>573.0</ele><time>2026-04-18T13:28:05.018Z</time></trkpt><trkpt lat="45.5666837" lon="10.3364412"><ele>573.0</ele><time>2026-04-18T13:28:06.017Z</time></trkpt><trkpt lat="45.5667113" lon="10.3365637"><ele>573.0</ele><time>2026-04-18T13:28:07.017Z</time></trkpt><trkpt lat="45.5667198" lon="10.3366603"><ele>573.0</ele><time>2026-04-18T13:28:08.015Z</time></trkpt><trkpt lat="45.5667137" lon="10.336756"><ele>573.0</ele><time>2026-04-18T13:28:09.016Z</time></trkpt><trkpt lat="45.5666888" lon="10.336859"><ele>573.0</ele><time>2026-04-18T13:28:10.017Z</time></trkpt><trkpt lat="45.5666813" lon="10.336985"><ele>573.0</ele><time>2026-04-18T13:28:11.015Z</time></trkpt><trkpt lat="45.5666918" lon="10.3371227"><ele>573.0</ele><time>2026-04-18T13:28:12.018Z</time></trkpt><trkpt lat="45.5667148" lon="10.3372607"><ele>573.0</ele><time>2026-04-18T13:28:13.019Z</time></trkpt><trkpt lat="45.5667403" lon="10.337426"><ele>573.0</ele><time>2026-04-18T13:28:14.018Z</time></trkpt><trkpt lat="45.566755" lon="10.3375798"><ele>573.0</ele><time>2026-04-18T13:28:15.018Z</time></trkpt><trkpt lat="45.5667548" lon="10.337707"><ele>573.0</ele><time>2026-04-18T13:28:16.017Z</time></trkpt><trkpt lat="45.5667595" lon="10.3378182"><ele>573.0</ele><time>2026-04-18T13:28:17.018Z</time></trkpt><trkpt lat="45.566761" lon="10.3379087"><ele>573.0</ele><time>2026-04-18T13:28:18.017Z</time></trkpt><trkpt lat="45.5667915" lon="10.3379902"><ele>573.0</ele><time>2026-04-18T13:28:19.018Z</time></trkpt><trkpt lat="45.5668345" lon="10.338058"><ele>572.3333333333334</ele><time>2026-04-18T13:28:20.017Z</time></trkpt><trkpt lat="45.5668732" lon="10.3381538"><ele>571.6666666666666</ele><time>2026-04-18T13:28:21.017Z</time></trkpt><trkpt lat="45.5669115" lon="10.3382492"><ele>571.0</ele><time>2026-04-18T13:28:22.018Z</time></trkpt><trkpt lat="45.5669317" lon="10.3383757"><ele>570.3333333333333</ele><time>2026-04-18T13:28:23.018Z</time></trkpt><trkpt lat="45.5669548" lon="10.3384962"><ele>569.6666666666666</ele><time>2026-04-18T13:28:24.017Z</time></trkpt><trkpt lat="45.5669957" lon="10.3385752"><ele>569.0</ele><time>2026-04-18T13:28:25.017Z</time></trkpt><trkpt lat="45.5670392" lon="10.3386603"><ele>567.8</ele><time>2026-04-18T13:28:26.017Z</time></trkpt><trkpt lat="45.5670935" lon="10.3387265"><ele>566.5999999999999</ele><time>2026-04-18T13:28:27.017Z</time></trkpt><trkpt lat="45.567166" lon="10.3387932"><ele>565.4</ele><time>2026-04-18T13:28:28.017Z</time></trkpt><trkpt lat="45.567245" lon="10.3388615"><ele>564.1999999999999</ele><time>2026-04-18T13:28:29.018Z</time></trkpt><trkpt lat="45.5673318" lon="10.3389353"><ele>563.0</ele><time>2026-04-18T13:28:30.016Z</time></trkpt><trkpt lat="45.5674247" lon="10.3390208"><ele>563.0</ele><time>2026-04-18T13:28:31.015Z</time></trkpt><trkpt lat="45.5675197" lon="10.3390922"><ele>563.0</ele><time>2026-04-18T13:28:32.013Z</time></trkpt><trkpt lat="45.5676068" lon="10.3391462"><ele>563.0</ele><time>2026-04-18T13:28:33.014Z</time></trkpt><trkpt lat="45.5676913" lon="10.3391922"><ele>563.0</ele><time>2026-04-18T13:28:34.013Z</time></trkpt><trkpt lat="45.5677613" lon="10.3392283"><ele>563.0</ele><time>2026-04-18T13:28:35.016Z</time></trkpt><trkpt lat="45.5678313" lon="10.3392668"><ele>563.0</ele><time>2026-04-18T13:28:36.014Z</time></trkpt><trkpt lat="45.5678953" lon="10.3393027"><ele>563.0</ele><time>2026-04-18T13:28:37.016Z</time></trkpt><trkpt lat="45.5679917" lon="10.3393633"><ele>563.0</ele><time>2026-04-18T13:28:39.015Z</time></trkpt><trkpt lat="45.5680268" lon="10.3394597"><ele>563.0</ele><time>2026-04-18T13:28:41.015Z</time></trkpt><trkpt lat="45.5679725" lon="10.3395175"><ele>563.0</ele><time>2026-04-18T13:28:44.018Z</time></trkpt><trkpt lat="45.5678277" lon="10.3395407"><ele>563.0</ele><time>2026-04-18T13:28:46.018Z</time></trkpt><trkpt lat="45.5677165" lon="10.3395262"><ele>563.0</ele><time>2026-04-18T13:28:47.016Z</time></trkpt><trkpt lat="45.567622" lon="10.3395423"><ele>563.0</ele><time>2026-04-18T13:28:48.015Z</time></trkpt><trkpt lat="45.5675593" lon="10.3395857"><ele>563.0</ele><time>2026-04-18T13:28:49.015Z</time></trkpt><trkpt lat="45.567488" lon="10.3396278"><ele>563.0</ele><time>2026-04-18T13:28:50.015Z</time></trkpt><trkpt lat="45.5674042" lon="10.3397163"><ele>563.0</ele><time>2026-04-18T13:28:51.016Z</time></trkpt><trkpt lat="45.5673288" lon="10.3397985"><ele>563.0</ele><time>2026-04-18T13:28:52.016Z</time></trkpt><trkpt lat="45.5672357" lon="10.3399287"><ele>562.0</ele><time>2026-04-18T13:28:53.015Z</time></trkpt><trkpt lat="45.567134" lon="10.3400583"><ele>561.0</ele><time>2026-04-18T13:28:54.015Z</time></trkpt><trkpt lat="45.5670428" lon="10.3401677"><ele>560.0</ele><time>2026-04-18T13:28:55.015Z</time></trkpt><trkpt lat="45.5669563" lon="10.3403005"><ele>559.0</ele><time>2026-04-18T13:28:56.015Z</time></trkpt><trkpt lat="45.566882" lon="10.3404298"><ele>557.25</ele><time>2026-04-18T13:28:57.014Z</time></trkpt><trkpt lat="45.5667942" lon="10.3405593"><ele>555.5</ele><time>2026-04-18T13:28:58.013Z</time></trkpt><trkpt lat="45.5667083" lon="10.3406825"><ele>553.75</ele><time>2026-04-18T13:28:59.014Z</time></trkpt><trkpt lat="45.5666183" lon="10.340794"><ele>552.0</ele><time>2026-04-18T13:29:00.013Z</time></trkpt><trkpt lat="45.566512" lon="10.340914"><ele>552.0</ele><time>2026-04-18T13:29:01.015Z</time></trkpt><trkpt lat="45.5664037" lon="10.3409837"><ele>552.0</ele><time>2026-04-18T13:29:02.015Z</time></trkpt><trkpt lat="45.566299" lon="10.3410717"><ele>552.0</ele><time>2026-04-18T13:29:03.016Z</time></trkpt><trkpt lat="45.5662077" lon="10.34118"><ele>552.0</ele><time>2026-04-18T13:29:04.015Z</time></trkpt><trkpt lat="45.5661273" lon="10.3412658"><ele>550.6666666666666</ele><time>2026-04-18T13:29:05.018Z</time></trkpt><trkpt lat="45.5660622" lon="10.3413475"><ele>549.3333333333334</ele><time>2026-04-18T13:29:06.015Z</time></trkpt><trkpt lat="45.5660045" lon="10.3413892"><ele>548.0</ele><time>2026-04-18T13:29:07.015Z</time></trkpt><trkpt lat="45.5659407" lon="10.3414502"><ele>546.6666666666667</ele><time>2026-04-18T13:29:08.016Z</time></trkpt><trkpt lat="45.5658822" lon="10.3415258"><ele>545.3333333333334</ele><time>2026-04-18T13:29:09.016Z</time></trkpt><trkpt lat="45.5658225" lon="10.3416008"><ele>544.0</ele><time>2026-04-18T13:29:10.015Z</time></trkpt><trkpt lat="45.5657675" lon="10.3416685"><ele>544.0</ele><time>2026-04-18T13:29:11.016Z</time></trkpt><trkpt lat="45.5657148" lon="10.3417575"><ele>544.0</ele><time>2026-04-18T13:29:12.017Z</time></trkpt><trkpt lat="45.5656442" lon="10.3418713"><ele>544.0</ele><time>2026-04-18T13:29:13.015Z</time></trkpt><trkpt lat="45.5655712" lon="10.3419762"><ele>544.0</ele><time>2026-04-18T13:29:14.015Z</time></trkpt><trkpt lat="45.5655005" lon="10.3420813"><ele>544.0</ele><time>2026-04-18T13:29:15.013Z</time></trkpt><trkpt lat="45.5654398" lon="10.3421843"><ele>543.3333333333334</ele><time>2026-04-18T13:29:16.014Z</time></trkpt><trkpt lat="45.5653928" lon="10.342263"><ele>542.6666666666667</ele><time>2026-04-18T13:29:17.014Z</time></trkpt><trkpt lat="45.5653517" lon="10.3423378"><ele>542.0</ele><time>2026-04-18T13:29:18.014Z</time></trkpt><trkpt lat="45.5653177" lon="10.3424152"><ele>541.3333333333334</ele><time>2026-04-18T13:29:19.016Z</time></trkpt><trkpt lat="45.5652858" lon="10.3425313"><ele>540.6666666666666</ele><time>2026-04-18T13:29:20.015Z</time></trkpt><trkpt lat="45.5652592" lon="10.3426835"><ele>540.0</ele><time>2026-04-18T13:29:21.015Z</time></trkpt><trkpt lat="45.5650595" lon="10.3433317"><ele>534.75</ele><time>2026-04-18T13:29:22.017Z</time></trkpt><trkpt lat="45.5650368" lon="10.3435395"><ele>529.5</ele><time>2026-04-18T13:29:23.014Z</time></trkpt><trkpt lat="45.5650123" lon="10.3437232"><ele>524.25</ele><time>2026-04-18T13:29:24.014Z</time></trkpt><trkpt lat="45.5649967" lon="10.3439127"><ele>519.0</ele><time>2026-04-18T13:29:25.015Z</time></trkpt><trkpt lat="45.5649943" lon="10.3441277"><ele>518.25</ele><time>2026-04-18T13:29:26.017Z</time></trkpt><trkpt lat="45.5649827" lon="10.3443383"><ele>517.5</ele><time>2026-04-18T13:29:27.014Z</time></trkpt><trkpt lat="45.564953" lon="10.3445413"><ele>516.75</ele><time>2026-04-18T13:29:28.014Z</time></trkpt><trkpt lat="45.5649138" lon="10.344747"><ele>516.0</ele><time>2026-04-18T13:29:29.016Z</time></trkpt><trkpt lat="45.5648675" lon="10.3449513"><ele>516.0</ele><time>2026-04-18T13:29:30.016Z</time></trkpt><trkpt lat="45.5648135" lon="10.3451547"><ele>516.0</ele><time>2026-04-18T13:29:31.017Z</time></trkpt><trkpt lat="45.5647562" lon="10.3453457"><ele>516.0</ele><time>2026-04-18T13:29:32.018Z</time></trkpt><trkpt lat="45.5646917" lon="10.3455155"><ele>516.0</ele><time>2026-04-18T13:29:33.02Z</time></trkpt><trkpt lat="45.5646173" lon="10.3456678"><ele>507.5</ele><time>2026-04-18T13:29:34.019Z</time></trkpt><trkpt lat="45.5645273" lon="10.34581"><ele>499.0</ele><time>2026-04-18T13:29:35.017Z</time></trkpt><trkpt lat="45.5644313" lon="10.345949"><ele>490.5</ele><time>2026-04-18T13:29:36.017Z</time></trkpt><trkpt lat="45.5643292" lon="10.346092"><ele>482.0</ele><time>2026-04-18T13:29:37.019Z</time></trkpt><trkpt lat="45.5642223" lon="10.3462428"><ele>487.0</ele><time>2026-04-18T13:29:38.019Z</time></trkpt><trkpt lat="45.5641102" lon="10.3464048"><ele>492.0</ele><time>2026-04-18T13:29:39.02Z</time></trkpt><trkpt lat="45.5639918" lon="10.3465818"><ele>497.0</ele><time>2026-04-18T13:29:40.019Z</time></trkpt><trkpt lat="45.5638725" lon="10.3467583"><ele>497.0</ele><time>2026-04-18T13:29:41.018Z</time></trkpt><trkpt lat="45.5637562" lon="10.346931"><ele>497.0</ele><time>2026-04-18T13:29:42.019Z</time></trkpt><trkpt lat="45.563637" lon="10.3471038"><ele>497.0</ele><time>2026-04-18T13:29:43.019Z</time></trkpt><trkpt lat="45.5635207" lon="10.347279"><ele>489.0</ele><time>2026-04-18T13:29:44.018Z</time></trkpt><trkpt lat="45.5634073" lon="10.3474507"><ele>481.0</ele><time>2026-04-18T13:29:45.018Z</time></trkpt><trkpt lat="45.5632948" lon="10.3476155"><ele>473.0</ele><time>2026-04-18T13:29:46.016Z</time></trkpt><trkpt lat="45.5631827" lon="10.3477748"><ele>473.0</ele><time>2026-04-18T13:29:47.016Z</time></trkpt><trkpt lat="45.5630722" lon="10.34793"><ele>473.0</ele><time>2026-04-18T13:29:48.018Z</time></trkpt><trkpt lat="45.562965" lon="10.3480853"><ele>473.0</ele><time>2026-04-18T13:29:49.017Z</time></trkpt><trkpt lat="45.5628603" lon="10.3482377"><ele>467.0</ele><time>2026-04-18T13:29:50.019Z</time></trkpt><trkpt lat="45.5627565" lon="10.3483857"><ele>461.0</ele><time>2026-04-18T13:29:51.018Z</time></trkpt><trkpt lat="45.5626557" lon="10.3485348"><ele>455.0</ele><time>2026-04-18T13:29:52.018Z</time></trkpt><trkpt lat="45.5625568" lon="10.3486835"><ele>449.0</ele><time>2026-04-18T13:29:53.019Z</time></trkpt><trkpt lat="45.5624567" lon="10.3488342"><ele>456.3333333333333</ele><time>2026-04-18T13:29:54.019Z</time></trkpt><trkpt lat="45.5623552" lon="10.348991"><ele>463.66666666666663</ele><time>2026-04-18T13:29:55.018Z</time></trkpt><trkpt lat="45.5622505" lon="10.3491605"><ele>471.0</ele><time>2026-04-18T13:29:56.019Z</time></trkpt><trkpt lat="45.5621433" lon="10.3493413"><ele>471.0</ele><time>2026-04-18T13:29:57.019Z</time></trkpt><trkpt lat="45.5620365" lon="10.3495337"><ele>471.0</ele><time>2026-04-18T13:29:58.018Z</time></trkpt><trkpt lat="45.5619292" lon="10.3497352"><ele>471.0</ele><time>2026-04-18T13:29:59.018Z</time></trkpt><trkpt lat="45.5618197" lon="10.3499402"><ele>466.33333333333337</ele><time>2026-04-18T13:30:00.019Z</time></trkpt><trkpt lat="45.5617085" lon="10.3501462"><ele>461.6666666666667</ele><time>2026-04-18T13:30:01.018Z</time></trkpt><trkpt lat="45.5615958" lon="10.3503555"><ele>457.0</ele><time>2026-04-18T13:30:02.02Z</time></trkpt><trkpt lat="45.5614828" lon="10.350571"><ele>457.0</ele><time>2026-04-18T13:30:03.019Z</time></trkpt><trkpt lat="45.5613725" lon="10.3507933"><ele>457.0</ele><time>2026-04-18T13:30:04.02Z</time></trkpt><trkpt lat="45.5612643" lon="10.3510215"><ele>457.0</ele><time>2026-04-18T13:30:05.018Z</time></trkpt><trkpt lat="45.5611588" lon="10.3512547"><ele>444.6666666666667</ele><time>2026-04-18T13:30:06.019Z</time></trkpt><trkpt lat="45.561057" lon="10.3514855"><ele>432.33333333333337</ele><time>2026-04-18T13:30:07.021Z</time></trkpt><trkpt lat="45.5609618" lon="10.3517108"><ele>420.0</ele><time>2026-04-18T13:30:08.022Z</time></trkpt><trkpt lat="45.5608683" lon="10.3519375"><ele>420.0</ele><time>2026-04-18T13:30:09.019Z</time></trkpt><trkpt lat="45.5607748" lon="10.3521687"><ele>420.0</ele><time>2026-04-18T13:30:10.018Z</time></trkpt><trkpt lat="45.56068" lon="10.3524032"><ele>420.0</ele><time>2026-04-18T13:30:11.018Z</time></trkpt><trkpt lat="45.5605808" lon="10.3526375"><ele>425.0</ele><time>2026-04-18T13:30:12.018Z</time></trkpt><trkpt lat="45.560477" lon="10.3528707"><ele>430.0</ele><time>2026-04-18T13:30:13.018Z</time></trkpt><trkpt lat="45.5603697" lon="10.3531005"><ele>435.0</ele><time>2026-04-18T13:30:14.019Z</time></trkpt><trkpt lat="45.5602612" lon="10.3533242"><ele>427.66666666666663</ele><time>2026-04-18T13:30:15.02Z</time></trkpt><trkpt lat="45.5601565" lon="10.3535408"><ele>420.3333333333333</ele><time>2026-04-18T13:30:16.019Z</time></trkpt><trkpt lat="45.5600557" lon="10.3537523"><ele>413.0</ele><time>2026-04-18T13:30:17.018Z</time></trkpt><trkpt lat="45.5599628" lon="10.3539602"><ele>413.0</ele><time>2026-04-18T13:30:18.02Z</time></trkpt><trkpt lat="45.559882" lon="10.354162"><ele>413.0</ele><time>2026-04-18T13:30:19.019Z</time></trkpt><trkpt lat="45.559809" lon="10.3543547"><ele>413.0</ele><time>2026-04-18T13:30:20.02Z</time></trkpt><trkpt lat="45.559742" lon="10.3545288"><ele>413.0</ele><time>2026-04-18T13:30:21.02Z</time></trkpt><trkpt lat="45.5596683" lon="10.3546842"><ele>413.0</ele><time>2026-04-18T13:30:22.02Z</time></trkpt><trkpt lat="45.559577" lon="10.3548202"><ele>413.0</ele><time>2026-04-18T13:30:23.021Z</time></trkpt><trkpt lat="45.5594627" lon="10.3549208"><ele>413.0</ele><time>2026-04-18T13:30:24.02Z</time></trkpt><trkpt lat="45.5593277" lon="10.354988"><ele>406.0</ele><time>2026-04-18T13:30:25.02Z</time></trkpt><trkpt lat="45.559193" lon="10.355062"><ele>399.0</ele><time>2026-04-18T13:30:26.02Z</time></trkpt><trkpt lat="45.559069" lon="10.3551632"><ele>392.0</ele><time>2026-04-18T13:30:27.021Z</time></trkpt><trkpt lat="45.5589603" lon="10.3552945"><ele>385.0</ele><time>2026-04-18T13:30:28.02Z</time></trkpt><trkpt lat="45.558868" lon="10.3554557"><ele>388.33333333333337</ele><time>2026-04-18T13:30:29.021Z</time></trkpt><trkpt lat="45.558796" lon="10.3556473"><ele>391.66666666666663</ele><time>2026-04-18T13:30:30.025Z</time></trkpt><trkpt lat="45.5587428" lon="10.3558617"><ele>395.0</ele><time>2026-04-18T13:30:31.021Z</time></trkpt><trkpt lat="45.55871" lon="10.3560957"><ele>379.3333333333333</ele><time>2026-04-18T13:30:32.02Z</time></trkpt><trkpt lat="45.558695" lon="10.3563487"><ele>363.66666666666663</ele><time>2026-04-18T13:30:33.019Z</time></trkpt><trkpt lat="45.5586922" lon="10.3566217"><ele>348.0</ele><time>2026-04-18T13:30:34.024Z</time></trkpt><trkpt lat="45.5586992" lon="10.3569028"><ele>362.33333333333337</ele><time>2026-04-18T13:30:35.02Z</time></trkpt><trkpt lat="45.5587117" lon="10.3571763"><ele>376.6666666666667</ele><time>2026-04-18T13:30:36.019Z</time></trkpt><trkpt lat="45.5587233" lon="10.3574383"><ele>391.0</ele><time>2026-04-18T13:30:37.017Z</time></trkpt><trkpt lat="45.5587282" lon="10.3576827"><ele>391.0</ele><time>2026-04-18T13:30:38.017Z</time></trkpt><trkpt lat="45.5587238" lon="10.3579205"><ele>391.0</ele><time>2026-04-18T13:30:39.02Z</time></trkpt><trkpt lat="45.558716" lon="10.3581597"><ele>391.0</ele><time>2026-04-18T13:30:40.019Z</time></trkpt><trkpt lat="45.558708" lon="10.3583942"><ele>376.75</ele><time>2026-04-18T13:30:41.02Z</time></trkpt><trkpt lat="45.5587005" lon="10.358619"><ele>362.5</ele><time>2026-04-18T13:30:42.019Z</time></trkpt><trkpt lat="45.5586885" lon="10.3588285"><ele>348.25</ele><time>2026-04-18T13:30:43.019Z</time></trkpt><trkpt lat="45.5586692" lon="10.3590282"><ele>334.0</ele><time>2026-04-18T13:30:44.019Z</time></trkpt><trkpt lat="45.5586398" lon="10.3592178"><ele>333.5</ele><time>2026-04-18T13:30:45.019Z</time></trkpt><trkpt lat="45.5585945" lon="10.3593887"><ele>333.0</ele><time>2026-04-18T13:30:46.02Z</time></trkpt><trkpt lat="45.5585213" lon="10.3595468"><ele>332.5</ele><time>2026-04-18T13:30:47.02Z</time></trkpt><trkpt lat="45.5584297" lon="10.3596965"><ele>332.0</ele><time>2026-04-18T13:30:48.019Z</time></trkpt><trkpt lat="45.5583245" lon="10.359824"><ele>333.0</ele><time>2026-04-18T13:30:49.019Z</time></trkpt><trkpt lat="45.5582212" lon="10.3599162"><ele>334.0</ele><time>2026-04-18T13:30:50.019Z</time></trkpt><trkpt lat="45.5581132" lon="10.3599642"><ele>335.0</ele><time>2026-04-18T13:30:51.022Z</time></trkpt><trkpt lat="45.5579987" lon="10.3599638"><ele>336.0</ele><time>2026-04-18T13:30:52.021Z</time></trkpt><trkpt lat="45.557872" lon="10.3599338"><ele>332.0</ele><time>2026-04-18T13:30:53.019Z</time></trkpt><trkpt lat="45.5577245" lon="10.359892"><ele>328.0</ele><time>2026-04-18T13:30:54.018Z</time></trkpt><trkpt lat="45.5575662" lon="10.3598515"><ele>324.0</ele><time>2026-04-18T13:30:55.02Z</time></trkpt><trkpt lat="45.5574085" lon="10.3598083"><ele>324.0</ele><time>2026-04-18T13:30:56.019Z</time></trkpt><trkpt lat="45.5572588" lon="10.3597608"><ele>324.0</ele><time>2026-04-18T13:30:57.022Z</time></trkpt><trkpt lat="45.557123" lon="10.359715"><ele>324.0</ele><time>2026-04-18T13:30:58.021Z</time></trkpt><trkpt lat="45.557011" lon="10.3596802"><ele>324.0</ele><time>2026-04-18T13:30:59.019Z</time></trkpt><trkpt lat="45.5569225" lon="10.3596617"><ele>321.4</ele><time>2026-04-18T13:31:00.017Z</time></trkpt><trkpt lat="45.5568515" lon="10.3596622"><ele>318.79999999999995</ele><time>2026-04-18T13:31:01.018Z</time></trkpt><trkpt lat="45.5567438" lon="10.3597078"><ele>316.20000000000005</ele><time>2026-04-18T13:31:03.019Z</time></trkpt><trkpt lat="45.5566497" lon="10.3598043"><ele>313.6</ele><time>2026-04-18T13:31:05.02Z</time></trkpt><trkpt lat="45.5565567" lon="10.3599293"><ele>311.0</ele><time>2026-04-18T13:31:07.021Z</time></trkpt><trkpt lat="45.5565065" lon="10.3600145"><ele>311.0</ele><time>2026-04-18T13:31:08.02Z</time></trkpt><trkpt lat="45.5564513" lon="10.3601178"><ele>311.0</ele><time>2026-04-18T13:31:09.022Z</time></trkpt><trkpt lat="45.5563975" lon="10.360227"><ele>311.0</ele><time>2026-04-18T13:31:10.021Z</time></trkpt><trkpt lat="45.556355" lon="10.3603135"><ele>311.0</ele><time>2026-04-18T13:31:11.02Z</time></trkpt><trkpt lat="45.556279" lon="10.3604085"><ele>311.0</ele><time>2026-04-18T13:31:13.02Z</time></trkpt><trkpt lat="45.556208" lon="10.3603823"><ele>311.0</ele><time>2026-04-18T13:31:15.019Z</time></trkpt><trkpt lat="45.5561747" lon="10.3602288"><ele>308.5</ele><time>2026-04-18T13:31:17.02Z</time></trkpt><trkpt lat="45.5561565" lon="10.3600957"><ele>306.0</ele><time>2026-04-18T13:31:18.02Z</time></trkpt><trkpt lat="45.5561165" lon="10.3599493"><ele>303.5</ele><time>2026-04-18T13:31:19.019Z</time></trkpt><trkpt lat="45.5560518" lon="10.3598085"><ele>301.0</ele><time>2026-04-18T13:31:20.019Z</time></trkpt><trkpt lat="45.5559603" lon="10.3596755"><ele>299.5</ele><time>2026-04-18T13:31:21.019Z</time></trkpt><trkpt lat="45.5558467" lon="10.3595635"><ele>298.0</ele><time>2026-04-18T13:31:22.02Z</time></trkpt><trkpt lat="45.555731" lon="10.359468"><ele>296.5</ele><time>2026-04-18T13:31:23.018Z</time></trkpt><trkpt lat="45.5556297" lon="10.3593713"><ele>295.0</ele><time>2026-04-18T13:31:24.017Z</time></trkpt><trkpt lat="45.5555415" lon="10.3592607"><ele>295.0</ele><time>2026-04-18T13:31:25.018Z</time></trkpt><trkpt lat="45.5554707" lon="10.3591308"><ele>295.0</ele><time>2026-04-18T13:31:26.017Z</time></trkpt><trkpt lat="45.5554112" lon="10.3589735"><ele>295.0</ele><time>2026-04-18T13:31:27.017Z</time></trkpt><trkpt lat="45.5553545" lon="10.3587905"><ele>295.0</ele><time>2026-04-18T13:31:28.019Z</time></trkpt><trkpt lat="45.5553085" lon="10.3586035"><ele>290.75</ele><time>2026-04-18T13:31:29.019Z</time></trkpt><trkpt lat="45.5552732" lon="10.358422"><ele>286.5</ele><time>2026-04-18T13:31:30.019Z</time></trkpt><trkpt lat="45.5552443" lon="10.3582495"><ele>282.25</ele><time>2026-04-18T13:31:31.019Z</time></trkpt><trkpt lat="45.5552162" lon="10.3580848"><ele>278.0</ele><time>2026-04-18T13:31:32.02Z</time></trkpt><trkpt lat="45.5551883" lon="10.357927"><ele>276.0</ele><time>2026-04-18T13:31:33.019Z</time></trkpt><trkpt lat="45.5551575" lon="10.357768"><ele>274.0</ele><time>2026-04-18T13:31:34.02Z</time></trkpt><trkpt lat="45.5551227" lon="10.3576132"><ele>272.0</ele><time>2026-04-18T13:31:35.019Z</time></trkpt><trkpt lat="45.5550783" lon="10.3574632"><ele>270.0</ele><time>2026-04-18T13:31:36.019Z</time></trkpt><trkpt lat="45.5550223" lon="10.357325"><ele>270.0</ele><time>2026-04-18T13:31:37.019Z</time></trkpt><trkpt lat="45.5549535" lon="10.3572085"><ele>270.0</ele><time>2026-04-18T13:31:38.019Z</time></trkpt><trkpt lat="45.5548713" lon="10.3571198"><ele>270.0</ele><time>2026-04-18T13:31:39.018Z</time></trkpt><trkpt lat="45.5547763" lon="10.357072"><ele>270.0</ele><time>2026-04-18T13:31:40.019Z</time></trkpt><trkpt lat="45.5546712" lon="10.357072"><ele>270.0</ele><time>2026-04-18T13:31:41.019Z</time></trkpt><trkpt lat="45.5545668" lon="10.3571127"><ele>266.2</ele><time>2026-04-18T13:31:42.019Z</time></trkpt><trkpt lat="45.554463" lon="10.3571537"><ele>262.4</ele><time>2026-04-18T13:31:43.019Z</time></trkpt><trkpt lat="45.5543517" lon="10.3571722"><ele>258.6</ele><time>2026-04-18T13:31:44.018Z</time></trkpt><trkpt lat="45.5542425" lon="10.3571757"><ele>254.8</ele><time>2026-04-18T13:31:45.018Z</time></trkpt><trkpt lat="45.5541543" lon="10.3571643"><ele>251.0</ele><time>2026-04-18T13:31:46.02Z</time></trkpt><trkpt lat="45.5540872" lon="10.357135"><ele>251.0</ele><time>2026-04-18T13:31:47.019Z</time></trkpt><trkpt lat="45.5540155" lon="10.3570102"><ele>251.00000000000003</ele><time>2026-04-18T13:31:49.033Z</time></trkpt><trkpt lat="45.5540223" lon="10.3568193"><ele>251.00000000000003</ele><time>2026-04-18T13:31:51.019Z</time></trkpt><trkpt lat="45.5540408" lon="10.3566997"><ele>251.0</ele><time>2026-04-18T13:31:52.02Z</time></trkpt><trkpt lat="45.554067" lon="10.3565963"><ele>251.0</ele><time>2026-04-18T13:31:53.022Z</time></trkpt><trkpt lat="45.5541132" lon="10.3565047"><ele>251.0</ele><time>2026-04-18T13:31:54.02Z</time></trkpt><trkpt lat="45.5541802" lon="10.3564243"><ele>251.00000000000003</ele><time>2026-04-18T13:31:55.022Z</time></trkpt><trkpt lat="45.5542732" lon="10.3563498"><ele>251.00000000000003</ele><time>2026-04-18T13:31:56.019Z</time></trkpt><trkpt lat="45.5543742" lon="10.3562825"><ele>251.0</ele><time>2026-04-18T13:31:57.019Z</time></trkpt><trkpt lat="45.5544713" lon="10.3562163"><ele>251.0</ele><time>2026-04-18T13:31:58.019Z</time></trkpt><trkpt lat="45.5545552" lon="10.356155"><ele>250.50000000000003</ele><time>2026-04-18T13:31:59.02Z</time></trkpt><trkpt lat="45.5546307" lon="10.3560932"><ele>250.0</ele><time>2026-04-18T13:32:00.019Z</time></trkpt><trkpt lat="45.5546922" lon="10.3560195"><ele>249.5</ele><time>2026-04-18T13:32:01.019Z</time></trkpt><trkpt lat="45.5547328" lon="10.3559232"><ele>249.0</ele><time>2026-04-18T13:32:02.019Z</time></trkpt><trkpt lat="45.5547402" lon="10.3558122"><ele>248.50000000000003</ele><time>2026-04-18T13:32:03.019Z</time></trkpt><trkpt lat="45.5547063" lon="10.3557072"><ele>248.0</ele><time>2026-04-18T13:32:04.019Z</time></trkpt><trkpt lat="45.5546368" lon="10.3556112"><ele>246.0</ele><time>2026-04-18T13:32:05.019Z</time></trkpt><trkpt lat="45.5545417" lon="10.3555128"><ele>244.0</ele><time>2026-04-18T13:32:06.021Z</time></trkpt><trkpt lat="45.5544308" lon="10.3553958"><ele>242.0</ele><time>2026-04-18T13:32:07.018Z</time></trkpt><trkpt lat="45.5543152" lon="10.3552685"><ele>240.0</ele><time>2026-04-18T13:32:08.018Z</time></trkpt><trkpt lat="45.554195" lon="10.3551517"><ele>237.25</ele><time>2026-04-18T13:32:09.019Z</time></trkpt><trkpt lat="45.5540728" lon="10.3550507"><ele>234.5</ele><time>2026-04-18T13:32:10.018Z</time></trkpt><trkpt lat="45.5539443" lon="10.3549727"><ele>231.75</ele><time>2026-04-18T13:32:11.018Z</time></trkpt><trkpt lat="45.553804" lon="10.354918"><ele>229.0</ele><time>2026-04-18T13:32:12.017Z</time></trkpt><trkpt lat="45.5536553" lon="10.3548798"><ele>227.66666666666666</ele><time>2026-04-18T13:32:13.015Z</time></trkpt><trkpt lat="45.553498" lon="10.3548458"><ele>226.33333333333331</ele><time>2026-04-18T13:32:14.016Z</time></trkpt><trkpt lat="45.5533382" lon="10.354817"><ele>225.0</ele><time>2026-04-18T13:32:15.016Z</time></trkpt><trkpt lat="45.5531892" lon="10.354802"><ele>225.0</ele><time>2026-04-18T13:32:16.015Z</time></trkpt><trkpt lat="45.553056" lon="10.3547997"><ele>225.0</ele><time>2026-04-18T13:32:17.018Z</time></trkpt><trkpt lat="45.552934" lon="10.3548265"><ele>225.0</ele><time>2026-04-18T13:32:18.017Z</time></trkpt><trkpt lat="45.552816" lon="10.3548883"><ele>225.0</ele><time>2026-04-18T13:32:19.016Z</time></trkpt><trkpt lat="45.552691" lon="10.3549933"><ele>221.33333333333331</ele><time>2026-04-18T13:32:20.017Z</time></trkpt><trkpt lat="45.5525612" lon="10.3551303"><ele>217.66666666666666</ele><time>2026-04-18T13:32:21.017Z</time></trkpt><trkpt lat="45.5524215" lon="10.355276"><ele>214.0</ele><time>2026-04-18T13:32:22.017Z</time></trkpt><trkpt lat="45.5522745" lon="10.3554213"><ele>214.66666666666666</ele><time>2026-04-18T13:32:23.018Z</time></trkpt><trkpt lat="45.5521255" lon="10.3555622"><ele>215.33333333333331</ele><time>2026-04-18T13:32:24.017Z</time></trkpt><trkpt lat="45.551981" lon="10.3556917"><ele>216.0</ele><time>2026-04-18T13:32:25.016Z</time></trkpt><trkpt lat="45.5518395" lon="10.3558032"><ele>214.66666666666669</ele><time>2026-04-18T13:32:26.015Z</time></trkpt><trkpt lat="45.5516963" lon="10.3558885"><ele>213.33333333333334</ele><time>2026-04-18T13:32:27.015Z</time></trkpt><trkpt lat="45.5515473" lon="10.3559473"><ele>212.0</ele><time>2026-04-18T13:32:28.016Z</time></trkpt><trkpt lat="45.5513982" lon="10.3559783"><ele>212.0</ele><time>2026-04-18T13:32:29.017Z</time></trkpt><trkpt lat="45.551249" lon="10.355978"><ele>212.0</ele><time>2026-04-18T13:32:30.019Z</time></trkpt><trkpt lat="45.5510867" lon="10.355955"><ele>212.0</ele><time>2026-04-18T13:32:31.018Z</time></trkpt><trkpt lat="45.5509213" lon="10.3559198"><ele>212.0</ele><time>2026-04-18T13:32:32.018Z</time></trkpt><trkpt lat="45.5507538" lon="10.3558833"><ele>212.0</ele><time>2026-04-18T13:32:33.019Z</time></trkpt><trkpt lat="45.550587" lon="10.3558437"><ele>212.0</ele><time>2026-04-18T13:32:34.018Z</time></trkpt><trkpt lat="45.5504252" lon="10.3558025"><ele>210.5</ele><time>2026-04-18T13:32:35.018Z</time></trkpt><trkpt lat="45.5502823" lon="10.355765"><ele>209.0</ele><time>2026-04-18T13:32:36.018Z</time></trkpt><trkpt lat="45.5501575" lon="10.3557328"><ele>207.5</ele><time>2026-04-18T13:32:37.016Z</time></trkpt><trkpt lat="45.550035" lon="10.3557195"><ele>206.0</ele><time>2026-04-18T13:32:38.016Z</time></trkpt><trkpt lat="45.549915" lon="10.3557473"><ele>206.0</ele><time>2026-04-18T13:32:39.016Z</time></trkpt><trkpt lat="45.5497987" lon="10.3558177"><ele>206.0</ele><time>2026-04-18T13:32:40.017Z</time></trkpt><trkpt lat="45.5496837" lon="10.3559167"><ele>206.0</ele><time>2026-04-18T13:32:41.015Z</time></trkpt><trkpt lat="45.5495718" lon="10.356031"><ele>206.0</ele><time>2026-04-18T13:32:42.018Z</time></trkpt><trkpt lat="45.5494628" lon="10.356141"><ele>206.0</ele><time>2026-04-18T13:32:43.018Z</time></trkpt><trkpt lat="45.5493552" lon="10.3562365"><ele>206.0</ele><time>2026-04-18T13:32:44.017Z</time></trkpt><trkpt lat="45.5492443" lon="10.3563083"><ele>206.0</ele><time>2026-04-18T13:32:45.02Z</time></trkpt><trkpt lat="45.5491325" lon="10.3563592"><ele>206.0</ele><time>2026-04-18T13:32:46.018Z</time></trkpt><trkpt lat="45.5490165" lon="10.3563882"><ele>206.0</ele><time>2026-04-18T13:32:47.017Z</time></trkpt><trkpt lat="45.5488945" lon="10.3564002"><ele>206.0</ele><time>2026-04-18T13:32:48.02Z</time></trkpt><trkpt lat="45.5487653" lon="10.3563982"><ele>206.0</ele><time>2026-04-18T13:32:49.019Z</time></trkpt><trkpt lat="45.5486255" lon="10.3563922"><ele>206.0</ele><time>2026-04-18T13:32:50.02Z</time></trkpt><trkpt lat="45.5484842" lon="10.3563975"><ele>203.5</ele><time>2026-04-18T13:32:51.02Z</time></trkpt><trkpt lat="45.5483505" lon="10.3564208"><ele>201.0</ele><time>2026-04-18T13:32:52.019Z</time></trkpt><trkpt lat="45.5482253" lon="10.3564717"><ele>198.5</ele><time>2026-04-18T13:32:53.018Z</time></trkpt><trkpt lat="45.548099" lon="10.3565508"><ele>196.0</ele><time>2026-04-18T13:32:54.019Z</time></trkpt><trkpt lat="45.5479727" lon="10.3566455"><ele>194.5</ele><time>2026-04-18T13:32:55.019Z</time></trkpt><trkpt lat="45.5478512" lon="10.3567387"><ele>193.0</ele><time>2026-04-18T13:32:56.018Z</time></trkpt><trkpt lat="45.5477398" lon="10.3568307"><ele>191.5</ele><time>2026-04-18T13:32:57.02Z</time></trkpt><trkpt lat="45.547638" lon="10.3569215"><ele>190.0</ele><time>2026-04-18T13:32:58.018Z</time></trkpt><trkpt lat="45.5475498" lon="10.3570178"><ele>190.0</ele><time>2026-04-18T13:32:59.018Z</time></trkpt><trkpt lat="45.5474702" lon="10.3571153"><ele>190.0</ele><time>2026-04-18T13:33:00.017Z</time></trkpt><trkpt lat="45.547398" lon="10.3572053"><ele>190.0</ele><time>2026-04-18T13:33:01.018Z</time></trkpt><trkpt lat="45.547337" lon="10.357267"><ele>190.0</ele><time>2026-04-18T13:33:02.016Z</time></trkpt><trkpt lat="45.5472488" lon="10.3572943"><ele>190.0</ele><time>2026-04-18T13:33:04.017Z</time></trkpt><trkpt lat="45.547198" lon="10.3572095"><ele>190.0</ele><time>2026-04-18T13:33:06.019Z</time></trkpt><trkpt lat="45.5471532" lon="10.3570412"><ele>190.0</ele><time>2026-04-18T13:33:08.031Z</time></trkpt><trkpt lat="45.5471297" lon="10.3568987"><ele>190.0</ele><time>2026-04-18T13:33:09.018Z</time></trkpt><trkpt lat="45.5470903" lon="10.356717"><ele>190.0</ele><time>2026-04-18T13:33:10.03Z</time></trkpt><trkpt lat="45.5470355" lon="10.356516"><ele>190.0</ele><time>2026-04-18T13:33:11.017Z</time></trkpt><trkpt lat="45.5469755" lon="10.3562797"><ele>191.0</ele><time>2026-04-18T13:33:12.018Z</time></trkpt><trkpt lat="45.5469067" lon="10.3560052"><ele>192.0</ele><time>2026-04-18T13:33:13.018Z</time></trkpt><trkpt lat="45.5468268" lon="10.3557357"><ele>193.0</ele><time>2026-04-18T13:33:14.019Z</time></trkpt><trkpt lat="45.5467513" lon="10.3554965"><ele>193.0</ele><time>2026-04-18T13:33:15.019Z</time></trkpt><trkpt lat="45.5466673" lon="10.3552575"><ele>193.0</ele><time>2026-04-18T13:33:16.02Z</time></trkpt><trkpt lat="45.5465742" lon="10.355004"><ele>193.0</ele><time>2026-04-18T13:33:17.018Z</time></trkpt><trkpt lat="45.5464792" lon="10.3547552"><ele>194.0</ele><time>2026-04-18T13:33:18.021Z</time></trkpt><trkpt lat="45.5463888" lon="10.354514"><ele>195.0</ele><time>2026-04-18T13:33:19.019Z</time></trkpt><trkpt lat="45.5463042" lon="10.3542737"><ele>196.0</ele><time>2026-04-18T13:33:20.019Z</time></trkpt><trkpt lat="45.5462308" lon="10.354036"><ele>195.33333333333331</ele><time>2026-04-18T13:33:21.024Z</time></trkpt><trkpt lat="45.5461532" lon="10.3538038"><ele>194.66666666666669</ele><time>2026-04-18T13:33:22.02Z</time></trkpt><trkpt lat="45.546072" lon="10.3535755"><ele>194.0</ele><time>2026-04-18T13:33:23.02Z</time></trkpt><trkpt lat="45.5459965" lon="10.3533465"><ele>194.0</ele><time>2026-04-18T13:33:24.02Z</time></trkpt><trkpt lat="45.5459295" lon="10.3531085"><ele>194.0</ele><time>2026-04-18T13:33:25.02Z</time></trkpt><trkpt lat="45.5458783" lon="10.352859"><ele>194.0</ele><time>2026-04-18T13:33:26.018Z</time></trkpt><trkpt lat="45.545843" lon="10.3525952"><ele>195.33333333333334</ele><time>2026-04-18T13:33:27.018Z</time></trkpt><trkpt lat="45.545809" lon="10.3523345"><ele>196.66666666666669</ele><time>2026-04-18T13:33:28.018Z</time></trkpt><trkpt lat="45.5457725" lon="10.3520882"><ele>198.0</ele><time>2026-04-18T13:33:29.017Z</time></trkpt><trkpt lat="45.5457453" lon="10.3518492"><ele>198.66666666666669</ele><time>2026-04-18T13:33:30.018Z</time></trkpt><trkpt lat="45.5457262" lon="10.3515922"><ele>199.33333333333334</ele><time>2026-04-18T13:33:31.021Z</time></trkpt><trkpt lat="45.5457217" lon="10.3513285"><ele>200.0</ele><time>2026-04-18T13:33:32.023Z</time></trkpt><trkpt lat="45.5457243" lon="10.3510652"><ele>201.0</ele><time>2026-04-18T13:33:33.02Z</time></trkpt><trkpt lat="45.5457212" lon="10.3508143"><ele>202.0</ele><time>2026-04-18T13:33:34.02Z</time></trkpt><trkpt lat="45.545707" lon="10.3505857"><ele>203.0</ele><time>2026-04-18T13:33:35.019Z</time></trkpt><trkpt lat="45.545691" lon="10.3503847"><ele>203.75</ele><time>2026-04-18T13:33:36.018Z</time></trkpt><trkpt lat="45.5456723" lon="10.3502095"><ele>204.5</ele><time>2026-04-18T13:33:37.019Z</time></trkpt><trkpt lat="45.5456422" lon="10.3500517"><ele>205.25</ele><time>2026-04-18T13:33:38.018Z</time></trkpt><trkpt lat="45.5455852" lon="10.3499133"><ele>206.0</ele><time>2026-04-18T13:33:39.018Z</time></trkpt><trkpt lat="45.5455012" lon="10.3497982"><ele>206.5</ele><time>2026-04-18T13:33:40.018Z</time></trkpt><trkpt lat="45.5453872" lon="10.349707"><ele>207.0</ele><time>2026-04-18T13:33:41.018Z</time></trkpt><trkpt lat="45.5452483" lon="10.3496422"><ele>207.5</ele><time>2026-04-18T13:33:42.019Z</time></trkpt><trkpt lat="45.5450892" lon="10.3495912"><ele>208.0</ele><time>2026-04-18T13:33:43.017Z</time></trkpt><trkpt lat="45.5449185" lon="10.349532"><ele>210.0</ele><time>2026-04-18T13:33:44.018Z</time></trkpt><trkpt lat="45.5447463" lon="10.3494697"><ele>212.0</ele><time>2026-04-18T13:33:45.019Z</time></trkpt><trkpt lat="45.5446025" lon="10.3493952"><ele>214.0</ele><time>2026-04-18T13:33:46.02Z</time></trkpt><trkpt lat="45.5444673" lon="10.3492935"><ele>218.0</ele><time>2026-04-18T13:33:47.02Z</time></trkpt><trkpt lat="45.5443293" lon="10.3491637"><ele>222.0</ele><time>2026-04-18T13:33:48.02Z</time></trkpt><trkpt lat="45.5441902" lon="10.3490295"><ele>226.0</ele><time>2026-04-18T13:33:49.02Z</time></trkpt><trkpt lat="45.54406" lon="10.3489077"><ele>226.33333333333331</ele><time>2026-04-18T13:33:50.019Z</time></trkpt><trkpt lat="45.5439455" lon="10.3488212"><ele>226.66666666666666</ele><time>2026-04-18T13:33:51.018Z</time></trkpt><trkpt lat="45.5438568" lon="10.3487452"><ele>227.0</ele><time>2026-04-18T13:33:52.018Z</time></trkpt><trkpt lat="45.5437997" lon="10.3486698"><ele>227.33333333333331</ele><time>2026-04-18T13:33:53.02Z</time></trkpt><trkpt lat="45.5437702" lon="10.3485888"><ele>227.66666666666666</ele><time>2026-04-18T13:33:54.019Z</time></trkpt><trkpt lat="45.5437587" lon="10.3484962"><ele>228.0</ele><time>2026-04-18T13:33:55.021Z</time></trkpt><trkpt lat="45.5437778" lon="10.3483812"><ele>228.0</ele><time>2026-04-18T13:33:56.02Z</time></trkpt><trkpt lat="45.543828" lon="10.3482633"><ele>228.0</ele><time>2026-04-18T13:33:57.018Z</time></trkpt><trkpt lat="45.543903" lon="10.3481245"><ele>228.0</ele><time>2026-04-18T13:33:58.019Z</time></trkpt><trkpt lat="45.5439822" lon="10.3479717"><ele>228.0</ele><time>2026-04-18T13:33:59.018Z</time></trkpt><trkpt lat="45.544043" lon="10.347799"><ele>232.0</ele><time>2026-04-18T13:34:00.019Z</time></trkpt><trkpt lat="45.5440892" lon="10.3476142"><ele>236.0</ele><time>2026-04-18T13:34:01.018Z</time></trkpt><trkpt lat="45.5441097" lon="10.3474448"><ele>240.0</ele><time>2026-04-18T13:34:02.022Z</time></trkpt><trkpt lat="45.5441032" lon="10.3472972"><ele>244.0</ele><time>2026-04-18T13:34:03.022Z</time></trkpt><trkpt lat="45.5440678" lon="10.3471637"><ele>245.6</ele><time>2026-04-18T13:34:04.02Z</time></trkpt><trkpt lat="45.5440043" lon="10.3470398"><ele>247.2</ele><time>2026-04-18T13:34:05.02Z</time></trkpt><trkpt lat="45.5439265" lon="10.346918"><ele>248.79999999999998</ele><time>2026-04-18T13:34:06.02Z</time></trkpt><trkpt lat="45.5438283" lon="10.346806"><ele>250.39999999999998</ele><time>2026-04-18T13:34:07.017Z</time></trkpt><trkpt lat="45.5437567" lon="10.3467052"><ele>252.0</ele><time>2026-04-18T13:34:08.019Z</time></trkpt><trkpt lat="45.5437165" lon="10.3466103"><ele>254.6</ele><time>2026-04-18T13:34:09.019Z</time></trkpt><trkpt lat="45.5437037" lon="10.3464913"><ele>257.2</ele><time>2026-04-18T13:34:10.02Z</time></trkpt><trkpt lat="45.5436887" lon="10.3463575"><ele>259.8</ele><time>2026-04-18T13:34:11.025Z</time></trkpt><trkpt lat="45.5436532" lon="10.3462265"><ele>262.4</ele><time>2026-04-18T13:34:12.021Z</time></trkpt><trkpt lat="45.5435978" lon="10.3461233"><ele>265.0</ele><time>2026-04-18T13:34:13.018Z</time></trkpt><trkpt lat="45.5435168" lon="10.3460462"><ele>265.75</ele><time>2026-04-18T13:34:14.019Z</time></trkpt><trkpt lat="45.5434058" lon="10.3459902"><ele>266.5</ele><time>2026-04-18T13:34:15.019Z</time></trkpt><trkpt lat="45.5432903" lon="10.3459433"><ele>267.25</ele><time>2026-04-18T13:34:16.018Z</time></trkpt><trkpt lat="45.5431905" lon="10.3458733"><ele>268.0</ele><time>2026-04-18T13:34:17.02Z</time></trkpt><trkpt lat="45.5430947" lon="10.3457707"><ele>268.0</ele><time>2026-04-18T13:34:18.019Z</time></trkpt><trkpt lat="45.542986" lon="10.345622"><ele>268.0</ele><time>2026-04-18T13:34:19.02Z</time></trkpt><trkpt lat="45.5428825" lon="10.345471"><ele>268.0</ele><time>2026-04-18T13:34:20.021Z</time></trkpt><trkpt lat="45.5427967" lon="10.3453415"><ele>268.0</ele><time>2026-04-18T13:34:21.024Z</time></trkpt><trkpt lat="45.5427398" lon="10.345244"><ele>272.6</ele><time>2026-04-18T13:34:22.021Z</time></trkpt><trkpt lat="45.5427102" lon="10.3451502"><ele>277.20000000000005</ele><time>2026-04-18T13:34:23.019Z</time></trkpt><trkpt lat="45.5427022" lon="10.3450505"><ele>281.8</ele><time>2026-04-18T13:34:24.022Z</time></trkpt><trkpt lat="45.5427257" lon="10.3449365"><ele>286.40000000000003</ele><time>2026-04-18T13:34:25.021Z</time></trkpt><trkpt lat="45.5427732" lon="10.3447945"><ele>291.0</ele><time>2026-04-18T13:34:26.023Z</time></trkpt><trkpt lat="45.542835" lon="10.3446232"><ele>284.6666666666667</ele><time>2026-04-18T13:34:27.021Z</time></trkpt><trkpt lat="45.5429197" lon="10.3444338"><ele>278.33333333333337</ele><time>2026-04-18T13:34:28.02Z</time></trkpt><trkpt lat="45.5430292" lon="10.3442348"><ele>272.0</ele><time>2026-04-18T13:34:29.018Z</time></trkpt><trkpt lat="45.5431515" lon="10.3440222"><ele>277.0</ele><time>2026-04-18T13:34:30.019Z</time></trkpt><trkpt lat="45.5432752" lon="10.3437918"><ele>282.0</ele><time>2026-04-18T13:34:31.019Z</time></trkpt><trkpt lat="45.543413" lon="10.3435497"><ele>287.0</ele><time>2026-04-18T13:34:32.034Z</time></trkpt><trkpt lat="45.5435468" lon="10.3433092"><ele>287.0</ele><time>2026-04-18T13:34:33.02Z</time></trkpt><trkpt lat="45.5436735" lon="10.3430885"><ele>287.0</ele><time>2026-04-18T13:34:34.02Z</time></trkpt><trkpt lat="45.5437778" lon="10.342897"><ele>287.0</ele><time>2026-04-18T13:34:35.02Z</time></trkpt><trkpt lat="45.5438562" lon="10.3427437"><ele>285.83333333333337</ele><time>2026-04-18T13:34:36.02Z</time></trkpt><trkpt lat="45.5439105" lon="10.3426263"><ele>284.6666666666667</ele><time>2026-04-18T13:34:37.02Z</time></trkpt><trkpt lat="45.5439392" lon="10.3425357"><ele>283.5</ele><time>2026-04-18T13:34:38.02Z</time></trkpt><trkpt lat="45.5439357" lon="10.34242"><ele>282.3333333333333</ele><time>2026-04-18T13:34:40.017Z</time></trkpt><trkpt lat="45.543912" lon="10.3423357"><ele>281.16666666666663</ele><time>2026-04-18T13:34:45.026Z</time></trkpt><trkpt lat="45.5439473" lon="10.3422028"><ele>280.0</ele><time>2026-04-18T13:35:03.022Z</time></trkpt><trkpt lat="45.5440443" lon="10.3421495"><ele>279.2</ele><time>2026-04-18T13:35:05.019Z</time></trkpt><trkpt lat="45.5441228" lon="10.3421355"><ele>278.4</ele><time>2026-04-18T13:35:06.018Z</time></trkpt><trkpt lat="45.5442172" lon="10.3421248"><ele>277.6</ele><time>2026-04-18T13:35:07.018Z</time></trkpt><trkpt lat="45.5443153" lon="10.3421045"><ele>276.8</ele><time>2026-04-18T13:35:08.019Z</time></trkpt><trkpt lat="45.5444142" lon="10.3420695"><ele>276.0</ele><time>2026-04-18T13:35:09.019Z</time></trkpt><trkpt lat="45.5445112" lon="10.3420188"><ele>275.6</ele><time>2026-04-18T13:35:10.019Z</time></trkpt><trkpt lat="45.5446072" lon="10.3419582"><ele>275.20000000000005</ele><time>2026-04-18T13:35:11.021Z</time></trkpt><trkpt lat="45.5446953" lon="10.341904"><ele>274.79999999999995</ele><time>2026-04-18T13:35:12.02Z</time></trkpt><trkpt lat="45.5447868" lon="10.3418472"><ele>274.4</ele><time>2026-04-18T13:35:13.022Z</time></trkpt><trkpt lat="45.5448712" lon="10.3417918"><ele>274.0</ele><time>2026-04-18T13:35:14.022Z</time></trkpt><trkpt lat="45.5449602" lon="10.3417355"><ele>274.0</ele><time>2026-04-18T13:35:15.02Z</time></trkpt><trkpt lat="45.5450358" lon="10.3416797"><ele>274.0</ele><time>2026-04-18T13:35:16.019Z</time></trkpt><trkpt lat="45.5451063" lon="10.3416098"><ele>274.0</ele><time>2026-04-18T13:35:17.019Z</time></trkpt><trkpt lat="45.5451738" lon="10.341519"><ele>274.0</ele><time>2026-04-18T13:35:18.02Z</time></trkpt><trkpt lat="45.5452392" lon="10.341413"><ele>274.0</ele><time>2026-04-18T13:35:19.018Z</time></trkpt><trkpt lat="45.545307" lon="10.341298"><ele>271.75</ele><time>2026-04-18T13:35:20.021Z</time></trkpt><trkpt lat="45.5453793" lon="10.3411732"><ele>269.5</ele><time>2026-04-18T13:35:21.019Z</time></trkpt><trkpt lat="45.5454515" lon="10.3410402"><ele>267.25</ele><time>2026-04-18T13:35:22.021Z</time></trkpt><trkpt lat="45.545526" lon="10.340899"><ele>265.0</ele><time>2026-04-18T13:35:23.021Z</time></trkpt><trkpt lat="45.5455995" lon="10.3407567"><ele>265.0</ele><time>2026-04-18T13:35:24.021Z</time></trkpt><trkpt lat="45.5456703" lon="10.3406158"><ele>265.0</ele><time>2026-04-18T13:35:25.021Z</time></trkpt><trkpt lat="45.5457388" lon="10.3404755"><ele>265.0</ele><time>2026-04-18T13:35:26.021Z</time></trkpt><trkpt lat="45.545804" lon="10.3403477"><ele>265.0</ele><time>2026-04-18T13:35:27.021Z</time></trkpt><trkpt lat="45.54586" lon="10.3402402"><ele>265.0</ele><time>2026-04-18T13:35:28.021Z</time></trkpt><trkpt lat="45.5459047" lon="10.340147"><ele>264.8</ele><time>2026-04-18T13:35:29.019Z</time></trkpt><trkpt lat="45.5459325" lon="10.3400608"><ele>264.6</ele><time>2026-04-18T13:35:30.019Z</time></trkpt><trkpt lat="45.545921" lon="10.3398887"><ele>264.4</ele><time>2026-04-18T13:35:32.017Z</time></trkpt><trkpt lat="45.5458913" lon="10.3397785"><ele>264.2</ele><time>2026-04-18T13:35:33.023Z</time></trkpt><trkpt lat="45.5458568" lon="10.3396515"><ele>264.0</ele><time>2026-04-18T13:35:34.023Z</time></trkpt><trkpt lat="45.5458248" lon="10.3395213"><ele>264.0</ele><time>2026-04-18T13:35:35.02Z</time></trkpt><trkpt lat="45.5457932" lon="10.339401"><ele>264.0</ele><time>2026-04-18T13:35:36.019Z</time></trkpt><trkpt lat="45.545766" lon="10.3392958"><ele>264.0</ele><time>2026-04-18T13:35:37.02Z</time></trkpt><trkpt lat="45.5457408" lon="10.3392012"><ele>264.0</ele><time>2026-04-18T13:35:38.02Z</time></trkpt><trkpt lat="45.5456897" lon="10.3390717"><ele>264.0</ele><time>2026-04-18T13:35:40.019Z</time></trkpt><trkpt lat="45.5456212" lon="10.3390082"><ele>264.0</ele><time>2026-04-18T13:35:42.019Z</time></trkpt><trkpt lat="45.5455267" lon="10.3388823"><ele>262.1666666666667</ele><time>2026-04-18T13:35:44.019Z</time></trkpt><trkpt lat="45.5454942" lon="10.3387712"><ele>260.3333333333333</ele><time>2026-04-18T13:35:45.018Z</time></trkpt><trkpt lat="45.5454815" lon="10.3386495"><ele>258.5</ele><time>2026-04-18T13:35:46.018Z</time></trkpt><trkpt lat="45.5454895" lon="10.338527"><ele>256.66666666666663</ele><time>2026-04-18T13:35:47.02Z</time></trkpt><trkpt lat="45.5455203" lon="10.3384085"><ele>254.83333333333331</ele><time>2026-04-18T13:35:48.019Z</time></trkpt><trkpt lat="45.54555" lon="10.3382957"><ele>253.0</ele><time>2026-04-18T13:35:49.02Z</time></trkpt><trkpt lat="45.5455577" lon="10.3381987"><ele>253.0</ele><time>2026-04-18T13:35:50.02Z</time></trkpt><trkpt lat="45.5454768" lon="10.3380658"><ele>253.0</ele><time>2026-04-18T13:35:52.026Z</time></trkpt><trkpt lat="45.5454" lon="10.3380475"><ele>253.0</ele><time>2026-04-18T13:35:53.019Z</time></trkpt><trkpt lat="45.5453153" lon="10.3380412"><ele>253.0</ele><time>2026-04-18T13:35:54.019Z</time></trkpt><trkpt lat="45.5452282" lon="10.3380067"><ele>253.0</ele><time>2026-04-18T13:35:55.018Z</time></trkpt><trkpt lat="45.545153" lon="10.3379363"><ele>248.99999999999997</ele><time>2026-04-18T13:35:56.017Z</time></trkpt><trkpt lat="45.5450928" lon="10.3378567"><ele>245.0</ele><time>2026-04-18T13:35:57.017Z</time></trkpt><trkpt lat="45.5450262" lon="10.337804"><ele>241.0</ele><time>2026-04-18T13:35:58.018Z</time></trkpt><trkpt lat="45.544959" lon="10.3377932"><ele>237.0</ele><time>2026-04-18T13:35:59.019Z</time></trkpt><trkpt lat="45.5448918" lon="10.3378337"><ele>232.99999999999997</ele><time>2026-04-18T13:36:00.02Z</time></trkpt><trkpt lat="45.5448135" lon="10.3378972"><ele>229.0</ele><time>2026-04-18T13:36:01.019Z</time></trkpt><trkpt lat="45.5447318" lon="10.3379475"><ele>228.99999999999997</ele><time>2026-04-18T13:36:02.02Z</time></trkpt><trkpt lat="45.5446488" lon="10.337967"><ele>229.0</ele><time>2026-04-18T13:36:03.019Z</time></trkpt><trkpt lat="45.5445627" lon="10.3379548"><ele>229.0</ele><time>2026-04-18T13:36:04.02Z</time></trkpt><trkpt lat="45.5444737" lon="10.3379425"><ele>229.0</ele><time>2026-04-18T13:36:05.02Z</time></trkpt><trkpt lat="45.5443903" lon="10.33795"><ele>228.99999999999997</ele><time>2026-04-18T13:36:06.025Z</time></trkpt><trkpt lat="45.5443277" lon="10.337972"><ele>229.0</ele><time>2026-04-18T13:36:07.025Z</time></trkpt><trkpt lat="45.5442655" lon="10.3380517"><ele>227.99999999999997</ele><time>2026-04-18T13:36:09.019Z</time></trkpt><trkpt lat="45.5442268" lon="10.3381282"><ele>227.0</ele><time>2026-04-18T13:36:11.022Z</time></trkpt><trkpt lat="45.5441618" lon="10.3382267"><ele>226.0</ele><time>2026-04-18T13:36:13.019Z</time></trkpt><trkpt lat="45.5441002" lon="10.338292"><ele>225.0</ele><time>2026-04-18T13:36:14.018Z</time></trkpt><trkpt lat="45.5440387" lon="10.3383695"><ele>223.99999999999997</ele><time>2026-04-18T13:36:15.02Z</time></trkpt><trkpt lat="45.5440003" lon="10.3384648"><ele>223.0</ele><time>2026-04-18T13:36:16.018Z</time></trkpt><trkpt lat="45.5439807" lon="10.3385887"><ele>223.0</ele><time>2026-04-18T13:36:17.019Z</time></trkpt><trkpt lat="45.5439592" lon="10.338735"><ele>223.0</ele><time>2026-04-18T13:36:18.017Z</time></trkpt><trkpt lat="45.5439207" lon="10.3388883"><ele>223.0</ele><time>2026-04-18T13:36:19.016Z</time></trkpt><trkpt lat="45.5438942" lon="10.339029"><ele>223.0</ele><time>2026-04-18T13:36:20.017Z</time></trkpt><trkpt lat="45.5438572" lon="10.3391425"><ele>223.0</ele><time>2026-04-18T13:36:21.016Z</time></trkpt><trkpt lat="45.5438108" lon="10.3392647"><ele>225.60000000000002</ele><time>2026-04-18T13:36:22.019Z</time></trkpt><trkpt lat="45.5437707" lon="10.339413"><ele>228.20000000000002</ele><time>2026-04-18T13:36:23.018Z</time></trkpt><trkpt lat="45.5437415" lon="10.3395605"><ele>230.8</ele><time>2026-04-18T13:36:24.016Z</time></trkpt><trkpt lat="45.5437203" lon="10.339684"><ele>233.4</ele><time>2026-04-18T13:36:25.018Z</time></trkpt><trkpt lat="45.5436898" lon="10.3397688"><ele>236.0</ele><time>2026-04-18T13:36:26.019Z</time></trkpt><trkpt lat="45.5435975" lon="10.3398525"><ele>238.25</ele><time>2026-04-18T13:36:28.017Z</time></trkpt><trkpt lat="45.5434863" lon="10.339848"><ele>240.5</ele><time>2026-04-18T13:36:30.018Z</time></trkpt><trkpt lat="45.5434108" lon="10.3397052"><ele>242.75</ele><time>2026-04-18T13:36:32.02Z</time></trkpt><trkpt lat="45.5433472" lon="10.3395927"><ele>245.0</ele><time>2026-04-18T13:36:33.018Z</time></trkpt><trkpt lat="45.543267" lon="10.3394607"><ele>247.0</ele><time>2026-04-18T13:36:34.017Z</time></trkpt><trkpt lat="45.5431853" lon="10.3393503"><ele>249.0</ele><time>2026-04-18T13:36:35.018Z</time></trkpt><trkpt lat="45.5431083" lon="10.3392808"><ele>251.0</ele><time>2026-04-18T13:36:36.019Z</time></trkpt><trkpt lat="45.543028" lon="10.3392388"><ele>253.0</ele><time>2026-04-18T13:36:37.019Z</time></trkpt><trkpt lat="45.5429518" lon="10.339205"><ele>255.0</ele><time>2026-04-18T13:36:38.018Z</time></trkpt><trkpt lat="45.542865" lon="10.3391615"><ele>255.0</ele><time>2026-04-18T13:36:39.02Z</time></trkpt><trkpt lat="45.5427525" lon="10.3391147"><ele>255.0</ele><time>2026-04-18T13:36:40.018Z</time></trkpt><trkpt lat="45.5426478" lon="10.339054"><ele>255.0</ele><time>2026-04-18T13:36:41.018Z</time></trkpt><trkpt lat="45.542565" lon="10.3389775"><ele>255.0</ele><time>2026-04-18T13:36:42.017Z</time></trkpt><trkpt lat="45.542497" lon="10.338886"><ele>255.0</ele><time>2026-04-18T13:36:43.017Z</time></trkpt><trkpt lat="45.5424207" lon="10.3387725"><ele>256.2</ele><time>2026-04-18T13:36:44.017Z</time></trkpt><trkpt lat="45.5423488" lon="10.3386765"><ele>257.4</ele><time>2026-04-18T13:36:45.018Z</time></trkpt><trkpt lat="45.5422798" lon="10.3386027"><ele>258.6</ele><time>2026-04-18T13:36:46.019Z</time></trkpt><trkpt lat="45.5422083" lon="10.3385308"><ele>259.8</ele><time>2026-04-18T13:36:47.019Z</time></trkpt><trkpt lat="45.5421112" lon="10.3384558"><ele>261.0</ele><time>2026-04-18T13:36:48.018Z</time></trkpt><trkpt lat="45.5419917" lon="10.3383872"><ele>261.0</ele><time>2026-04-18T13:36:49.016Z</time></trkpt><trkpt lat="45.5418647" lon="10.3383282"><ele>261.0</ele><time>2026-04-18T13:36:50.016Z</time></trkpt><trkpt lat="45.5417157" lon="10.3382503"><ele>261.0</ele><time>2026-04-18T13:36:51.016Z</time></trkpt><trkpt lat="45.541572" lon="10.3381923"><ele>261.0</ele><time>2026-04-18T13:36:52.018Z</time></trkpt><trkpt lat="45.5414438" lon="10.338129"><ele>260.0</ele><time>2026-04-18T13:36:53.019Z</time></trkpt><trkpt lat="45.5413277" lon="10.3380333"><ele>259.0</ele><time>2026-04-18T13:36:54.02Z</time></trkpt><trkpt lat="45.5411923" lon="10.3379145"><ele>258.0</ele><time>2026-04-18T13:36:55.018Z</time></trkpt><trkpt lat="45.5410548" lon="10.3377862"><ele>258.0</ele><time>2026-04-18T13:36:56.021Z</time></trkpt><trkpt lat="45.540939" lon="10.3376853"><ele>258.0</ele><time>2026-04-18T13:36:57.019Z</time></trkpt><trkpt lat="45.5408362" lon="10.3376047"><ele>258.0</ele><time>2026-04-18T13:36:58.017Z</time></trkpt><trkpt lat="45.5407377" lon="10.337549"><ele>258.0</ele><time>2026-04-18T13:36:59.017Z</time></trkpt><trkpt lat="45.5406353" lon="10.3375128"><ele>258.0</ele><time>2026-04-18T13:37:00.02Z</time></trkpt><trkpt lat="45.5405238" lon="10.3374823"><ele>258.0</ele><time>2026-04-18T13:37:01.019Z</time></trkpt><trkpt lat="45.540412" lon="10.3374575"><ele>258.0</ele><time>2026-04-18T13:37:02.018Z</time></trkpt><trkpt lat="45.5403032" lon="10.3374285"><ele>258.0</ele><time>2026-04-18T13:37:03.02Z</time></trkpt><trkpt lat="45.5401845" lon="10.3374013"><ele>255.0</ele><time>2026-04-18T13:37:04.019Z</time></trkpt><trkpt lat="45.5400522" lon="10.3373542"><ele>252.0</ele><time>2026-04-18T13:37:05.019Z</time></trkpt><trkpt lat="45.5399282" lon="10.3372892"><ele>249.0</ele><time>2026-04-18T13:37:06.019Z</time></trkpt><trkpt lat="45.5398308" lon="10.3372222"><ele>246.0</ele><time>2026-04-18T13:37:07.016Z</time></trkpt><trkpt lat="45.5397327" lon="10.3371362"><ele>246.0</ele><time>2026-04-18T13:37:08.017Z</time></trkpt><trkpt lat="45.5396278" lon="10.3370305"><ele>246.0</ele><time>2026-04-18T13:37:09.018Z</time></trkpt><trkpt lat="45.5395055" lon="10.3369212"><ele>246.0</ele><time>2026-04-18T13:37:10.016Z</time></trkpt><trkpt lat="45.53937" lon="10.3368062"><ele>246.0</ele><time>2026-04-18T13:37:11.018Z</time></trkpt><trkpt lat="45.5392518" lon="10.3367008"><ele>245.5</ele><time>2026-04-18T13:37:12.018Z</time></trkpt><trkpt lat="45.539158" lon="10.3366117"><ele>245.0</ele><time>2026-04-18T13:37:13.02Z</time></trkpt><trkpt lat="45.539054" lon="10.3365403"><ele>244.5</ele><time>2026-04-18T13:37:14.018Z</time></trkpt><trkpt lat="45.538935" lon="10.3364608"><ele>244.0</ele><time>2026-04-18T13:37:15.022Z</time></trkpt><trkpt lat="45.5388035" lon="10.3363665"><ele>249.6</ele><time>2026-04-18T13:37:16.018Z</time></trkpt><trkpt lat="45.5386967" lon="10.3362905"><ele>255.2</ele><time>2026-04-18T13:37:17.018Z</time></trkpt><trkpt lat="45.5386038" lon="10.3362445"><ele>260.79999999999995</ele><time>2026-04-18T13:37:18.019Z</time></trkpt><trkpt lat="45.5385032" lon="10.3362003"><ele>266.4</ele><time>2026-04-18T13:37:19.022Z</time></trkpt><trkpt lat="45.5384038" lon="10.3361492"><ele>272.0</ele><time>2026-04-18T13:37:20.019Z</time></trkpt><trkpt lat="45.5382973" lon="10.336089"><ele>272.0</ele><time>2026-04-18T13:37:21.02Z</time></trkpt><trkpt lat="45.5381895" lon="10.336033"><ele>272.0</ele><time>2026-04-18T13:37:22.02Z</time></trkpt><trkpt lat="45.5380888" lon="10.335981"><ele>272.0</ele><time>2026-04-18T13:37:23.019Z</time></trkpt><trkpt lat="45.537994" lon="10.3359203"><ele>272.0</ele><time>2026-04-18T13:37:24.02Z</time></trkpt><trkpt lat="45.5378932" lon="10.3358557"><ele>272.0</ele><time>2026-04-18T13:37:25.035Z</time></trkpt><trkpt lat="45.5377807" lon="10.3357858"><ele>272.5</ele><time>2026-04-18T13:37:26.019Z</time></trkpt><trkpt lat="45.5376685" lon="10.3357232"><ele>273.0</ele><time>2026-04-18T13:37:27.02Z</time></trkpt><trkpt lat="45.537545" lon="10.335664"><ele>273.5</ele><time>2026-04-18T13:37:28.034Z</time></trkpt><trkpt lat="45.5374138" lon="10.3356067"><ele>274.0</ele><time>2026-04-18T13:37:29.02Z</time></trkpt><trkpt lat="45.5372968" lon="10.3355502"><ele>274.0</ele><time>2026-04-18T13:37:30.019Z</time></trkpt><trkpt lat="45.5371982" lon="10.3354885"><ele>274.0</ele><time>2026-04-18T13:37:31.018Z</time></trkpt><trkpt lat="45.5371193" lon="10.335403"><ele>274.0</ele><time>2026-04-18T13:37:32.018Z</time></trkpt><trkpt lat="45.5370273" lon="10.3353123"><ele>274.0</ele><time>2026-04-18T13:37:33.019Z</time></trkpt><trkpt lat="45.5369208" lon="10.3352083"><ele>274.0</ele><time>2026-04-18T13:37:34.019Z</time></trkpt><trkpt lat="45.5368222" lon="10.3351383"><ele>278.8</ele><time>2026-04-18T13:37:35.018Z</time></trkpt><trkpt lat="45.536739" lon="10.3350992"><ele>283.59999999999997</ele><time>2026-04-18T13:37:36.034Z</time></trkpt><trkpt lat="45.5366418" lon="10.3350713"><ele>288.4</ele><time>2026-04-18T13:37:37.018Z</time></trkpt><trkpt lat="45.5365523" lon="10.335044"><ele>293.2</ele><time>2026-04-18T13:37:38.019Z</time></trkpt><trkpt lat="45.5364743" lon="10.3350263"><ele>298.0</ele><time>2026-04-18T13:37:39.02Z</time></trkpt><trkpt lat="45.5363738" lon="10.3350842"><ele>298.0</ele><time>2026-04-18T13:37:41.02Z</time></trkpt><trkpt lat="45.5363427" lon="10.3351782"><ele>298.0</ele><time>2026-04-18T13:37:42.019Z</time></trkpt><trkpt lat="45.5363017" lon="10.3352853"><ele>298.0</ele><time>2026-04-18T13:37:43.02Z</time></trkpt><trkpt lat="45.5362478" lon="10.3354047"><ele>298.0</ele><time>2026-04-18T13:37:44.02Z</time></trkpt><trkpt lat="45.5361975" lon="10.3355052"><ele>298.0</ele><time>2026-04-18T13:37:45.02Z</time></trkpt><trkpt lat="45.536166" lon="10.335589"><ele>298.0</ele><time>2026-04-18T13:37:46.021Z</time></trkpt><trkpt lat="45.536134" lon="10.335673"><ele>300.16666666666663</ele><time>2026-04-18T13:37:48.02Z</time></trkpt><trkpt lat="45.5360345" lon="10.3356737"><ele>302.3333333333333</ele><time>2026-04-18T13:38:35.021Z</time></trkpt><trkpt lat="45.5360068" lon="10.3357685"><ele>304.5</ele><time>2026-04-18T13:38:37.022Z</time></trkpt><trkpt lat="45.5359613" lon="10.3358343"><ele>306.6666666666667</ele><time>2026-04-18T13:38:38.02Z</time></trkpt><trkpt lat="45.5359013" lon="10.3359013"><ele>308.83333333333337</ele><time>2026-04-18T13:38:39.02Z</time></trkpt><trkpt lat="45.5358347" lon="10.335939"><ele>311.0</ele><time>2026-04-18T13:38:40.021Z</time></trkpt><trkpt lat="45.5357538" lon="10.3359543"><ele>311.0</ele><time>2026-04-18T13:38:41.035Z</time></trkpt><trkpt lat="45.5356578" lon="10.3359645"><ele>311.0</ele><time>2026-04-18T13:38:42.02Z</time></trkpt><trkpt lat="45.5355518" lon="10.3359733"><ele>311.0</ele><time>2026-04-18T13:38:43.019Z</time></trkpt><trkpt lat="45.5354397" lon="10.33599"><ele>311.0</ele><time>2026-04-18T13:38:44.02Z</time></trkpt><trkpt lat="45.535312" lon="10.3360013"><ele>311.0</ele><time>2026-04-18T13:38:45.018Z</time></trkpt><trkpt lat="45.5351735" lon="10.3360132"><ele>310.0</ele><time>2026-04-18T13:38:46.023Z</time></trkpt><trkpt lat="45.5350483" lon="10.3360255"><ele>309.0</ele><time>2026-04-18T13:38:47.018Z</time></trkpt><trkpt lat="45.5349258" lon="10.3360548"><ele>308.0</ele><time>2026-04-18T13:38:48.017Z</time></trkpt><trkpt lat="45.5348087" lon="10.3360667"><ele>307.0</ele><time>2026-04-18T13:38:49.018Z</time></trkpt><trkpt lat="45.534682" lon="10.3360733"><ele>306.25</ele><time>2026-04-18T13:38:50.017Z</time></trkpt><trkpt lat="45.5345447" lon="10.3360887"><ele>305.5</ele><time>2026-04-18T13:38:51.018Z</time></trkpt><trkpt lat="45.5344102" lon="10.3361023"><ele>304.75</ele><time>2026-04-18T13:38:52.019Z</time></trkpt><trkpt lat="45.5342823" lon="10.3361212"><ele>304.0</ele><time>2026-04-18T13:38:53.017Z</time></trkpt><trkpt lat="45.534158" lon="10.3361357"><ele>304.0</ele><time>2026-04-18T13:38:54.017Z</time></trkpt><trkpt lat="45.5340333" lon="10.3361498"><ele>304.0</ele><time>2026-04-18T13:38:55.017Z</time></trkpt><trkpt lat="45.5339187" lon="10.3361762"><ele>304.0</ele><time>2026-04-18T13:38:56.018Z</time></trkpt><trkpt lat="45.533808" lon="10.3361942"><ele>304.0</ele><time>2026-04-18T13:38:57.017Z</time></trkpt><trkpt lat="45.5337013" lon="10.3361952"><ele>304.8333333333333</ele><time>2026-04-18T13:38:58.016Z</time></trkpt><trkpt lat="45.5336037" lon="10.336185"><ele>305.66666666666663</ele><time>2026-04-18T13:38:59.017Z</time></trkpt><trkpt lat="45.5335168" lon="10.3361775"><ele>306.5</ele><time>2026-04-18T13:39:00.019Z</time></trkpt><trkpt lat="45.5334403" lon="10.3361675"><ele>307.3333333333333</ele><time>2026-04-18T13:39:01.017Z</time></trkpt><trkpt lat="45.5333388" lon="10.336154"><ele>308.1666666666667</ele><time>2026-04-18T13:39:03.018Z</time></trkpt><trkpt lat="45.5332692" lon="10.3361447"><ele>309.0</ele><time>2026-04-18T13:39:06.017Z</time></trkpt><trkpt lat="45.5331757" lon="10.3361955"><ele>309.0</ele><time>2026-04-18T13:39:09.016Z</time></trkpt><trkpt lat="45.5331055" lon="10.3362233"><ele>309.0</ele><time>2026-04-18T13:39:10.015Z</time></trkpt><trkpt lat="45.533033" lon="10.3362678"><ele>309.0</ele><time>2026-04-18T13:39:11.015Z</time></trkpt><trkpt lat="45.5329455" lon="10.3363202"><ele>309.0</ele><time>2026-04-18T13:39:12.016Z</time></trkpt><trkpt lat="45.5328433" lon="10.3363798"><ele>309.0</ele><time>2026-04-18T13:39:13.017Z</time></trkpt><trkpt lat="45.5327228" lon="10.3364318"><ele>307.0</ele><time>2026-04-18T13:39:14.016Z</time></trkpt><trkpt lat="45.5325873" lon="10.3364652"><ele>305.0</ele><time>2026-04-18T13:39:15.017Z</time></trkpt><trkpt lat="45.5324348" lon="10.336493"><ele>303.0</ele><time>2026-04-18T13:39:16.016Z</time></trkpt><trkpt lat="45.532288" lon="10.3364957"><ele>301.0</ele><time>2026-04-18T13:39:17.017Z</time></trkpt><trkpt lat="45.5321325" lon="10.3365003"><ele>300.66666666666663</ele><time>2026-04-18T13:39:18.018Z</time></trkpt><trkpt lat="45.5319743" lon="10.336511"><ele>300.3333333333333</ele><time>2026-04-18T13:39:19.017Z</time></trkpt><trkpt lat="45.5318248" lon="10.3365195"><ele>300.0</ele><time>2026-04-18T13:39:20.016Z</time></trkpt><trkpt lat="45.5316773" lon="10.3365192"><ele>300.0</ele><time>2026-04-18T13:39:21.018Z</time></trkpt><trkpt lat="45.5315243" lon="10.3365155"><ele>300.0</ele><time>2026-04-18T13:39:22.016Z</time></trkpt><trkpt lat="45.531387" lon="10.336518"><ele>300.0</ele><time>2026-04-18T13:39:23.015Z</time></trkpt><trkpt lat="45.5312583" lon="10.3365415"><ele>300.0</ele><time>2026-04-18T13:39:24.015Z</time></trkpt><trkpt lat="45.5311295" lon="10.3365747"><ele>299.0</ele><time>2026-04-18T13:39:25.018Z</time></trkpt><trkpt lat="45.5310022" lon="10.336645"><ele>298.0</ele><time>2026-04-18T13:39:26.016Z</time></trkpt><trkpt lat="45.530877" lon="10.3367008"><ele>297.0</ele><time>2026-04-18T13:39:27.015Z</time></trkpt><trkpt lat="45.5307543" lon="10.3367527"><ele>296.0</ele><time>2026-04-18T13:39:28.013Z</time></trkpt><trkpt lat="45.5306385" lon="10.3367928"><ele>296.0</ele><time>2026-04-18T13:39:29.017Z</time></trkpt><trkpt lat="45.5305108" lon="10.3368053"><ele>296.0</ele><time>2026-04-18T13:39:30.016Z</time></trkpt><trkpt lat="45.5303838" lon="10.3368017"><ele>296.0</ele><time>2026-04-18T13:39:31.016Z</time></trkpt><trkpt lat="45.5302378" lon="10.3367795"><ele>296.0</ele><time>2026-04-18T13:39:32.013Z</time></trkpt><trkpt lat="45.5300875" lon="10.3367575"><ele>294.33333333333337</ele><time>2026-04-18T13:39:33.016Z</time></trkpt><trkpt lat="45.5299212" lon="10.3367372"><ele>292.6666666666667</ele><time>2026-04-18T13:39:34.016Z</time></trkpt><trkpt lat="45.5297605" lon="10.3367075"><ele>291.0</ele><time>2026-04-18T13:39:35.015Z</time></trkpt><trkpt lat="45.5296048" lon="10.3366818"><ele>288.75</ele><time>2026-04-18T13:39:36.015Z</time></trkpt><trkpt lat="45.5294718" lon="10.3366527"><ele>286.5</ele><time>2026-04-18T13:39:37.016Z</time></trkpt><trkpt lat="45.5293387" lon="10.336638"><ele>284.25</ele><time>2026-04-18T13:39:38.025Z</time></trkpt><trkpt lat="45.5291935" lon="10.3366357"><ele>282.0</ele><time>2026-04-18T13:39:39.015Z</time></trkpt><trkpt lat="45.529041" lon="10.3366112"><ele>282.0</ele><time>2026-04-18T13:39:40.014Z</time></trkpt><trkpt lat="45.5288862" lon="10.3365692"><ele>282.0</ele><time>2026-04-18T13:39:41.013Z</time></trkpt><trkpt lat="45.5287343" lon="10.3365173"><ele>282.0</ele><time>2026-04-18T13:39:42.014Z</time></trkpt><trkpt lat="45.528574" lon="10.3364437"><ele>281.6666666666667</ele><time>2026-04-18T13:39:43.012Z</time></trkpt><trkpt lat="45.5284163" lon="10.3363727"><ele>281.33333333333337</ele><time>2026-04-18T13:39:44.014Z</time></trkpt><trkpt lat="45.528257" lon="10.3362992"><ele>281.0</ele><time>2026-04-18T13:39:45.015Z</time></trkpt><trkpt lat="45.5280897" lon="10.336266"><ele>281.0</ele><time>2026-04-18T13:39:46.015Z</time></trkpt><trkpt lat="45.527929" lon="10.3362242"><ele>281.0</ele><time>2026-04-18T13:39:47.014Z</time></trkpt><trkpt lat="45.5277818" lon="10.3361737"><ele>281.0</ele><time>2026-04-18T13:39:48.014Z</time></trkpt><trkpt lat="45.5276308" lon="10.3361163"><ele>275.6666666666667</ele><time>2026-04-18T13:39:49.014Z</time></trkpt><trkpt lat="45.5274858" lon="10.3360377"><ele>270.3333333333333</ele><time>2026-04-18T13:39:50.015Z</time></trkpt><trkpt lat="45.527338" lon="10.3359383"><ele>265.0</ele><time>2026-04-18T13:39:51.014Z</time></trkpt><trkpt lat="45.527208" lon="10.3358682"><ele>261.66666666666663</ele><time>2026-04-18T13:39:52.015Z</time></trkpt><trkpt lat="45.5270593" lon="10.3358102"><ele>258.3333333333333</ele><time>2026-04-18T13:39:53.015Z</time></trkpt><trkpt lat="45.5268933" lon="10.3357605"><ele>255.0</ele><time>2026-04-18T13:39:54.013Z</time></trkpt><trkpt lat="45.5267398" lon="10.3357138"><ele>255.0</ele><time>2026-04-18T13:39:55.017Z</time></trkpt><trkpt lat="45.5265903" lon="10.3356795"><ele>255.0</ele><time>2026-04-18T13:39:56.016Z</time></trkpt><trkpt lat="45.5264342" lon="10.3356593"><ele>255.0</ele><time>2026-04-18T13:39:57.017Z</time></trkpt><trkpt lat="45.5262803" lon="10.3356463"><ele>252.66666666666669</ele><time>2026-04-18T13:39:58.015Z</time></trkpt><trkpt lat="45.5261117" lon="10.335636"><ele>250.33333333333334</ele><time>2026-04-18T13:39:59.013Z</time></trkpt><trkpt lat="45.5259555" lon="10.3356253"><ele>248.0</ele><time>2026-04-18T13:40:00.014Z</time></trkpt><trkpt lat="45.5258022" lon="10.3356122"><ele>248.0</ele><time>2026-04-18T13:40:01.014Z</time></trkpt><trkpt lat="45.5256355" lon="10.3356083"><ele>248.0</ele><time>2026-04-18T13:40:02.016Z</time></trkpt><trkpt lat="45.525469" lon="10.3355897"><ele>248.0</ele><time>2026-04-18T13:40:03.017Z</time></trkpt><trkpt lat="45.5252972" lon="10.335552"><ele>247.0</ele><time>2026-04-18T13:40:04.016Z</time></trkpt><trkpt lat="45.5251263" lon="10.3355075"><ele>246.0</ele><time>2026-04-18T13:40:05.015Z</time></trkpt><trkpt lat="45.5249662" lon="10.335454"><ele>245.0</ele><time>2026-04-18T13:40:06.017Z</time></trkpt><trkpt lat="45.5248212" lon="10.3354125"><ele>245.0</ele><time>2026-04-18T13:40:07.017Z</time></trkpt><trkpt lat="45.5246707" lon="10.3354013"><ele>245.0</ele><time>2026-04-18T13:40:08.015Z</time></trkpt><trkpt lat="45.5245118" lon="10.3354137"><ele>245.0</ele><time>2026-04-18T13:40:09.015Z</time></trkpt><trkpt lat="45.5243565" lon="10.3354385"><ele>242.0</ele><time>2026-04-18T13:40:10.015Z</time></trkpt><trkpt lat="45.5242118" lon="10.3354553"><ele>239.0</ele><time>2026-04-18T13:40:11.015Z</time></trkpt><trkpt lat="45.5240802" lon="10.3354763"><ele>236.0</ele><time>2026-04-18T13:40:12.014Z</time></trkpt><trkpt lat="45.5239388" lon="10.3354965"><ele>233.0</ele><time>2026-04-18T13:40:13.015Z</time></trkpt><trkpt lat="45.5238155" lon="10.3355157"><ele>229.8</ele><time>2026-04-18T13:40:14.015Z</time></trkpt><trkpt lat="45.5237132" lon="10.3355245"><ele>226.60000000000002</ele><time>2026-04-18T13:40:15.016Z</time></trkpt><trkpt lat="45.5236295" lon="10.3355258"><ele>223.39999999999998</ele><time>2026-04-18T13:40:16.016Z</time></trkpt><trkpt lat="45.5235445" lon="10.3355182"><ele>220.2</ele><time>2026-04-18T13:40:17.014Z</time></trkpt><trkpt lat="45.523446" lon="10.3354747"><ele>217.0</ele><time>2026-04-18T13:40:18.014Z</time></trkpt><trkpt lat="45.5233277" lon="10.335435"><ele>217.0</ele><time>2026-04-18T13:40:19.014Z</time></trkpt><trkpt lat="45.5231845" lon="10.335407"><ele>217.0</ele><time>2026-04-18T13:40:20.015Z</time></trkpt><trkpt lat="45.5230408" lon="10.3353723"><ele>217.0</ele><time>2026-04-18T13:40:21.014Z</time></trkpt><trkpt lat="45.5228982" lon="10.335313"><ele>217.0</ele><time>2026-04-18T13:40:22.016Z</time></trkpt><trkpt lat="45.5227627" lon="10.3352555"><ele>211.75</ele><time>2026-04-18T13:40:23.013Z</time></trkpt><trkpt lat="45.5226313" lon="10.335227"><ele>206.5</ele><time>2026-04-18T13:40:24.013Z</time></trkpt><trkpt lat="45.5224945" lon="10.335214"><ele>201.25</ele><time>2026-04-18T13:40:25.014Z</time></trkpt><trkpt lat="45.522357" lon="10.3352055"><ele>196.0</ele><time>2026-04-18T13:40:26.013Z</time></trkpt><trkpt lat="45.5222217" lon="10.3351825"><ele>196.0</ele><time>2026-04-18T13:40:27.016Z</time></trkpt><trkpt lat="45.5220857" lon="10.3351345"><ele>196.0</ele><time>2026-04-18T13:40:28.016Z</time></trkpt><trkpt lat="45.5219547" lon="10.3350693"><ele>196.0</ele><time>2026-04-18T13:40:29.015Z</time></trkpt><trkpt lat="45.5218313" lon="10.3350023"><ele>196.0</ele><time>2026-04-18T13:40:30.015Z</time></trkpt><trkpt lat="45.5217112" lon="10.3349392"><ele>199.0</ele><time>2026-04-18T13:40:31.017Z</time></trkpt><trkpt lat="45.5215937" lon="10.3348763"><ele>202.0</ele><time>2026-04-18T13:40:32.015Z</time></trkpt><trkpt lat="45.52148" lon="10.3348128"><ele>205.0</ele><time>2026-04-18T13:40:33.018Z</time></trkpt><trkpt lat="45.5213692" lon="10.3347453"><ele>208.0</ele><time>2026-04-18T13:40:34.016Z</time></trkpt><trkpt lat="45.5212607" lon="10.3346735"><ele>200.25</ele><time>2026-04-18T13:40:35.015Z</time></trkpt><trkpt lat="45.5211547" lon="10.3345985"><ele>192.5</ele><time>2026-04-18T13:40:36.014Z</time></trkpt><trkpt lat="45.521053" lon="10.3345177"><ele>184.75</ele><time>2026-04-18T13:40:37.015Z</time></trkpt><trkpt lat="45.5209587" lon="10.3344335"><ele>177.0</ele><time>2026-04-18T13:40:38.015Z</time></trkpt><trkpt lat="45.5208585" lon="10.3343592"><ele>177.0</ele><time>2026-04-18T13:40:39.015Z</time></trkpt><trkpt lat="45.520749" lon="10.3342962"><ele>177.0</ele><time>2026-04-18T13:40:40.015Z</time></trkpt><trkpt lat="45.5206258" lon="10.3342458"><ele>177.0</ele><time>2026-04-18T13:40:41.015Z</time></trkpt><trkpt lat="45.5205053" lon="10.3342067"><ele>177.0</ele><time>2026-04-18T13:40:42.017Z</time></trkpt><trkpt lat="45.520383" lon="10.3341807"><ele>165.0</ele><time>2026-04-18T13:40:43.017Z</time></trkpt><trkpt lat="45.5202657" lon="10.3341665"><ele>165.0</ele><time>2026-04-18T13:40:44.018Z</time></trkpt><trkpt lat="45.5201605" lon="10.3341682"><ele>165.0</ele><time>2026-04-18T13:40:45.018Z</time></trkpt><trkpt lat="45.5200768" lon="10.3341867"><ele>165.0</ele><time>2026-04-18T13:40:46.019Z</time></trkpt><trkpt lat="45.519987" lon="10.3342473"><ele>165.0</ele><time>2026-04-18T13:40:48.016Z</time></trkpt></trkseg></trk></gpx>